<
# Wetter Temperatur Luftdruck Luftfeuchtigkeit Sichtweite Windgeschwindigkeit Windrichtung Zeit
1 Clear 13 1015 76 10000 2.6 250 07:56 14.07.2020
2 Clear 13 1014 81 10000 2.6 260 07:37 14.07.2020
3 Clear 12 1014 81 10000 2.6 260 07:18 14.07.2020
4 Clear 10 1014 87 10000 2.6 280 06:36 14.07.2020
5 Clear 10 1014 87 10000 2.6 280 06:18 14.07.2020
6 Clear 9 1014 100 10000 3.1 280 05:22 14.07.2020
7 Clear 9 1014 93 10000 2.6 290 04:35 14.07.2020
8 Clear 9 1014 93 10000 3.1 290 03:34 14.07.2020
9 Fog 10 1014 100 10000 3.1 270 02:41 14.07.2020
10 Fog 10 1014 100 10000 1.5 260 01:58 14.07.2020
11 Clouds 10 1013 93 10000 1.5 250 01:24 14.07.2020
12 Rain 10 1013 93 10000 1.5 240 00:48 14.07.2020
13 Rain 11 1013 100 10000 4.1 150 00:28 14.07.2020
14 Rain 12 1013 93 10000 2.1 160 23:57 13.07.2020
15 Rain 11 1014 100 5000 1.5 200 23:36 13.07.2020
16 Rain 11 1014 100 5000 1.5 200 23:18 13.07.2020
17 Rain 13 1013 93 10000 2.1 150 22:40 13.07.2020
18 Rain 13 1014 93 10000 1.5 20 22:21 13.07.2020
19 Thunderstorm 13 1013 100 10000 0.5 0 21:56 13.07.2020
20 Thunderstorm 13 1013 100 10000 0.5 0 21:38 13.07.2020
21 Rain 14 1013 93 10000 1 40 21:19 13.07.2020
22 Rain 14 1013 93 10000 1 0 20:57 13.07.2020
23 Rain 14 1013 93 10000 1 0 20:38 13.07.2020
24 Clouds 14 1014 87 10000 1 0 20:19 13.07.2020
25 Clouds 14 1014 87 10000 1 0 20:19 13.07.2020
26 Clouds 15 1014 76 10000 2.6 350 19:43 13.07.2020
27 Clouds 16 1014 77 10000 2.6 350 19:25 13.07.2020
28 Rain 16 1014 82 10000 3.6 340 18:59 13.07.2020
29 Rain 16 1014 82 10000 3.6 340 18:40 13.07.2020
30 Rain 16 1014 87 10000 2.6 330 18:21 13.07.2020
31 Rain 16 1014 82 10000 4.1 240 17:56 13.07.2020
32 Rain 16 1014 82 10000 4.1 240 17:56 13.07.2020
33 Rain 16 1014 76 10000 5.7 220 17:37 13.07.2020
34 Rain 16 1014 76 10000 5.7 220 17:19 13.07.2020
35 Rain 16 1013 77 10000 4.6 210 16:55 13.07.2020
36 Rain 15 1013 77 10000 4.6 210 16:36 13.07.2020
37 Rain 16 1014 67 10000 3.6 180 16:18 13.07.2020
38 Rain 17 1014 67 10000 5.1 210 15:41 13.07.2020
39 Rain 18 1014 59 10000 4.1 220 15:21 13.07.2020
40 Rain 18 1014 59 10000 3.1 200 14:59 13.07.2020
41 Rain 18 1014 59 10000 3.1 200 14:39 13.07.2020
42 Rain 18 1014 63 10000 3.1 180 14:21 13.07.2020
43 Rain 17 1014 67 10000 3.6 180 13:56 13.07.2020
44 Rain 16 1014 72 10000 2.6 160 13:38 13.07.2020
45 Rain 16 1014 72 10000 2.6 160 13:20 13.07.2020
46 Rain 15 1015 82 10000 2.1 240 12:43 13.07.2020
47 Rain 15 1015 82 10000 2.1 240 12:23 13.07.2020
48 Rain 15 1014 75 0 1.34 278 11:58 13.07.2020
49 Rain 14 1015 81 10000 3.6 260 11:38 13.07.2020
50 Rain 15 1014 72 10000 5.7 310 11:19 13.07.2020
51 Rain 16 1015 63 10000 3.6 270 10:38 13.07.2020
52 Rain 16 1015 67 10000 2.1 220 10:20 13.07.2020
53 Thunderstorm 16 1015 72 10000 1 0 09:43 13.07.2020
54 Clouds 15 1015 87 10000 1.5 220 09:25 13.07.2020
55 Clouds 14 1015 87 10000 1 0 08:53 13.07.2020
56 Clouds 14 1015 87 10000 1 0 08:34 13.07.2020
57 Mist 13 1015 93 5000 0.5 0 07:44 13.07.2020
58 Fog 13 1015 100 1200 1.5 350 07:20 13.07.2020
59 Mist 12 1015 100 1000 1 0 06:44 13.07.2020
60 Fog 12 1015 100 500 2.1 300 06:22 13.07.2020
61 Clouds 11 1015 93 10000 1 250 04:43 13.07.2020
62 Clouds 11 1015 100 10000 1.5 220 01:57 13.07.2020
63 Clear 11 1015 93 10000 1.5 230 01:29 13.07.2020
64 Clear 12 1015 93 10000 1.5 220 00:59 13.07.2020
65 Clear 13 1015 87 10000 2.1 220 00:27 13.07.2020
66 Clouds 13 1015 93 10000 3.1 210 23:58 12.07.2020
67 Clouds 13 1015 93 10000 3.1 210 23:40 12.07.2020
68 Clouds 13 1015 87 10000 3.1 200 23:21 12.07.2020
69 Clouds 14 1015 82 10000 4.1 210 22:54 12.07.2020
70 Clouds 14 1015 82 10000 3.1 220 22:36 12.07.2020
71 Clouds 15 1015 82 10000 3.1 220 22:18 12.07.2020
72 Clouds 15 1015 82 10000 3.1 220 21:41 12.07.2020
73 Clouds 16 1015 72 10000 4.1 230 21:20 12.07.2020
74 Clouds 16 1015 55 10000 4.1 240 20:58 12.07.2020
75 Clouds 16 1015 55 10000 4.1 240 20:40 12.07.2020
76 Clouds 17 1015 59 10000 4.6 230 20:20 12.07.2020
77 Clouds 17 1015 63 10000 5.1 210 19:55 12.07.2020
78 Clouds 18 1014 59 10000 5.1 220 19:37 12.07.2020
79 Clouds 18 1014 59 10000 5.1 220 19:18 12.07.2020
80 Clouds 17 1014 55 10000 4.6 210 18:42 12.07.2020
81 Clouds 19 1015 52 10000 5.1 220 18:20 12.07.2020
82 Clouds 18 1014 48 10000 6.7 200 17:58 12.07.2020
83 Clouds 18 1014 48 10000 6.7 200 17:37 12.07.2020
84 Clouds 18 1015 48 10000 6.2 200 17:19 12.07.2020
85 Clouds 19 1015 42 10000 6.2 210 16:44 12.07.2020
86 Clouds 19 1015 49 10000 6.7 220 16:20 12.07.2020
87 Clouds 19 1015 55 10000 6.7 230 15:43 12.07.2020
88 Clouds 19 1015 55 10000 6.7 230 15:25 12.07.2020
89 Clouds 19 1015 49 10000 7.2 200 14:46 12.07.2020
90 Clouds 19 1015 49 10000 6.7 200 14:27 12.07.2020
91 Clouds 19 1015 45 10000 7.2 200 13:57 12.07.2020
92 Clouds 19 1015 45 10000 7.2 200 13:39 12.07.2020
93 Rain 19 1015 60 10000 6.7 180 13:20 12.07.2020
94 Rain 18 1015 59 10000 6.7 180 12:54 12.07.2020
95 Rain 18 1015 59 10000 6.7 180 12:54 12.07.2020
96 Rain 18 1015 68 10000 4.6 200 12:36 12.07.2020
97 Rain 18 1015 68 10000 4.6 200 12:18 12.07.2020
98 Rain 18 1015 59 10000 3.6 180 11:42 12.07.2020
99 Clouds 17 1015 55 10000 4.1 180 11:19 12.07.2020
100 Clouds 16 1015 52 10000 2.6 200 10:42 12.07.2020
101 Clouds 16 1015 52 10000 2.6 200 10:42 12.07.2020
102 Clouds 17 1015 48 10000 2.6 220 10:22 12.07.2020
103 Clouds 16 1015 55 10000 3.1 210 09:54 12.07.2020
104 Clouds 16 1015 63 10000 2.6 220 09:36 12.07.2020
105 Clouds 16 1015 63 10000 2.6 220 09:18 12.07.2020
106 Clouds 16 1015 63 10000 2.1 210 08:41 12.07.2020
107 Clear 15 1015 72 10000 2.6 230 08:22 12.07.2020
108 Clear 15 1015 72 10000 1.5 0 07:56 12.07.2020
109 Clear 14 1015 87 10000 1.5 230 07:36 12.07.2020
110 Clear 13 1015 87 10000 1.5 230 07:18 12.07.2020
111 Clear 12 1015 93 10000 1 0 06:48 12.07.2020
112 Clear 11 1014 93 10000 1.5 220 06:19 12.07.2020
113 Fog 9 1014 93 7000 2.32 284 05:22 12.07.2020
114 Fog 9 1014 100 10000 1 0 04:29 12.07.2020
115 Fog 9 1014 100 10000 1.5 240 03:53 12.07.2020
116 Fog 9 1014 100 10000 1.5 240 03:31 12.07.2020
117 Fog 9 1014 100 10000 0.5 0 03:31 12.07.2020
118 Clouds 9 1014 100 10000 1.5 220 02:45 12.07.2020
119 Fog 10 1013 100 10000 1.5 230 01:36 12.07.2020
120 Clouds 11 1013 100 10000 2.1 240 00:41 12.07.2020
121 Clouds 12 1013 93 10000 2.1 240 00:22 12.07.2020
122 Clouds 12 1012 93 10000 2.1 250 23:55 11.07.2020
123 Clouds 12 1012 93 10000 2.6 230 23:37 11.07.2020
124 Clouds 12 1012 93 10000 2.6 230 23:18 11.07.2020
125 Clouds 13 1012 87 10000 2.6 240 22:44 11.07.2020
126 Clouds 13 1012 87 10000 3.1 250 22:25 11.07.2020
127 Clouds 13 1012 82 10000 4.1 240 21:57 11.07.2020
128 Clouds 13 1012 82 10000 4.1 240 21:38 11.07.2020
129 Clouds 13 1011 82 10000 4.1 260 21:20 11.07.2020
130 Clouds 14 1011 76 10000 4.6 260 20:55 11.07.2020
131 Clouds 14 1011 76 10000 4.6 260 20:37 11.07.2020
132 Clouds 14 1010 76 10000 6.2 270 20:18 11.07.2020
133 Clouds 15 1010 77 10000 5.7 260 19:48 11.07.2020
134 Clouds 15 1009 77 10000 5.7 270 19:30 11.07.2020
135 Clouds 15 1008 82 10000 6.2 280 18:58 11.07.2020
136 Clouds 15 1008 82 10000 5.7 290 18:39 11.07.2020
137 Clouds 15 1008 82 10000 5.7 290 18:21 11.07.2020
138 Clouds 15 1007 82 10000 5.7 270 17:57 11.07.2020
139 Clouds 15 1007 82 10000 5.7 270 17:38 11.07.2020
140 Clouds 15 1006 82 10000 6.2 290 17:19 11.07.2020
141 Clouds 15 1005 82 10000 6.7 310 16:56 11.07.2020
142 Clouds 15 1004 87 10000 5.7 310 16:36 11.07.2020
143 Clouds 15 1004 87 10000 5.7 310 16:36 11.07.2020
144 Clouds 15 1004 87 10000 5.7 310 16:18 11.07.2020
145 Clouds 14 1003 93 10000 7.2 320 15:41 11.07.2020
146 Clouds 14 1002 87 10000 7.2 340 15:21 11.07.2020
147 Clouds 14 1002 87 10000 7.2 340 15:21 11.07.2020
148 Clouds 14 1001 93 10000 8.7 340 14:58 11.07.2020
149 Rain 14 1000 100 7000 7.7 330 14:39 11.07.2020
150 Rain 14 1000 100 7000 7.7 330 14:20 11.07.2020
151 Rain 14 1000 100 3000 4.1 350 13:43 11.07.2020
152 Rain 15 999 93 10000 1.5 0 13:22 11.07.2020
153 Rain 15 999 93 2000 2.6 40 12:58 11.07.2020
154 Rain 15 999 93 2000 2.6 40 12:40 11.07.2020
155 Rain 14 999 100 8000 3.1 20 12:21 11.07.2020
156 Rain 14 999 93 7000 4.1 30 11:56 11.07.2020
157 Rain 14 999 93 7000 4.1 30 11:38 11.07.2020
158 Rain 14 999 93 7000 3.6 50 11:18 11.07.2020
159 Rain 14 999 100 4500 3.6 100 10:41 11.07.2020
160 Rain 14 999 93 4000 6.2 60 10:23 11.07.2020
161 Rain 13 1000 100 7000 5.7 50 09:45 11.07.2020
162 Rain 13 1000 93 10000 4.6 50 09:21 11.07.2020
163 Rain 13 1001 93 7000 5.7 40 08:55 11.07.2020
164 Rain 13 1001 93 4500 5.7 30 08:36 11.07.2020
165 Rain 13 1001 93 4500 5.7 30 08:18 11.07.2020
166 Rain 13 1002 93 10000 5.1 40 07:40 11.07.2020
167 Rain 13 1002 93 10000 5.1 40 07:20 11.07.2020
168 Rain 13 1003 93 8000 3.6 40 06:53 11.07.2020
169 Rain 13 1004 93 10000 3.6 40 06:20 11.07.2020
170 Rain 13 1005 93 10000 3.1 40 05:21 11.07.2020
171 Rain 13 1005 93 10000 3.1 40 04:55 11.07.2020
172 Clouds 13 1006 87 10000 2.6 60 04:31 11.07.2020
173 Clouds 13 1007 93 10000 2.1 50 02:59 11.07.2020
174 Clouds 13 1007 93 10000 2.1 50 02:36 11.07.2020
175 Clouds 11 1008 93 10000 1.5 60 01:32 11.07.2020
176 Clouds 12 1008 93 10000 2.1 50 00:59 11.07.2020
177 Clouds 12 1008 93 10000 2.1 50 00:40 11.07.2020
178 Clouds 12 1008 100 10000 1 0 00:21 11.07.2020
179 Clouds 13 1008 93 10000 1 80 23:57 10.07.2020
180 Clouds 13 1008 93 10000 1 80 23:38 10.07.2020
181 Clouds 13 1008 93 10000 1 80 23:38 10.07.2020
182 Clouds 13 1009 93 10000 2.1 70 23:18 10.07.2020
183 Clouds 14 1009 82 10000 2.1 110 22:43 10.07.2020
184 Clouds 14 1009 82 10000 2.1 110 22:19 10.07.2020
185 Clouds 15 1009 67 10000 3.1 120 21:41 10.07.2020
186 Clouds 15 1009 67 10000 3.1 120 21:21 10.07.2020
187 Clouds 15 1009 67 10000 3.1 120 20:59 10.07.2020
188 Clouds 16 1009 67 10000 3.1 150 20:41 10.07.2020
189 Clouds 16 1009 63 10000 3.1 120 20:21 10.07.2020
190 Clouds 17 1009 59 10000 4.1 150 19:57 10.07.2020
191 Clouds 17 1009 59 10000 4.1 150 19:39 10.07.2020
192 Clouds 17 1010 59 10000 4.1 160 19:20 10.07.2020
193 Clouds 17 1009 55 10000 4.1 170 18:41 10.07.2020
194 Clouds 17 1009 55 10000 4.6 160 18:20 10.07.2020
195 Clouds 17 1009 55 10000 4.1 180 17:57 10.07.2020
196 Clouds 18 1009 55 10000 4.1 180 17:38 10.07.2020
197 Clouds 18 1010 52 10000 4.1 170 17:20 10.07.2020
198 Clouds 18 1010 59 10000 4.6 160 16:42 10.07.2020
199 Clouds 18 1010 55 10000 5.1 160 16:20 10.07.2020
200 Clouds 19 1010 45 10000 4.6 160 15:47 10.07.2020
201 Clouds 19 1010 48 10000 5.7 170 15:25 10.07.2020
202 Clouds 18 1010 52 10000 6.2 190 14:55 10.07.2020
203 Clouds 18 1010 52 10000 6.2 190 14:37 10.07.2020
204 Clouds 19 1010 48 10000 6.2 180 14:19 10.07.2020
205 Clouds 18 1010 45 10000 6.2 190 13:57 10.07.2020
206 Clouds 18 1010 45 10000 6.2 190 13:38 10.07.2020
207 Clear 18 1010 45 10000 6.2 170 13:20 10.07.2020
208 Clear 18 1010 39 10000 6.7 170 12:44 10.07.2020
209 Clouds 18 1010 52 10000 6.7 180 12:25 10.07.2020
210 Clouds 17 1010 45 10000 6.7 170 11:59 10.07.2020
211 Clouds 17 1010 52 10000 6.2 180 11:38 10.07.2020
212 Clouds 17 1010 52 10000 6.2 180 11:38 10.07.2020
213 Clouds 17 1010 63 10000 5.1 180 11:19 10.07.2020
214 Clouds 17 1010 63 10000 5.1 180 10:55 10.07.2020
215 Clouds 16 1011 67 10000 4.6 180 10:36 10.07.2020
216 Clouds 16 1011 67 10000 4.6 180 10:18 10.07.2020
217 Clouds 15 1011 67 10000 4.6 180 09:38 10.07.2020
218 Clouds 15 1011 67 10000 4.6 180 09:20 10.07.2020
219 Clouds 15 1011 67 10000 5.1 200 08:58 10.07.2020
220 Clouds 15 1011 67 10000 5.1 200 08:39 10.07.2020
221 Clouds 15 1011 72 10000 4.6 210 08:21 10.07.2020
222 Clouds 14 1011 72 10000 6.2 210 07:42 10.07.2020
223 Clouds 14 1011 82 10000 5.7 210 07:22 10.07.2020
224 Clouds 14 1011 87 10000 4.6 200 06:51 10.07.2020
225 Clouds 13 1010 87 10000 3.6 190 06:24 10.07.2020
226 Fog 11 1011 100 10000 1.5 200 04:43 10.07.2020
227 Rain 11 1011 93 10000 2.6 190 03:38 10.07.2020
228 Clouds 12 1010 93 10000 2.6 210 02:52 10.07.2020
229 Rain 11 1010 93 10000 2.6 210 01:50 10.07.2020
230 Clear 11 1010 87 10000 3.6 210 00:48 10.07.2020
231 Clear 11 1010 87 10000 3.6 210 00:20 10.07.2020
232 Clear 11 1010 81 10000 4.1 210 23:46 09.07.2020
233 Clouds 12 1010 81 10000 3.1 220 23:23 09.07.2020
234 Clouds 12 1010 76 10000 3.1 230 22:59 09.07.2020
235 Clouds 12 1010 76 10000 3.1 230 22:41 09.07.2020
236 Clouds 13 1009 76 10000 3.6 240 22:21 09.07.2020
237 Clouds 13 1009 71 10000 4.1 230 21:56 09.07.2020
238 Clouds 14 1009 67 10000 4.6 240 21:38 09.07.2020
239 Clouds 14 1009 67 10000 4.6 240 21:19 09.07.2020
240 Clouds 14 1009 67 10000 5.1 250 20:45 09.07.2020
241 Clouds 15 1009 71 10000 5.1 250 20:25 09.07.2020
242 Clouds 15 1008 72 10000 4.6 250 19:58 09.07.2020
243 Clouds 15 1008 72 10000 4.6 250 19:40 09.07.2020
244 Rain 15 1008 76 10000 5.1 280 19:21 09.07.2020
245 Rain 15 1008 67 10000 8.2 240 18:42 09.07.2020
246 Rain 15 1008 72 10000 6.2 230 18:22 09.07.2020
247 Rain 15 1008 72 10000 6.2 230 18:22 09.07.2020
248 Rain 15 1008 67 10000 5.7 250 17:56 09.07.2020
249 Rain 15 1008 67 10000 5.7 250 17:37 09.07.2020
250 Rain 15 1008 67 10000 5.1 230 17:19 09.07.2020
251 Rain 15 1008 72 10000 4.1 220 16:55 09.07.2020
252 Rain 15 1008 72 10000 4.1 220 16:37 09.07.2020
253 Rain 15 1008 71 10000 1 0 16:18 09.07.2020
254 Rain 15 1008 82 10000 2.6 290 15:46 09.07.2020
255 Rain 16 1008 72 10000 6.2 230 15:28 09.07.2020
256 Rain 16 1007 59 10000 5.7 210 14:59 09.07.2020
257 Rain 16 1007 59 10000 5.7 210 14:41 09.07.2020
258 Rain 17 1007 55 10000 5.7 220 14:23 09.07.2020
259 Rain 17 1007 51 10000 5.7 220 13:59 09.07.2020
260 Rain 17 1007 51 10000 5.7 220 13:41 09.07.2020
261 Rain 16 1007 55 10000 5.7 220 13:20 09.07.2020
262 Rain 16 1007 63 10000 5.1 240 12:57 09.07.2020
263 Clouds 17 1007 63 10000 4.1 250 12:39 09.07.2020
264 Clouds 17 1007 63 10000 4.1 250 12:20 09.07.2020
265 Rain 15 1007 76 10000 6.7 280 11:44 09.07.2020
266 Rain 15 1007 58 10000 5.1 200 11:26 09.07.2020
267 Clouds 15 1007 67 10000 4.1 210 10:59 09.07.2020
268 Clouds 15 1007 67 10000 4.1 210 10:41 09.07.2020
269 Clouds 15 1007 72 10000 3.6 230 10:23 09.07.2020
270 Rain 13 1007 81 10000 0.5 0 09:58 09.07.2020
271 Rain 13 1007 81 10000 0.5 0 09:39 09.07.2020
272 Rain 13 1007 93 8000 1.5 170 09:21 09.07.2020
273 Rain 14 1007 87 7000 4.6 280 08:43 09.07.2020
274 Rain 13 1007 71 10000 3.6 190 08:24 09.07.2020
275 Rain 14 1007 76 10000 4.6 170 07:47 09.07.2020
276 Rain 13 1007 71 10000 4.6 190 07:22 09.07.2020
277 Clouds 13 1007 67 10000 3.6 180 06:50 09.07.2020
278 Rain 12 1007 71 10000 4.1 180 06:19 09.07.2020
279 Rain 10 1006 81 10000 3.1 190 04:29 09.07.2020
280 Rain 10 1006 76 10000 3.6 190 03:32 09.07.2020
281 Clouds 11 1006 81 10000 3.6 180 02:19 09.07.2020
282 Clouds 11 1006 81 10000 3.6 180 01:32 09.07.2020
283 Clouds 11 1006 81 10000 3.6 180 01:32 09.07.2020
284 Clouds 11 1006 81 10000 3.1 170 00:47 09.07.2020
285 Clear 12 1006 76 10000 3.6 180 00:23 09.07.2020
286 Clouds 11 1006 81 10000 3.6 150 23:46 08.07.2020
287 Clouds 11 1006 87 10000 3.6 140 23:27 08.07.2020
288 Clear 12 1006 81 10000 4.1 150 22:58 08.07.2020
289 Clear 12 1006 81 10000 4.1 150 22:39 08.07.2020
290 Clear 13 1006 76 10000 4.1 160 22:21 08.07.2020
291 Clear 13 1006 76 10000 4.1 150 21:58 08.07.2020
292 Clear 13 1006 76 10000 4.1 150 21:38 08.07.2020
293 Clouds 13 1006 76 10000 3.6 170 21:20 08.07.2020
294 Clear 14 1006 71 10000 4.1 170 20:45 08.07.2020
295 Clouds 14 1006 71 10000 4.6 170 20:26 08.07.2020
296 Clouds 14 1006 71 10000 4.6 190 19:58 08.07.2020
297 Clouds 15 1006 71 10000 4.6 190 19:40 08.07.2020
298 Clouds 15 1006 62 10000 4.6 180 19:21 08.07.2020
299 Clouds 14 1006 67 10000 5.1 180 18:55 08.07.2020
300 Clouds 14 1006 67 10000 5.1 180 18:55 08.07.2020
301 Clouds 15 1006 67 10000 4.1 190 18:36 08.07.2020
302 Clouds 15 1006 67 10000 4.1 190 18:18 08.07.2020
303 Clouds 15 1006 67 10000 4.1 190 18:18 08.07.2020
304 Clouds 15 1006 62 10000 4.1 210 17:54 08.07.2020
305 Clouds 15 1006 62 10000 4.1 210 17:54 08.07.2020
306 Clouds 14 1006 67 10000 4.6 240 17:36 08.07.2020
307 Clouds 14 1006 67 10000 4.6 240 17:18 08.07.2020
308 Rain 15 1006 58 10000 4.6 200 16:38 08.07.2020
309 Rain 15 1006 62 10000 5.7 200 16:20 08.07.2020
310 Clouds 15 1006 63 10000 6.2 210 15:58 08.07.2020
311 Clouds 15 1006 63 10000 6.2 210 15:39 08.07.2020
312 Thunderstorm 16 1005 59 10000 5.7 190 15:19 08.07.2020
313 Rain 16 1005 72 10000 4.6 240 14:44 08.07.2020
314 Rain 16 1005 63 10000 7.7 210 14:25 08.07.2020
315 Rain 16 1005 59 10000 7.2 190 13:58 08.07.2020
316 Rain 16 1005 59 10000 7.2 190 13:40 08.07.2020
317 Rain 16 1005 55 10000 5.7 190 13:19 08.07.2020
318 Clouds 18 1005 63 10000 5.7 190 12:42 08.07.2020
319 Clouds 17 1005 63 10000 7.7 190 12:20 08.07.2020
320 Clouds 17 1005 63 10000 6.2 170 11:56 08.07.2020
321 Clouds 17 1005 63 10000 6.2 170 11:38 08.07.2020
322 Clouds 17 1005 63 10000 6.7 170 11:20 08.07.2020
323 Clouds 16 1005 59 10000 6.2 170 10:43 08.07.2020
324 Clouds 16 1005 72 10000 6.2 170 10:24 08.07.2020
325 Clouds 15 1005 77 10000 6.2 180 09:46 08.07.2020
326 Clouds 16 1005 67 10000 4.6 160 09:25 08.07.2020
327 Clouds 16 1005 82 10000 4.6 170 08:57 08.07.2020
328 Clouds 15 1005 82 10000 4.6 170 08:38 08.07.2020
329 Clouds 15 1005 82 10000 5.1 170 08:19 08.07.2020
330 Clouds 15 1005 82 10000 4.1 180 07:43 08.07.2020
331 Clouds 14 1005 87 10000 4.6 160 07:22 08.07.2020
332 Clouds 14 1005 93 10000 3.6 170 06:46 08.07.2020
333 Clouds 14 1005 93 10000 2.1 170 06:27 08.07.2020
334 Clouds 12 1005 93 10000 1.5 150 05:48 08.07.2020
335 Fog 10 1005 100 10000 1.5 150 04:50 08.07.2020
336 Fog 10 1005 93 10000 1 0 04:19 08.07.2020
337 Clouds 10 1006 100 10000 2.1 200 02:19 08.07.2020
338 Clouds 12 1006 93 10000 2.6 200 01:38 08.07.2020
339 Clouds 11 1005 100 10000 3.1 210 00:51 08.07.2020
340 Clouds 11 1005 93 10000 2.6 210 00:20 08.07.2020
341 Clouds 12 1005 87 10000 3.1 210 23:44 07.07.2020
342 Clouds 12 1006 93 10000 3.1 210 23:22 07.07.2020
343 Clouds 12 1006 93 10000 3.1 220 22:57 07.07.2020
344 Clouds 12 1006 93 10000 3.1 220 22:57 07.07.2020
345 Clouds 13 1006 93 10000 3.1 220 22:38 07.07.2020
346 Clouds 13 1005 87 10000 3.6 210 22:20 07.07.2020
347 Clouds 14 1005 87 10000 3.6 210 21:56 07.07.2020
348 Clouds 14 1005 87 10000 3.6 210 21:38 07.07.2020
349 Clouds 14 1005 87 10000 3.6 210 21:38 07.07.2020
350 Clouds 14 1005 87 10000 2.6 240 21:18 07.07.2020
351 Clouds 15 1005 87 10000 2.6 240 20:42 07.07.2020
352 Rain 15 1005 87 10000 3.1 240 20:23 07.07.2020
353 Rain 15 1005 87 10000 4.1 260 19:58 07.07.2020
354 Rain 15 1005 87 10000 4.1 260 19:39 07.07.2020
355 Rain 15 1005 87 10000 4.1 260 19:39 07.07.2020
356 Rain 15 1004 93 10000 3.6 230 19:20 07.07.2020
357 Rain 15 1004 93 10000 3.6 230 19:20 07.07.2020
358 Rain 15 1004 77 10000 4.1 230 18:55 07.07.2020
359 Rain 16 1004 77 10000 6.2 230 18:37 07.07.2020
360 Rain 16 1004 77 10000 6.2 230 18:18 07.07.2020
361 Clouds 16 1004 67 10000 6.7 220 17:44 07.07.2020
362 Clouds 16 1004 72 10000 7.2 210 17:23 07.07.2020
363 Clouds 15 1003 72 10000 7.7 210 16:59 07.07.2020
364 Clouds 16 1003 72 10000 7.7 210 16:40 07.07.2020
365 Clouds 15 1003 72 10000 7.7 210 16:22 07.07.2020
366 Clouds 16 1003 67 10000 8.2 210 15:55 07.07.2020
367 Clouds 16 1003 67 10000 8.2 210 15:37 07.07.2020
368 Clouds 16 1003 63 10000 8.2 210 15:18 07.07.2020
369 Clouds 16 1003 63 10000 8.2 210 14:42 07.07.2020
370 Clouds 16 1003 63 10000 8.2 210 14:42 07.07.2020
371 Clouds 16 1002 63 10000 8.7 210 14:24 07.07.2020
372 Clouds 17 1002 59 10000 10.3 210 13:43 07.07.2020
373 Rain 17 1002 55 10000 9.8 190 13:20 07.07.2020
374 Rain 17 1001 59 10000 9.3 200 12:56 07.07.2020
375 Rain 17 1001 72 10000 8.7 200 12:37 07.07.2020
376 Rain 16 1001 72 10000 8.7 200 12:18 07.07.2020
377 Rain 16 1001 77 10000 9.3 200 11:43 07.07.2020
378 Rain 16 1001 82 10000 7.2 180 11:22 07.07.2020
379 Rain 15 1000 87 10000 6.2 180 10:58 07.07.2020
380 Rain 15 1000 87 10000 6.2 180 10:39 07.07.2020
381 Rain 14 1000 93 10000 6.7 180 10:20 07.07.2020
382 Rain 14 1000 100 8000 6.2 190 09:42 07.07.2020
383 Rain 14 999 93 7000 5.7 170 09:21 07.07.2020
384 Rain 14 999 82 10000 7.7 180 08:54 07.07.2020
385 Rain 14 999 87 10000 6.2 180 08:36 07.07.2020
386 Rain 14 999 87 10000 6.2 180 08:18 07.07.2020
387 Rain 14 999 87 8000 7.2 170 07:38 07.07.2020
388 Rain 14 999 87 8000 7.2 170 07:19 07.07.2020
389 Clouds 14 999 82 10000 7.7 180 06:41 07.07.2020
390 Clouds 14 999 82 10000 7.7 180 06:22 07.07.2020
391 Clouds 14 999 82 10000 6.7 180 05:28 07.07.2020
392 Clouds 14 999 82 10000 7.2 180 04:44 07.07.2020
393 Clouds 13 999 82 10000 6.7 180 03:42 07.07.2020
394 Clouds 13 999 82 10000 6.7 180 03:23 07.07.2020
395 Clouds 14 999 82 10000 7.2 180 01:41 07.07.2020
396 Clouds 14 999 76 10000 7.2 180 00:59 07.07.2020
397 Clouds 14 999 76 10000 6.7 190 00:40 07.07.2020
398 Clouds 14 999 76 10000 6.7 190 00:20 07.07.2020
399 Clouds 14 999 77 10000 5.7 180 23:43 06.07.2020
400 Clouds 15 999 77 10000 6.7 190 23:25 06.07.2020
401 Clouds 15 999 72 10000 6.7 190 22:57 06.07.2020
402 Clouds 15 999 72 10000 6.7 190 22:38 06.07.2020
403 Clouds 15 998 67 10000 6.7 190 22:18 06.07.2020
404 Rain 15 998 67 10000 6.7 210 21:56 06.07.2020
405 Rain 15 998 63 10000 7.2 210 21:36 06.07.2020
406 Rain 15 998 63 10000 7.2 210 21:18 06.07.2020
407 Clouds 16 998 67 10000 8.2 210 20:40 06.07.2020
408 Clouds 16 998 63 10000 10.3 210 20:20 06.07.2020
409 Clouds 16 998 59 10000 9.8 210 19:58 06.07.2020
410 Clouds 17 998 63 10000 9.3 210 19:40 06.07.2020
411 Clouds 17 998 63 10000 9.3 210 19:22 06.07.2020
412 Clouds 17 998 67 10000 10.8 220 18:58 06.07.2020
413 Clouds 17 998 59 10000 12.3 210 18:39 06.07.2020
414 Clouds 17 998 59 10000 12.3 210 18:21 06.07.2020
415 Clouds 17 998 59 10000 10.8 210 17:54 06.07.2020
416 Clouds 18 998 59 10000 10.8 210 17:36 06.07.2020
417 Clouds 18 998 59 10000 10.8 210 17:36 06.07.2020
418 Clouds 18 998 59 10000 11.8 200 17:18 06.07.2020
419 Clouds 17 997 52 10000 11.8 210 16:42 06.07.2020
420 Rain 17 998 55 10000 10.8 210 16:22 06.07.2020
421 Rain 17 997 55 10000 12.3 210 15:44 06.07.2020
422 Clouds 17 997 52 10000 12.9 210 15:26 06.07.2020
423 Rain 17 997 59 10000 11.8 210 14:57 06.07.2020
424 Rain 17 997 59 10000 11.8 210 14:57 06.07.2020
425 Rain 17 997 59 10000 11.8 210 14:38 06.07.2020
426 Rain 17 997 55 10000 13.9 210 14:20 06.07.2020
427 Rain 17 996 55 10000 12.3 210 13:58 06.07.2020
428 Rain 17 996 55 10000 12.3 210 13:39 06.07.2020
429 Rain 17 996 67 10000 9.8 220 13:20 06.07.2020
430 Rain 17 996 67 10000 11.8 220 12:43 06.07.2020
431 Rain 17 995 59 10000 12.3 220 12:20 06.07.2020
432 Rain 17 995 59 10000 11.8 220 11:58 06.07.2020
433 Rain 17 995 59 10000 11.8 220 11:39 06.07.2020
434 Rain 17 995 59 10000 10.8 210 11:21 06.07.2020
435 Clouds 17 995 59 10000 11.3 210 10:57 06.07.2020
436 Clouds 16 995 59 10000 11.3 210 10:39 06.07.2020
437 Clouds 17 994 59 10000 11.8 210 10:18 06.07.2020
438 Clouds 17 994 63 10000 11.8 210 09:42 06.07.2020
439 Clouds 17 994 59 10000 9.8 220 09:22 06.07.2020
440 Clouds 16 993 72 10000 9.8 210 08:58 06.07.2020
441 Clouds 16 993 77 10000 10.8 210 08:38 06.07.2020
442 Clouds 16 993 77 10000 10.8 210 08:20 06.07.2020
443 Clouds 16 993 77 10000 8.7 210 07:47 06.07.2020
444 Clouds 16 993 77 10000 8.2 210 07:28 06.07.2020
445 Clouds 15 993 87 10000 9.3 210 06:42 06.07.2020
446 Clouds 16 993 82 10000 8.2 210 06:24 06.07.2020
447 Clouds 15 993 87 10000 8.7 210 05:42 06.07.2020
448 Clouds 15 993 87 10000 8.2 210 05:19 06.07.2020
449 Clouds 16 992 87 10000 6.7 210 03:44 06.07.2020
450 Rain 16 992 93 10000 8.7 220 02:24 06.07.2020
451 Rain 16 992 93 10000 8.2 220 01:39 06.07.2020
452 Clouds 16 992 93 10000 10.8 210 00:39 06.07.2020
453 Clouds 16 992 93 10000 10.8 210 00:20 06.07.2020
454 Rain 16 993 93 10000 8.7 210 23:44 05.07.2020
455 Rain 16 993 93 10000 9.3 200 23:25 05.07.2020
456 Rain 17 993 93 8000 10.8 190 22:59 05.07.2020
457 Rain 17 993 93 8000 10.8 190 22:40 05.07.2020
458 Rain 17 993 93 5000 10.3 190 22:20 05.07.2020
459 Rain 16 993 93 4000 10.8 170 21:57 05.07.2020
460 Rain 16 993 93 4000 10.8 170 21:39 05.07.2020
461 Rain 16 993 100 4000 9.8 160 21:18 05.07.2020
462 Rain 16 994 100 4000 8.7 160 20:57 05.07.2020
463 Rain 15 995 100 4000 6.7 140 20:39 05.07.2020
464 Rain 16 995 100 4000 6.7 140 20:20 05.07.2020
465 Rain 15 996 93 2500 6.7 130 19:43 05.07.2020
466 Rain 15 997 93 4000 6.2 140 19:21 05.07.2020
467 Rain 15 998 93 8000 4.6 140 18:56 05.07.2020
468 Rain 15 998 93 8000 4.6 140 18:38 05.07.2020
469 Rain 16 999 87 7000 5.7 150 18:20 05.07.2020
470 Rain 16 999 82 10000 3.6 140 17:43 05.07.2020
471 Rain 17 1000 77 10000 3.6 170 17:20 05.07.2020
472 Clouds 17 1000 77 10000 3.6 190 16:59 05.07.2020
473 Clouds 17 1000 77 10000 3.6 190 16:41 05.07.2020
474 Clouds 17 1001 77 10000 3.6 190 16:22 05.07.2020
475 Clouds 17 1001 77 10000 4.1 190 15:41 05.07.2020
476 Clouds 17 1001 77 10000 4.6 170 15:20 05.07.2020
477 Clouds 17 1001 77 10000 4.6 160 14:59 05.07.2020
478 Clouds 17 1001 77 10000 4.6 160 14:40 05.07.2020
479 Clouds 16 1001 77 10000 3.6 170 14:20 05.07.2020
480 Clouds 16 1001 77 10000 3.6 180 13:41 05.07.2020
481 Clouds 16 1001 77 10000 3.6 180 13:41 05.07.2020
482 Clouds 17 1001 77 10000 3.1 170 13:23 05.07.2020
483 Clouds 17 1001 77 10000 3.1 160 12:46 05.07.2020
484 Clouds 16 1002 72 10000 2.1 160 12:23 05.07.2020
485 Clouds 16 1002 77 10000 1.5 100 11:57 05.07.2020
486 Clouds 16 1002 77 10000 1.5 100 11:38 05.07.2020
487 Clouds 15 1002 77 10000 1 0 11:38 05.07.2020
488 Clouds 15 1002 77 10000 1 0 11:20 05.07.2020
489 Clouds 15 1002 77 10000 1.5 0 10:56 05.07.2020
490 Clouds 15 1002 82 10000 2.1 10 10:37 05.07.2020
491 Clouds 15 1002 82 10000 2.1 10 10:18 05.07.2020
492 Clouds 14 1002 87 10000 2.6 350 09:42 05.07.2020
493 Clouds 14 1002 93 10000 2.6 340 09:20 05.07.2020
494 Clouds 13 1002 93 10000 2.1 20 08:57 05.07.2020
495 Clouds 13 1002 93 10000 2.1 20 08:38 05.07.2020
496 Rain 13 1002 100 10000 3.1 360 08:18 05.07.2020
497 Rain 13 1001 100 10000 3.1 330 07:40 05.07.2020
498 Rain 13 1001 100 4000 3.1 340 07:22 05.07.2020
499 Rain 13 1001 100 7000 2.6 340 06:45 05.07.2020
500 Rain 14 1001 100 10000 1.5 340 04:27 05.07.2020
501 Rain 15 1001 100 6000 6.7 230 03:18 05.07.2020
502 Rain 15 1001 100 7000 4.6 200 02:40 05.07.2020
503 Rain 15 1002 100 4500 5.1 200 01:59 05.07.2020
504 Rain 15 1002 100 7000 5.7 200 01:28 05.07.2020
505 Rain 15 1002 93 7000 5.7 200 00:52 05.07.2020
506 Rain 15 1002 87 7000 6.2 210 00:31 05.07.2020
507 Clouds 16 1003 87 10000 7.2 210 23:57 04.07.2020
508 Clouds 16 1003 87 10000 7.7 210 23:33 04.07.2020
509 Clouds 16 1003 87 10000 7.7 210 22:59 04.07.2020
510 Clouds 16 1003 87 10000 7.7 210 22:41 04.07.2020
511 Clouds 16 1003 87 10000 7.2 210 22:23 04.07.2020
512 Clouds 16 1003 87 10000 7.7 210 21:58 04.07.2020
513 Clouds 16 1003 87 10000 8.2 210 21:40 04.07.2020
514 Clouds 16 1003 87 10000 8.2 210 21:22 04.07.2020
515 Clouds 16 1003 87 10000 8.7 210 20:43 04.07.2020
516 Rain 16 1003 87 10000 8.7 210 20:21 04.07.2020
517 Rain 16 1003 87 10000 8.7 210 19:58 04.07.2020
518 Rain 15 1003 87 10000 8.7 210 19:39 04.07.2020
519 Rain 15 1003 87 10000 7.2 200 19:20 04.07.2020
520 Rain 15 1003 87 10000 6.7 200 18:44 04.07.2020
521 Rain 15 1004 93 10000 6.7 200 18:23 04.07.2020
522 Rain 15 1004 93 7000 7.2 200 17:55 04.07.2020
523 Rain 15 1004 93 7000 7.2 200 17:37 04.07.2020
524 Rain 16 1004 87 10000 7.7 200 17:18 04.07.2020
525 Clouds 16 1004 87 10000 6.2 220 16:55 04.07.2020
526 Rain 15 1004 100 10000 4.6 190 16:36 04.07.2020
527 Rain 15 1004 100 10000 4.6 190 16:18 04.07.2020
528 Rain 14 1005 93 6000 6.2 180 15:41 04.07.2020
529 Rain 14 1005 93 6000 8.2 170 15:21 04.07.2020
530 Rain 14 1005 93 3000 6.2 160 14:57 04.07.2020
531 Rain 14 1005 93 3000 6.2 160 14:37 04.07.2020
532 Rain 14 1005 93 7000 7.7 170 14:18 04.07.2020
533 Rain 15 1006 82 10000 5.1 170 13:42 04.07.2020
534 Rain 15 1006 82 10000 4.6 180 13:20 04.07.2020
535 Rain 16 1006 72 10000 5.1 200 12:56 04.07.2020
536 Rain 16 1007 67 10000 7.7 200 12:38 04.07.2020
537 Rain 16 1007 67 10000 7.7 200 12:19 04.07.2020
538 Rain 17 1007 67 10000 7.2 190 11:44 04.07.2020
539 Clouds 16 1007 77 10000 7.7 190 11:23 04.07.2020
540 Clouds 16 1007 72 10000 8.2 180 10:56 04.07.2020
541 Clouds 17 1007 72 10000 8.2 180 10:38 04.07.2020
542 Clouds 16 1007 77 10000 6.2 180 10:19 04.07.2020
543 Clouds 16 1007 72 10000 8.2 180 09:41 04.07.2020
544 Clouds 17 1007 68 10000 7.2 180 09:22 04.07.2020
545 Clouds 16 1007 77 10000 6.2 190 08:58 04.07.2020
546 Clouds 16 1007 77 10000 6.2 190 08:39 04.07.2020
547 Clouds 16 1007 82 10000 4.6 180 08:21 04.07.2020
548 Clouds 16 1007 77 10000 6.2 180 07:41 04.07.2020
549 Clouds 15 1008 77 10000 5.7 190 07:18 04.07.2020
550 Clouds 15 1008 77 10000 5.7 190 06:38 04.07.2020
551 Clouds 15 1008 77 10000 5.7 190 06:19 04.07.2020
552 Clouds 14 1008 82 10000 3.6 190 05:29 04.07.2020
553 Clouds 13 1008 76 10000 3.6 180 04:21 04.07.2020
554 Clouds 13 1008 81 10000 3.1 180 02:41 04.07.2020
555 Clouds 14 1009 76 10000 3.1 220 01:40 04.07.2020
556 Clouds 14 1009 82 10000 3.1 210 00:54 04.07.2020
557 Clouds 14 1009 82 10000 3.1 220 00:36 04.07.2020
558 Clouds 14 1009 82 10000 3.1 220 00:18 04.07.2020
559 Clouds 15 1009 76 10000 3.6 210 23:39 03.07.2020
560 Clouds 15 1009 76 10000 3.6 210 23:18 03.07.2020
561 Clouds 15 1009 71 10000 4.6 220 22:42 03.07.2020
562 Clouds 15 1009 71 10000 4.1 220 22:24 03.07.2020
563 Clouds 15 1008 67 10000 5.1 210 21:59 03.07.2020
564 Clouds 15 1008 67 10000 5.1 210 21:38 03.07.2020
565 Clouds 15 1008 67 10000 5.1 210 21:19 03.07.2020
566 Clouds 16 1008 67 10000 5.7 200 20:43 03.07.2020
567 Clouds 16 1008 59 10000 5.1 220 20:25 03.07.2020
568 Clouds 17 1008 51 10000 5.7 220 19:56 03.07.2020
569 Clouds 17 1008 48 10000 6.2 220 19:38 03.07.2020
570 Clouds 18 1008 48 10000 6.2 220 19:18 03.07.2020
571 Clouds 17 1008 52 10000 7.2 210 18:42 03.07.2020
572 Clouds 18 1008 52 10000 6.7 220 18:23 03.07.2020
573 Clouds 18 1008 52 10000 7.2 210 17:56 03.07.2020
574 Clouds 18 1008 52 10000 7.2 210 17:37 03.07.2020
575 Clouds 18 1008 52 10000 7.2 220 17:19 03.07.2020
576 Clouds 18 1008 52 10000 7.2 220 17:19 03.07.2020
577 Clouds 18 1008 48 10000 7.7 220 16:40 03.07.2020
578 Clouds 19 1008 52 10000 8.2 210 16:20 03.07.2020
579 Clouds 18 1008 55 10000 8.7 200 15:44 03.07.2020
580 Clouds 19 1008 55 10000 8.7 210 15:23 03.07.2020
581 Clouds 19 1007 56 10000 7.7 220 14:55 03.07.2020
582 Clouds 19 1007 55 10000 7.7 210 14:37 03.07.2020
583 Clouds 19 1007 55 10000 7.7 210 14:19 03.07.2020
584 Clouds 19 1007 52 10000 7.7 220 13:41 03.07.2020
585 Clouds 19 1007 52 10000 7.7 220 13:23 03.07.2020
586 Clouds 18 1007 59 10000 8.2 210 12:45 03.07.2020
587 Clouds 18 1007 59 10000 7.2 220 12:23 03.07.2020
588 Clouds 18 1006 59 10000 7.2 210 11:57 03.07.2020
589 Clouds 18 1006 59 10000 7.2 210 11:39 03.07.2020
590 Clouds 18 1006 52 10000 7.2 220 11:19 03.07.2020
591 Clouds 18 1006 52 10000 6.2 240 10:54 03.07.2020
592 Clouds 18 1006 52 10000 6.2 240 10:36 03.07.2020
593 Clouds 18 1006 55 10000 7.7 230 10:18 03.07.2020
594 Clouds 18 1006 59 10000 6.7 220 09:40 03.07.2020
595 Clouds 18 1005 59 10000 6.2 230 09:22 03.07.2020
596 Clouds 18 1005 67 10000 6.2 240 08:58 03.07.2020
597 Clouds 17 1005 77 10000 5.1 230 08:38 03.07.2020
598 Clouds 16 1005 77 10000 5.1 230 08:18 03.07.2020
599 Clouds 16 1005 77 10000 5.1 230 08:18 03.07.2020
600 Clouds 16 1004 82 10000 4.6 250 07:47 03.07.2020
601 Clouds 15 1004 87 10000 4.1 250 07:22 03.07.2020
602 Clouds 15 1004 93 10000 3.6 250 06:38 03.07.2020
603 Clouds 15 1003 93 10000 3.1 210 05:55 03.07.2020
604 Clouds 15 1003 93 10000 3.1 210 05:55 03.07.2020
605 Clouds 14 1003 93 10000 5.1 200 04:26 03.07.2020
606 Clouds 14 1002 100 10000 2.6 210 02:57 03.07.2020
607 Clouds 14 1002 100 10000 2.6 210 02:32 03.07.2020
608 Clouds 15 1002 93 10000 3.6 230 01:43 03.07.2020
609 Clouds 14 1002 100 10000 3.6 230 01:20 03.07.2020
610 Clouds 14 1002 100 10000 3.6 230 01:20 03.07.2020
611 Rain 15 1002 93 10000 5.1 250 00:42 03.07.2020
612 Rain 15 1002 93 6000 3.6 140 23:59 02.07.2020
613 Rain 15 1002 93 6000 3.6 140 23:39 02.07.2020
614 Rain 16 1002 87 10000 3.6 150 23:19 02.07.2020
615 Clouds 16 1002 93 10000 4.6 150 22:56 02.07.2020
616 Clouds 16 1002 93 10000 4.6 150 22:38 02.07.2020
617 Clouds 16 1002 93 10000 3.1 120 22:19 02.07.2020
618 Clouds 16 1002 93 10000 3.6 120 21:42 02.07.2020
619 Clouds 16 1003 93 10000 3.1 110 21:20 02.07.2020
620 Clouds 16 1003 93 10000 3.6 120 20:59 02.07.2020
621 Clouds 16 1003 93 10000 3.6 120 20:41 02.07.2020
622 Rain 16 1003 93 10000 4.6 150 20:20 02.07.2020
623 Rain 16 1003 93 7000 4.6 140 19:56 02.07.2020
624 Rain 16 1003 82 10000 2.6 110 19:38 02.07.2020
625 Rain 16 1003 82 10000 2.6 110 19:19 02.07.2020
626 Rain 17 1003 82 10000 2.1 160 18:42 02.07.2020
627 Rain 17 1003 72 7000 5.1 150 18:22 02.07.2020
628 Rain 18 1003 68 10000 4.1 160 17:58 02.07.2020
629 Rain 18 1003 68 10000 4.1 160 17:39 02.07.2020
630 Clouds 18 1003 68 10000 4.1 160 17:19 02.07.2020
631 Clouds 19 1003 55 10000 3.6 160 16:44 02.07.2020
632 Clouds 19 1003 59 10000 3.1 0 16:22 02.07.2020
633 Clouds 19 1003 55 10000 3.6 190 15:59 02.07.2020
634 Clouds 19 1003 55 10000 3.6 190 15:38 02.07.2020
635 Clouds 19 1003 55 10000 3.6 160 15:20 02.07.2020
636 Clouds 19 1004 55 10000 4.1 180 14:46 02.07.2020
637 Clouds 19 1004 55 10000 4.1 190 14:23 02.07.2020
638 Clouds 18 1004 52 10000 3.1 0 13:57 02.07.2020
639 Clouds 18 1004 52 10000 3.1 0 13:39 02.07.2020
640 Clouds 19 1004 59 10000 2.6 150 13:19 02.07.2020
641 Clouds 19 1004 52 10000 3.1 0 12:57 02.07.2020
642 Clouds 18 1004 48 10000 2.1 0 12:38 02.07.2020
643 Clouds 18 1004 48 10000 2.1 0 12:19 02.07.2020
644 Clouds 17 1003 42 10000 1.5 0 11:42 02.07.2020
645 Clouds 17 1003 48 10000 1.5 110 11:24 02.07.2020
646 Clouds 17 1003 51 10000 1.5 0 10:47 02.07.2020
647 Clouds 16 1003 55 10000 1 0 10:27 02.07.2020
648 Clouds 16 1003 51 10000 0.5 0 09:57 02.07.2020
649 Clouds 16 1003 51 10000 0.5 0 09:37 02.07.2020
650 Clouds 16 1003 54 10000 2.1 80 09:19 02.07.2020
651 Clouds 15 1003 58 10000 1 0 08:43 02.07.2020
652 Rain 15 1003 62 10000 1.5 60 08:24 02.07.2020
653 Rain 14 1002 67 10000 1 0 07:55 02.07.2020
654 Rain 14 1002 67 10000 1 0 07:37 02.07.2020
655 Clouds 14 1002 71 10000 0.5 0 07:18 02.07.2020
656 Clouds 13 1002 76 10000 1 0 06:39 02.07.2020
657 Clouds 13 1002 76 10000 1 0 06:19 02.07.2020
658 Clouds 13 1002 87 10000 0.5 0 05:43 02.07.2020
659 Clouds 13 1001 87 10000 1 320 03:36 02.07.2020
660 Clouds 13 1000 87 10000 2.1 330 02:59 02.07.2020
661 Clouds 13 1000 100 10000 1.5 270 00:47 02.07.2020
662 Clouds 14 999 100 10000 1 270 00:23 02.07.2020
663 Clouds 13 999 93 10000 2.1 240 23:46 01.07.2020
664 Clouds 14 999 87 10000 3.1 230 23:27 01.07.2020
665 Clouds 14 999 82 10000 3.6 250 22:56 01.07.2020
666 Clouds 15 999 82 10000 3.6 250 22:38 01.07.2020
667 Clouds 15 998 82 10000 3.1 250 22:19 01.07.2020
668 Clouds 15 998 77 10000 3.1 260 21:58 01.07.2020
669 Clouds 16 998 77 10000 3.1 260 21:39 01.07.2020
670 Clouds 16 998 77 10000 4.6 260 21:20 01.07.2020
671 Clouds 16 997 72 10000 5.7 260 20:47 01.07.2020
672 Clouds 16 997 82 10000 5.1 250 20:29 01.07.2020
673 Clouds 17 997 77 10000 4.6 240 19:58 01.07.2020
674 Clouds 17 997 77 10000 4.6 240 19:40 01.07.2020
675 Clouds 17 996 77 10000 5.7 230 19:21 01.07.2020
676 Clouds 17 996 77 10000 5.1 240 18:58 01.07.2020
677 Clouds 17 996 77 10000 5.1 240 18:40 01.07.2020
678 Clouds 17 996 77 10000 6.2 240 18:21 01.07.2020
679 Clouds 17 995 88 10000 4.1 230 17:55 01.07.2020
680 Clouds 17 995 88 10000 4.1 230 17:55 01.07.2020
681 Clouds 17 995 88 10000 4.1 230 17:55 01.07.2020
682 Clouds 16 995 88 10000 4.1 230 17:37 01.07.2020
683 Rain 17 995 93 8000 4.1 230 17:18 01.07.2020
684 Rain 17 995 72 10000 4.6 230 16:42 01.07.2020
685 Rain 17 995 72 10000 4.6 230 16:42 01.07.2020
686 Clouds 18 994 72 10000 5.7 220 16:23 01.07.2020
687 Thunderstorm 17 994 68 10000 7.2 220 15:43 01.07.2020
688 Thunderstorm 17 994 68 10000 7.7 210 15:23 01.07.2020
689 Thunderstorm 18 993 72 10000 7.7 210 14:58 01.07.2020
690 Thunderstorm 17 993 72 10000 7.7 210 14:38 01.07.2020
691 Clouds 17 993 82 10000 7.7 210 14:20 01.07.2020
692 Clouds 17 993 77 10000 7.7 210 13:54 01.07.2020
693 Clouds 17 993 77 10000 7.7 210 13:36 01.07.2020
694 Thunderstorm 16 993 77 10000 7.2 210 13:18 01.07.2020
695 Thunderstorm 16 993 87 10000 6.2 220 12:41 01.07.2020
696 Thunderstorm 16 993 87 10000 5.7 220 12:22 01.07.2020
697 Rain 17 992 77 7000 6.7 210 11:58 01.07.2020
698 Rain 17 992 77 7000 6.7 210 11:40 01.07.2020
699 Rain 16 992 82 10000 8.7 210 11:21 01.07.2020
700 Thunderstorm 16 992 87 10000 7.2 180 10:43 01.07.2020
701 Rain 16 992 93 10000 5.1 220 10:24 01.07.2020
702 Rain 15 992 93 10000 5.1 230 09:59 01.07.2020
703 Rain 15 992 93 10000 5.1 230 09:59 01.07.2020
704 Rain 15 992 93 10000 5.1 230 09:38 01.07.2020
705 Rain 15 992 93 10000 6.7 230 09:20 01.07.2020
706 Rain 16 992 87 3000 9.3 210 08:57 01.07.2020
707 Rain 16 992 87 3000 9.3 210 08:38 01.07.2020
708 Rain 16 991 77 10000 9.3 210 08:19 01.07.2020
709 Rain 16 991 77 10000 9.3 210 08:19 01.07.2020
710 Rain 16 992 82 10000 8.2 200 07:40 01.07.2020
711 Rain 16 992 82 10000 8.2 200 07:21 01.07.2020
712 Rain 15 992 87 10000 6.7 210 06:51 01.07.2020
713 Rain 15 992 87 10000 6.7 200 06:30 01.07.2020
714 Rain 15 992 93 10000 6.7 200 05:30 01.07.2020
715 Clouds 15 992 87 10000 6.2 200 03:55 01.07.2020
716 Clouds 15 992 93 10000 5.7 200 03:36 01.07.2020
717 Clouds 15 992 93 10000 5.7 200 03:18 01.07.2020
718 Clouds 15 992 93 10000 6.2 210 01:53 01.07.2020
719 Clouds 15 992 93 10000 5.1 220 00:48 01.07.2020
720 Clouds 15 992 93 10000 6.7 200 00:26 01.07.2020
721 Rain 15 993 100 9000 6.2 200 23:42 30.06.2020
722 Rain 15 993 93 7000 4.6 200 23:23 30.06.2020
723 Rain 14 993 93 8000 7.2 200 22:59 30.06.2020
724 Rain 15 993 93 8000 7.2 200 22:40 30.06.2020
725 Rain 15 993 82 10000 7.2 190 22:18 30.06.2020
726 Clouds 15 993 82 10000 8.2 200 21:41 30.06.2020
727 Clouds 15 993 82 10000 8.2 200 21:41 30.06.2020
728 Clouds 16 993 72 10000 6.7 210 21:19 30.06.2020
729 Clouds 16 993 72 10000 6.7 210 21:19 30.06.2020
730 Clouds 16 993 77 10000 6.2 220 20:55 30.06.2020
731 Rain 16 993 77 10000 5.7 230 20:37 30.06.2020
732 Rain 16 993 77 10000 5.7 230 20:19 30.06.2020
733 Rain 17 993 82 10000 6.7 230 19:42 30.06.2020
734 Clouds 17 993 77 10000 6.2 220 19:19 30.06.2020
735 Clouds 17 993 77 10000 5.7 220 18:46 30.06.2020
736 Rain 16 993 87 10000 4.6 200 18:21 30.06.2020
737 Rain 16 993 87 10000 3.6 200 17:59 30.06.2020
738 Rain 16 993 87 10000 3.6 200 17:38 30.06.2020
739 Rain 15 993 87 10000 5.1 240 17:19 30.06.2020
740 Rain 14 993 93 10000 5.7 230 16:43 30.06.2020
741 Rain 14 993 93 10000 5.7 220 16:24 30.06.2020
742 Rain 14 993 93 10000 3.6 220 15:59 30.06.2020
743 Rain 14 993 93 10000 3.6 220 15:40 30.06.2020
744 Rain 14 993 100 8000 4.6 230 15:22 30.06.2020
745 Rain 14 993 93 7000 4.6 240 14:56 30.06.2020
746 Rain 14 993 93 10000 5.7 270 14:38 30.06.2020
747 Rain 13 993 93 10000 5.7 270 14:18 30.06.2020
748 Rain 13 992 93 10000 6.2 270 13:40 30.06.2020
749 Rain 13 992 93 8000 6.7 270 13:20 30.06.2020
750 Rain 13 992 93 8000 7.2 290 12:58 30.06.2020
751 Rain 13 992 93 8000 7.2 290 12:58 30.06.2020
752 Rain 13 992 93 8000 7.2 290 12:39 30.06.2020
753 Rain 14 991 87 9000 8.2 300 12:20 30.06.2020
754 Rain 14 992 93 7000 8.7 290 11:58 30.06.2020
755 Rain 14 992 93 7000 8.7 290 11:38 30.06.2020
756 Rain 15 992 93 4000 6.2 310 11:19 30.06.2020
757 Rain 15 992 87 10000 6.2 330 10:56 30.06.2020
758 Clouds 22 1011 64 10000 6.2 140 16:38 28.06.2020
759 Clouds 22 1011 60 10000 5.7 130 16:20 28.06.2020
760 Clouds 22 1011 60 10000 5.1 120 15:56 28.06.2020
761 Clouds 22 1011 60 10000 5.1 120 15:56 28.06.2020
762 Clouds 22 1011 60 10000 5.1 120 15:37 28.06.2020
763 Clouds 23 1011 60 10000 5.1 130 15:18 28.06.2020
764 Clouds 22 1011 64 10000 5.7 130 14:44 28.06.2020
765 Clouds 22 1011 64 10000 6.2 140 14:25 28.06.2020
766 Clouds 23 1011 57 10000 6.2 150 13:55 28.06.2020
767 Clouds 23 1011 61 10000 6.7 150 13:37 28.06.2020
768 Clouds 23 1011 61 10000 6.7 150 13:18 28.06.2020
769 Clouds 23 1011 57 10000 4.6 140 12:55 28.06.2020
770 Clouds 24 1011 57 10000 4.6 140 12:36 28.06.2020
771 Clouds 24 1011 50 10000 2.6 0 12:18 28.06.2020
772 Clouds 25 1011 47 10000 2.6 50 11:44 28.06.2020
773 Clouds 24 1011 50 10000 3.6 70 11:21 28.06.2020
774 Clouds 24 1011 50 10000 4.1 70 10:59 28.06.2020
775 Clouds 24 1011 50 10000 4.1 70 10:41 28.06.2020
776 Clear 24 1011 50 10000 4.1 60 10:23 28.06.2020
777 Clear 24 1011 50 10000 3.1 60 09:43 28.06.2020
778 Clouds 23 1011 53 10000 3.6 80 09:24 28.06.2020
779 Clouds 23 1011 56 10000 4.1 90 08:58 28.06.2020
780 Clouds 23 1011 56 10000 4.1 90 08:40 28.06.2020
781 Clear 23 1011 56 10000 4.6 70 08:21 28.06.2020
782 Clear 22 1011 60 10000 4.6 80 07:39 28.06.2020
783 Clear 20 1011 68 10000 3.6 60 06:58 28.06.2020
784 Clear 19 1011 72 10000 4.1 70 06:32 28.06.2020
785 Clear 20 1011 72 10000 4.6 60 05:54 28.06.2020
786 Clear 18 1010 77 10000 4.6 50 04:36 28.06.2020
787 Clear 17 1010 87 10000 2.1 20 03:18 28.06.2020
788 Clear 18 1010 87 10000 1 0 02:22 28.06.2020
789 Clear 19 1011 77 10000 2.1 70 01:45 28.06.2020
790 Clear 20 1010 87 10000 1 0 00:57 28.06.2020
791 Clouds 20 1010 82 10000 2.09 329 00:31 28.06.2020
792 Clouds 20 1011 82 10000 1 230 23:58 27.06.2020
793 Clouds 20 1011 82 10000 1 230 23:40 27.06.2020
794 Clouds 20 1011 77 10000 2.05 315 23:21 27.06.2020
795 Clouds 21 1011 68 10000 1.5 210 22:43 27.06.2020
796 Clear 22 1011 68 10000 2.1 180 22:23 27.06.2020
797 Clear 22 1011 47 10000 2.6 190 21:59 27.06.2020
798 Clear 25 1011 47 10000 2.6 190 21:41 27.06.2020
799 Clear 25 1011 36 10000 2.6 200 21:20 27.06.2020
800 Clear 26 1011 36 10000 3.1 210 20:55 27.06.2020
801 Clear 26 1011 36 10000 3.1 210 20:37 27.06.2020
802 Clear 26 1011 34 10000 2.6 220 20:18 27.06.2020
803 Clear 27 1011 34 10000 3.6 220 19:38 27.06.2020
804 Clear 27 1011 34 10000 3.6 220 19:19 27.06.2020
805 Clear 28 1011 32 10000 4.6 210 18:57 27.06.2020
806 Clouds 28 1011 35 10000 5.7 190 18:37 27.06.2020
807 Clouds 28 1011 35 10000 5.7 190 18:19 27.06.2020
808 Clouds 28 1012 35 10000 5.1 220 17:40 27.06.2020
809 Clouds 28 1012 35 10000 6.2 180 17:20 27.06.2020
810 Clouds 28 1012 35 10000 6.2 180 17:20 27.06.2020
811 Clouds 28 1012 37 10000 5.7 180 16:57 27.06.2020
812 Clouds 28 1012 37 10000 5.7 180 16:38 27.06.2020
813 Clear 29 1012 37 10000 5.7 200 16:19 27.06.2020
814 Clear 29 1013 37 10000 6.2 190 15:42 27.06.2020
815 Clear 29 1013 37 10000 5.7 180 15:24 27.06.2020
816 Clear 29 1013 37 10000 5.7 180 15:24 27.06.2020
817 Clear 28 1013 39 10000 5.7 200 14:56 27.06.2020
818 Clear 28 1013 39 10000 5.7 200 14:37 27.06.2020
819 Clear 29 1013 35 10000 3.1 250 14:19 27.06.2020
820 Clear 28 1014 36 10000 2.6 290 13:41 27.06.2020
821 Clear 28 1014 39 10000 2.6 260 13:20 27.06.2020
822 Clear 28 1014 37 10000 2.6 260 12:58 27.06.2020
823 Clear 28 1014 37 10000 2.6 260 12:40 27.06.2020
824 Clear 27 1014 36 10000 3.6 260 12:21 27.06.2020
825 Clear 27 1014 39 10000 4.6 230 11:55 27.06.2020
826 Clear 27 1014 39 10000 4.6 230 11:37 27.06.2020
827 Clear 27 1015 37 10000 4.1 250 11:18 27.06.2020
828 Clear 27 1015 39 10000 4.6 240 10:39 27.06.2020
829 Clear 27 1015 44 10000 4.1 230 10:19 27.06.2020
830 Clear 26 1015 47 10000 4.1 230 09:54 27.06.2020
831 Clear 25 1015 47 10000 4.1 230 09:36 27.06.2020
832 Clear 24 1015 47 10000 3.6 230 09:18 27.06.2020
833 Clear 23 1015 50 10000 3.6 220 08:41 27.06.2020
834 Clouds 22 1016 53 10000 3.6 230 08:22 27.06.2020
835 Clouds 22 1016 53 10000 4.1 230 07:46 27.06.2020
836 Clouds 22 1016 53 10000 3.1 230 07:24 27.06.2020
837 Clouds 21 1016 52 10000 2.1 230 06:50 27.06.2020
838 Clouds 19 1016 63 10000 2.1 230 06:29 27.06.2020
839 Clear 15 1017 87 10000 2.35 269 04:24 27.06.2020
840 Clear 15 1017 93 10000 1 0 03:53 27.06.2020
841 Clear 16 1017 82 10000 2.6 240 03:23 27.06.2020
842 Clear 16 1017 87 10000 3.6 230 02:36 27.06.2020
843 Clear 17 1018 72 10000 3.1 250 01:49 27.06.2020
844 Clear 18 1018 77 10000 2.6 280 01:24 27.06.2020
845 Clear 19 1018 63 10000 2.1 250 00:38 27.06.2020
846 Clear 20 1018 59 10000 3.1 240 23:46 26.06.2020
847 Clear 20 1018 60 10000 3.6 230 23:26 26.06.2020
848 Clear 19 1018 56 10000 4.1 230 22:57 26.06.2020
849 Clear 21 1018 53 10000 4.1 230 22:38 26.06.2020
850 Clear 22 1018 53 10000 4.1 230 22:19 26.06.2020
851 Clear 22 1018 49 10000 4.1 230 21:57 26.06.2020
852 Clear 23 1018 47 10000 4.6 220 21:37 26.06.2020
853 Clear 23 1018 47 10000 4.6 220 21:19 26.06.2020
854 Clear 24 1018 47 10000 4.6 230 20:43 26.06.2020
855 Clear 25 1018 41 10000 4.6 220 20:21 26.06.2020
856 Clear 25 1018 36 10000 5.1 230 19:47 26.06.2020
857 Clear 25 1019 31 10000 5.7 220 19:23 26.06.2020
858 Clear 26 1019 30 10000 6.7 220 18:57 26.06.2020
859 Clear 26 1019 34 10000 6.7 230 18:37 26.06.2020
860 Clear 27 1019 34 10000 6.7 230 18:19 26.06.2020
861 Clear 27 1020 34 10000 6.7 220 17:44 26.06.2020
862 Clear 27 1020 34 10000 7.2 220 17:24 26.06.2020
863 Clear 27 1020 34 10000 6.7 220 16:49 26.06.2020
864 Clear 27 1021 37 10000 6.2 230 16:27 26.06.2020
865 Clear 27 1021 37 10000 6.2 220 15:55 26.06.2020
866 Clear 27 1021 37 10000 6.2 220 15:37 26.06.2020
867 Clear 27 1021 39 10000 7.7 200 15:19 26.06.2020
868 Clear 28 1021 37 10000 6.2 220 14:56 26.06.2020
869 Clear 28 1022 37 10000 6.7 210 14:38 26.06.2020
870 Clear 27 1022 37 10000 6.7 210 14:19 26.06.2020
871 Clear 27 1022 37 10000 6.2 220 13:44 26.06.2020
872 Clear 27 1022 37 10000 5.1 220 13:22 26.06.2020
873 Clear 25 1022 36 10000 5.1 230 12:43 26.06.2020
874 Clear 26 1022 34 10000 6.2 230 12:24 26.06.2020
875 Clear 26 1023 36 10000 5.1 230 11:59 26.06.2020
876 Clear 25 1023 36 10000 5.1 230 11:41 26.06.2020
877 Clear 25 1023 39 10000 4.6 230 11:22 26.06.2020
878 Clear 25 1023 38 10000 5.1 230 10:59 26.06.2020
879 Clear 25 1023 38 10000 5.1 230 10:40 26.06.2020
880 Clear 23 1023 38 10000 4.6 230 10:19 26.06.2020
881 Clear 23 1024 41 10000 4.6 230 09:45 26.06.2020
882 Clear 22 1024 46 10000 5.1 220 09:26 26.06.2020
883 Clear 22 1024 49 10000 5.1 210 08:59 26.06.2020
884 Clear 22 1024 49 10000 5.1 210 08:41 26.06.2020
885 Clear 22 1024 46 10000 3.1 230 08:23 26.06.2020
886 Clear 21 1024 56 10000 1 0 07:44 26.06.2020
887 Clear 20 1024 64 10000 1.5 260 07:22 26.06.2020
888 Clear 20 1024 63 10000 2.1 280 06:47 26.06.2020
889 Clear 19 1024 68 10000 1.5 240 06:28 26.06.2020
890 Clear 17 1025 77 10000 1.5 270 05:51 26.06.2020
891 Clear 16 1024 87 10000 0.5 260 04:44 26.06.2020
892 Clear 16 1025 82 10000 2.46 267 02:27 26.06.2020
893 Clear 18 1025 72 10000 1.5 270 01:25 26.06.2020
894 Clear 17 1025 77 10000 2.1 270 00:42 26.06.2020
895 Clear 19 1025 72 10000 2.6 240 00:20 26.06.2020
896 Clear 19 1025 67 10000 2.1 240 23:46 25.06.2020
897 Clear 18 1025 68 10000 1.5 260 23:21 25.06.2020
898 Clear 17 1025 59 10000 2.6 240 22:57 25.06.2020
899 Clear 18 1025 59 10000 2.6 240 22:38 25.06.2020
900 Clear 20 1025 40 10000 3.1 240 22:19 25.06.2020
901 Clear 21 1025 38 10000 2.6 240 21:56 25.06.2020
902 Clear 23 1025 38 10000 2.6 240 21:38 25.06.2020
903 Clear 25 1025 36 10000 3.1 240 21:20 25.06.2020
904 Clear 25 1025 36 10000 4.1 230 20:45 25.06.2020
905 Clear 26 1025 31 10000 5.1 230 20:24 25.06.2020
906 Clear 26 1025 32 10000 4.6 220 19:59 25.06.2020
907 Clear 27 1025 32 10000 4.6 220 19:40 25.06.2020
908 Clear 27 1025 32 10000 5.1 220 19:19 25.06.2020
909 Clear 27 1025 32 10000 5.1 220 19:19 25.06.2020
910 Clear 27 1025 32 10000 5.1 220 18:58 25.06.2020
911 Clear 28 1025 32 10000 5.1 210 18:38 25.06.2020
912 Clear 28 1025 32 10000 5.1 210 18:19 25.06.2020
913 Clear 28 1025 32 10000 4.6 230 17:42 25.06.2020
914 Clear 28 1025 32 10000 5.1 220 17:20 25.06.2020
915 Clear 28 1025 32 10000 5.1 220 17:20 25.06.2020
916 Clear 29 1025 33 10000 4.6 220 16:57 25.06.2020
917 Clear 28 1025 33 10000 4.6 220 16:37 25.06.2020
918 Clear 28 1025 32 10000 4.1 240 16:18 25.06.2020
919 Clear 28 1026 32 10000 4.1 230 15:41 25.06.2020
920 Clear 29 1026 27 10000 4.1 210 15:22 25.06.2020
921 Clear 29 1026 30 10000 3.6 220 14:44 25.06.2020
922 Clear 29 1026 28 10000 3.6 240 14:25 25.06.2020
923 Clear 29 1026 28 10000 3.1 230 13:59 25.06.2020
924 Clear 29 1026 28 10000 3.1 230 13:41 25.06.2020
925 Clear 28 1026 28 10000 2.6 0 13:19 25.06.2020
926 Clear 28 1026 30 10000 3.6 220 12:46 25.06.2020
927 Clear 27 1026 30 10000 4.1 230 12:21 25.06.2020
928 Clear 27 1026 34 10000 3.1 300 11:59 25.06.2020
929 Clear 27 1026 34 10000 3.1 290 11:40 25.06.2020
930 Clear 27 1026 34 10000 3.1 290 11:21 25.06.2020
931 Clear 27 1026 36 10000 3.1 280 10:42 25.06.2020
932 Clear 26 1027 36 10000 3.1 280 10:24 25.06.2020
933 Clear 25 1026 38 10000 4.1 280 09:42 25.06.2020
934 Clear 24 1027 44 10000 3.6 280 09:23 25.06.2020
935 Clear 24 1026 50 10000 2.6 280 08:59 25.06.2020
936 Clear 24 1026 50 10000 2.6 280 08:40 25.06.2020
937 Clear 23 1026 56 10000 2.6 270 08:18 25.06.2020
938 Clear 23 1026 56 10000 3.6 280 07:42 25.06.2020
939 Clear 22 1026 56 10000 3.6 280 07:24 25.06.2020
940 Clear 21 1026 60 10000 3.6 280 06:37 25.06.2020
941 Clear 18 1026 68 10000 2.6 280 06:18 25.06.2020
942 Clear 18 1026 68 10000 2.6 280 05:31 25.06.2020
943 Clear 17 1026 63 10000 3.6 290 03:39 25.06.2020
944 Clear 17 1026 72 10000 3.6 290 02:46 25.06.2020
945 Clear 17 1026 82 10000 3.6 290 02:25 25.06.2020
946 Clear 18 1026 82 10000 2.6 280 01:41 25.06.2020
947 Clear 18 1026 87 10000 1 280 00:50 25.06.2020
948 Clear 19 1025 87 10000 3.06 305 00:22 25.06.2020
949 Clear 20 1025 82 10000 0.5 0 23:58 24.06.2020
950 Clear 20 1025 82 10000 0.5 0 23:38 24.06.2020
951 Clear 20 1025 82 10000 1.5 230 23:19 24.06.2020
952 Clear 20 1025 68 10000 2.6 210 22:42 24.06.2020
953 Clear 21 1025 68 10000 2.1 180 22:21 24.06.2020
954 Clear 22 1025 53 10000 2.1 130 21:57 24.06.2020
955 Clear 22 1025 53 10000 2.1 130 21:37 24.06.2020
956 Clouds 23 1025 44 10000 2.6 150 21:19 24.06.2020
957 Clouds 24 1025 41 10000 3.1 180 20:58 24.06.2020
958 Clouds 24 1025 41 10000 3.1 180 20:39 24.06.2020
959 Clouds 25 1025 38 10000 3.6 180 20:21 24.06.2020
960 Clouds 25 1025 39 10000 3.6 190 19:58 24.06.2020
961 Clouds 25 1025 39 10000 3.6 190 19:38 24.06.2020
962 Clouds 25 1025 31 10000 4.1 190 19:20 24.06.2020
963 Clouds 25 1025 34 10000 4.1 180 18:58 24.06.2020
964 Clouds 26 1025 34 10000 4.1 190 18:39 24.06.2020
965 Clouds 26 1025 34 10000 4.1 190 18:20 24.06.2020
966 Clouds 26 1025 36 10000 4.1 180 17:55 24.06.2020
967 Clouds 26 1025 36 10000 4.1 180 17:37 24.06.2020
968 Clouds 26 1025 28 10000 4.1 160 17:18 24.06.2020
969 Clouds 26 1025 30 10000 4.1 160 16:55 24.06.2020
970 Clouds 26 1025 32 10000 4.1 160 16:37 24.06.2020
971 Clouds 26 1025 32 10000 4.1 160 16:19 24.06.2020
972 Clouds 26 1025 36 10000 5.1 170 15:54 24.06.2020
973 Clouds 25 1025 39 10000 5.1 180 15:36 24.06.2020
974 Clouds 25 1025 39 10000 5.1 180 15:18 24.06.2020
975 Clouds 24 1025 39 10000 5.1 160 14:40 24.06.2020
976 Clouds 26 1024 42 10000 5.7 160 14:22 24.06.2020
977 Clouds 26 1024 39 10000 4.1 170 13:42 24.06.2020
978 Clouds 27 1024 39 10000 4.6 160 13:21 24.06.2020
979 Clouds 26 1024 42 10000 1 0 12:45 24.06.2020
980 Clouds 26 1024 34 10000 2.1 340 12:22 24.06.2020
981 Clouds 26 1024 39 10000 1.5 0 11:58 24.06.2020
982 Clouds 27 1024 39 10000 1.5 0 11:40 24.06.2020
983 Clouds 26 1024 39 10000 2.1 110 11:22 24.06.2020
984 Clouds 25 1024 44 10000 1.5 310 10:48 24.06.2020
985 Clear 25 1024 41 10000 1.5 0 10:20 24.06.2020
986 Clouds 26 1024 47 10000 0.5 0 09:56 24.06.2020
987 Clear 24 1024 47 10000 1 0 09:38 24.06.2020
988 Clear 24 1024 47 10000 1 0 09:19 24.06.2020
989 Clear 23 1024 50 10000 0.5 0 08:40 24.06.2020
990 Clear 22 1024 53 10000 0.5 0 08:19 24.06.2020
991 Clear 21 1024 60 10000 1 0 07:48 24.06.2020
992 Clear 21 1024 64 10000 1 0 07:25 24.06.2020
993 Clear 19 1023 68 10000 1 0 06:46 24.06.2020
994 Clear 18 1023 72 10000 0.5 0 06:24 24.06.2020
995 Clear 18 1023 72 10000 0.5 0 06:24 24.06.2020
996 Clear 17 1023 72 10000 1 0 05:45 24.06.2020
997 Clear 16 1023 82 10000 1.5 320 04:39 24.06.2020
998 Clear 15 1023 77 10000 1.5 300 03:39 24.06.2020
999 Clear 16 1022 77 10000 2.1 300 02:55 24.06.2020
1000 Clear 16 1022 72 10000 1.5 300 02:36 24.06.2020
1001 Clear 17 1022 77 10000 3.6 310 00:53 24.06.2020
1002 Clear 17 1022 77 10000 3.6 310 00:53 24.06.2020
1003 Clear 18 1022 72 10000 2.6 310 00:34 24.06.2020
1004 Clear 18 1021 72 10000 2.1 270 23:49 23.06.2020
1005 Clear 19 1021 77 10000 2.1 250 23:23 23.06.2020
1006 Clear 19 1021 67 10000 1.5 240 22:59 23.06.2020
1007 Clear 19 1021 67 10000 1.5 240 22:59 23.06.2020
1008 Clear 16 1021 67 10000 1.5 240 22:41 23.06.2020
1009 Clear 20 1021 49 10000 2.6 230 22:19 23.06.2020
1010 Clear 21 1021 49 10000 3.1 220 21:56 23.06.2020
1011 Clear 21 1021 43 10000 3.1 220 21:37 23.06.2020
1012 Clear 22 1021 43 10000 3.1 220 21:18 23.06.2020
1013 Clear 22 1021 40 10000 3.1 240 20:55 23.06.2020
1014 Clear 23 1020 40 10000 3.6 230 20:36 23.06.2020
1015 Clear 23 1020 40 10000 3.6 230 20:36 23.06.2020
1016 Clear 23 1020 40 10000 3.6 230 20:18 23.06.2020
1017 Clear 23 1020 38 10000 4.1 180 19:41 23.06.2020
1018 Clear 24 1020 38 10000 4.1 180 19:23 23.06.2020
1019 Clear 24 1020 36 10000 5.1 180 18:39 23.06.2020
1020 Clear 24 1020 36 10000 5.1 180 18:19 23.06.2020
1021 Clear 24 1020 33 10000 5.1 180 17:43 23.06.2020
1022 Clear 24 1020 36 10000 5.1 180 17:25 23.06.2020
1023 Clear 24 1020 38 10000 5.1 180 16:57 23.06.2020
1024 Clear 24 1020 38 10000 5.1 180 16:38 23.06.2020
1025 Clear 24 1020 36 10000 5.1 170 16:20 23.06.2020
1026 Clear 24 1020 36 10000 5.7 160 15:57 23.06.2020
1027 Clear 23 1020 36 10000 5.7 160 15:57 23.06.2020
1028 Clear 25 1020 38 10000 5.7 180 15:39 23.06.2020
1029 Clear 25 1020 38 10000 5.7 180 15:18 23.06.2020
1030 Clear 24 1020 38 10000 5.7 180 14:43 23.06.2020
1031 Clear 24 1020 38 10000 5.7 190 14:20 23.06.2020
1032 Clear 24 1020 41 10000 6.2 200 13:57 23.06.2020
1033 Clear 24 1020 41 10000 6.2 200 13:39 23.06.2020
1034 Clear 23 1019 41 10000 5.1 180 13:20 23.06.2020
1035 Clear 23 1019 41 10000 5.1 170 12:45 23.06.2020
1036 Clear 23 1019 44 10000 3.6 0 12:23 23.06.2020
1037 Clear 23 1019 33 10000 1.5 0 11:58 23.06.2020
1038 Clear 23 1019 33 10000 1.5 0 11:40 23.06.2020
1039 Clear 24 1019 33 10000 2.1 80 11:19 23.06.2020
1040 Clear 23 1019 33 10000 1.5 0 10:57 23.06.2020
1041 Clear 23 1019 33 10000 1.5 0 10:39 23.06.2020
1042 Clear 22 1019 40 10000 2.6 320 10:21 23.06.2020
1043 Clear 23 1019 43 10000 1.5 310 09:42 23.06.2020
1044 Clear 21 1019 46 10000 0.5 0 09:21 23.06.2020
1045 Clear 21 1019 52 10000 1 0 08:58 23.06.2020
1046 Clear 20 1019 52 10000 1 0 08:39 23.06.2020
1047 Clear 20 1019 56 10000 2.1 320 08:20 23.06.2020
1048 Clear 19 1019 55 10000 1.5 350 07:40 23.06.2020
1049 Clear 19 1018 63 10000 2.1 350 07:22 23.06.2020
1050 Clear 17 1019 63 10000 1.5 340 06:49 23.06.2020
1051 Clear 16 1018 77 10000 1.5 310 06:31 23.06.2020
1052 Clear 14 1018 82 10000 1.88 33 05:42 23.06.2020
1053 Clear 11 1018 93 10000 1.58 25 03:39 23.06.2020
1054 Clear 11 1018 93 10000 1 30 02:56 23.06.2020
1055 Clear 12 1018 93 10000 1.69 5 02:37 23.06.2020
1056 Clear 12 1018 93 10000 1.72 8 02:19 23.06.2020
1057 Clear 12 1018 93 10000 1.72 8 01:37 23.06.2020
1058 Clear 12 1018 93 10000 1 270 01:18 23.06.2020
1059 Clear 13 1017 87 10000 1.21 338 00:24 23.06.2020
1060 Clear 14 1017 87 10000 1.21 338 23:57 22.06.2020
1061 Clear 14 1017 87 10000 1 0 23:38 22.06.2020
1062 Clear 14 1017 87 10000 1 0 23:19 22.06.2020
1063 Clear 15 1017 81 10000 1 0 22:57 22.06.2020
1064 Clear 15 1017 81 10000 1 0 22:38 22.06.2020
1065 Clear 16 1017 71 10000 0.5 0 22:19 22.06.2020
1066 Clear 16 1017 71 10000 0.5 0 22:19 22.06.2020
1067 Clear 17 1017 72 10000 1.5 140 21:57 22.06.2020
1068 Clear 18 1017 45 10000 2.6 120 21:38 22.06.2020
1069 Clear 18 1017 45 10000 2.6 120 21:20 22.06.2020
1070 Clear 18 1017 45 10000 2.6 120 21:20 22.06.2020
1071 Clear 19 1017 42 10000 2.6 130 20:41 22.06.2020
1072 Clear 19 1017 42 10000 2.6 120 20:23 22.06.2020
1073 Clear 20 1017 42 10000 3.1 120 19:56 22.06.2020
1074 Clear 20 1017 43 10000 2.6 110 19:37 22.06.2020
1075 Clear 20 1017 43 10000 2.6 110 19:18 22.06.2020
1076 Clear 20 1017 43 10000 3.1 140 18:40 22.06.2020
1077 Clear 20 1017 43 10000 2.6 140 18:21 22.06.2020
1078 Clear 20 1017 46 10000 3.1 150 17:57 22.06.2020
1079 Clear 20 1017 46 10000 3.1 150 17:38 22.06.2020
1080 Clear 20 1018 43 10000 4.6 150 17:19 22.06.2020
1081 Clear 20 1018 43 10000 4.6 150 16:55 22.06.2020
1082 Clear 20 1018 46 10000 4.1 140 16:37 22.06.2020
1083 Clear 20 1018 46 10000 4.6 130 16:18 22.06.2020
1084 Clear 20 1018 43 10000 5.1 150 15:42 22.06.2020
1085 Clear 20 1018 43 10000 5.1 150 15:24 22.06.2020
1086 Clear 20 1018 46 10000 5.1 140 14:56 22.06.2020
1087 Clear 20 1018 43 10000 5.1 140 14:36 22.06.2020
1088 Clear 20 1018 43 10000 5.1 150 14:18 22.06.2020
1089 Clear 20 1018 46 10000 5.1 130 13:39 22.06.2020
1090 Clear 20 1018 46 10000 5.1 130 13:39 22.06.2020
1091 Clear 20 1018 46 10000 5.1 130 13:21 22.06.2020
1092 Clear 20 1018 42 10000 3.6 120 12:57 22.06.2020
1093 Clear 20 1018 42 10000 3.6 120 12:39 22.06.2020
1094 Clear 20 1018 42 10000 3.6 120 12:39 22.06.2020
1095 Clear 20 1018 42 10000 3.6 120 12:21 22.06.2020
1096 Clouds 19 1019 45 10000 3.1 50 11:37 22.06.2020
1097 Clouds 19 1019 45 10000 3.1 50 11:19 22.06.2020
1098 Clouds 19 1019 45 10000 3.6 80 10:56 22.06.2020
1099 Clouds 19 1019 45 10000 2.6 80 10:37 22.06.2020
1100 Clouds 19 1019 45 10000 2.6 80 10:37 22.06.2020
1101 Clear 19 1019 45 10000 2.6 60 10:18 22.06.2020
1102 Clear 19 1019 45 10000 2.6 60 09:56 22.06.2020
1103 Clear 18 1019 55 10000 3.1 50 09:38 22.06.2020
1104 Clear 18 1019 52 10000 3.6 60 09:18 22.06.2020
1105 Clear 18 1019 52 10000 3.6 60 08:54 22.06.2020
1106 Clear 18 1019 48 10000 3.1 60 08:36 22.06.2020
1107 Clear 17 1019 55 10000 2.6 40 08:18 22.06.2020
1108 Clear 17 1019 59 10000 3.1 50 07:44 22.06.2020
1109 Clear 15 1019 62 10000 3.1 50 07:23 22.06.2020
1110 Clear 14 1020 67 10000 3.1 40 06:38 22.06.2020
1111 Clear 14 1020 71 10000 2.6 40 06:19 22.06.2020
1112 Clear 13 1020 81 10000 2.6 50 05:41 22.06.2020
1113 Fog 11 1020 100 10000 3.22 49 02:59 22.06.2020
1114 Clear 12 1021 93 10000 1 10 01:39 22.06.2020
1115 Clear 13 1021 93 10000 2.1 40 00:44 22.06.2020
1116 Clear 13 1021 93 10000 2.1 40 00:25 22.06.2020
1117 Clear 14 1021 87 10000 1.5 60 23:56 21.06.2020
1118 Clear 14 1021 87 10000 1.5 70 23:37 21.06.2020
1119 Clear 14 1021 87 10000 1.5 70 23:19 21.06.2020
1120 Clear 15 1020 87 10000 1.5 50 22:55 21.06.2020
1121 Clear 16 1020 82 10000 1 0 22:36 21.06.2020
1122 Clouds 16 1020 72 10000 1.5 100 22:18 21.06.2020
1123 Clouds 17 1020 52 10000 2.1 110 21:55 21.06.2020
1124 Clouds 17 1020 52 10000 2.1 110 21:37 21.06.2020
1125 Clouds 18 1020 52 10000 3.6 130 21:18 21.06.2020
1126 Clouds 18 1020 48 10000 4.1 130 20:40 21.06.2020
1127 Clouds 18 1020 48 10000 4.1 130 20:40 21.06.2020
1128 Clouds 19 1020 48 10000 4.1 130 20:21 21.06.2020
1129 Clouds 19 1020 48 10000 3.6 140 19:59 21.06.2020
1130 Clouds 19 1020 48 10000 4.1 120 19:40 21.06.2020
1131 Clouds 19 1020 48 10000 4.1 120 19:20 21.06.2020
1132 Clouds 19 1020 48 10000 4.1 140 18:56 21.06.2020
1133 Clouds 19 1020 48 10000 3.6 150 18:38 21.06.2020
1134 Clouds 19 1020 48 10000 5.1 140 18:19 21.06.2020
1135 Clouds 19 1020 49 10000 5.7 140 17:41 21.06.2020
1136 Clouds 19 1020 49 10000 5.7 140 17:21 21.06.2020
1137 Clouds 19 1021 49 10000 5.1 130 16:57 21.06.2020
1138 Clouds 19 1021 52 10000 4.6 130 16:39 21.06.2020
1139 Clouds 19 1021 49 10000 5.1 160 16:21 21.06.2020
1140 Clouds 20 1021 49 10000 4.6 150 15:40 21.06.2020
1141 Clouds 20 1021 49 10000 4.6 150 15:40 21.06.2020
1142 Clouds 19 1021 52 10000 4.1 140 15:22 21.06.2020
1143 Clouds 19 1021 52 10000 4.1 140 14:58 21.06.2020
1144 Clear 19 1021 52 10000 5.1 140 14:37 21.06.2020
1145 Clouds 19 1021 52 10000 5.1 140 14:19 21.06.2020
1146 Clouds 19 1021 40 10000 3.1 50 13:43 21.06.2020
1147 Clouds 20 1021 40 10000 3.1 50 13:25 21.06.2020
1148 Clouds 19 1022 43 10000 4.6 40 12:59 21.06.2020
1149 Clouds 19 1022 49 10000 4.6 50 12:41 21.06.2020
1150 Clouds 19 1022 49 10000 4.6 50 12:23 21.06.2020
1151 Clouds 19 1022 45 10000 4.1 50 11:43 21.06.2020
1152 Clouds 19 1022 45 10000 4.1 60 11:24 21.06.2020
1153 Clouds 19 1022 45 10000 4.1 60 10:59 21.06.2020
1154 Clouds 19 1022 48 10000 4.6 80 10:40 21.06.2020
1155 Clouds 18 1022 48 10000 4.6 80 10:22 21.06.2020
1156 Clouds 18 1022 55 10000 5.1 80 09:44 21.06.2020
1157 Clouds 18 1022 55 10000 5.1 80 09:25 21.06.2020
1158 Clouds 18 1022 55 10000 4.6 70 08:59 21.06.2020
1159 Clouds 18 1022 59 10000 4.6 60 08:41 21.06.2020
1160 Clouds 17 1022 59 10000 4.6 60 08:20 21.06.2020
1161 Clouds 17 1022 63 10000 4.1 70 07:59 21.06.2020
1162 Clouds 17 1022 67 10000 3.6 70 07:39 21.06.2020
1163 Clear 16 1022 67 10000 3.6 60 07:19 21.06.2020
1164 Clear 15 1022 71 10000 3.1 60 06:46 21.06.2020
1165 Clear 15 1022 67 10000 3.6 50 05:57 21.06.2020
1166 Clear 13 1022 76 10000 3.6 50 04:49 21.06.2020
1167 Clear 13 1023 81 10000 2.6 50 03:20 21.06.2020
1168 Clear 13 1022 81 10000 2.6 50 02:49 21.06.2020
1169 Clear 14 1022 81 10000 3.1 80 01:48 21.06.2020
1170 Clear 15 1022 81 10000 3.1 80 01:21 21.06.2020
1171 Clear 14 1022 87 10000 2.6 50 00:55 21.06.2020
1172 Clear 14 1022 87 10000 1.5 80 00:36 21.06.2020
1173 Clear 15 1022 87 10000 1.5 80 00:18 21.06.2020
1174 Clear 16 1022 76 10000 2.1 60 23:41 20.06.2020
1175 Clear 15 1022 76 10000 2.1 60 23:21 20.06.2020
1176 Clear 16 1021 59 10000 2.6 90 22:55 20.06.2020
1177 Clear 16 1021 59 10000 2.6 90 22:36 20.06.2020
1178 Clear 17 1021 66 0 4.61 84 22:18 20.06.2020
1179 Clear 17 1021 59 10000 4.1 100 21:55 20.06.2020
1180 Clear 17 1021 59 10000 3.6 100 21:37 20.06.2020
1181 Clear 18 1021 59 10000 4.1 100 21:18 20.06.2020
1182 Clear 18 1021 59 10000 4.1 100 20:54 20.06.2020
1183 Clouds 18 1020 55 10000 4.6 100 20:36 20.06.2020
1184 Clouds 18 1020 55 10000 4.6 100 20:36 20.06.2020
1185 Clouds 19 1020 56 10000 4.6 110 20:18 20.06.2020
1186 Clouds 19 1020 60 10000 4.1 110 19:41 20.06.2020
1187 Clouds 20 1020 56 10000 5.7 130 19:21 20.06.2020
1188 Clouds 20 1020 49 10000 5.1 110 18:43 20.06.2020
1189 Clouds 21 1020 49 10000 5.1 110 18:21 20.06.2020
1190 Clouds 21 1020 49 10000 5.7 100 17:58 20.06.2020
1191 Clouds 21 1020 49 10000 5.7 90 17:40 20.06.2020
1192 Clouds 21 1020 49 10000 5.7 90 17:40 20.06.2020
1193 Clouds 21 1020 49 10000 6.2 100 17:20 20.06.2020
1194 Clouds 21 1020 49 10000 6.2 100 16:56 20.06.2020
1195 Clouds 22 1020 49 10000 5.7 80 16:37 20.06.2020
1196 Clear 22 1020 49 10000 6.7 110 16:18 20.06.2020
1197 Clear 22 1020 49 10000 5.7 110 15:42 20.06.2020
1198 Clear 22 1020 43 10000 7.7 100 15:18 20.06.2020
1199 Clouds 22 1020 46 10000 6.7 100 14:43 20.06.2020
1200 Clouds 21 1020 46 10000 6.7 100 14:21 20.06.2020
1201 Clouds 21 1020 43 10000 6.2 80 13:55 20.06.2020
1202 Clouds 21 1020 43 10000 7.2 90 13:37 20.06.2020
1203 Clouds 21 1020 43 10000 7.2 90 13:19 20.06.2020
1204 Clouds 21 1020 40 10000 8.7 90 12:42 20.06.2020
1205 Clouds 21 1020 43 10000 7.2 90 12:21 20.06.2020
1206 Clouds 21 1020 43 10000 7.2 90 11:57 20.06.2020
1207 Clouds 21 1020 52 10000 6.7 70 11:37 20.06.2020
1208 Clouds 21 1019 53 10000 6.2 80 11:19 20.06.2020
1209 Clouds 21 1019 60 10000 4.6 70 10:47 20.06.2020
1210 Clouds 20 1019 60 10000 5.7 80 10:22 20.06.2020
1211 Clouds 20 1019 64 10000 5.1 70 09:55 20.06.2020
1212 Clouds 20 1019 64 10000 5.1 70 09:37 20.06.2020
1213 Clouds 20 1019 64 10000 5.1 70 09:19 20.06.2020
1214 Clouds 19 1019 68 10000 6.2 60 08:46 20.06.2020
1215 Clouds 19 1019 68 10000 6.2 60 08:27 20.06.2020
1216 Clouds 19 1018 68 10000 5.1 60 07:51 20.06.2020
1217 Clear 19 1018 72 10000 5.7 70 07:28 20.06.2020
1218 Clear 19 1018 72 10000 4.6 60 06:56 20.06.2020
1219 Clear 17 1018 77 10000 4.1 50 06:23 20.06.2020
1220 Clear 17 1018 77 10000 4.1 50 06:23 20.06.2020
1221 Clear 17 1018 82 10000 4.1 40 05:52 20.06.2020
1222 Clear 17 1018 87 10000 4.1 40 04:58 20.06.2020
1223 Clear 18 1017 77 10000 4.1 50 02:27 20.06.2020
1224 Clear 18 1017 77 10000 4.1 40 01:48 20.06.2020
1225 Clear 19 1017 77 10000 4.1 40 00:55 20.06.2020
1226 Clear 19 1017 72 10000 4.1 30 00:21 20.06.2020
1227 Clear 20 1017 72 10000 3.6 40 23:55 19.06.2020
1228 Clear 20 1017 68 10000 4.1 40 23:37 19.06.2020
1229 Clear 20 1017 64 10000 4.1 50 23:18 19.06.2020
1230 Clear 21 1016 68 10000 4.1 40 22:40 19.06.2020
1231 Clear 21 1016 64 10000 5.1 40 22:22 19.06.2020
1232 Clear 22 1016 64 10000 5.1 40 21:58 19.06.2020
1233 Clear 22 1016 60 10000 4.1 30 21:38 19.06.2020
1234 Clear 22 1015 64 10000 2.6 30 21:18 19.06.2020
1235 Clear 22 1015 64 10000 2.6 30 20:58 19.06.2020
1236 Clear 23 1015 68 10000 1.5 30 20:40 19.06.2020
1237 Clear 23 1015 68 10000 1.5 30 20:21 19.06.2020
1238 Clear 24 1015 53 10000 2.1 130 19:57 19.06.2020
1239 Clear 24 1015 50 10000 2.6 160 19:38 19.06.2020
1240 Clear 24 1015 50 10000 1.5 130 19:19 19.06.2020
1241 Clear 25 1015 50 10000 2.1 180 18:41 19.06.2020
1242 Clear 24 1015 50 10000 2.1 180 18:21 19.06.2020
1243 Clear 24 1015 50 10000 4.1 170 17:58 19.06.2020
1244 Clear 25 1015 47 10000 3.1 110 17:38 19.06.2020
1245 Clear 25 1015 47 10000 3.1 110 17:20 19.06.2020
1246 Clear 25 1015 47 10000 3.1 110 17:20 19.06.2020
1247 Clear 24 1015 47 10000 3.1 50 16:54 19.06.2020
1248 Clear 25 1014 47 10000 4.1 30 16:36 19.06.2020
1249 Clear 25 1014 47 10000 4.1 30 16:18 19.06.2020
1250 Clear 25 1015 44 10000 2.1 0 15:42 19.06.2020
1251 Clear 25 1015 44 10000 2.1 0 15:20 19.06.2020
1252 Clear 25 1015 41 10000 3.1 20 14:56 19.06.2020
1253 Clear 25 1015 44 10000 2.1 0 14:38 19.06.2020
1254 Clear 25 1015 44 10000 3.6 20 14:18 19.06.2020
1255 Clear 25 1015 44 10000 3.1 330 13:43 19.06.2020
1256 Clear 25 1015 44 10000 3.1 330 13:25 19.06.2020
1257 Clear 24 1015 44 10000 1.5 0 12:48 19.06.2020
1258 Clear 25 1015 44 10000 1.5 0 12:23 19.06.2020
1259 Clear 24 1015 47 10000 1.5 40 11:58 19.06.2020
1260 Clear 24 1015 44 10000 2.6 50 11:38 19.06.2020
1261 Clear 24 1015 53 10000 3.6 350 11:18 19.06.2020
1262 Clear 23 1015 53 10000 3.1 340 10:46 19.06.2020
1263 Clear 21 1015 53 10000 3.1 340 10:26 19.06.2020
1264 Clear 22 1015 56 10000 3.1 360 09:59 19.06.2020
1265 Clear 21 1015 64 10000 3.6 350 09:41 19.06.2020
1266 Clear 21 1015 64 10000 2.6 350 09:20 19.06.2020
1267 Clear 20 1015 68 10000 3.1 360 08:44 19.06.2020
1268 Clear 20 1015 68 10000 3.1 360 08:26 19.06.2020
1269 Clear 19 1015 64 10000 3.6 20 07:56 19.06.2020
1270 Clear 19 1014 68 10000 3.1 10 07:38 19.06.2020
1271 Clear 18 1015 72 10000 2.6 10 07:19 19.06.2020
1272 Clear 16 1014 77 10000 3.6 360 06:25 19.06.2020
1273 Clear 16 1014 82 10000 3.6 350 05:44 19.06.2020
1274 Clear 16 1014 82 10000 2.6 340 04:25 19.06.2020
1275 Clear 16 1014 93 10000 2.6 330 02:51 19.06.2020
1276 Clear 17 1014 93 10000 2.1 340 00:49 19.06.2020
1277 Clear 18 1014 93 10000 2.1 340 00:22 19.06.2020
1278 Clear 18 1014 93 10000 1.5 340 23:59 18.06.2020
1279 Clear 18 1013 93 10000 1.5 340 23:41 18.06.2020
1280 Clear 18 1013 93 10000 1.5 340 23:23 18.06.2020
1281 Clear 19 1013 93 10000 2.6 320 22:58 18.06.2020
1282 Clear 20 1013 82 10000 2.1 300 22:37 18.06.2020
1283 Clear 20 1013 77 10000 2.1 270 22:18 18.06.2020
1284 Clear 20 1013 77 10000 2.1 270 22:18 18.06.2020
1285 Clear 21 1012 73 10000 1.5 250 21:39 18.06.2020
1286 Clear 22 1012 73 10000 1.5 250 21:20 18.06.2020
1287 Clear 22 1012 60 10000 2.6 240 20:56 18.06.2020
1288 Clear 23 1012 57 10000 3.1 230 20:38 18.06.2020
1289 Clear 23 1012 60 10000 2.6 220 20:18 18.06.2020
1290 Clouds 24 1012 60 10000 3.1 210 19:42 18.06.2020
1291 Clouds 24 1012 61 10000 2.6 200 19:21 18.06.2020
1292 Clouds 24 1012 61 10000 2.6 200 18:57 18.06.2020
1293 Clouds 24 1013 64 10000 3.1 200 18:37 18.06.2020
1294 Clouds 24 1013 69 10000 2.6 180 18:18 18.06.2020
1295 Clouds 24 1013 64 10000 3.1 180 17:45 18.06.2020
1296 Clouds 24 1013 64 10000 3.1 180 17:25 18.06.2020
1297 Clouds 23 1013 64 10000 2.1 220 16:56 18.06.2020
1298 Clouds 23 1013 65 10000 3.1 180 16:37 18.06.2020
1299 Clouds 23 1013 73 10000 3.1 120 16:18 18.06.2020
1300 Clouds 22 1013 73 10000 3.1 120 15:55 18.06.2020
1301 Clouds 22 1013 73 10000 4.1 170 15:37 18.06.2020
1302 Clouds 22 1013 73 10000 4.1 180 15:18 18.06.2020
1303 Clouds 22 1013 73 10000 2.6 170 14:41 18.06.2020
1304 Clouds 22 1013 73 10000 2.6 170 14:23 18.06.2020
1305 Clouds 21 1013 78 10000 2.1 140 13:58 18.06.2020
1306 Clouds 21 1014 78 10000 2.6 130 13:40 18.06.2020
1307 Clouds 21 1014 78 10000 2.6 130 13:40 18.06.2020
1308 Clouds 21 1014 78 10000 2.6 130 13:20 18.06.2020
1309 Clouds 21 1014 88 10000 3.1 140 12:55 18.06.2020
1310 Clouds 20 1014 83 10000 2.6 230 12:37 18.06.2020
1311 Clouds 20 1014 83 10000 2.6 230 12:19 18.06.2020
1312 Clouds 20 1014 88 10000 2.1 240 11:46 18.06.2020
1313 Clouds 19 1013 94 10000 2.6 330 11:21 18.06.2020
1314 Clouds 19 1012 93 10000 1.5 310 10:41 18.06.2020
1315 Clouds 19 1012 93 10000 1.5 310 10:20 18.06.2020
1316 Clouds 19 1013 93 10000 2.1 200 09:58 18.06.2020
1317 Clouds 19 1014 93 7000 3.6 210 09:40 18.06.2020
1318 Clouds 19 1014 93 7000 3.6 210 09:40 18.06.2020
1319 Clouds 19 1014 93 7000 3.6 210 09:21 18.06.2020
1320 Rain 19 1014 93 6000 3.1 200 08:41 18.06.2020
1321 Rain 18 1014 100 6000 2.1 140 08:22 18.06.2020
1322 Rain 18 1014 100 6000 2.1 140 07:57 18.06.2020
1323 Thunderstorm 18 1013 100 4000 3.1 60 07:37 18.06.2020
1324 Thunderstorm 18 1013 100 4000 3.1 60 07:37 18.06.2020
1325 Rain 18 1014 91 0 0.93 90 07:19 18.06.2020
1326 Rain 18 1014 100 3000 1.5 300 06:22 18.06.2020
1327 Rain 18 1014 100 6000 2.6 290 04:26 18.06.2020
1328 Clear 17 1014 100 10000 1 0 03:18 18.06.2020
1329 Rain 19 1014 82 10000 2.1 80 01:32 18.06.2020
1330 Rain 18 1015 82 10000 1 0 00:59 18.06.2020
1331 Rain 18 1015 88 10000 1 0 00:39 18.06.2020
1332 Rain 19 1015 77 10000 1.5 80 00:21 18.06.2020
1333 Rain 19 1015 77 10000 2.6 110 23:45 17.06.2020
1334 Clouds 19 1015 73 10000 2.1 110 23:21 17.06.2020
1335 Clouds 19 1015 73 10000 2.1 110 22:58 17.06.2020
1336 Clouds 20 1015 73 10000 2.6 130 22:39 17.06.2020
1337 Clouds 20 1015 73 10000 2.6 130 22:20 17.06.2020
1338 Clouds 20 1015 73 10000 3.1 130 21:55 17.06.2020
1339 Clear 21 1015 68 10000 3.1 120 21:37 17.06.2020
1340 Clear 22 1015 68 10000 4.6 130 21:18 17.06.2020
1341 Clear 21 1015 60 10000 4.1 120 20:38 17.06.2020
1342 Clear 21 1015 60 10000 4.1 120 20:38 17.06.2020
1343 Clear 22 1015 57 10000 4.1 130 20:20 17.06.2020
1344 Clear 22 1015 57 10000 4.1 130 19:57 17.06.2020
1345 Clear 22 1015 57 10000 4.1 130 19:57 17.06.2020
1346 Clear 22 1015 60 10000 4.6 130 19:38 17.06.2020
1347 Clear 23 1015 60 10000 4.6 130 19:19 17.06.2020
1348 Clear 23 1015 47 10000 2.6 120 18:45 17.06.2020
1349 Clear 24 1015 47 10000 2.6 120 18:27 17.06.2020
1350 Clear 24 1015 47 10000 2.6 130 17:45 17.06.2020
1351 Clear 25 1015 50 10000 3.1 130 17:23 17.06.2020
1352 Clear 24 1015 50 10000 3.1 130 16:58 17.06.2020
1353 Clear 24 1015 53 10000 3.6 130 16:39 17.06.2020
1354 Clear 24 1015 47 10000 3.1 150 16:21 17.06.2020
1355 Clear 24 1015 47 10000 3.1 150 15:56 17.06.2020
1356 Clear 24 1015 44 10000 4.1 160 15:38 17.06.2020
1357 Clear 23 1015 41 10000 3.1 160 15:19 17.06.2020
1358 Clear 23 1015 41 10000 3.1 160 14:57 17.06.2020
1359 Clear 23 1015 39 10000 4.1 160 14:38 17.06.2020
1360 Clear 23 1015 38 10000 4.1 170 14:19 17.06.2020
1361 Clear 23 1015 38 10000 4.1 170 14:19 17.06.2020
1362 Clear 24 1015 41 10000 4.1 150 13:42 17.06.2020
1363 Clear 24 1015 41 10000 4.1 150 13:22 17.06.2020
1364 Clear 24 1015 41 10000 2.1 180 12:59 17.06.2020
1365 Clouds 24 1015 47 10000 2.1 0 12:40 17.06.2020
1366 Clouds 24 1015 44 10000 2.6 120 12:21 17.06.2020
1367 Clouds 24 1016 41 10000 2.1 110 11:44 17.06.2020
1368 Clouds 24 1016 41 10000 2.1 110 11:26 17.06.2020
1369 Clouds 23 1015 49 10000 1 0 10:58 17.06.2020
1370 Clouds 23 1015 53 10000 2.1 90 10:38 17.06.2020
1371 Clouds 23 1015 53 10000 1 0 10:19 17.06.2020
1372 Clouds 23 1015 53 10000 1 0 09:55 17.06.2020
1373 Clouds 21 1015 60 10000 1 0 09:36 17.06.2020
1374 Clouds 21 1015 72 10000 2.1 290 09:18 17.06.2020
1375 Clouds 21 1015 72 10000 2.1 290 09:18 17.06.2020
1376 Clouds 21 1015 68 10000 1.5 280 08:42 17.06.2020
1377 Clouds 20 1015 77 10000 1 0 08:19 17.06.2020
1378 Clouds 19 1015 82 10000 1 0 07:44 17.06.2020
1379 Clouds 19 1015 88 10000 2.1 230 07:23 17.06.2020
1380 Clouds 18 1015 88 10000 2.1 230 06:58 17.06.2020
1381 Clouds 18 1015 88 10000 1.5 230 06:39 17.06.2020
1382 Clouds 18 1015 88 10000 1 0 06:21 17.06.2020
1383 Clouds 18 1015 88 10000 1 0 05:48 17.06.2020
1384 Clouds 17 1015 100 10000 1.5 60 04:38 17.06.2020
1385 Clouds 17 1015 93 10000 1.5 70 01:59 17.06.2020
1386 Clouds 17 1014 93 10000 1.5 80 00:49 17.06.2020
1387 Clouds 17 1014 93 10000 1.5 80 00:30 17.06.2020
1388 Clouds 18 1015 88 10000 2.1 60 23:58 16.06.2020
1389 Clouds 17 1015 93 10000 1 50 23:40 16.06.2020
1390 Clear 18 1015 93 10000 1.5 50 23:22 16.06.2020
1391 Clear 17 1015 93 10000 1.5 50 22:57 16.06.2020
1392 Clear 19 1015 77 10000 2.1 130 22:38 16.06.2020
1393 Clear 19 1015 77 10000 1.5 130 22:19 16.06.2020
1394 Clear 19 1015 77 10000 1.5 130 21:57 16.06.2020
1395 Clear 20 1014 68 10000 1 0 21:39 16.06.2020
1396 Clear 20 1014 68 10000 1 0 21:39 16.06.2020
1397 Clear 20 1014 68 10000 3.6 130 21:20 16.06.2020
1398 Clear 21 1014 68 10000 4.1 170 20:43 16.06.2020
1399 Clouds 21 1014 68 10000 4.1 170 20:22 16.06.2020
1400 Clouds 22 1014 57 10000 3.1 130 19:58 16.06.2020
1401 Clouds 22 1014 60 10000 3.1 110 19:40 16.06.2020
1402 Clouds 22 1014 60 10000 2.6 100 19:22 16.06.2020
1403 Clouds 23 1014 60 10000 2.6 100 18:56 16.06.2020
1404 Clouds 24 1014 60 10000 3.1 110 18:38 16.06.2020
1405 Clouds 24 1014 60 10000 3.1 110 18:20 16.06.2020
1406 Clouds 24 1015 60 10000 3.1 120 17:56 16.06.2020
1407 Clouds 24 1014 60 10000 3.1 140 17:37 16.06.2020
1408 Clouds 24 1015 60 10000 3.6 120 17:19 16.06.2020
1409 Clouds 24 1015 60 10000 3.6 120 16:55 16.06.2020
1410 Clouds 24 1015 64 10000 3.1 120 16:37 16.06.2020
1411 Clouds 24 1015 64 10000 2.6 100 16:18 16.06.2020
1412 Clouds 24 1015 64 10000 2.6 100 15:55 16.06.2020
1413 Clouds 24 1015 64 10000 4.6 70 15:37 16.06.2020
1414 Clouds 24 1015 69 10000 4.6 90 15:19 16.06.2020
1415 Clouds 24 1015 78 10000 3.1 70 14:42 16.06.2020
1416 Clouds 24 1015 78 10000 3.1 70 14:23 16.06.2020
1417 Clouds 23 1015 94 10000 2.6 80 13:50 16.06.2020
1418 Clouds 22 1015 94 10000 2.6 80 13:27 16.06.2020
1419 Rain 21 1015 94 10000 3.1 50 12:57 16.06.2020
1420 Rain 22 1016 93 10000 3.6 80 12:39 16.06.2020
1421 Rain 21 1016 93 10000 3.6 80 12:21 16.06.2020
1422 Rain 22 1015 73 10000 4.6 120 11:55 16.06.2020
1423 Clouds 23 1015 60 10000 4.1 100 11:37 16.06.2020
1424 Clouds 23 1015 60 10000 4.1 80 11:19 16.06.2020
1425 Clouds 23 1015 64 10000 5.1 60 10:43 16.06.2020
1426 Clear 23 1015 60 10000 4.1 50 10:21 16.06.2020
1427 Clear 23 1015 60 10000 4.1 50 09:58 16.06.2020
1428 Clouds 22 1015 64 10000 3.6 80 09:40 16.06.2020
1429 Clouds 22 1015 64 10000 3.6 80 09:21 16.06.2020
1430 Clouds 22 1015 64 10000 3.6 80 09:21 16.06.2020
1431 Clouds 21 1015 68 10000 3.6 50 08:44 16.06.2020
1432 Clouds 21 1015 68 10000 3.6 50 08:25 16.06.2020
1433 Clouds 21 1015 72 10000 3.1 50 07:50 16.06.2020
1434 Clouds 20 1015 72 10000 1.5 80 07:27 16.06.2020
1435 Clouds 20 1015 72 10000 1.5 80 07:27 16.06.2020
1436 Clouds 19 1014 72 10000 2.1 30 06:48 16.06.2020
1437 Clouds 18 1014 72 10000 2.1 30 06:27 16.06.2020
1438 Clouds 17 1015 88 10000 2.1 30 05:39 16.06.2020
1439 Clouds 17 1014 93 10000 2.6 340 04:39 16.06.2020
1440 Clouds 18 1015 88 10000 1 70 02:59 16.06.2020
1441 Clouds 16 1015 82 10000 1 0 01:59 16.06.2020
1442 Clouds 18 1015 77 10000 1.5 70 01:27 16.06.2020
1443 Clouds 17 1015 77 10000 1 90 00:43 16.06.2020
1444 Clouds 18 1015 77 10000 1 90 00:19 16.06.2020
1445 Clear 18 1015 77 10000 1 0 23:42 15.06.2020
1446 Clouds 18 1015 82 10000 1.5 60 23:22 15.06.2020
1447 Clouds 18 1015 82 10000 1.5 60 22:55 15.06.2020
1448 Clear 19 1015 72 10000 2.1 90 22:37 15.06.2020
1449 Clear 19 1015 60 10000 2.6 100 22:18 15.06.2020
1450 Clear 19 1015 60 10000 2.6 100 21:55 15.06.2020
1451 Clouds 20 1015 56 10000 2.1 110 21:36 15.06.2020
1452 Clouds 20 1015 56 10000 3.1 110 21:18 15.06.2020
1453 Clouds 20 1015 56 10000 3.1 110 20:55 15.06.2020
1454 Clouds 21 1015 53 10000 3.6 110 20:36 15.06.2020
1455 Clear 21 1015 53 10000 3.1 90 20:18 15.06.2020
1456 Clear 21 1015 53 10000 4.1 110 19:41 15.06.2020
1457 Clear 22 1015 49 10000 5.1 120 19:22 15.06.2020
1458 Clear 21 1015 53 10000 4.1 110 19:22 15.06.2020
1459 Clear 22 1015 49 10000 5.1 120 18:59 15.06.2020
1460 Clear 22 1016 49 10000 4.6 120 18:41 15.06.2020
1461 Clear 23 1016 49 10000 5.1 120 18:21 15.06.2020
1462 Clear 23 1016 49 10000 5.1 120 17:58 15.06.2020
1463 Clear 23 1016 47 10000 6.2 130 17:40 15.06.2020
1464 Clear 23 1016 47 10000 6.2 130 17:40 15.06.2020
1465 Clear 23 1016 43 10000 6.2 110 17:20 15.06.2020
1466 Clear 23 1016 38 10000 6.2 110 16:57 15.06.2020
1467 Clear 23 1016 38 10000 6.2 110 16:39 15.06.2020
1468 Clear 23 1016 38 10000 5.7 110 16:18 15.06.2020
1469 Clear 23 1016 38 10000 4.1 90 15:41 15.06.2020
1470 Clear 23 1016 38 10000 5.1 90 15:21 15.06.2020
1471 Clear 23 1016 38 10000 5.1 90 14:58 15.06.2020
1472 Clear 23 1017 38 10000 5.7 80 14:40 15.06.2020
1473 Clear 24 1017 36 10000 4.6 80 14:19 15.06.2020
1474 Clear 23 1017 36 10000 4.6 80 13:56 15.06.2020
1475 Clear 23 1017 36 10000 5.1 80 13:38 15.06.2020
1476 Clear 23 1017 36 10000 5.1 80 13:18 15.06.2020
1477 Clear 23 1018 36 10000 4.6 60 12:43 15.06.2020
1478 Clear 23 1018 36 10000 4.6 60 12:22 15.06.2020
1479 Clear 23 1018 38 10000 5.7 70 11:58 15.06.2020
1480 Clear 23 1018 38 10000 5.7 70 11:58 15.06.2020
1481 Clear 23 1018 36 10000 4.6 80 11:40 15.06.2020
1482 Clear 23 1018 36 10000 4.6 80 11:22 15.06.2020
1483 Clear 22 1018 40 10000 5.1 60 10:41 15.06.2020
1484 Clear 22 1018 40 10000 5.1 60 10:41 15.06.2020
1485 Clear 21 1018 40 10000 5.1 60 10:21 15.06.2020
1486 Clear 21 1018 43 10000 5.1 40 09:43 15.06.2020
1487 Clouds 21 1018 43 10000 5.1 40 09:23 15.06.2020
1488 Clear 20 1019 52 10000 4.1 80 08:47 15.06.2020
1489 Clear 20 1019 52 10000 4.1 80 08:27 15.06.2020
1490 Clear 19 1019 55 10000 3.6 60 07:57 15.06.2020
1491 Clear 19 1019 59 10000 3.1 60 07:37 15.06.2020
1492 Clear 19 1019 59 10000 3.1 60 07:37 15.06.2020
1493 Clear 18 1019 63 10000 3.6 50 07:19 15.06.2020
1494 Clear 15 1019 67 10000 4.1 50 06:28 15.06.2020
1495 Clear 15 1019 71 10000 3.1 50 05:51 15.06.2020
1496 Clear 15 1019 71 10000 3.1 50 05:29 15.06.2020
1497 Clear 12 1020 76 10000 2.6 50 04:22 15.06.2020
1498 Clear 12 1020 81 10000 3.1 50 03:49 15.06.2020
1499 Clear 12 1020 81 10000 2.6 50 02:57 15.06.2020
1500 Clouds 12 1020 81 10000 2.6 40 02:29 15.06.2020
1501 Clouds 12 1020 87 10000 2.1 40 01:47 15.06.2020
1502 Clouds 13 1021 81 10000 1 30 01:24 15.06.2020
1503 Clouds 13 1021 81 10000 1.5 30 00:45 15.06.2020
1504 Clouds 13 1021 81 10000 1.5 30 00:23 15.06.2020
1505 Clouds 14 1021 81 10000 1 70 23:57 14.06.2020
1506 Clouds 14 1021 76 10000 1.5 70 23:39 14.06.2020
1507 Clouds 14 1021 71 10000 2.1 50 23:21 14.06.2020
1508 Clouds 15 1021 71 10000 2.1 50 22:57 14.06.2020
1509 Clouds 15 1021 62 10000 1.5 40 22:37 14.06.2020
1510 Clouds 16 1021 59 10000 1.5 60 22:18 14.06.2020
1511 Clouds 18 1021 59 10000 1.5 60 21:56 14.06.2020
1512 Clouds 19 1021 40 10000 2.6 80 21:37 14.06.2020
1513 Clear 20 1021 40 10000 3.6 90 21:18 14.06.2020
1514 Clear 20 1021 40 10000 3.6 90 20:57 14.06.2020
1515 Clear 21 1021 37 10000 4.1 80 20:38 14.06.2020
1516 Clear 21 1021 37 0 2.61 82 20:18 14.06.2020
1517 Clear 21 1021 37 10000 4.1 110 19:56 14.06.2020
1518 Clear 21 1021 33 10000 4.1 110 19:37 14.06.2020
1519 Clear 22 1021 33 10000 5.1 100 19:18 14.06.2020
1520 Clear 21 1021 30 10000 5.7 100 18:55 14.06.2020
1521 Clear 21 1021 30 10000 5.7 100 18:37 14.06.2020
1522 Clear 22 1022 28 10000 5.1 100 18:18 14.06.2020
1523 Clear 21 1022 28 10000 5.1 100 17:55 14.06.2020
1524 Clear 21 1022 28 10000 5.1 80 17:36 14.06.2020
1525 Clear 21 1022 30 10000 4.1 100 17:18 14.06.2020
1526 Clear 21 1023 28 10000 4.6 100 16:40 14.06.2020
1527 Clear 22 1023 28 10000 4.6 100 16:20 14.06.2020
1528 Clear 22 1023 28 10000 4.6 100 16:20 14.06.2020
1529 Clear 21 1023 35 10000 5.1 120 15:57 14.06.2020
1530 Clear 21 1024 28 10000 6.2 100 15:38 14.06.2020
1531 Clear 21 1024 28 10000 6.2 100 15:18 14.06.2020
1532 Clear 22 1024 31 10000 5.1 90 14:55 14.06.2020
1533 Clear 21 1024 37 10000 5.1 110 14:36 14.06.2020
1534 Clear 21 1024 37 10000 6.2 140 14:18 14.06.2020
1535 Clear 21 1024 35 10000 5.1 120 13:41 14.06.2020
1536 Clear 21 1024 30 10000 7.2 80 13:22 14.06.2020
1537 Clear 21 1024 30 10000 7.2 80 12:59 14.06.2020
1538 Clear 21 1025 33 10000 6.2 100 12:40 14.06.2020
1539 Clear 21 1025 33 10000 5.7 70 12:21 14.06.2020
1540 Clear 20 1025 33 10000 5.7 70 11:58 14.06.2020
1541 Clear 20 1025 33 10000 6.7 90 11:38 14.06.2020
1542 Clear 20 1025 35 10000 5.1 60 11:20 14.06.2020
1543 Clear 20 1025 32 10000 5.1 50 10:42 14.06.2020
1544 Clear 20 1026 32 10000 4.1 50 10:20 14.06.2020
1545 Clear 20 1026 32 10000 4.1 50 09:57 14.06.2020
1546 Clear 20 1026 32 10000 3.6 60 09:39 14.06.2020
1547 Clear 20 1026 32 10000 3.6 60 09:20 14.06.2020
1548 Clear 20 1026 42 10000 2.6 40 08:42 14.06.2020
1549 Clear 19 1026 45 10000 3.6 60 08:21 14.06.2020
1550 Clear 18 1026 45 10000 3.6 60 07:52 14.06.2020
1551 Clear 18 1026 45 10000 3.1 50 07:34 14.06.2020
1552 Clear 15 1026 58 10000 1.5 20 06:40 14.06.2020
1553 Clear 13 1026 76 10000 1 360 05:49 14.06.2020
1554 Clear 12 1026 76 10000 1 360 05:21 14.06.2020
1555 Clear 10 1026 87 10000 1 350 04:36 14.06.2020
1556 Clear 10 1026 87 10000 1.5 360 03:44 14.06.2020
1557 Clear 10 1026 87 10000 1 350 02:34 14.06.2020
1558 Clear 11 1026 87 10000 0.5 0 01:49 14.06.2020
1559 Clear 11 1026 87 10000 0.5 0 01:26 14.06.2020
1560 Clear 12 1026 81 10000 1 0 00:42 14.06.2020
1561 Clear 13 1026 81 10000 1 0 00:20 14.06.2020
1562 Clear 13 1026 81 10000 1 360 23:44 13.06.2020
1563 Clear 13 1026 81 10000 1 360 23:25 13.06.2020
1564 Clear 13 1026 81 10000 1 360 23:25 13.06.2020
1565 Clear 14 1026 71 10000 0.5 0 22:58 13.06.2020
1566 Clear 15 1026 66 10000 0.5 0 22:37 13.06.2020
1567 Clear 16 1026 48 10000 2.6 120 22:18 13.06.2020
1568 Clear 16 1026 48 10000 2.6 120 21:56 13.06.2020
1569 Clear 17 1026 37 10000 2.1 100 21:38 13.06.2020
1570 Clear 18 1026 37 10000 2.6 100 21:20 13.06.2020
1571 Clear 19 1025 34 10000 4.1 120 20:43 13.06.2020
1572 Clear 20 1026 34 10000 4.6 140 20:19 13.06.2020
1573 Clear 20 1026 34 10000 4.6 140 19:57 13.06.2020
1574 Clear 20 1025 32 10000 4.6 140 19:36 13.06.2020
1575 Clear 20 1026 34 10000 5.1 120 19:18 13.06.2020
1576 Clear 20 1026 34 10000 5.1 120 18:55 13.06.2020
1577 Clear 20 1026 35 10000 5.1 120 18:37 13.06.2020
1578 Clear 20 1026 35 10000 5.1 120 18:18 13.06.2020
1579 Clear 20 1026 35 10000 4.6 120 17:42 13.06.2020
1580 Clear 20 1026 35 10000 4.6 120 17:23 13.06.2020
1581 Clear 20 1026 35 10000 4.6 150 16:58 13.06.2020
1582 Clear 20 1026 37 10000 5.1 130 16:40 13.06.2020
1583 Clear 20 1026 35 10000 4.6 140 16:19 13.06.2020
1584 Clear 20 1026 35 10000 4.6 140 15:58 13.06.2020
1585 Clear 20 1026 35 10000 5.1 120 15:39 13.06.2020
1586 Clear 20 1026 35 10000 5.1 110 15:20 13.06.2020
1587 Clear 20 1026 35 10000 5.1 110 15:20 13.06.2020
1588 Clear 20 1026 37 10000 5.7 120 14:43 13.06.2020
1589 Clouds 20 1026 40 10000 4.6 130 14:22 13.06.2020
1590 Clouds 20 1026 37 10000 5.1 130 13:56 13.06.2020
1591 Clouds 21 1026 37 10000 5.1 130 13:37 13.06.2020
1592 Clouds 21 1026 37 10000 5.1 130 13:18 13.06.2020
1593 Clouds 21 1026 43 10000 5.7 130 12:42 13.06.2020
1594 Clouds 21 1026 43 10000 5.7 130 12:24 13.06.2020
1595 Clouds 21 1026 37 10000 4.1 80 11:40 13.06.2020
1596 Clear 21 1027 37 10000 3.6 80 11:19 13.06.2020
1597 Clear 21 1027 37 10000 3.6 80 10:58 13.06.2020
1598 Clear 20 1027 37 10000 3.6 50 10:40 13.06.2020
1599 Clear 20 1027 35 10000 3.1 50 10:22 13.06.2020
1600 Clear 20 1027 35 10000 3.1 50 09:54 13.06.2020
1601 Clear 20 1027 40 10000 2.6 20 09:36 13.06.2020
1602 Clear 20 1027 42 10000 3.1 60 09:18 13.06.2020
1603 Clear 19 1027 45 10000 2.1 50 08:42 13.06.2020
1604 Clouds 20 1027 45 10000 2.1 50 08:24 13.06.2020
1605 Clouds 18 1026 55 10000 2.1 40 07:43 13.06.2020
1606 Clouds 17 1026 55 10000 2.1 40 07:25 13.06.2020
1607 Clouds 16 1026 62 10000 2.1 10 06:44 13.06.2020
1608 Clouds 14 1026 62 10000 2.1 10 06:25 13.06.2020
1609 Clouds 13 1026 66 10000 1.5 360 05:28 13.06.2020
1610 Clouds 11 1026 81 10000 1.5 360 04:37 13.06.2020
1611 Clouds 10 1025 93 10000 1 340 03:43 13.06.2020
1612 Clouds 11 1025 93 10000 0.5 20 02:45 13.06.2020
1613 Clear 12 1025 87 10000 1.5 30 01:49 13.06.2020
1614 Clear 12 1025 87 10000 1.5 30 01:23 13.06.2020
1615 Clear 13 1025 81 10000 2.1 40 00:54 13.06.2020
1616 Clear 13 1025 76 10000 1 70 00:27 13.06.2020
1617 Clear 14 1025 76 10000 1.5 80 23:58 12.06.2020
1618 Clear 15 1024 76 10000 2.6 60 23:38 12.06.2020
1619 Clear 14 1024 76 10000 2.1 50 23:18 12.06.2020
1620 Clear 14 1024 62 10000 1.5 90 22:42 12.06.2020
1621 Clear 16 1024 62 10000 1.5 90 22:19 12.06.2020
1622 Clear 17 1024 42 10000 2.6 100 21:56 12.06.2020
1623 Clear 18 1024 39 10000 3.1 100 21:37 12.06.2020
1624 Clear 19 1023 39 10000 3.1 100 21:19 12.06.2020
1625 Clear 19 1023 37 10000 4.1 110 20:56 12.06.2020
1626 Clear 19 1023 37 10000 4.1 110 20:37 12.06.2020
1627 Clear 20 1023 35 10000 3.1 100 20:19 12.06.2020
1628 Clear 20 1023 32 10000 4.1 110 19:39 12.06.2020
1629 Clear 20 1023 32 10000 4.1 110 19:21 12.06.2020
1630 Clear 20 1023 37 10000 4.6 120 18:56 12.06.2020
1631 Clear 21 1023 35 10000 5.7 140 18:36 12.06.2020
1632 Clear 21 1023 35 10000 5.1 120 18:18 12.06.2020
1633 Clear 21 1023 35 10000 5.1 120 17:40 12.06.2020
1634 Clear 21 1023 37 10000 5.1 130 17:21 12.06.2020
1635 Clear 21 1023 35 10000 6.7 130 16:45 12.06.2020
1636 Clear 21 1023 35 10000 5.1 110 16:21 12.06.2020
1637 Clear 21 1023 33 10000 4.6 110 15:49 12.06.2020
1638 Clear 21 1023 33 10000 4.6 110 15:28 12.06.2020
1639 Clear 22 1023 27 10000 5.1 70 14:58 12.06.2020
1640 Clear 22 1023 28 10000 5.1 110 14:39 12.06.2020
1641 Clear 22 1023 27 10000 7.2 60 14:21 12.06.2020
1642 Clear 22 1023 26 10000 6.7 40 13:43 12.06.2020
1643 Clouds 22 1023 48 10000 5.1 80 13:22 12.06.2020
1644 Clouds 21 1023 48 10000 5.1 80 12:55 12.06.2020
1645 Clouds 22 1024 26 10000 6.7 70 12:37 12.06.2020
1646 Clouds 21 1023 30 10000 6.7 80 12:18 12.06.2020
1647 Clouds 21 1023 32 10000 6.2 40 11:42 12.06.2020
1648 Clouds 21 1023 32 10000 6.2 40 11:23 12.06.2020
1649 Clouds 20 1023 37 10000 7.7 70 10:49 12.06.2020
1650 Clouds 20 1023 37 10000 7.7 70 10:26 12.06.2020
1651 Clouds 20 1023 37 10000 6.7 70 09:58 12.06.2020
1652 Clouds 20 1023 45 10000 5.7 50 09:38 12.06.2020
1653 Clouds 19 1023 48 10000 6.7 50 09:18 12.06.2020
1654 Clouds 19 1023 52 10000 5.7 50 08:41 12.06.2020
1655 Clouds 19 1023 52 10000 5.7 50 08:22 12.06.2020
1656 Clouds 18 1022 59 10000 4.6 40 07:40 12.06.2020
1657 Clouds 17 1022 67 10000 4.6 40 07:22 12.06.2020
1658 Clouds 16 1022 72 10000 4.1 30 06:40 12.06.2020
1659 Clouds 15 1022 72 10000 3.6 30 06:19 12.06.2020
1660 Clouds 15 1022 76 10000 3.6 20 05:49 12.06.2020
1661 Clouds 15 1022 76 10000 3.6 20 05:23 12.06.2020
1662 Clouds 13 1022 82 10000 3.1 20 03:52 12.06.2020
1663 Clouds 14 1022 82 10000 2.6 20 02:25 12.06.2020
1664 Clouds 14 1022 87 10000 2.1 360 01:34 12.06.2020
1665 Clouds 13 1021 93 10000 2.1 350 00:58 12.06.2020
1666 Clouds 13 1021 93 10000 3.6 350 00:38 12.06.2020
1667 Clouds 13 1021 100 10000 2.6 340 00:20 12.06.2020
1668 Clouds 13 1021 100 10000 2.6 340 00:20 12.06.2020
1669 Clouds 14 1021 100 10000 2.6 340 23:56 11.06.2020
1670 Clouds 14 1021 93 10000 2.1 340 23:37 11.06.2020
1671 Clouds 14 1021 93 10000 1.5 10 23:19 11.06.2020
1672 Clouds 15 1021 82 10000 2.1 90 22:41 11.06.2020
1673 Clear 15 1021 82 10000 2.1 90 22:21 11.06.2020
1674 Clear 15 1021 82 10000 2.1 90 21:57 11.06.2020
1675 Clear 16 1021 77 10000 3.1 110 21:38 11.06.2020
1676 Clear 16 1021 77 10000 3.1 110 21:20 11.06.2020
1677 Clear 17 1021 72 10000 4.1 120 20:56 11.06.2020
1678 Clear 17 1021 68 10000 4.6 130 20:38 11.06.2020
1679 Clouds 18 1020 68 10000 4.1 120 20:20 11.06.2020
1680 Clouds 19 1020 63 10000 3.1 120 19:42 11.06.2020
1681 Clouds 19 1020 63 10000 3.1 120 19:22 11.06.2020
1682 Clouds 19 1020 68 10000 4.1 140 18:44 11.06.2020
1683 Clouds 19 1020 68 10000 4.1 140 18:26 11.06.2020
1684 Clouds 19 1020 64 10000 5.7 140 17:57 11.06.2020
1685 Clouds 19 1020 64 10000 5.7 140 17:39 11.06.2020
1686 Clouds 19 1020 64 10000 5.7 140 17:20 11.06.2020
1687 Clouds 19 1020 64 10000 5.1 160 16:58 11.06.2020
1688 Clouds 20 1020 64 10000 5.1 160 16:40 11.06.2020
1689 Clear 21 1020 60 10000 2.6 120 16:22 11.06.2020
1690 Clear 21 1020 64 10000 3.6 120 15:56 11.06.2020
1691 Clear 20 1020 64 10000 3.6 130 15:38 11.06.2020
1692 Clear 21 1020 64 10000 3.6 130 15:19 11.06.2020
1693 Clear 21 1020 60 10000 4.1 150 14:42 11.06.2020
1694 Clouds 18 1020 64 10000 5.1 140 14:21 11.06.2020
1695 Clouds 20 1020 60 10000 6.7 160 13:56 11.06.2020
1696 Clouds 20 1020 43 10000 4.6 30 13:38 11.06.2020
1697 Clouds 20 1020 43 10000 4.6 30 13:38 11.06.2020
1698 Clouds 20 1020 43 10000 4.6 30 13:19 11.06.2020
1699 Clouds 21 1020 43 10000 5.7 30 12:56 11.06.2020
1700 Clouds 20 1019 46 10000 4.6 30 12:37 11.06.2020
1701 Clouds 20 1019 46 10000 4.6 30 12:19 11.06.2020
1702 Clouds 22 1019 46 10000 5.1 30 11:56 11.06.2020
1703 Clouds 22 1019 46 10000 5.1 30 11:37 11.06.2020
1704 Clouds 22 1020 43 10000 5.1 30 11:18 11.06.2020
1705 Clouds 21 1020 49 10000 5.1 10 10:43 11.06.2020
1706 Clouds 21 1020 52 10000 5.7 350 10:20 11.06.2020
1707 Clouds 21 1020 52 10000 5.7 350 10:20 11.06.2020
1708 Clouds 20 1019 56 10000 5.1 360 09:59 11.06.2020
1709 Clouds 20 1019 56 10000 5.1 360 09:40 11.06.2020
1710 Clouds 19 1020 59 10000 5.1 20 09:21 11.06.2020
1711 Clouds 19 1020 59 10000 4.1 10 08:42 11.06.2020
1712 Clouds 18 1020 59 10000 3.6 20 08:19 11.06.2020
1713 Clouds 17 1020 67 10000 3.6 30 07:42 11.06.2020
1714 Clouds 16 1020 63 10000 3.6 20 07:24 11.06.2020
1715 Clouds 14 1020 62 10000 3.6 10 06:38 11.06.2020
1716 Clouds 14 1020 58 10000 3.6 20 05:58 11.06.2020
1717 Clouds 14 1019 58 10000 3.6 10 04:49 11.06.2020
1718 Clouds 14 1019 54 10000 3.6 10 03:25 11.06.2020
1719 Clouds 15 1019 51 10000 4.1 10 02:49 11.06.2020
1720 Clouds 15 1019 54 10000 3.6 10 01:57 11.06.2020
1721 Clouds 15 1019 54 10000 3.1 10 01:35 11.06.2020
1722 Clouds 15 1019 54 10000 3.1 20 00:59 11.06.2020
1723 Clouds 15 1019 51 10000 3.6 10 00:39 11.06.2020
1724 Clouds 16 1019 51 10000 3.6 10 00:20 11.06.2020
1725 Clouds 16 1019 51 10000 4.1 360 23:43 10.06.2020
1726 Clouds 16 1018 48 10000 3.6 360 23:23 10.06.2020
1727 Clouds 16 1018 51 10000 3.6 350 22:55 10.06.2020
1728 Clouds 17 1018 55 10000 3.1 360 22:37 10.06.2020
1729 Clouds 17 1018 55 10000 3.1 360 22:18 10.06.2020
1730 Clouds 18 1018 45 10000 2.6 360 21:55 10.06.2020
1731 Clouds 19 1018 42 10000 3.1 10 21:37 10.06.2020
1732 Clouds 19 1018 42 10000 3.1 10 21:18 10.06.2020
1733 Clouds 19 1018 40 10000 3.6 360 20:55 10.06.2020
1734 Clouds 20 1018 43 10000 4.1 20 20:37 10.06.2020
1735 Clouds 20 1018 43 10000 4.1 20 20:18 10.06.2020
1736 Clouds 21 1018 40 10000 3.6 10 19:38 10.06.2020
1737 Clouds 21 1018 40 10000 3.6 10 19:18 10.06.2020
1738 Clouds 21 1017 38 10000 4.6 20 18:56 10.06.2020
1739 Clouds 22 1018 40 10000 4.1 10 18:37 10.06.2020
1740 Clouds 22 1018 40 10000 4.1 10 18:19 10.06.2020
1741 Clouds 22 1018 38 10000 4.6 10 17:54 10.06.2020
1742 Clouds 22 1018 38 10000 3.6 10 17:36 10.06.2020
1743 Clouds 23 1018 38 10000 3.6 10 17:18 10.06.2020
1744 Clouds 22 1018 38 10000 3.6 20 16:41 10.06.2020
1745 Clouds 23 1018 38 10000 4.1 360 16:22 10.06.2020
1746 Clouds 23 1018 38 10000 4.1 360 16:22 10.06.2020
1747 Clouds 22 1018 38 10000 4.6 10 15:59 10.06.2020
1748 Clouds 22 1018 38 10000 4.6 10 15:38 10.06.2020
1749 Clouds 22 1018 43 10000 5.1 350 15:20 10.06.2020
1750 Clouds 23 1018 43 10000 4.1 10 14:41 10.06.2020
1751 Clouds 23 1018 43 10000 5.7 350 14:22 10.06.2020
1752 Clouds 23 1018 46 10000 4.6 30 13:58 10.06.2020
1753 Clouds 22 1018 46 10000 4.6 30 13:39 10.06.2020
1754 Clear 22 1018 46 10000 6.2 360 13:21 10.06.2020
1755 Clear 22 1018 46 10000 5.7 360 12:42 10.06.2020
1756 Clear 22 1018 46 10000 5.1 30 12:20 10.06.2020
1757 Clear 22 1018 46 10000 4.1 30 11:56 10.06.2020
1758 Clouds 22 1018 52 10000 4.1 350 11:38 10.06.2020
1759 Clouds 21 1018 52 10000 4.1 350 11:19 10.06.2020
1760 Clouds 21 1018 52 10000 4.6 350 10:55 10.06.2020
1761 Clear 21 1018 52 10000 4.1 20 10:36 10.06.2020
1762 Clear 21 1018 52 10000 4.1 20 10:36 10.06.2020
1763 Clear 20 1018 52 10000 4.1 20 10:18 10.06.2020
1764 Clear 19 1018 55 10000 4.1 350 09:39 10.06.2020
1765 Clear 19 1018 55 10000 4.1 350 09:21 10.06.2020
1766 Clear 18 1018 63 10000 4.1 340 08:44 10.06.2020
1767 Clouds 17 1018 63 10000 4.1 340 08:23 10.06.2020
1768 Clouds 16 1018 67 10000 3.6 350 07:43 10.06.2020
1769 Clouds 16 1018 72 10000 3.6 360 07:24 10.06.2020
1770 Clouds 15 1018 82 10000 3.1 340 06:59 10.06.2020
1771 Clouds 15 1018 82 10000 3.1 330 06:40 10.06.2020
1772 Clouds 14 1018 82 10000 3.1 330 06:19 10.06.2020
1773 Clouds 14 1017 87 10000 3.1 330 05:54 10.06.2020
1774 Clouds 13 1018 87 10000 2.6 330 05:19 10.06.2020
1775 Clouds 13 1017 93 10000 3.1 330 04:30 10.06.2020
1776 Clouds 12 1017 93 10000 2.6 330 02:49 10.06.2020
1777 Clouds 12 1017 100 10000 3.1 320 01:51 10.06.2020
1778 Clouds 13 1017 93 10000 2.6 330 01:28 10.06.2020
1779 Clouds 13 1017 93 10000 2.1 340 00:39 10.06.2020
1780 Clouds 13 1017 93 10000 2.1 340 00:21 10.06.2020
1781 Clouds 14 1017 87 10000 2.6 320 23:54 09.06.2020
1782 Clouds 14 1017 87 10000 2.6 320 23:36 09.06.2020
1783 Clouds 14 1017 87 10000 2.6 320 23:18 09.06.2020
1784 Clouds 15 1017 77 10000 2.1 340 22:54 09.06.2020
1785 Clouds 15 1017 82 10000 3.1 320 22:36 09.06.2020
1786 Clouds 16 1017 82 10000 3.1 320 22:18 09.06.2020
1787 Clouds 16 1017 72 10000 1.5 350 21:54 09.06.2020
1788 Clouds 16 1017 72 10000 1.5 350 21:54 09.06.2020
1789 Clouds 16 1017 72 10000 1.5 350 21:36 09.06.2020
1790 Clouds 16 1017 72 10000 2.1 350 21:36 09.06.2020
1791 Clouds 16 1017 72 10000 2.1 350 21:36 09.06.2020
1792 Clouds 16 1017 72 10000 2.1 350 21:36 09.06.2020
1793 Clouds 16 1017 72 10000 2.1 350 21:18 09.06.2020
1794 Clouds 17 1017 67 10000 2.6 10 20:54 09.06.2020
1795 Clouds 17 1017 67 10000 2.6 10 20:36 09.06.2020
1796 Clouds 17 1016 63 10000 4.1 350 20:18 09.06.2020
1797 Clouds 17 1016 67 10000 3.6 360 19:54 09.06.2020
1798 Clouds 17 1016 67 10000 3.6 360 19:54 09.06.2020
1799 Clouds 18 1016 67 10000 3.6 360 19:36 09.06.2020
1800 Clouds 18 1016 63 10000 4.1 10 19:18 09.06.2020
1801 Clouds 18 1016 59 10000 5.1 10 18:41 09.06.2020
1802 Clouds 18 1016 68 10000 5.1 340 18:23 09.06.2020
1803 Clouds 18 1017 63 10000 5.7 350 17:56 09.06.2020
1804 Clouds 18 1017 61 0 4.23 7 17:38 09.06.2020
1805 Clouds 18 1017 63 10000 6.2 10 17:20 09.06.2020
1806 Clouds 17 1017 67 10000 6.2 360 16:43 09.06.2020
1807 Clouds 17 1017 67 10000 6.2 20 16:25 09.06.2020
1808 Clouds 17 1017 72 10000 5.1 360 15:57 09.06.2020
1809 Clouds 17 1017 72 10000 5.1 360 15:38 09.06.2020
1810 Clouds 17 1017 72 10000 5.7 350 15:20 09.06.2020
1811 Clouds 17 1017 72 10000 5.7 360 14:55 09.06.2020
1812 Clouds 17 1017 72 10000 5.7 360 14:37 09.06.2020
1813 Clouds 16 1017 77 10000 6.2 10 14:18 09.06.2020
1814 Clouds 16 1017 72 10000 5.7 360 13:43 09.06.2020
1815 Clouds 16 1017 72 10000 5.1 360 13:21 09.06.2020
1816 Clouds 16 1016 72 10000 5.7 350 12:58 09.06.2020
1817 Clouds 16 1016 72 10000 5.7 350 12:40 09.06.2020
1818 Clouds 15 1016 77 10000 5.7 360 12:18 09.06.2020
1819 Clouds 15 1016 82 10000 5.7 10 11:55 09.06.2020
1820 Clouds 15 1016 82 10000 5.1 350 11:37 09.06.2020
1821 Clouds 15 1016 82 10000 5.1 350 11:19 09.06.2020
1822 Clouds 14 1016 82 10000 4.6 360 10:44 09.06.2020
1823 Clouds 14 1016 87 10000 4.6 350 10:25 09.06.2020
1824 Rain 13 1016 87 10000 5.7 340 09:44 09.06.2020
1825 Rain 13 1016 87 10000 5.7 320 09:25 09.06.2020
1826 Rain 13 1015 87 10000 4.1 330 08:57 09.06.2020
1827 Rain 13 1015 87 10000 4.1 330 08:39 09.06.2020
1828 Clouds 13 1015 87 10000 3.1 340 08:20 09.06.2020
1829 Clouds 13 1015 93 10000 3.6 340 07:39 09.06.2020
1830 Clouds 13 1014 93 10000 3.6 330 07:20 09.06.2020
1831 Clouds 13 1014 93 10000 3.6 330 06:54 09.06.2020
1832 Clouds 13 1014 87 10000 3.6 340 06:35 09.06.2020
1833 Clouds 12 1013 100 10000 3.6 340 05:36 09.06.2020
1834 Clouds 12 1013 93 10000 3.1 330 03:50 09.06.2020
1835 Rain 12 1013 100 10000 4.1 340 01:45 09.06.2020
1836 Rain 12 1012 93 10000 3.6 330 01:20 09.06.2020
1837 Rain 13 1012 87 10000 4.6 350 00:58 09.06.2020
1838 Rain 13 1012 87 10000 5.1 350 00:38 09.06.2020
1839 Rain 13 1012 87 10000 5.1 350 00:18 09.06.2020
1840 Clouds 13 1012 87 10000 4.6 360 23:40 08.06.2020
1841 Clouds 13 1012 87 10000 3.1 10 23:20 08.06.2020
1842 Clouds 13 1011 87 10000 4.6 340 22:55 08.06.2020
1843 Clouds 13 1011 87 10000 4.6 340 22:37 08.06.2020
1844 Clouds 13 1011 87 10000 4.1 350 22:19 08.06.2020
1845 Clouds 13 1011 93 10000 4.6 340 21:55 08.06.2020
1846 Clouds 14 1011 87 10000 4.6 340 21:36 08.06.2020
1847 Clouds 14 1011 87 10000 4.6 340 21:18 08.06.2020
1848 Clouds 14 1012 93 10000 4.1 330 20:54 08.06.2020
1849 Clouds 14 1012 93 10000 4.1 330 20:54 08.06.2020
1850 Clouds 14 1012 93 10000 4.1 330 20:36 08.06.2020
1851 Clouds 14 1011 93 10000 3.6 350 20:18 08.06.2020
1852 Clouds 14 1011 93 10000 4.6 350 19:41 08.06.2020
1853 Clouds 15 1011 93 10000 4.6 350 19:20 08.06.2020
1854 Clouds 14 1011 93 10000 4.1 350 18:42 08.06.2020
1855 Clouds 15 1011 93 10000 4.1 350 18:20 08.06.2020
1856 Clouds 15 1011 93 10000 4.1 350 18:20 08.06.2020
1857 Clouds 15 1011 93 10000 5.1 330 17:57 08.06.2020
1858 Clouds 15 1011 93 10000 5.1 330 17:39 08.06.2020
1859 Clouds 15 1011 93 10000 4.6 330 17:21 08.06.2020
1860 Clouds 15 1011 93 10000 3.1 350 16:56 08.06.2020
1861 Clouds 15 1011 93 10000 3.1 350 16:38 08.06.2020
1862 Rain 15 1011 93 10000 3.6 350 16:20 08.06.2020
1863 Rain 15 1011 93 10000 3.6 350 16:20 08.06.2020
1864 Rain 15 1011 93 10000 3.1 360 15:42 08.06.2020
1865 Rain 16 1012 93 10000 3.1 330 15:21 08.06.2020
1866 Rain 16 1012 93 10000 2.6 330 14:56 08.06.2020
1867 Rain 16 1012 93 10000 2.6 330 14:38 08.06.2020
1868 Clouds 16 1012 93 10000 1 0 14:18 08.06.2020
1869 Rain 16 1012 87 10000 1.5 130 13:42 08.06.2020
1870 Rain 16 1012 87 7000 1.5 160 13:21 08.06.2020
1871 Rain 16 1011 82 10000 3.1 100 12:42 08.06.2020
1872 Rain 16 1011 82 10000 3.1 100 12:20 08.06.2020
1873 Rain 17 1011 72 10000 3.1 120 11:58 08.06.2020
1874 Rain 17 1011 72 10000 3.1 120 11:40 08.06.2020
1875 Rain 17 1012 55 10000 2.6 60 11:21 08.06.2020
1876 Clouds 18 1012 55 10000 2.1 70 10:56 08.06.2020
1877 Clouds 19 1012 52 10000 2.1 60 10:37 08.06.2020
1878 Clouds 19 1012 52 10000 2.1 60 10:19 08.06.2020
1879 Clouds 19 1012 52 10000 2.1 60 10:19 08.06.2020
1880 Clouds 18 1012 52 10000 2.6 50 09:47 08.06.2020
1881 Clouds 17 1012 55 10000 2.6 60 09:23 08.06.2020
1882 Clouds 17 1011 59 10000 2.6 50 08:50 08.06.2020
1883 Clouds 17 1011 59 10000 2.6 50 08:25 08.06.2020
1884 Clouds 17 1012 63 10000 2.1 60 07:59 08.06.2020
1885 Clouds 16 1012 63 10000 2.1 50 07:39 08.06.2020
1886 Clouds 16 1012 63 10000 2.1 50 07:20 08.06.2020
1887 Clouds 15 1011 82 10000 1 0 06:39 08.06.2020
1888 Clouds 14 1011 87 10000 1.5 40 05:55 08.06.2020
1889 Clouds 13 1011 93 10000 0.5 10 05:23 08.06.2020
1890 Clouds 13 1011 100 10000 1 20 03:26 08.06.2020
1891 Clouds 13 1011 100 10000 1 60 02:26 08.06.2020
1892 Clouds 13 1011 100 10000 0.5 0 01:43 08.06.2020
1893 Clouds 13 1011 93 10000 1 0 00:57 08.06.2020
1894 Clouds 13 1011 87 10000 1 100 00:25 08.06.2020
1895 Clouds 13 1011 93 10000 0.5 0 23:39 07.06.2020
1896 Clouds 13 1011 87 10000 2.6 140 23:19 07.06.2020
1897 Clouds 14 1011 82 10000 3.1 130 22:57 07.06.2020
1898 Clouds 14 1011 82 10000 2.6 120 22:37 07.06.2020
1899 Clouds 14 1011 82 10000 2.6 120 22:18 07.06.2020
1900 Clouds 14 1011 82 10000 2.6 120 21:58 07.06.2020
1901 Clouds 15 1011 82 10000 3.1 130 21:36 07.06.2020
1902 Clouds 15 1011 82 10000 3.1 130 21:18 07.06.2020
1903 Clouds 15 1011 77 10000 3.1 150 20:40 07.06.2020
1904 Clouds 16 1011 72 10000 4.6 150 20:21 07.06.2020
1905 Clouds 16 1010 63 10000 5.7 140 19:57 07.06.2020
1906 Clouds 16 1010 51 10000 4.6 100 19:39 07.06.2020
1907 Clouds 16 1010 51 10000 4.6 100 19:20 07.06.2020
1908 Clouds 16 1011 42 10000 5.1 120 18:59 07.06.2020
1909 Clouds 16 1011 42 10000 5.7 120 18:38 07.06.2020
1910 Clouds 16 1011 42 10000 5.7 120 18:20 07.06.2020
1911 Clouds 16 1011 45 10000 5.1 130 17:57 07.06.2020
1912 Clouds 17 1011 42 10000 5.7 110 17:38 07.06.2020
1913 Clouds 17 1011 42 10000 5.7 110 17:20 07.06.2020
1914 Clouds 17 1011 42 10000 4.6 120 16:43 07.06.2020
1915 Clouds 18 1011 37 10000 5.1 150 16:21 07.06.2020
1916 Clouds 18 1011 37 10000 4.6 170 15:43 07.06.2020
1917 Clouds 18 1012 39 10000 4.1 170 15:22 07.06.2020
1918 Clouds 19 1012 34 10000 5.7 160 14:41 07.06.2020
1919 Clouds 18 1012 37 10000 6.7 190 14:22 07.06.2020
1920 Clouds 18 1012 37 10000 6.7 190 14:22 07.06.2020
1921 Clouds 18 1012 36 10000 6.2 180 13:50 07.06.2020
1922 Clouds 17 1012 39 10000 6.7 190 13:22 07.06.2020
1923 Clouds 16 1012 42 10000 6.2 180 12:57 07.06.2020
1924 Clouds 17 1011 45 10000 6.7 190 12:39 07.06.2020
1925 Clouds 17 1011 45 10000 6.7 190 12:39 07.06.2020
1926 Clouds 16 1011 45 10000 6.7 190 12:20 07.06.2020
1927 Clouds 16 1011 48 10000 6.2 180 11:55 07.06.2020
1928 Clouds 16 1011 55 10000 6.2 180 11:36 07.06.2020
1929 Clouds 16 1011 55 10000 6.2 180 11:18 07.06.2020
1930 Clouds 16 1011 45 10000 6.2 200 10:45 07.06.2020
1931 Clouds 14 1011 58 10000 6.7 190 10:21 07.06.2020
1932 Clouds 15 1010 58 10000 7.2 180 09:59 07.06.2020
1933 Clouds 15 1010 58 10000 7.2 180 09:39 07.06.2020
1934 Clouds 15 1010 58 10000 7.2 180 09:39 07.06.2020
1935 Clouds 15 1010 58 10000 7.2 180 09:20 07.06.2020
1936 Clouds 14 1009 54 10000 7.7 210 08:57 07.06.2020
1937 Clouds 14 1009 54 10000 7.7 210 08:39 07.06.2020
1938 Clouds 14 1009 62 10000 6.7 190 08:21 07.06.2020
1939 Clouds 13 1009 66 10000 7.2 200 07:38 07.06.2020
1940 Clouds 13 1008 66 10000 7.2 200 06:54 07.06.2020
1941 Clouds 12 1007 66 10000 8.7 200 05:53 07.06.2020
1942 Clear 11 1006 71 10000 7.7 190 04:21 07.06.2020
1943 Clear 11 1006 71 10000 8.2 190 03:46 07.06.2020
1944 Clear 11 1005 71 10000 8.2 180 02:18 07.06.2020
1945 Clear 11 1005 62 10000 7.7 180 01:25 07.06.2020
1946 Clear 12 1004 62 10000 7.7 180 00:48 07.06.2020
1947 Clear 12 1004 62 10000 8.7 180 00:20 07.06.2020
1948 Clear 12 1004 58 10000 9.3 190 23:59 06.06.2020
1949 Clear 12 1004 58 10000 9.3 190 23:38 06.06.2020
1950 Clear 12 1004 62 10000 7.7 180 23:19 06.06.2020
1951 Clear 12 1004 62 10000 7.7 190 22:56 06.06.2020
1952 Clear 12 1004 62 10000 7.7 190 22:38 06.06.2020
1953 Clear 12 1004 62 10000 7.7 180 22:19 06.06.2020
1954 Clear 12 1003 66 10000 5.7 180 21:47 06.06.2020
1955 Clouds 12 1003 58 10000 7.7 190 21:23 06.06.2020
1956 Clouds 13 1003 62 10000 7.7 190 20:58 06.06.2020
1957 Clouds 13 1003 62 10000 7.7 190 20:40 06.06.2020
1958 Clouds 13 1003 58 10000 7.7 200 20:19 06.06.2020
1959 Clouds 14 1002 58 10000 9.8 210 19:57 06.06.2020
1960 Clouds 14 1002 58 10000 9.8 210 19:38 06.06.2020
1961 Clouds 14 1002 58 10000 11.8 210 19:20 06.06.2020
1962 Clouds 14 1001 58 10000 10.3 210 18:54 06.06.2020
1963 Clouds 15 1001 62 10000 9.8 220 18:36 06.06.2020
1964 Clouds 15 1001 62 10000 9.8 220 18:18 06.06.2020
1965 Clouds 14 1001 67 10000 8.2 200 17:41 06.06.2020
1966 Clouds 14 1000 71 10000 7.2 200 17:19 06.06.2020
1967 Clouds 14 1000 76 10000 6.7 200 16:55 06.06.2020
1968 Clouds 14 1000 76 10000 6.7 200 16:55 06.06.2020
1969 Clouds 13 1000 76 10000 6.7 200 16:36 06.06.2020
1970 Rain 13 1000 82 10000 6.7 200 16:18 06.06.2020
1971 Rain 13 1000 87 4000 10.8 190 15:42 06.06.2020
1972 Clouds 16 999 67 10000 6.7 160 15:20 06.06.2020
1973 Clouds 16 998 72 10000 6.2 180 14:54 06.06.2020
1974 Clouds 16 998 72 10000 6.2 180 14:36 06.06.2020
1975 Clouds 17 998 63 10000 7.2 180 14:18 06.06.2020
1976 Clouds 17 998 72 10000 7.7 180 13:41 06.06.2020
1977 Clouds 16 998 77 10000 6.2 180 13:18 06.06.2020
1978 Clouds 16 998 77 10000 6.2 180 12:43 06.06.2020
1979 Clouds 16 998 77 10000 6.2 180 12:43 06.06.2020
1980 Clouds 16 997 87 10000 5.7 180 12:24 06.06.2020
1981 Clouds 15 997 87 10000 4.6 180 11:59 06.06.2020
1982 Clouds 15 997 87 10000 4.6 180 11:39 06.06.2020
1983 Clouds 14 997 93 10000 4.6 170 11:20 06.06.2020
1984 Clouds 14 997 93 10000 5.1 160 10:59 06.06.2020
1985 Clouds 13 997 93 10000 5.1 160 10:39 06.06.2020
1986 Clouds 13 997 100 10000 5.7 140 10:21 06.06.2020
1987 Rain 12 997 93 10000 6.2 130 09:58 06.06.2020
1988 Rain 12 997 93 10000 6.2 130 09:58 06.06.2020
1989 Rain 12 997 93 10000 6.2 130 09:40 06.06.2020
1990 Rain 12 996 93 7000 6.2 120 09:20 06.06.2020
1991 Rain 12 996 93 10000 6.7 120 08:40 06.06.2020
1992 Rain 12 996 93 5000 6.7 110 08:20 06.06.2020
1993 Rain 12 996 93 10000 7.2 110 07:46 06.06.2020
1994 Rain 13 997 67 10000 6.7 110 07:22 06.06.2020
1995 Rain 14 997 67 10000 6.7 110 06:48 06.06.2020
1996 Rain 14 997 67 10000 6.2 100 06:30 06.06.2020
1997 Rain 14 997 67 10000 6.2 100 05:55 06.06.2020
1998 Clouds 14 997 76 10000 4.6 100 05:28 06.06.2020
1999 Clouds 14 998 76 10000 4.1 90 04:44 06.06.2020
2000 Clouds 13 1000 87 10000 3.6 110 02:52 06.06.2020
2001 Clouds 13 1000 82 10000 4.1 110 01:56 06.06.2020
2002 Clouds 14 1000 82 10000 3.1 100 01:19 06.06.2020
2003 Clouds 14 1001 82 10000 3.1 100 00:45 06.06.2020
2004 Clouds 14 1001 82 10000 3.6 100 00:27 06.06.2020
2005 Clouds 14 1001 82 10000 3.6 100 00:27 06.06.2020
2006 Clouds 14 1001 82 10000 2.6 100 23:55 05.06.2020
2007 Clouds 14 1001 82 10000 2.6 100 23:36 05.06.2020
2008 Clouds 13 1001 93 10000 2.6 100 23:18 05.06.2020
2009 Clouds 13 1001 93 10000 3.1 100 22:41 05.06.2020
2010 Clouds 14 1001 93 10000 2.6 100 22:23 05.06.2020
2011 Clouds 14 1001 82 10000 3.1 110 21:59 05.06.2020
2012 Clouds 14 1001 76 10000 3.6 120 21:40 05.06.2020
2013 Clouds 14 1001 76 10000 3.6 120 21:21 05.06.2020
2014 Clouds 14 1001 76 10000 4.6 130 20:57 05.06.2020
2015 Clouds 15 1000 72 10000 4.1 120 20:38 05.06.2020
2016 Clouds 15 1000 72 10000 4.1 120 20:20 05.06.2020
2017 Clouds 17 1000 45 10000 4.6 200 19:41 05.06.2020
2018 Clouds 17 1000 45 10000 4.6 200 19:22 05.06.2020
2019 Clouds 18 1000 48 10000 5.1 210 18:56 05.06.2020
2020 Clouds 18 1000 48 10000 5.1 210 18:38 05.06.2020
2021 Clouds 18 999 48 10000 6.2 200 18:19 05.06.2020
2022 Clouds 19 999 55 10000 5.1 210 17:56 05.06.2020
2023 Clouds 18 999 55 10000 5.1 210 17:37 05.06.2020
2024 Clouds 17 999 63 10000 3.1 180 17:18 05.06.2020
2025 Clouds 15 999 72 10000 3.1 200 16:38 05.06.2020
2026 Clouds 15 999 72 10000 3.1 200 16:19 05.06.2020
2027 Clouds 14 999 82 10000 4.1 200 15:42 05.06.2020
2028 Clouds 14 999 82 10000 3.6 180 15:21 05.06.2020
2029 Rain 14 999 87 10000 4.1 180 14:58 05.06.2020
2030 Rain 14 999 87 10000 4.1 180 14:40 05.06.2020
2031 Rain 14 998 82 10000 4.6 190 14:22 05.06.2020
2032 Rain 15 998 82 10000 3.6 210 13:57 05.06.2020
2033 Rain 14 998 87 10000 4.1 220 13:37 05.06.2020
2034 Clouds 14 998 87 10000 4.1 220 13:18 05.06.2020
2035 Rain 14 998 87 10000 4.1 220 12:40 05.06.2020
2036 Clouds 13 997 93 10000 3.6 220 12:19 05.06.2020
2037 Rain 13 997 87 10000 3.1 230 11:43 05.06.2020
2038 Rain 13 997 93 8000 3.6 240 11:25 05.06.2020
2039 Rain 13 997 93 8000 3.6 250 10:59 05.06.2020
2040 Rain 13 997 93 8000 3.6 250 10:41 05.06.2020
2041 Drizzle 12 996 100 10000 3.6 260 10:21 05.06.2020
2042 Drizzle 12 996 100 8000 3.1 270 09:57 05.06.2020
2043 Drizzle 12 996 100 8000 3.1 270 09:39 05.06.2020
2044 Drizzle 12 996 100 8000 3.1 270 09:39 05.06.2020
2045 Drizzle 12 996 100 3500 3.1 270 09:20 05.06.2020
2046 Drizzle 12 996 100 3000 3.6 280 08:58 05.06.2020
2047 Drizzle 12 996 100 3000 3.6 280 08:40 05.06.2020
2048 Rain 12 996 93 3000 3.1 280 08:18 05.06.2020
2049 Rain 12 996 93 3000 3.1 290 07:50 05.06.2020
2050 Drizzle 11 996 100 4500 3.6 300 07:32 05.06.2020
2051 Rain 11 996 100 5000 4.1 300 06:49 05.06.2020
2052 Rain 11 996 93 10000 4.1 300 05:23 05.06.2020
2053 Rain 11 996 93 10000 4.6 310 04:28 05.06.2020
2054 Rain 11 997 93 10000 4.6 310 03:30 05.06.2020
2055 Rain 11 998 93 10000 4.1 310 02:29 05.06.2020
2056 Rain 11 998 93 10000 4.1 320 01:58 05.06.2020
2057 Rain 11 998 93 10000 4.6 320 01:31 05.06.2020
2058 Rain 11 999 93 10000 4.1 320 00:44 05.06.2020
2059 Rain 11 999 93 10000 4.1 320 00:22 05.06.2020
2060 Rain 12 999 87 10000 5.1 310 23:48 04.06.2020
2061 Rain 12 999 87 10000 5.1 310 23:48 04.06.2020
2062 Clouds 12 1000 93 10000 4.1 310 23:29 04.06.2020
2063 Rain 12 1000 87 10000 4.1 300 22:57 04.06.2020
2064 Rain 12 1000 87 10000 4.1 300 22:39 04.06.2020
2065 Rain 12 1001 87 10000 3.6 310 22:21 04.06.2020
2066 Rain 12 1001 87 10000 3.1 300 21:58 04.06.2020
2067 Rain 12 1001 87 10000 3.1 300 21:38 04.06.2020
2068 Rain 13 1002 93 10000 1.5 320 21:20 04.06.2020
2069 Rain 12 1002 87 10000 1 0 20:56 04.06.2020
2070 Rain 13 1002 87 10000 1 0 20:38 04.06.2020
2071 Rain 13 1002 76 10000 2.1 70 20:19 04.06.2020
2072 Rain 13 1002 76 10000 2.1 70 20:19 04.06.2020
2073 Clouds 14 1002 71 10000 6.7 130 19:43 04.06.2020
2074 Clouds 14 1002 71 10000 6.7 130 19:21 04.06.2020
2075 Clouds 14 1002 71 10000 6.7 130 19:21 04.06.2020
2076 Clouds 15 1002 63 10000 3.6 320 18:58 04.06.2020
2077 Clouds 15 1002 67 10000 3.6 330 18:38 04.06.2020
2078 Clouds 15 1002 67 10000 3.6 330 18:20 04.06.2020
2079 Clouds 15 1002 72 10000 4.1 320 17:44 04.06.2020
2080 Rain 15 1003 77 10000 3.1 340 17:22 04.06.2020
2081 Clouds 15 1003 77 10000 3.6 340 16:57 04.06.2020
2082 Clouds 15 1003 77 10000 3.6 340 16:39 04.06.2020
2083 Rain 16 1004 82 10000 4.1 360 16:19 04.06.2020
2084 Rain 16 1004 72 10000 4.1 10 15:43 04.06.2020
2085 Rain 16 1004 77 10000 4.1 20 15:25 04.06.2020
2086 Rain 16 1005 77 10000 5.7 40 14:42 04.06.2020
2087 Rain 16 1005 77 10000 3.6 60 14:22 04.06.2020
2088 Rain 16 1005 77 10000 3.6 60 14:22 04.06.2020
2089 Rain 16 1005 82 10000 2.6 70 13:58 04.06.2020
2090 Rain 15 1005 82 10000 4.1 110 13:39 04.06.2020
2091 Rain 15 1005 82 10000 4.1 110 13:20 04.06.2020
2092 Rain 16 1005 77 10000 4.6 100 12:58 04.06.2020
2093 Rain 16 1005 77 10000 4.6 100 12:58 04.06.2020
2094 Rain 16 1005 77 10000 4.6 100 12:40 04.06.2020
2095 Rain 17 1005 59 10000 5.1 120 12:21 04.06.2020
2096 Rain 18 1006 55 10000 6.7 90 11:54 04.06.2020
2097 Clouds 18 1006 52 10000 6.2 70 11:36 04.06.2020
2098 Clouds 18 1006 52 10000 6.2 70 11:18 04.06.2020
2099 Clouds 19 1006 48 10000 7.2 90 10:39 04.06.2020
2100 Clouds 19 1006 45 10000 6.2 60 10:21 04.06.2020
2101 Clouds 19 1006 48 10000 6.2 50 09:56 04.06.2020
2102 Clouds 16 1006 51 10000 3.6 50 09:37 04.06.2020
2103 Clouds 16 1006 51 10000 3.6 50 09:18 04.06.2020
2104 Clouds 16 1007 55 10000 2.6 30 08:38 04.06.2020
2105 Clouds 15 1007 58 10000 2.6 360 08:20 04.06.2020
2106 Clouds 13 1007 58 10000 4.1 20 07:32 04.06.2020
2107 Clouds 12 1008 62 10000 3.1 30 06:57 04.06.2020
2108 Clouds 12 1008 62 10000 2.6 30 06:39 04.06.2020
2109 Clouds 12 1008 62 10000 3.1 40 06:18 04.06.2020
2110 Clouds 11 1008 66 10000 2.6 40 05:32 04.06.2020
2111 Clouds 11 1009 62 10000 3.1 40 03:37 04.06.2020
2112 Clouds 11 1009 58 10000 3.1 40 02:21 04.06.2020
2113 Clouds 11 1009 58 10000 3.1 40 02:21 04.06.2020
2114 Clouds 11 1010 71 10000 2.6 30 01:22 04.06.2020
2115 Clouds 11 1010 70 10000 2.6 40 01:00 04.06.2020
2116 Clouds 10 1010 75 10000 2.6 40 00:18 04.06.2020
2117 Clouds 11 1011 76 10000 2.6 40 23:38 03.06.2020
2118 Clouds 11 1011 76 10000 2.6 40 23:19 03.06.2020
2119 Clouds 12 1011 71 10000 2.1 50 22:54 03.06.2020
2120 Clouds 12 1011 71 10000 2.1 60 22:36 03.06.2020
2121 Clouds 11 1011 71 10000 2.1 60 22:18 03.06.2020
2122 Clouds 13 1011 62 10000 1.5 50 21:55 03.06.2020
2123 Clear 14 1011 62 10000 1.5 50 21:36 03.06.2020
2124 Clear 15 1011 50 10000 1.5 60 21:18 03.06.2020
2125 Clear 16 1011 38 10000 2.1 80 20:41 03.06.2020
2126 Clear 16 1011 38 10000 3.6 100 20:21 03.06.2020
2127 Clear 16 1011 41 10000 3.6 110 19:57 03.06.2020
2128 Clear 16 1012 38 10000 4.6 100 19:38 03.06.2020
2129 Clear 16 1012 38 10000 4.6 100 19:20 03.06.2020
2130 Clear 16 1012 38 10000 5.7 110 18:57 03.06.2020
2131 Clear 16 1012 36 10000 5.7 130 18:39 03.06.2020
2132 Clear 16 1012 36 10000 5.7 130 18:19 03.06.2020
2133 Clear 16 1012 36 10000 4.1 110 17:44 03.06.2020
2134 Clear 17 1012 36 10000 5.7 110 17:22 03.06.2020
2135 Clear 17 1012 33 10000 5.1 130 16:57 03.06.2020
2136 Clear 17 1012 33 10000 5.1 130 16:39 03.06.2020
2137 Clear 17 1012 33 10000 4.1 90 16:19 03.06.2020
2138 Clear 16 1013 36 10000 6.2 140 15:42 03.06.2020
2139 Clear 17 1013 48 10000 6.7 100 15:21 03.06.2020
2140 Clear 17 1013 48 10000 7.2 110 14:59 03.06.2020
2141 Clear 17 1013 48 10000 7.2 110 14:40 03.06.2020
2142 Clear 17 1013 50 10000 6.2 100 14:21 03.06.2020
2143 Clear 16 1014 50 10000 7.7 100 13:40 03.06.2020
2144 Clear 17 1014 33 10000 8.2 110 13:20 03.06.2020
2145 Clear 17 1014 53 10000 7.2 70 12:44 03.06.2020
2146 Clear 17 1014 33 10000 7.2 80 12:24 03.06.2020
2147 Clear 16 1014 33 10000 5.1 100 11:59 03.06.2020
2148 Clear 16 1014 33 10000 5.1 100 11:40 03.06.2020
2149 Clear 16 1014 38 10000 2.6 0 11:22 03.06.2020
2150 Clear 16 1014 41 10000 6.7 130 10:42 03.06.2020
2151 Clear 16 1015 38 10000 6.2 100 10:24 03.06.2020
2152 Clear 16 1015 36 10000 6.2 100 09:47 03.06.2020
2153 Clear 16 1015 36 10000 6.2 100 09:47 03.06.2020
2154 Clear 15 1015 38 10000 5.7 80 09:22 03.06.2020
2155 Clouds 15 1015 44 10000 3.6 90 08:59 03.06.2020
2156 Clouds 15 1015 44 10000 3.6 90 08:40 03.06.2020
2157 Clear 14 1015 50 10000 3.1 80 08:20 03.06.2020
2158 Clear 14 1015 54 10000 3.1 80 07:43 03.06.2020
2159 Clear 13 1015 58 10000 2.6 90 07:22 03.06.2020
2160 Clear 13 1015 58 10000 2.6 90 06:54 03.06.2020
2161 Clear 12 1015 62 10000 4.1 70 06:33 03.06.2020
2162 Clear 12 1015 62 10000 4.1 70 06:33 03.06.2020
2163 Clear 10 1015 57 10000 4.1 70 05:48 03.06.2020
2164 Clear 8 1015 61 10000 3.6 50 04:59 03.06.2020
2165 Clear 7 1016 70 10000 3.1 40 03:51 03.06.2020
2166 Clear 7 1016 70 10000 2.6 40 03:23 03.06.2020
2167 Clear 7 1016 80 10000 2.1 20 02:24 03.06.2020
2168 Clear 8 1017 81 10000 1 10 00:49 03.06.2020
2169 Clear 8 1017 86 10000 1 0 00:26 03.06.2020
2170 Clear 9 1017 81 10000 1 10 23:52 02.06.2020
2171 Clear 9 1017 75 10000 1 360 23:28 02.06.2020
2172 Clear 10 1017 70 10000 1 10 22:58 02.06.2020
2173 Clear 11 1017 70 10000 1 10 22:39 02.06.2020
2174 Clear 11 1017 75 10000 1 0 22:19 02.06.2020
2175 Clear 12 1017 66 10000 1 0 21:56 02.06.2020
2176 Clear 12 1017 66 10000 1 0 21:38 02.06.2020
2177 Clear 12 1017 66 10000 1 0 21:38 02.06.2020
2178 Clear 14 1017 44 10000 1.5 120 21:19 02.06.2020
2179 Clear 14 1017 38 10000 4.1 130 20:58 02.06.2020
2180 Clear 15 1017 38 10000 4.1 130 20:40 02.06.2020
2181 Clear 15 1017 38 10000 4.1 130 20:21 02.06.2020
2182 Clear 15 1017 58 10000 4.1 120 19:44 02.06.2020
2183 Clear 15 1017 51 10000 4.1 120 19:26 02.06.2020
2184 Clear 15 1017 51 10000 4.1 120 18:58 02.06.2020
2185 Clear 15 1017 51 10000 4.1 120 18:58 02.06.2020
2186 Clear 16 1018 36 10000 5.7 120 18:40 02.06.2020
2187 Clouds 16 1018 36 10000 5.7 120 18:20 02.06.2020
2188 Clouds 15 1018 36 10000 5.7 120 17:55 02.06.2020
2189 Clouds 16 1018 36 10000 5.7 120 17:37 02.06.2020
2190 Clouds 16 1018 36 10000 5.7 120 17:37 02.06.2020
2191 Clear 15 1018 49 10000 5.1 110 17:19 02.06.2020
2192 Clear 15 1019 36 10000 4.6 130 16:54 02.06.2020
2193 Clear 15 1019 36 10000 4.6 130 16:36 02.06.2020
2194 Clear 15 1019 49 10000 4.1 150 16:18 02.06.2020
2195 Clear 15 1019 49 10000 4.1 150 15:40 02.06.2020
2196 Clear 15 1020 36 10000 5.1 120 15:20 02.06.2020
2197 Clear 15 1020 36 10000 5.7 160 14:46 02.06.2020
2198 Clouds 15 1020 50 10000 5.1 150 14:27 02.06.2020
2199 Clouds 15 1021 38 10000 6.2 160 13:55 02.06.2020
2200 Clouds 15 1021 38 10000 6.2 160 13:36 02.06.2020
2201 Clouds 15 1021 38 10000 5.7 120 13:18 02.06.2020
2202 Clouds 15 1021 41 10000 5.7 140 12:55 02.06.2020
2203 Clouds 15 1021 41 10000 5.7 140 12:37 02.06.2020
2204 Clouds 15 1021 41 10000 5.1 130 12:18 02.06.2020
2205 Clouds 16 1021 41 10000 4.6 130 11:41 02.06.2020
2206 Clouds 15 1022 38 10000 5.1 50 11:22 02.06.2020
2207 Clouds 15 1022 38 10000 4.1 60 10:55 02.06.2020
2208 Clouds 15 1022 38 10000 4.1 60 10:37 02.06.2020
2209 Clouds 14 1022 53 10000 5.1 40 10:19 02.06.2020
2210 Clouds 14 1022 41 10000 3.6 60 09:42 02.06.2020
2211 Clouds 14 1023 41 10000 3.6 90 09:21 02.06.2020
2212 Clouds 14 1023 41 10000 3.1 50 08:53 02.06.2020
2213 Clouds 14 1023 43 10000 3.1 70 08:28 02.06.2020
2214 Clouds 13 1023 47 10000 3.1 50 07:58 02.06.2020
2215 Clouds 13 1023 54 10000 3.6 40 07:33 02.06.2020
2216 Clouds 12 1023 53 10000 3.1 40 06:59 02.06.2020
2217 Clouds 11 1023 53 10000 3.1 40 06:37 02.06.2020
2218 Clouds 8 1023 87 10000 1.5 40 05:37 02.06.2020
2219 Clouds 6 1023 93 10000 2.1 30 04:20 02.06.2020
2220 Clear 7 1024 87 10000 1 0 02:37 02.06.2020
2221 Clouds 7 1024 93 10000 1.5 350 01:48 02.06.2020
2222 Clouds 7 1024 86 10000 1.5 340 00:40 02.06.2020
2223 Clouds 7 1024 86 10000 0.5 0 00:20 02.06.2020
2224 Clouds 8 1024 93 10000 0.5 0 23:39 01.06.2020
2225 Clouds 8 1024 93 10000 1 50 23:19 01.06.2020
2226 Clouds 9 1024 93 10000 1 70 22:56 01.06.2020
2227 Clouds 9 1024 93 10000 1 70 22:56 01.06.2020
2228 Clouds 9 1024 93 10000 1 70 22:37 01.06.2020
2229 Clouds 9 1024 87 10000 1 0 22:18 01.06.2020
2230 Clouds 10 1024 76 10000 1 0 21:41 01.06.2020
2231 Clouds 11 1024 66 10000 2.6 130 21:20 01.06.2020
2232 Clouds 11 1023 66 10000 3.1 160 20:58 01.06.2020
2233 Clouds 11 1023 66 10000 3.1 160 20:40 01.06.2020
2234 Clouds 12 1023 58 10000 3.6 150 20:20 01.06.2020
2235 Clouds 12 1023 58 10000 3.6 150 19:57 01.06.2020
2236 Clouds 12 1023 58 10000 3.6 150 19:39 01.06.2020
2237 Clouds 13 1023 58 10000 5.1 150 19:20 01.06.2020
2238 Clouds 13 1023 58 10000 5.7 140 18:56 01.06.2020
2239 Clouds 13 1023 58 10000 5.7 140 18:56 01.06.2020
2240 Clouds 13 1023 54 10000 6.7 150 18:38 01.06.2020
2241 Clouds 14 1023 54 10000 6.7 150 18:18 01.06.2020
2242 Clouds 15 1023 55 10000 3.1 170 17:41 01.06.2020
2243 Clouds 16 1023 55 10000 3.1 170 17:20 01.06.2020
2244 Clouds 16 1023 55 10000 4.6 150 16:48 01.06.2020
2245 Clouds 15 1023 62 10000 3.1 160 16:26 01.06.2020
2246 Clouds 14 1024 62 10000 3.6 140 15:59 01.06.2020
2247 Clouds 14 1024 62 10000 3.6 140 15:40 01.06.2020
2248 Clouds 14 1024 62 10000 4.1 140 15:21 01.06.2020
2249 Clouds 14 1024 58 10000 4.1 160 14:59 01.06.2020
2250 Clouds 13 1024 58 10000 4.1 160 14:41 01.06.2020
2251 Clouds 14 1024 58 10000 4.1 140 14:21 01.06.2020
2252 Clouds 14 1024 62 10000 5.1 140 13:55 01.06.2020
2253 Clouds 14 1024 62 10000 5.1 140 13:55 01.06.2020
2254 Clouds 14 1024 62 10000 5.1 140 13:37 01.06.2020
2255 Clouds 15 1024 62 10000 4.6 140 13:19 01.06.2020
2256 Clouds 14 1024 48 10000 3.6 80 12:55 01.06.2020
2257 Clouds 14 1024 48 10000 3.6 80 12:37 01.06.2020
2258 Clouds 14 1024 48 10000 3.6 80 12:37 01.06.2020
2259 Clouds 14 1025 48 10000 3.1 80 12:18 01.06.2020
2260 Clouds 16 1025 44 10000 2.1 70 11:40 01.06.2020
2261 Clouds 16 1025 44 10000 3.1 70 11:22 01.06.2020
2262 Clouds 17 1025 44 10000 3.1 70 10:57 01.06.2020
2263 Clouds 16 1025 44 10000 2.6 10 10:37 01.06.2020
2264 Clouds 16 1025 48 10000 3.1 20 10:19 01.06.2020
2265 Clouds 15 1025 54 10000 3.1 340 09:55 01.06.2020
2266 Clouds 15 1025 54 10000 3.1 340 09:37 01.06.2020
2267 Clouds 15 1025 58 10000 2.6 10 09:19 01.06.2020
2268 Clouds 14 1025 58 10000 3.1 360 08:41 01.06.2020
2269 Clouds 13 1025 58 10000 2.6 10 08:22 01.06.2020
2270 Clouds 13 1025 58 10000 3.6 10 07:44 01.06.2020
2271 Clouds 13 1025 58 10000 3.6 10 07:25 01.06.2020
2272 Clouds 12 1025 66 10000 3.6 350 06:52 01.06.2020
2273 Clear 12 1025 66 10000 3.1 350 06:20 01.06.2020
2274 Clear 11 1025 71 10000 2.6 330 05:49 01.06.2020
2275 Clear 10 1025 81 10000 2.6 340 04:18 01.06.2020
2276 Clear 10 1025 81 10000 3.1 350 03:44 01.06.2020
2277 Clear 10 1025 81 10000 1.5 10 02:59 01.06.2020
2278 Clouds 12 1025 66 10000 3.1 350 01:47 01.06.2020
2279 Clouds 12 1025 66 10000 3.1 350 01:26 01.06.2020
2280 Clouds 12 1025 81 10000 3.1 350 00:56 01.06.2020
2281 Clouds 12 1025 71 10000 2.6 350 00:38 01.06.2020
2282 Clouds 12 1025 71 10000 2.1 350 00:19 01.06.2020
2283 Clouds 13 1025 66 10000 2.1 360 23:42 31.05.2020
2284 Clear 13 1025 54 10000 3.1 360 23:23 31.05.2020
2285 Clear 13 1025 54 10000 3.1 360 22:59 31.05.2020
2286 Clear 14 1025 62 10000 2.1 10 22:41 31.05.2020
2287 Clear 14 1025 62 10000 2.1 10 22:22 31.05.2020
2288 Clear 16 1025 45 10000 2.1 10 21:57 31.05.2020
2289 Clear 16 1024 42 10000 3.1 10 21:39 31.05.2020
2290 Clear 18 1024 42 10000 3.1 10 21:21 31.05.2020
2291 Clear 18 1024 39 10000 5.1 10 20:47 31.05.2020
2292 Clear 19 1024 39 10000 5.1 10 20:25 31.05.2020
2293 Clear 19 1024 37 10000 4.6 20 19:56 31.05.2020
2294 Clear 19 1024 34 10000 6.2 20 19:38 31.05.2020
2295 Clear 18 1024 34 10000 6.2 20 19:20 31.05.2020
2296 Clear 18 1025 34 10000 5.7 10 18:56 31.05.2020
2297 Clear 18 1025 34 10000 7.2 10 18:37 31.05.2020
2298 Clear 18 1025 34 10000 7.2 10 18:19 31.05.2020
2299 Clear 19 1025 32 10000 7.7 10 17:42 31.05.2020
2300 Clear 18 1025 32 10000 7.7 10 17:24 31.05.2020
2301 Clear 18 1025 32 10000 5.7 10 16:42 31.05.2020
2302 Clear 18 1025 32 10000 5.7 10 16:22 31.05.2020
2303 Clear 18 1026 34 10000 7.7 350 15:56 31.05.2020
2304 Clear 19 1026 34 10000 7.7 20 15:37 31.05.2020
2305 Clear 18 1026 34 10000 7.7 20 15:19 31.05.2020
2306 Clear 19 1026 34 10000 6.2 360 14:42 31.05.2020
2307 Clouds 18 1027 34 10000 8.2 10 14:19 31.05.2020
2308 Clouds 19 1027 34 10000 8.2 10 13:56 31.05.2020
2309 Clouds 19 1027 32 10000 7.2 10 13:37 31.05.2020
2310 Clouds 20 1027 32 10000 6.7 360 13:19 31.05.2020
2311 Clouds 19 1027 34 10000 6.2 10 12:46 31.05.2020
2312 Clear 19 1027 34 10000 6.2 10 12:24 31.05.2020
2313 Clear 19 1027 32 10000 6.7 360 11:59 31.05.2020
2314 Clear 18 1028 31 10000 7.2 10 11:39 31.05.2020
2315 Clear 18 1028 31 10000 7.2 10 11:21 31.05.2020
2316 Clear 18 1028 50 10000 6.7 30 10:45 31.05.2020
2317 Clear 18 1028 50 10000 6.7 30 10:27 31.05.2020
2318 Clear 17 1028 33 10000 6.7 40 09:59 31.05.2020
2319 Clear 16 1028 38 10000 5.1 20 09:41 31.05.2020
2320 Clear 16 1028 44 10000 5.1 50 09:21 31.05.2020
2321 Clear 15 1028 44 10000 4.6 40 08:43 31.05.2020
2322 Clear 14 1028 47 10000 4.6 40 08:24 31.05.2020
2323 Clear 14 1028 44 10000 4.6 40 08:24 31.05.2020
2324 Clear 15 1028 47 10000 4.6 40 07:50 31.05.2020
2325 Clear 14 1028 50 10000 4.1 30 07:22 31.05.2020
2326 Clear 13 1028 54 10000 3.6 30 06:57 31.05.2020
2327 Clear 12 1028 58 10000 3.6 20 06:35 31.05.2020
2328 Clear 11 1028 57 10000 4.1 20 05:51 31.05.2020
2329 Clear 11 1028 57 10000 4.1 20 05:32 31.05.2020
2330 Clear 10 1028 61 10000 4.1 10 04:18 31.05.2020
2331 Clear 10 1028 61 10000 3.6 360 03:39 31.05.2020
2332 Clear 11 1028 57 10000 4.1 360 02:47 31.05.2020
2333 Clear 11 1027 57 10000 3.6 360 01:46 31.05.2020
2334 Clear 11 1027 57 10000 2.6 360 00:42 31.05.2020
2335 Clear 12 1027 57 10000 2.6 360 00:24 31.05.2020
2336 Clear 13 1027 50 10000 3.1 10 23:42 30.05.2020
2337 Clear 13 1027 50 10000 3.1 10 23:24 30.05.2020
2338 Clear 14 1027 44 10000 3.1 20 22:56 30.05.2020
2339 Clear 14 1026 41 10000 3.1 20 22:38 30.05.2020
2340 Clear 15 1026 41 10000 3.1 20 22:20 30.05.2020
2341 Clear 16 1026 38 10000 4.6 30 21:43 30.05.2020
2342 Clear 17 1026 36 10000 6.7 30 21:22 30.05.2020
2343 Clear 17 1026 36 10000 6.7 30 20:58 30.05.2020
2344 Clear 18 1025 34 10000 5.7 40 20:39 30.05.2020
2345 Clouds 18 1025 34 10000 5.7 40 20:21 30.05.2020
2346 Clouds 18 1025 34 10000 7.2 10 19:55 30.05.2020
2347 Clouds 19 1025 32 10000 6.7 20 19:37 30.05.2020
2348 Clouds 19 1025 34 10000 6.2 20 19:18 30.05.2020
2349 Clouds 19 1025 32 10000 6.7 20 18:43 30.05.2020
2350 Clouds 19 1025 32 10000 6.2 20 18:19 30.05.2020
2351 Clouds 20 1025 32 10000 7.2 20 17:42 30.05.2020
2352 Clouds 20 1025 32 10000 7.2 20 17:24 30.05.2020
2353 Clouds 20 1025 32 10000 7.2 20 17:24 30.05.2020
2354 Clouds 20 1025 34 10000 7.2 20 16:58 30.05.2020
2355 Clouds 19 1025 34 10000 8.2 30 16:39 30.05.2020
2356 Clouds 19 1025 34 10000 8.2 30 16:20 30.05.2020
2357 Clouds 20 1026 32 10000 7.2 10 15:42 30.05.2020
2358 Clouds 20 1026 32 10000 7.2 10 15:24 30.05.2020
2359 Clouds 19 1026 34 10000 7.2 10 14:44 30.05.2020
2360 Clear 19 1026 34 10000 7.2 10 14:25 30.05.2020
2361 Clear 19 1026 36 10000 7.7 10 13:44 30.05.2020
2362 Clear 19 1026 36 10000 7.7 10 13:24 30.05.2020
2363 Clear 18 1026 39 10000 7.2 20 12:42 30.05.2020
2364 Clear 18 1027 39 10000 6.7 360 12:21 30.05.2020
2365 Clear 18 1027 39 10000 6.7 360 12:21 30.05.2020
2366 Clear 18 1027 39 10000 6.7 360 11:58 30.05.2020
2367 Clear 18 1027 42 10000 6.7 10 11:40 30.05.2020
2368 Clear 17 1027 42 10000 6.7 10 11:22 30.05.2020
2369 Clear 17 1027 42 10000 6.2 350 10:41 30.05.2020
2370 Clear 17 1027 42 10000 6.2 350 10:21 30.05.2020
2371 Clouds 15 1027 44 10000 5.7 360 09:51 30.05.2020
2372 Clouds 15 1027 44 10000 5.7 360 09:32 30.05.2020
2373 Clouds 15 1027 47 10000 6.2 20 08:52 30.05.2020
2374 Clouds 15 1027 47 10000 6.2 20 08:33 30.05.2020
2375 Clear 13 1026 50 10000 5.1 20 07:50 30.05.2020
2376 Clear 13 1026 50 10000 5.1 20 07:26 30.05.2020
2377 Clear 13 1026 54 10000 4.6 10 06:58 30.05.2020
2378 Clear 12 1026 58 10000 4.6 360 06:25 30.05.2020
2379 Clear 12 1026 62 10000 3.6 350 05:49 30.05.2020
2380 Clear 11 1026 66 10000 3.1 350 03:57 30.05.2020
2381 Clear 10 1025 75 10000 3.1 340 02:31 30.05.2020
2382 Clear 10 1025 75 10000 3.1 340 01:50 30.05.2020
2383 Clear 11 1025 75 10000 3.1 340 00:40 30.05.2020
2384 Clear 11 1025 75 10000 3.1 340 00:21 30.05.2020
2385 Clear 11 1025 81 10000 2.6 330 23:58 29.05.2020
2386 Clear 11 1025 81 10000 3.1 330 23:38 29.05.2020
2387 Clear 12 1024 76 10000 2.1 330 23:19 29.05.2020
2388 Clear 12 1024 71 10000 2.6 320 22:41 29.05.2020
2389 Clear 12 1024 71 10000 2.6 320 22:21 29.05.2020
2390 Clear 13 1024 62 10000 2.1 320 21:59 29.05.2020
2391 Clear 14 1024 47 10000 2.1 340 21:39 29.05.2020
2392 Clouds 15 1024 47 10000 2.1 340 21:20 29.05.2020
2393 Clouds 15 1024 41 10000 2.1 350 20:54 29.05.2020
2394 Clouds 15 1024 41 0 1.67 322 20:36 29.05.2020
2395 Clouds 15 1024 41 10000 3.1 340 20:18 29.05.2020
2396 Clouds 16 1024 36 10000 5.7 330 19:42 29.05.2020
2397 Clouds 17 1024 36 10000 4.6 320 19:23 29.05.2020
2398 Clouds 17 1024 36 10000 4.6 320 18:47 29.05.2020
2399 Clouds 17 1024 36 10000 4.1 300 18:21 29.05.2020
2400 Clouds 17 1024 36 10000 4.1 300 17:57 29.05.2020
2401 Clouds 17 1024 36 10000 5.1 310 17:38 29.05.2020
2402 Clouds 17 1024 36 10000 5.1 310 17:19 29.05.2020
2403 Clouds 17 1024 41 10000 5.1 320 16:45 29.05.2020
2404 Clouds 17 1024 41 10000 5.1 320 16:27 29.05.2020
2405 Clouds 18 1024 39 10000 4.6 350 15:57 29.05.2020
2406 Clouds 17 1024 38 10000 4.6 330 15:38 29.05.2020
2407 Clouds 17 1024 38 10000 4.6 330 15:20 29.05.2020
2408 Clouds 17 1024 38 10000 5.1 320 14:50 29.05.2020
2409 Clouds 17 1024 39 10000 4.1 320 14:24 29.05.2020
2410 Clouds 17 1025 38 10000 5.1 330 13:58 29.05.2020
2411 Clouds 17 1025 36 10000 4.1 320 13:39 29.05.2020
2412 Clear 17 1025 38 10000 5.1 320 13:18 29.05.2020
2413 Clear 17 1025 38 10000 3.6 310 12:44 29.05.2020
2414 Clear 17 1025 38 10000 3.6 310 12:25 29.05.2020
2415 Clear 16 1025 45 10000 4.6 300 11:46 29.05.2020
2416 Clear 16 1025 47 10000 4.6 300 11:27 29.05.2020
2417 Clear 16 1025 47 10000 5.1 300 10:58 29.05.2020
2418 Clear 15 1025 38 10000 3.6 300 10:38 29.05.2020
2419 Clear 15 1025 41 10000 4.1 330 10:19 29.05.2020
2420 Clouds 14 1025 44 10000 3.6 320 09:44 29.05.2020
2421 Clouds 13 1025 44 10000 3.6 320 09:20 29.05.2020
2422 Clouds 13 1025 50 10000 3.6 320 08:56 29.05.2020
2423 Clear 13 1026 54 10000 4.1 330 08:37 29.05.2020
2424 Clear 13 1026 54 10000 4.1 330 08:19 29.05.2020
2425 Clear 11 1026 62 10000 4.1 340 07:40 29.05.2020
2426 Clear 11 1026 61 10000 2.6 330 07:21 29.05.2020
2427 Clear 10 1026 66 10000 3.1 330 06:48 29.05.2020
2428 Clear 9 1026 66 10000 3.1 330 06:27 29.05.2020
2429 Clear 8 1026 70 10000 2.6 320 05:52 29.05.2020
2430 Clear 8 1026 65 10000 4.1 320 02:56 29.05.2020
2431 Clear 9 1025 61 10000 4.1 310 01:42 29.05.2020
2432 Clear 9 1025 61 10000 4.1 320 01:23 29.05.2020
2433 Clear 10 1025 61 10000 4.1 310 00:46 29.05.2020
2434 Clear 10 1024 57 10000 3.6 310 00:21 29.05.2020
2435 Clear 11 1024 61 10000 4.1 300 23:39 28.05.2020
2436 Clear 11 1024 57 10000 3.1 300 23:19 28.05.2020
2437 Clear 11 1024 50 10000 3.6 300 22:44 28.05.2020
2438 Clear 12 1024 50 10000 3.6 300 22:26 28.05.2020
2439 Clear 13 1024 46 10000 3.6 310 21:57 28.05.2020
2440 Clouds 14 1024 65 10000 4.1 320 21:39 28.05.2020
2441 Clouds 14 1023 38 10000 5.7 330 21:20 28.05.2020
2442 Clouds 15 1023 38 10000 5.7 330 20:57 28.05.2020
2443 Clouds 15 1023 61 10000 6.2 330 20:39 28.05.2020
2444 Clouds 15 1023 57 10000 6.2 330 20:18 28.05.2020
2445 Clouds 16 1023 38 10000 4.1 320 19:56 28.05.2020
2446 Clouds 16 1022 36 10000 5.1 330 19:37 28.05.2020
2447 Clouds 16 1022 36 10000 5.1 330 19:19 28.05.2020
2448 Clouds 16 1022 42 10000 4.1 260 18:42 28.05.2020
2449 Rain 16 1022 48 10000 2.6 240 18:23 28.05.2020
2450 Rain 16 1022 48 10000 4.1 230 17:43 28.05.2020
2451 Rain 16 1022 48 10000 4.1 230 17:23 28.05.2020
2452 Clouds 17 1022 48 10000 4.6 230 16:59 28.05.2020
2453 Clouds 16 1022 36 10000 3.6 270 16:39 28.05.2020
2454 Clouds 17 1022 36 10000 3.6 270 16:20 28.05.2020
2455 Clouds 17 1022 36 10000 4.1 270 15:46 28.05.2020
2456 Clouds 17 1022 36 10000 4.1 270 15:25 28.05.2020
2457 Clouds 17 1022 38 10000 3.1 270 14:57 28.05.2020
2458 Clouds 17 1022 36 10000 4.6 300 14:39 28.05.2020
2459 Clouds 17 1022 36 10000 4.6 300 14:21 28.05.2020
2460 Rain 16 1022 41 10000 5.7 290 13:43 28.05.2020
2461 Rain 16 1022 41 10000 5.7 290 13:25 28.05.2020
2462 Clouds 16 1022 39 10000 5.1 330 12:43 28.05.2020
2463 Clouds 17 1022 39 10000 5.1 330 12:19 28.05.2020
2464 Clouds 16 1022 44 10000 3.6 290 11:45 28.05.2020
2465 Clouds 15 1022 44 10000 3.6 290 11:26 28.05.2020
2466 Clouds 15 1023 54 10000 4.6 290 10:58 28.05.2020
2467 Clouds 14 1022 54 10000 4.6 290 10:40 28.05.2020
2468 Clouds 14 1022 58 10000 4.6 300 10:22 28.05.2020
2469 Clouds 13 1022 62 10000 4.6 290 09:40 28.05.2020
2470 Clouds 13 1022 62 10000 3.6 300 09:22 28.05.2020
2471 Clouds 13 1022 62 10000 3.6 300 08:52 28.05.2020
2472 Clouds 12 1022 62 10000 4.6 310 08:32 28.05.2020
2473 Clouds 12 1022 66 10000 5.1 310 07:58 28.05.2020
2474 Clouds 12 1021 81 10000 3.6 310 07:38 28.05.2020
2475 Clouds 11 1021 81 10000 3.6 310 07:20 28.05.2020
2476 Rain 11 1021 81 10000 4.1 310 06:39 28.05.2020
2477 Rain 11 1021 81 10000 4.1 310 06:20 28.05.2020
2478 Rain 11 1021 81 10000 3.6 290 05:37 28.05.2020
2479 Rain 11 1020 81 10000 3.6 310 04:34 28.05.2020
2480 Rain 12 1020 76 10000 4.1 300 03:51 28.05.2020
2481 Rain 12 1020 76 10000 4.1 340 02:49 28.05.2020
2482 Rain 13 1020 71 10000 3.6 340 01:56 28.05.2020
2483 Clouds 13 1020 71 10000 2.6 330 01:27 28.05.2020
2484 Clouds 14 1020 67 10000 3.6 310 00:46 28.05.2020
2485 Clouds 14 1020 67 10000 3.6 310 00:19 28.05.2020
2486 Clouds 13 1020 71 10000 3.1 230 23:40 27.05.2020
2487 Clouds 13 1020 71 10000 3.1 230 23:22 27.05.2020
2488 Clouds 13 1020 71 10000 3.1 230 23:22 27.05.2020
2489 Clouds 13 1020 71 10000 3.1 240 22:59 27.05.2020
2490 Clouds 13 1020 71 10000 2.6 230 22:40 27.05.2020
2491 Clouds 13 1020 71 10000 2.6 230 22:22 27.05.2020
2492 Clouds 13 1020 71 10000 2.6 230 22:22 27.05.2020
2493 Clouds 14 1019 58 10000 3.1 230 21:43 27.05.2020
2494 Clouds 15 1019 58 10000 3.1 230 21:24 27.05.2020
2495 Clouds 15 1019 54 10000 2.6 230 20:59 27.05.2020
2496 Clouds 15 1019 51 10000 4.1 230 20:41 27.05.2020
2497 Clouds 15 1019 51 10000 4.6 240 20:23 27.05.2020
2498 Clouds 16 1019 51 10000 4.6 240 19:59 27.05.2020
2499 Clouds 17 1020 42 10000 4.1 240 19:41 27.05.2020
2500 Clouds 17 1020 39 10000 5.1 230 19:19 27.05.2020
2501 Clouds 17 1020 39 10000 5.1 230 19:19 27.05.2020
2502 Clouds 18 1020 45 10000 6.2 230 18:41 27.05.2020
2503 Clouds 18 1020 48 10000 7.2 220 18:20 27.05.2020
2504 Clouds 19 1020 48 10000 7.2 220 17:57 27.05.2020
2505 Clouds 19 1020 48 10000 7.2 220 17:38 27.05.2020
2506 Clouds 20 1020 42 10000 6.2 220 17:19 27.05.2020
2507 Clouds 20 1020 42 10000 6.2 220 16:55 27.05.2020
2508 Clouds 20 1021 42 10000 6.7 220 16:37 27.05.2020
2509 Clear 20 1021 34 10000 6.7 220 16:18 27.05.2020
2510 Clear 20 1021 32 10000 6.2 220 15:41 27.05.2020
2511 Clear 20 1022 28 10000 7.2 220 15:21 27.05.2020
2512 Clear 20 1022 58 10000 7.2 210 14:45 27.05.2020
2513 Clouds 20 1022 28 10000 7.2 220 14:22 27.05.2020
2514 Clouds 20 1022 28 10000 7.2 220 14:22 27.05.2020
2515 Clouds 20 1022 28 10000 7.2 220 14:22 27.05.2020
2516 Clouds 20 1022 28 10000 7.2 220 13:57 27.05.2020
2517 Clouds 20 1022 28 10000 7.2 220 13:38 27.05.2020
2518 Clouds 20 1023 26 10000 5.7 220 13:20 27.05.2020
2519 Clouds 21 1023 24 10000 5.1 200 12:41 27.05.2020
2520 Clouds 20 1023 24 10000 5.1 200 12:22 27.05.2020
2521 Clouds 20 1024 28 10000 3.6 200 11:41 27.05.2020
2522 Clouds 20 1024 28 10000 3.6 200 11:22 27.05.2020
2523 Clouds 20 1024 30 10000 4.1 240 10:59 27.05.2020
2524 Clouds 20 1024 50 10000 3.1 200 10:40 27.05.2020
2525 Clouds 19 1024 52 10000 3.1 200 10:22 27.05.2020
2526 Clouds 18 1025 34 10000 1.5 220 09:42 27.05.2020
2527 Clouds 18 1025 34 10000 1.5 220 09:24 27.05.2020
2528 Clouds 17 1025 39 10000 2.1 270 08:58 27.05.2020
2529 Clouds 16 1025 44 10000 2.1 280 08:40 27.05.2020
2530 Clouds 17 1025 44 10000 2.1 280 08:22 27.05.2020
2531 Clouds 16 1025 47 10000 3.1 280 08:22 27.05.2020
2532 Clouds 15 1026 50 10000 4.1 280 07:51 27.05.2020
2533 Clouds 15 1026 50 10000 4.1 280 07:33 27.05.2020
2534 Clouds 14 1026 54 10000 4.6 280 06:52 27.05.2020
2535 Clouds 10 1026 76 10000 2.1 270 06:24 27.05.2020
2536 Clouds 9 1026 87 10000 1 290 05:50 27.05.2020
2537 Clouds 9 1026 87 10000 1 290 05:23 27.05.2020
2538 Clouds 10 1027 61 10000 3.1 310 02:42 27.05.2020
2539 Clouds 10 1027 61 10000 3.1 310 02:24 27.05.2020
2540 Clouds 11 1027 57 10000 3.1 300 01:31 27.05.2020
2541 Clouds 12 1027 50 10000 4.6 290 00:47 27.05.2020
2542 Clear 13 1027 50 10000 2.6 280 00:20 27.05.2020
2543 Clear 13 1027 50 10000 2.6 280 23:57 26.05.2020
2544 Clear 13 1028 54 10000 3.1 250 23:39 26.05.2020
2545 Clear 14 1028 44 10000 3.1 250 23:20 26.05.2020
2546 Clear 16 1028 38 10000 2.1 240 22:42 26.05.2020
2547 Clear 16 1028 38 10000 2.1 240 22:23 26.05.2020
2548 Clear 16 1028 38 10000 2.6 250 21:59 26.05.2020
2549 Clear 16 1028 34 10000 4.1 250 21:40 26.05.2020
2550 Clouds 18 1028 34 10000 4.1 250 21:22 26.05.2020
2551 Clouds 18 1028 32 10000 5.1 240 20:57 26.05.2020
2552 Clouds 19 1028 34 10000 5.7 240 20:39 26.05.2020
2553 Clouds 19 1028 34 10000 5.7 240 20:39 26.05.2020
2554 Clouds 19 1028 34 10000 5.7 240 20:19 26.05.2020
2555 Clouds 20 1028 30 10000 5.7 220 19:40 26.05.2020
2556 Clouds 20 1028 30 10000 6.7 220 19:20 26.05.2020
2557 Clouds 21 1028 30 10000 6.7 220 18:58 26.05.2020
2558 Clouds 21 1028 28 10000 6.7 230 18:39 26.05.2020
2559 Clouds 21 1028 30 10000 5.7 290 18:20 26.05.2020
2560 Clouds 22 1028 26 10000 4.1 230 17:40 26.05.2020
2561 Clouds 22 1028 26 10000 4.1 230 17:21 26.05.2020
2562 Clouds 22 1029 44 10000 2.1 320 16:48 26.05.2020
2563 Clouds 22 1029 44 10000 2.1 320 16:23 26.05.2020
2564 Clouds 21 1029 44 10000 4.6 320 15:58 26.05.2020
2565 Clouds 22 1029 44 10000 2.6 0 15:39 26.05.2020
2566 Clouds 22 1029 22 10000 2.1 0 15:19 26.05.2020
2567 Clouds 22 1029 47 10000 2.6 0 14:44 26.05.2020
2568 Clouds 22 1029 47 10000 2.6 0 14:44 26.05.2020
2569 Clouds 22 1029 49 10000 2.6 0 14:25 26.05.2020
2570 Clouds 22 1029 49 10000 3.1 0 13:57 26.05.2020
2571 Clouds 22 1029 26 10000 1.5 0 13:39 26.05.2020
2572 Clouds 21 1030 45 10000 2.6 310 13:21 26.05.2020
2573 Clouds 21 1030 24 10000 1.5 0 12:44 26.05.2020
2574 Clear 21 1030 24 10000 1.5 0 12:22 26.05.2020
2575 Clear 21 1030 28 10000 4.1 310 11:59 26.05.2020
2576 Clear 21 1030 42 10000 3.6 300 11:40 26.05.2020
2577 Clear 21 1030 28 10000 3.1 310 11:19 26.05.2020
2578 Clear 21 1030 28 10000 3.1 340 10:44 26.05.2020
2579 Clear 20 1030 32 10000 2.6 300 10:19 26.05.2020
2580 Clear 20 1030 37 10000 1.5 0 09:55 26.05.2020
2581 Clear 19 1030 37 10000 1.5 0 09:37 26.05.2020
2582 Clear 19 1030 42 10000 1.5 290 09:18 26.05.2020
2583 Clear 17 1030 51 10000 1.5 300 08:39 26.05.2020
2584 Clear 17 1030 54 10000 2.1 310 08:20 26.05.2020
2585 Clear 15 1030 62 10000 2.6 340 07:40 26.05.2020
2586 Clear 14 1030 62 10000 2.6 340 07:22 26.05.2020
2587 Clear 12 1029 76 10000 2.1 310 06:49 26.05.2020
2588 Clear 10 1029 76 10000 2.1 310 06:23 26.05.2020
2589 Clear 9 1029 87 10000 1.5 300 05:35 26.05.2020
2590 Clear 9 1029 87 10000 2.6 310 04:58 26.05.2020
2591 Clear 9 1029 87 10000 2.1 310 04:40 26.05.2020
2592 Clear 9 1028 87 10000 3.1 320 04:21 26.05.2020
2593 Clear 10 1028 81 10000 3.1 300 02:52 26.05.2020
2594 Clouds 10 1028 81 10000 3.6 300 02:21 26.05.2020
2595 Clouds 11 1028 76 10000 3.1 290 01:40 26.05.2020
2596 Clouds 11 1028 71 10000 3.1 300 00:39 26.05.2020
2597 Clouds 12 1028 66 10000 4.6 290 00:20 26.05.2020
2598 Clouds 12 1028 66 10000 4.6 290 23:58 25.05.2020
2599 Clouds 13 1027 66 10000 4.1 290 23:38 25.05.2020
2600 Clouds 13 1027 62 10000 4.1 290 23:19 25.05.2020
2601 Clouds 13 1027 62 10000 4.1 290 22:55 25.05.2020
2602 Clouds 12 1027 62 10000 3.6 280 22:37 25.05.2020
2603 Clouds 12 1027 62 10000 3.6 280 22:37 25.05.2020
2604 Clouds 12 1027 66 10000 3.1 280 22:19 25.05.2020
2605 Clouds 12 1027 66 10000 3.1 280 21:58 25.05.2020
2606 Clouds 14 1026 54 10000 3.1 270 21:37 25.05.2020
2607 Clouds 15 1026 51 10000 4.1 270 21:18 25.05.2020
2608 Clouds 15 1025 51 10000 3.1 310 20:43 25.05.2020
2609 Clouds 15 1025 51 10000 3.1 310 20:43 25.05.2020
2610 Clouds 15 1025 51 10000 3.1 310 20:22 25.05.2020
2611 Clouds 16 1025 44 10000 3.1 320 19:59 25.05.2020
2612 Clouds 17 1025 42 10000 2.6 310 19:41 25.05.2020
2613 Clouds 17 1025 39 10000 2.6 330 19:19 25.05.2020
2614 Clouds 17 1025 39 10000 2.6 330 18:58 25.05.2020
2615 Rain 17 1025 34 10000 4.1 360 18:40 25.05.2020
2616 Clouds 18 1024 29 10000 2.6 330 18:20 25.05.2020
2617 Clouds 18 1024 31 10000 4.6 330 17:44 25.05.2020
2618 Clouds 18 1024 31 10000 4.6 330 17:44 25.05.2020
2619 Rain 18 1024 31 10000 4.6 330 17:24 25.05.2020
2620 Rain 18 1024 34 10000 5.1 340 16:58 25.05.2020
2621 Rain 17 1024 31 10000 4.6 310 16:40 25.05.2020
2622 Rain 18 1024 34 10000 5.1 320 16:20 25.05.2020
2623 Rain 18 1024 34 10000 5.7 310 15:45 25.05.2020
2624 Rain 17 1024 31 10000 3.6 310 15:20 25.05.2020
2625 Rain 18 1024 31 10000 3.6 310 14:59 25.05.2020
2626 Rain 18 1023 39 10000 1.5 0 14:39 25.05.2020
2627 Rain 19 1023 36 0 0.45 284 14:21 25.05.2020
2628 Clouds 18 1023 36 10000 3.6 20 13:40 25.05.2020
2629 Clouds 18 1023 36 10000 3.6 20 13:21 25.05.2020
2630 Clouds 17 1023 42 10000 2.6 340 12:59 25.05.2020
2631 Clouds 16 1023 41 10000 3.6 360 12:39 25.05.2020
2632 Clouds 16 1023 41 10000 3.6 360 12:20 25.05.2020
2633 Clouds 17 1022 48 10000 4.1 360 11:40 25.05.2020
2634 Clouds 16 1022 48 10000 4.1 360 11:21 25.05.2020
2635 Clouds 17 1022 44 10000 4.6 330 10:59 25.05.2020
2636 Clouds 16 1022 44 10000 5.1 340 10:41 25.05.2020
2637 Clouds 16 1022 44 10000 5.1 340 10:20 25.05.2020
2638 Clouds 15 1021 51 10000 4.6 350 09:55 25.05.2020
2639 Clouds 15 1021 51 10000 4.6 350 09:36 25.05.2020
2640 Clouds 14 1021 51 10000 4.1 350 09:18 25.05.2020
2641 Clouds 14 1021 51 10000 4.1 350 09:18 25.05.2020
2642 Clouds 13 1021 54 10000 4.1 10 08:40 25.05.2020
2643 Clouds 12 1020 58 10000 4.1 360 08:21 25.05.2020
2644 Clouds 13 1020 58 10000 4.1 360 07:56 25.05.2020
2645 Clouds 12 1020 58 10000 4.1 360 07:38 25.05.2020
2646 Clouds 12 1020 58 10000 4.1 360 07:38 25.05.2020
2647 Clouds 12 1020 62 10000 4.1 360 07:18 25.05.2020
2648 Clouds 11 1020 62 10000 3.6 350 06:38 25.05.2020
2649 Clouds 10 1019 62 10000 3.6 350 05:27 25.05.2020
2650 Clouds 10 1019 71 10000 2.1 340 03:30 25.05.2020
2651 Clouds 10 1019 71 10000 2.6 360 02:51 25.05.2020
2652 Clouds 10 1018 66 10000 4.6 360 02:32 25.05.2020
2653 Clouds 10 1018 71 10000 3.1 330 01:42 25.05.2020
2654 Clouds 10 1018 66 10000 2.1 340 00:47 25.05.2020
2655 Clouds 10 1018 70 10000 3.1 310 00:26 25.05.2020
2656 Clouds 10 1018 70 10000 3.1 310 23:58 24.05.2020
2657 Clouds 10 1017 61 10000 3.1 330 23:39 24.05.2020
2658 Clouds 10 1017 61 10000 3.1 330 23:39 24.05.2020
2659 Clouds 10 1017 61 10000 3.1 330 23:39 24.05.2020
2660 Clouds 10 1017 61 10000 3.1 330 23:20 24.05.2020
2661 Clouds 10 1017 61 10000 3.1 330 23:20 24.05.2020
2662 Clouds 10 1017 66 10000 2.6 320 22:55 24.05.2020
2663 Clouds 10 1017 66 10000 2.6 320 22:55 24.05.2020
2664 Clouds 10 1017 61 10000 2.6 300 22:37 24.05.2020
2665 Clouds 11 1017 57 10000 2.6 290 22:18 24.05.2020
2666 Clouds 11 1017 57 10000 2.6 290 21:54 24.05.2020
2667 Clouds 11 1017 57 10000 2.1 270 21:36 24.05.2020
2668 Clouds 12 1017 50 10000 1.5 250 21:18 24.05.2020
2669 Rain 12 1017 35 10000 1.5 200 20:42 24.05.2020
2670 Clouds 13 1017 75 10000 2.6 200 20:21 24.05.2020
2671 Clouds 13 1017 37 10000 2.6 170 19:56 24.05.2020
2672 Clouds 13 1017 37 10000 2.6 170 19:37 24.05.2020
2673 Clouds 14 1017 35 10000 2.6 150 19:18 24.05.2020
2674 Clouds 14 1017 33 10000 3.6 150 18:42 24.05.2020
2675 Clouds 14 1017 33 10000 3.6 150 18:23 24.05.2020
2676 Clouds 14 1016 33 10000 3.6 120 17:57 24.05.2020
2677 Clouds 14 1016 33 10000 3.6 130 17:38 24.05.2020
2678 Clouds 15 1016 36 10000 4.1 120 17:19 24.05.2020
2679 Clouds 15 1016 36 10000 4.1 120 16:56 24.05.2020
2680 Clouds 15 1016 36 10000 4.1 120 16:56 24.05.2020
2681 Clouds 14 1016 69 10000 4.6 90 16:36 24.05.2020
2682 Clouds 14 1016 35 10000 3.6 120 16:18 24.05.2020
2683 Clouds 14 1016 35 10000 3.6 120 15:55 24.05.2020
2684 Clouds 14 1017 35 10000 4.6 110 15:36 24.05.2020
2685 Clouds 15 1017 35 10000 4.6 110 15:18 24.05.2020
2686 Clouds 14 1016 68 10000 4.1 120 14:41 24.05.2020
2687 Clouds 14 1016 68 10000 4.1 120 14:41 24.05.2020
2688 Clouds 14 1016 66 10000 4.1 120 14:22 24.05.2020
2689 Clouds 13 1017 50 10000 3.6 140 13:55 24.05.2020
2690 Clouds 13 1017 50 10000 3.6 140 13:37 24.05.2020
2691 Clouds 13 1017 54 10000 4.1 170 13:19 24.05.2020
2692 Clouds 13 1017 54 10000 4.1 170 12:56 24.05.2020
2693 Clouds 13 1017 54 10000 4.1 150 12:37 24.05.2020
2694 Clouds 13 1016 58 10000 4.1 170 12:19 24.05.2020
2695 Clouds 12 1016 58 10000 4.1 170 11:54 24.05.2020
2696 Clouds 13 1016 54 10000 3.6 190 11:36 24.05.2020
2697 Clouds 12 1016 54 10000 3.1 170 11:18 24.05.2020
2698 Clouds 12 1016 50 10000 3.1 170 10:41 24.05.2020
2699 Clouds 12 1016 50 10000 3.1 130 10:23 24.05.2020
2700 Clouds 12 1016 50 10000 3.1 130 09:56 24.05.2020
2701 Clouds 11 1016 46 10000 3.6 100 09:38 24.05.2020
2702 Clouds 11 1016 50 10000 4.6 130 09:18 24.05.2020
2703 Clouds 10 1016 50 10000 4.6 110 08:41 24.05.2020
2704 Clouds 10 1016 50 10000 4.6 110 08:23 24.05.2020
2705 Clouds 10 1016 57 10000 4.6 120 07:58 24.05.2020
2706 Clouds 10 1016 53 10000 5.7 90 07:39 24.05.2020
2707 Clouds 10 1016 53 10000 5.7 90 07:20 24.05.2020
2708 Clouds 10 1016 61 10000 4.1 100 06:39 24.05.2020
2709 Clouds 9 1017 57 10000 2.6 90 05:49 24.05.2020
2710 Clouds 9 1017 61 10000 3.6 100 03:56 24.05.2020
2711 Clouds 9 1017 61 10000 3.6 100 03:35 24.05.2020
2712 Clouds 9 1018 61 10000 4.1 100 02:24 24.05.2020
2713 Clouds 10 1019 68 10000 4.1 100 00:59 24.05.2020
2714 Clouds 10 1019 68 10000 3.6 110 00:36 24.05.2020
2715 Clouds 10 1019 64 10000 4.1 110 00:18 24.05.2020
2716 Clouds 10 1019 64 10000 4.1 100 23:38 23.05.2020
2717 Clouds 10 1019 60 10000 4.1 100 23:19 23.05.2020
2718 Clouds 11 1019 60 10000 4.1 100 22:55 23.05.2020
2719 Clouds 11 1019 46 10000 4.1 100 22:37 23.05.2020
2720 Clouds 11 1019 46 10000 4.1 100 22:37 23.05.2020
2721 Clouds 11 1019 43 10000 3.1 100 22:18 23.05.2020
2722 Clouds 11 1019 43 10000 3.1 100 21:56 23.05.2020
2723 Clouds 11 1019 43 10000 3.6 100 21:36 23.05.2020
2724 Clouds 11 1019 43 10000 4.1 100 21:18 23.05.2020
2725 Clouds 12 1019 37 10000 4.1 110 20:40 23.05.2020
2726 Clouds 12 1019 37 10000 4.1 110 20:20 23.05.2020
2727 Clouds 12 1020 32 10000 5.1 100 19:59 23.05.2020
2728 Clouds 13 1020 32 10000 5.7 140 19:40 23.05.2020
2729 Clouds 13 1020 28 10000 6.2 120 19:19 23.05.2020
2730 Clouds 14 1020 26 10000 5.7 140 18:42 23.05.2020
2731 Clouds 14 1020 26 10000 5.7 140 18:23 23.05.2020
2732 Clouds 14 1020 26 10000 6.7 130 17:58 23.05.2020
2733 Clouds 15 1021 29 10000 5.1 140 17:40 23.05.2020
2734 Clouds 15 1021 29 10000 5.7 140 17:21 23.05.2020
2735 Clouds 15 1021 29 10000 5.7 140 16:59 23.05.2020
2736 Clouds 15 1021 29 10000 5.1 150 16:41 23.05.2020
2737 Clouds 16 1021 29 10000 5.1 150 16:20 23.05.2020
2738 Clouds 16 1021 27 10000 6.2 170 15:57 23.05.2020
2739 Clouds 16 1021 27 10000 6.2 140 15:39 23.05.2020
2740 Clouds 16 1021 27 10000 6.2 140 15:20 23.05.2020
2741 Clouds 16 1022 25 10000 4.6 170 14:42 23.05.2020
2742 Clouds 16 1022 25 10000 4.6 170 14:23 23.05.2020
2743 Clouds 16 1022 26 10000 5.7 160 13:55 23.05.2020
2744 Clouds 16 1022 25 10000 5.1 180 13:37 23.05.2020
2745 Clouds 16 1022 25 10000 5.1 170 13:18 23.05.2020
2746 Clouds 16 1023 26 10000 5.7 200 12:41 23.05.2020
2747 Clear 16 1023 25 10000 5.1 180 12:19 23.05.2020
2748 Clear 16 1023 25 10000 5.1 180 11:57 23.05.2020
2749 Clear 16 1023 26 10000 5.1 190 11:37 23.05.2020
2750 Clear 16 1023 31 10000 4.6 190 11:18 23.05.2020
2751 Clear 16 1023 31 10000 4.6 190 10:54 23.05.2020
2752 Clear 15 1023 33 10000 4.6 180 10:36 23.05.2020
2753 Clear 15 1023 33 10000 4.6 180 10:18 23.05.2020
2754 Clear 15 1023 48 10000 4.6 160 09:41 23.05.2020
2755 Clear 15 1023 50 10000 4.6 160 09:23 23.05.2020
2756 Clear 15 1023 38 10000 2.6 150 08:56 23.05.2020
2757 Clear 14 1023 41 10000 2.1 130 08:37 23.05.2020
2758 Clear 14 1023 47 10000 1 0 08:18 23.05.2020
2759 Clear 12 1023 50 10000 2.97 196 07:43 23.05.2020
2760 Clear 11 1023 53 10000 2.64 205 07:22 23.05.2020
2761 Clear 10 1023 75 10000 1 100 06:42 23.05.2020
2762 Clear 6 1023 81 10000 1 0 05:51 23.05.2020
2763 Clear 4 1023 93 10000 1.34 287 03:52 23.05.2020
2764 Clear 4 1023 93 10000 1.71 285 03:23 23.05.2020
2765 Clear 4 1023 93 10000 0.5 0 02:31 23.05.2020
2766 Clear 5 1023 86 10000 0.5 0 01:28 23.05.2020
2767 Clear 6 1023 80 10000 1 0 00:53 23.05.2020
2768 Clear 6 1023 80 10000 0.5 0 00:34 23.05.2020
2769 Clear 8 1023 65 10000 2.1 210 23:59 22.05.2020
2770 Clear 8 1023 61 10000 2.1 200 23:40 22.05.2020
2771 Clear 9 1023 57 10000 2.6 200 23:20 22.05.2020
2772 Clear 10 1023 57 10000 2.6 200 22:57 22.05.2020
2773 Clear 10 1023 50 10000 2.6 190 22:39 22.05.2020
2774 Clear 10 1022 50 10000 3.1 180 22:20 22.05.2020
2775 Clear 11 1023 60 0 2.96 254 21:46 22.05.2020
2776 Clear 12 1022 67 10000 3.1 180 21:22 22.05.2020
2777 Clear 12 1022 64 10000 3.1 190 20:55 22.05.2020
2778 Clear 13 1022 61 10000 3.1 180 20:37 22.05.2020
2779 Clear 13 1022 61 10000 3.1 180 20:18 22.05.2020
2780 Clear 14 1022 38 10000 3.6 160 19:44 22.05.2020
2781 Clear 14 1022 38 10000 3.6 160 19:25 22.05.2020
2782 Clear 14 1022 38 10000 4.6 160 19:25 22.05.2020
2783 Clear 15 1022 36 10000 5.1 180 18:54 22.05.2020
2784 Clear 15 1022 36 10000 5.1 180 18:36 22.05.2020
2785 Clear 15 1023 54 10000 5.1 160 18:18 22.05.2020
2786 Clear 16 1023 29 10000 5.7 190 17:39 22.05.2020
2787 Clear 16 1023 29 10000 5.7 190 17:39 22.05.2020
2788 Clear 15 1023 29 10000 5.7 190 17:19 22.05.2020
2789 Clear 16 1023 22 10000 2.6 340 16:55 22.05.2020
2790 Clear 16 1023 23 10000 5.1 350 16:37 22.05.2020
2791 Clear 17 1023 22 10000 2.6 0 16:19 22.05.2020
2792 Clear 16 1023 21 10000 3.6 0 15:42 22.05.2020
2793 Clear 16 1023 21 10000 3.6 0 15:21 22.05.2020
2794 Clear 16 1023 25 10000 4.1 350 14:45 22.05.2020
2795 Clear 16 1023 25 10000 4.1 350 14:26 22.05.2020
2796 Clear 16 1024 29 10000 3.6 0 13:50 22.05.2020
2797 Clear 15 1024 30 10000 3.6 10 13:22 22.05.2020
2798 Clear 15 1024 30 10000 3.6 10 12:59 22.05.2020
2799 Clear 15 1024 30 10000 4.1 10 12:39 22.05.2020
2800 Clear 15 1024 30 10000 4.1 10 12:20 22.05.2020
2801 Clear 15 1024 33 10000 4.6 10 11:44 22.05.2020
2802 Clear 15 1024 33 10000 4.6 10 11:22 22.05.2020
2803 Clear 14 1024 35 10000 3.6 20 10:57 22.05.2020
2804 Clear 13 1024 37 10000 4.1 360 10:38 22.05.2020
2805 Clear 13 1024 37 10000 4.1 360 10:19 22.05.2020
2806 Clear 13 1024 34 10000 3.6 40 09:47 22.05.2020
2807 Clear 11 1024 34 10000 3.6 40 09:21 22.05.2020
2808 Clear 12 1024 34 10000 4.1 50 08:57 22.05.2020
2809 Clear 11 1024 34 10000 5.1 60 08:39 22.05.2020
2810 Clouds 11 1024 34 10000 5.1 60 08:18 22.05.2020
2811 Clouds 10 1024 37 10000 4.1 40 07:48 22.05.2020
2812 Clouds 9 1024 45 10000 5.7 40 07:22 22.05.2020
2813 Clouds 9 1024 49 10000 5.1 50 06:46 22.05.2020
2814 Clouds 8 1023 52 10000 3.6 40 06:28 22.05.2020
2815 Clouds 7 1023 56 10000 3.1 20 05:35 22.05.2020
2816 Clouds 6 1023 60 10000 2.6 10 04:48 22.05.2020
2817 Clouds 7 1022 56 10000 3.1 360 03:50 22.05.2020
2818 Clouds 7 1022 56 10000 3.6 360 03:29 22.05.2020
2819 Clouds 8 1022 52 10000 4.1 350 01:58 22.05.2020
2820 Clouds 8 1021 52 10000 4.1 350 01:32 22.05.2020
2821 Clouds 8 1021 52 10000 4.1 350 00:52 22.05.2020
2822 Clouds 9 1021 45 10000 4.1 350 00:30 22.05.2020
2823 Clouds 9 1021 45 10000 5.1 350 23:56 21.05.2020
2824 Clouds 9 1021 45 10000 5.1 350 23:37 21.05.2020
2825 Clouds 9 1021 45 10000 5.1 350 23:37 21.05.2020
2826 Clouds 9 1021 45 10000 5.1 350 23:19 21.05.2020
2827 Clouds 10 1020 43 10000 5.1 340 22:57 21.05.2020
2828 Clouds 10 1020 43 10000 5.7 340 22:37 21.05.2020
2829 Clouds 10 1020 43 10000 5.1 330 22:18 21.05.2020
2830 Clouds 11 1020 37 10000 5.1 340 21:46 21.05.2020
2831 Clouds 11 1020 37 10000 5.1 340 21:26 21.05.2020
2832 Clouds 11 1020 37 10000 5.1 330 20:56 21.05.2020
2833 Clouds 12 1019 34 10000 4.1 350 20:37 21.05.2020
2834 Clouds 12 1019 34 10000 6.2 340 20:19 21.05.2020
2835 Clouds 13 1019 28 10000 6.7 360 19:39 21.05.2020
2836 Clouds 14 1019 28 10000 6.7 360 19:19 21.05.2020
2837 Clouds 14 1019 30 10000 7.2 350 18:41 21.05.2020
2838 Clouds 14 1018 30 10000 6.7 350 18:21 21.05.2020
2839 Clouds 14 1018 30 10000 6.7 350 17:59 21.05.2020
2840 Clouds 14 1018 30 10000 6.7 350 17:59 21.05.2020
2841 Clouds 14 1018 28 10000 7.7 350 17:41 21.05.2020
2842 Clouds 15 1018 28 10000 7.7 350 17:22 21.05.2020
2843 Clouds 15 1018 28 10000 6.2 360 16:47 21.05.2020
2844 Clouds 15 1018 28 10000 6.2 360 16:25 21.05.2020
2845 Clouds 14 1018 30 10000 8.7 20 15:56 21.05.2020
2846 Clouds 14 1018 28 10000 8.2 20 15:38 21.05.2020
2847 Clouds 15 1018 28 10000 7.7 10 15:19 21.05.2020
2848 Clouds 14 1017 28 10000 7.2 360 14:40 21.05.2020
2849 Clouds 14 1017 28 10000 8.2 340 14:19 21.05.2020
2850 Clouds 14 1017 30 10000 8.7 350 13:42 21.05.2020
2851 Clouds 14 1017 30 10000 8.7 350 13:22 21.05.2020
2852 Clouds 14 1017 30 10000 8.7 360 12:58 21.05.2020
2853 Clouds 13 1017 30 10000 8.7 340 12:38 21.05.2020
2854 Clouds 13 1017 32 10000 9.3 360 12:19 21.05.2020
2855 Clouds 12 1017 37 10000 8.7 360 11:42 21.05.2020
2856 Clouds 12 1017 37 10000 8.7 360 11:24 21.05.2020
2857 Clouds 12 1017 40 10000 9.3 340 10:59 21.05.2020
2858 Clouds 11 1017 37 10000 9.8 350 10:39 21.05.2020
2859 Clouds 11 1017 46 10000 9.3 340 10:20 21.05.2020
2860 Clouds 10 1017 46 10000 9.3 340 09:55 21.05.2020
2861 Clouds 10 1017 49 10000 8.7 340 09:37 21.05.2020
2862 Clouds 9 1016 52 10000 9.3 340 09:18 21.05.2020
2863 Clouds 8 1017 52 10000 9.8 340 08:45 21.05.2020
2864 Clouds 8 1017 52 10000 9.8 340 08:26 21.05.2020
2865 Clouds 8 1017 62 10000 7.2 340 07:47 21.05.2020
2866 Clouds 7 1017 66 10000 7.2 340 07:27 21.05.2020
2867 Clouds 7 1017 66 10000 7.2 340 06:52 21.05.2020
2868 Clouds 6 1017 70 10000 7.2 330 05:58 21.05.2020
2869 Clouds 6 1017 75 10000 5.7 320 05:22 21.05.2020
2870 Clouds 6 1017 81 10000 5.7 330 03:22 21.05.2020
2871 Clouds 6 1017 84 10000 5.7 330 02:45 21.05.2020
2872 Clouds 6 1017 86 10000 6.2 330 02:25 21.05.2020
2873 Clouds 6 1017 60 10000 6.7 320 01:45 21.05.2020
2874 Clouds 6 1017 60 10000 5.7 320 01:19 21.05.2020
2875 Clouds 6 1017 85 10000 4.1 310 00:48 21.05.2020
2876 Clouds 6 1017 84 10000 3.6 310 00:23 21.05.2020
2877 Clouds 6 1017 84 10000 4.1 320 23:41 20.05.2020
2878 Clouds 7 1017 83 10000 3.6 310 23:20 20.05.2020
2879 Clouds 7 1017 83 10000 3.6 310 22:57 20.05.2020
2880 Clouds 8 1017 83 10000 3.6 320 22:38 20.05.2020
2881 Clouds 7 1017 81 10000 3.6 330 22:20 20.05.2020
2882 Clear 8 1017 75 10000 3.6 340 21:40 20.05.2020
2883 Clear 9 1017 57 10000 4.1 340 21:21 20.05.2020
2884 Rain 10 1017 75 10000 5.1 350 20:44 20.05.2020
2885 Rain 10 1017 71 10000 5.1 350 20:25 20.05.2020
2886 Rain 10 1017 71 10000 4.1 360 19:57 20.05.2020
2887 Rain 10 1017 53 10000 6.2 350 19:38 20.05.2020
2888 Rain 10 1017 53 10000 6.2 350 19:19 20.05.2020
2889 Rain 11 1017 50 10000 7.7 350 18:43 20.05.2020
2890 Rain 11 1016 46 10000 6.7 350 18:23 20.05.2020
2891 Rain 10 1016 57 10000 6.7 10 17:43 20.05.2020
2892 Rain 12 1016 57 10000 6.7 10 17:24 20.05.2020
2893 Rain 12 1016 57 10000 6.7 10 17:24 20.05.2020
2894 Rain 12 1016 61 10000 8.2 320 16:58 20.05.2020
2895 Rain 12 1016 40 10000 8.2 340 16:39 20.05.2020
2896 Rain 12 1016 40 10000 8.2 340 16:21 20.05.2020
2897 Rain 12 1016 50 10000 8.7 330 15:44 20.05.2020
2898 Rain 12 1016 47 0 4.22 353 15:25 20.05.2020
2899 Rain 11 1016 53 10000 5.7 320 14:59 20.05.2020
2900 Rain 11 1016 61 10000 9.8 320 14:37 20.05.2020
2901 Rain 11 1015 46 10000 7.7 330 14:19 20.05.2020
2902 Rain 11 1015 57 10000 8.2 330 13:39 20.05.2020
2903 Rain 11 1015 53 10000 8.2 340 13:18 20.05.2020
2904 Rain 11 1015 61 10000 5.7 320 12:42 20.05.2020
2905 Rain 10 1015 57 10000 7.2 330 12:21 20.05.2020
2906 Rain 10 1015 50 10000 5.1 360 11:39 20.05.2020
2907 Rain 10 1015 53 10000 6.2 340 11:20 20.05.2020
2908 Rain 10 1015 53 10000 6.2 340 10:55 20.05.2020
2909 Clouds 10 1014 61 10000 6.7 330 10:37 20.05.2020
2910 Clouds 10 1014 70 10000 5.7 330 10:19 20.05.2020
2911 Clouds 9 1014 75 10000 5.7 330 09:41 20.05.2020
2912 Clouds 8 1014 75 10000 5.7 330 09:20 20.05.2020
2913 Clouds 7 1014 81 10000 5.7 320 08:42 20.05.2020
2914 Clouds 7 1014 81 10000 5.7 320 08:20 20.05.2020
2915 Clouds 6 1014 81 10000 6.2 330 07:50 20.05.2020
2916 Clouds 5 1013 86 10000 4.6 330 07:25 20.05.2020
2917 Clouds 5 1013 86 10000 4.1 320 06:55 20.05.2020
2918 Clouds 4 1013 86 10000 3.1 310 06:20 20.05.2020
2919 Clouds 4 1013 93 10000 4.1 310 04:59 20.05.2020
2920 Clouds 2 1012 93 10000 3.6 300 04:19 20.05.2020
2921 Clouds 3 1012 93 10000 3.6 300 03:35 20.05.2020
2922 Clouds 3 1012 93 10000 3.1 280 01:45 20.05.2020
2923 Clouds 4 1012 93 10000 3.1 280 01:23 20.05.2020
2924 Clouds 4 1011 86 10000 2.6 290 00:41 20.05.2020
2925 Clouds 4 1011 86 10000 3.6 290 00:21 20.05.2020
2926 Clouds 5 1011 86 10000 4.1 290 23:37 19.05.2020
2927 Clouds 5 1011 93 10000 3.6 280 23:19 19.05.2020
2928 Clouds 5 1011 93 10000 3.6 280 22:55 19.05.2020
2929 Clouds 5 1011 80 10000 3.6 280 22:36 19.05.2020
2930 Clouds 5 1011 80 10000 3.6 280 22:18 19.05.2020
2931 Rain 6 1011 75 10000 3.1 320 21:55 19.05.2020
2932 Rain 6 1011 75 10000 3.1 320 21:36 19.05.2020
2933 Rain 6 1011 86 10000 5.7 280 21:18 19.05.2020
2934 Rain 6 1011 75 10000 4.1 320 20:55 19.05.2020
2935 Rain 7 1011 75 10000 4.1 320 20:37 19.05.2020
2936 Rain 7 1011 75 10000 4.1 320 20:19 19.05.2020
2937 Rain 7 1010 81 10000 3.1 240 19:38 19.05.2020
2938 Rain 7 1011 80 10000 7.2 290 19:20 19.05.2020
2939 Rain 7 1010 81 10000 8.7 300 18:45 19.05.2020
2940 Rain 7 1010 81 10000 8.7 300 18:23 19.05.2020
2941 Rain 8 1010 75 10000 4.1 290 17:58 19.05.2020
2942 Rain 9 1010 66 10000 2.6 310 17:39 19.05.2020
2943 Rain 10 1010 70 10000 3.1 290 17:20 19.05.2020
2944 Rain 9 1010 65 10000 4.1 250 16:42 19.05.2020
2945 Rain 9 1010 65 10000 4.1 250 16:23 19.05.2020
2946 Rain 9 1010 70 10000 4.1 250 15:58 19.05.2020
2947 Rain 9 1010 81 10000 3.6 260 15:39 19.05.2020
2948 Rain 9 1010 81 10000 3.6 260 15:20 19.05.2020
2949 Rain 9 1011 63 0 4.81 262 14:54 19.05.2020
2950 Rain 8 1010 75 10000 10.3 270 14:36 19.05.2020
2951 Rain 9 1009 57 10000 2.1 0 14:18 19.05.2020
2952 Rain 10 1009 57 10000 2.1 0 13:54 19.05.2020
2953 Rain 11 1009 46 10000 2.1 0 13:36 19.05.2020
2954 Rain 11 1009 57 10000 4.1 360 13:18 19.05.2020
2955 Rain 11 1009 40 10000 3.1 220 12:40 19.05.2020
2956 Rain 11 1009 40 10000 3.1 220 12:22 19.05.2020
2957 -273 0 0 0 0 0 11:59 19.05.2020
2958 Rain 11 1009 43 10000 4.1 240 11:40 19.05.2020
2959 Clouds 11 1009 43 10000 3.6 260 11:21 19.05.2020
2960 Clouds 10 1009 46 10000 2.1 0 10:49 19.05.2020
2961 Clouds 10 1009 46 10000 2.1 0 10:29 19.05.2020
2962 Clouds 10 1009 49 10000 2.6 190 09:59 19.05.2020
2963 Clouds 9 1009 54 10000 2.1 240 09:41 19.05.2020
2964 Clouds 9 1009 60 10000 2.1 240 09:23 19.05.2020
2965 Clouds 8 1009 65 10000 2.1 280 08:44 19.05.2020
2966 Clouds 8 1009 65 10000 2.1 280 08:24 19.05.2020
2967 Clouds 7 1010 75 10000 1.5 260 07:45 19.05.2020
2968 Clouds 6 1010 75 10000 1.5 260 07:26 19.05.2020
2969 Clouds 5 1010 80 10000 2.6 280 06:54 19.05.2020
2970 Clouds 4 1010 86 10000 3.1 290 06:25 19.05.2020
2971 Fog 3 1010 93 10000 1 0 05:42 19.05.2020
2972 Fog 1 1010 100 10000 0.5 0 04:56 19.05.2020
2973 Fog 2 1010 100 10000 1.5 260 04:32 19.05.2020
2974 Clouds 3 1010 86 10000 3.1 240 01:32 19.05.2020
2975 Clouds 4 1010 86 10000 2.6 240 00:47 19.05.2020
2976 Clouds 5 1010 80 10000 3.6 220 00:25 19.05.2020
2977 Clouds 5 1010 80 10000 3.6 220 23:58 18.05.2020
2978 Clouds 5 1010 80 10000 3.6 220 23:58 18.05.2020
2979 Clouds 5 1010 86 10000 2.6 220 23:39 18.05.2020
2980 Clouds 6 1010 75 10000 2.6 220 23:19 18.05.2020
2981 Clouds 7 1010 75 10000 3.1 230 22:41 18.05.2020
2982 Clouds 7 1010 75 10000 3.1 230 22:22 18.05.2020
2983 Clouds 6 1010 75 10000 3.1 240 21:56 18.05.2020
2984 Clouds 7 1010 75 10000 3.1 230 21:38 18.05.2020
2985 Rain 7 1010 65 10000 3.6 240 21:18 18.05.2020
2986 Rain 8 1010 65 10000 3.6 240 20:43 18.05.2020
2987 Rain 8 1010 61 10000 3.1 270 20:22 18.05.2020
2988 Rain 9 1010 61 10000 3.1 270 19:58 18.05.2020
2989 Rain 9 1010 61 10000 2.6 310 19:40 18.05.2020
2990 Rain 9 1010 61 10000 2.6 290 19:19 18.05.2020
2991 Rain 9 1010 70 10000 4.6 310 18:46 18.05.2020
2992 Rain 8 1010 70 10000 4.6 310 18:24 18.05.2020
2993 Rain 8 1010 93 10000 1.5 70 17:54 18.05.2020
2994 Rain 8 1010 93 10000 1.5 70 17:36 18.05.2020
2995 Rain 8 1010 93 10000 1.5 70 17:18 18.05.2020
2996 Rain 8 1010 93 10000 1.5 70 17:18 18.05.2020
2997 Rain 8 1010 93 10000 1.5 70 17:18 18.05.2020
2998 Rain 11 1008 50 10000 3.1 70 16:43 18.05.2020
2999 Rain 11 1008 50 10000 3.1 70 16:21 18.05.2020
3000 Rain 12 1008 40 10000 5.1 290 15:57 18.05.2020
3001 Rain 12 1008 55 10000 6.2 270 15:39 18.05.2020
3002 Rain 12 1008 55 10000 6.2 270 15:20 18.05.2020
3003 Rain 12 1008 50 10000 5.7 280 14:56 18.05.2020
3004 Clouds 11 1007 58 10000 5.1 280 14:38 18.05.2020
3005 Clouds 11 1007 59 10000 5.1 280 14:19 18.05.2020
3006 Rain 11 1007 58 10000 4.6 260 13:41 18.05.2020
3007 Rain 10 1007 62 10000 4.6 260 13:20 18.05.2020
3008 Rain 10 1007 62 10000 5.1 320 12:58 18.05.2020
3009 Rain 9 1007 64 10000 5.1 280 12:39 18.05.2020
3010 Clouds 9 1006 57 10000 5.1 290 12:19 18.05.2020
3011 Clouds 9 1006 61 10000 5.7 300 11:47 18.05.2020
3012 Clouds 9 1006 61 10000 5.7 300 11:27 18.05.2020
3013 Clouds 8 1006 61 10000 4.6 300 10:59 18.05.2020
3014 Clouds 8 1005 61 10000 5.1 310 10:41 18.05.2020
3015 Clouds 8 1005 61 10000 5.1 310 10:22 18.05.2020
3016 Clouds 7 1005 65 10000 4.6 330 09:44 18.05.2020
3017 Clouds 7 1005 65 10000 4.6 330 09:25 18.05.2020
3018 Clouds 7 1004 70 10000 4.6 320 08:46 18.05.2020
3019 Clouds 6 1004 70 10000 4.6 320 08:27 18.05.2020
3020 Clouds 6 1004 75 10000 3.6 310 07:58 18.05.2020
3021 Clouds 5 1004 75 10000 4.1 310 07:39 18.05.2020
3022 Clouds 5 1004 75 10000 4.1 310 07:20 18.05.2020
3023 Clouds 4 1003 84 10000 3.1 310 06:45 18.05.2020
3024 Clouds 3 1003 86 10000 3.6 290 05:50 18.05.2020
3025 Clouds 3 1003 87 10000 3.6 290 05:26 18.05.2020
3026 Clouds 2 1002 87 10000 3.6 310 03:37 18.05.2020
3027 Clouds 2 1002 89 10000 3.1 310 02:30 18.05.2020
3028 Clouds 3 1001 93 10000 2.6 290 01:23 18.05.2020
3029 Clouds 3 1001 93 10000 2.6 280 00:27 18.05.2020
3030 Clouds 4 1001 93 10000 2.6 270 23:58 17.05.2020
3031 Clouds 4 1001 93 10000 2.6 270 23:58 17.05.2020
3032 Clouds 4 1001 93 10000 3.1 270 23:40 17.05.2020
3033 Clouds 4 1001 93 10000 3.1 270 23:20 17.05.2020
3034 Clouds 4 1001 93 10000 2.6 270 22:57 17.05.2020
3035 Clouds 4 1001 86 10000 3.1 280 22:37 17.05.2020
3036 Clouds 4 1001 86 10000 3.1 280 22:37 17.05.2020
3037 Clouds 4 1001 86 10000 3.1 280 22:37 17.05.2020
3038 Clouds 4 1001 86 10000 3.1 280 22:19 17.05.2020
3039 Clouds 5 1001 86 10000 2.6 280 21:56 17.05.2020
3040 Clouds 5 1001 86 10000 3.1 280 21:38 17.05.2020
3041 Clouds 5 1001 86 10000 3.1 280 21:18 17.05.2020
3042 Clouds 5 1001 80 10000 3.1 280 20:42 17.05.2020
3043 Clouds 6 1001 80 10000 3.1 240 20:22 17.05.2020
3044 Clouds 6 1001 80 10000 3.1 240 19:57 17.05.2020
3045 Clouds 6 1001 75 10000 5.7 230 19:39 17.05.2020
3046 Clouds 7 1001 70 10000 4.1 240 19:20 17.05.2020
3047 Clouds 7 1001 65 10000 4.1 240 18:43 17.05.2020
3048 Clouds 7 1001 65 10000 4.1 240 18:24 17.05.2020
3049 Clouds 8 1001 70 10000 4.1 220 17:59 17.05.2020
3050 Clouds 7 1001 70 10000 3.1 230 17:39 17.05.2020
3051 Clouds 7 1001 70 10000 3.1 230 17:21 17.05.2020
3052 Rain 7 1002 81 10000 4.6 250 16:40 17.05.2020
3053 Rain 7 1002 81 10000 4.6 250 16:40 17.05.2020
3054 Rain 7 1002 80 10000 2.6 270 16:21 17.05.2020
3055 Rain 7 1002 80 10000 2.6 270 15:59 17.05.2020
3056 Clouds 7 1002 86 10000 2.6 290 15:39 17.05.2020
3057 Clouds 6 1002 86 10000 2.6 290 15:21 17.05.2020
3058 Clouds 6 1003 93 10000 4.1 290 14:54 17.05.2020
3059 Clouds 6 1003 93 10000 4.1 290 14:54 17.05.2020
3060 Clouds 6 1003 93 10000 4.1 290 14:36 17.05.2020
3061 Clouds 5 1003 93 10000 4.6 340 14:18 17.05.2020
3062 Thunderstorm 6 1003 67 10000 2.1 0 13:40 17.05.2020
3063 Thunderstorm 6 1003 65 10000 2.1 0 13:20 17.05.2020
3064 Clear 0 1002 100 10000 2.6 250 04:51 17.05.2020
3065 Clear 0 1002 89 10000 3.1 250 03:18 17.05.2020
3066 Clouds 1 1002 87 10000 3.1 260 02:20 17.05.2020
3067 Clouds 2 1002 87 10000 3.6 270 01:47 17.05.2020
3068 Clouds 2 1002 93 10000 4.1 260 00:41 17.05.2020
3069 Clouds 2 1002 93 10000 3.6 250 00:21 17.05.2020
3070 Clouds 3 1001 93 10000 3.1 240 23:40 16.05.2020
3071 Clouds 3 1001 93 10000 3.1 240 23:21 16.05.2020
3072 Clouds 3 1001 93 10000 2.6 240 22:58 16.05.2020
3073 Clouds 3 1001 86 10000 3.6 250 22:40 16.05.2020
3074 Clouds 3 1001 86 10000 3.6 250 22:20 16.05.2020
3075 Clouds 4 1001 80 10000 4.1 260 21:54 16.05.2020
3076 Clouds 4 1001 86 10000 5.7 270 21:36 16.05.2020
3077 Clouds 4 1001 93 10000 5.1 260 21:18 16.05.2020
3078 Rain 5 1000 80 10000 5.7 270 20:42 16.05.2020
3079 Rain 5 1000 75 10000 6.7 280 20:22 16.05.2020
3080 Rain 5 1000 75 10000 6.7 280 19:59 16.05.2020
3081 Rain 6 1000 80 10000 5.1 290 19:40 16.05.2020
3082 Rain 6 1000 80 10000 5.1 290 19:22 16.05.2020
3083 Rain 6 1000 80 10000 5.1 290 19:22 16.05.2020
3084 Rain 6 999 80 10000 7.2 290 18:44 16.05.2020
3085 Rain 6 999 80 10000 7.2 290 18:25 16.05.2020
3086 Rain 7 999 81 10000 5.7 270 17:58 16.05.2020
3087 Rain 6 998 86 10000 5.7 270 17:40 16.05.2020
3088 Rain 7 998 81 10000 7.2 240 17:20 16.05.2020
3089 Rain 6 998 81 10000 4.6 260 16:42 16.05.2020
3090 Rain 6 998 81 10000 4.6 260 16:23 16.05.2020
3091 Rain 6 998 81 10000 4.6 260 16:23 16.05.2020
3092 Rain 6 998 81 10000 3.6 300 15:58 16.05.2020
3093 Rain 6 997 86 10000 3.1 310 15:40 16.05.2020
3094 Rain 6 997 86 10000 3.1 310 15:20 16.05.2020
3095 Rain 7 998 75 10000 4.1 240 14:48 16.05.2020
3096 Rain 7 998 75 10000 4.1 240 14:21 16.05.2020
3097 Rain 7 998 81 10000 5.1 240 13:59 16.05.2020
3098 Rain 6 998 75 10000 6.2 220 13:41 16.05.2020
3099 Rain 6 998 75 10000 6.2 220 13:41 16.05.2020
3100 Rain 6 998 75 10000 6.2 220 13:22 16.05.2020
3101 Clouds 6 998 81 10000 3.1 220 12:55 16.05.2020
3102 Rain 6 998 86 10000 3.1 230 12:37 16.05.2020
3103 Rain 6 998 93 7000 4.6 230 12:18 16.05.2020
3104 Rain 6 998 86 10000 3.1 220 11:39 16.05.2020
3105 Rain 5 998 86 10000 1.5 250 11:20 16.05.2020
3106 Rain 6 998 86 10000 1.5 250 10:56 16.05.2020
3107 Rain 6 998 86 10000 0.5 0 10:37 16.05.2020
3108 Rain 6 998 86 10000 1 0 10:19 16.05.2020
3109 Rain 5 998 86 10000 1.5 190 09:45 16.05.2020
3110 Rain 5 998 86 10000 1.5 190 09:27 16.05.2020
3111 Rain 5 999 86 10000 0.5 0 08:45 16.05.2020
3112 Rain 5 999 86 10000 0.5 0 08:22 16.05.2020
3113 Rain 5 999 93 10000 2.6 200 07:55 16.05.2020
3114 Rain 5 999 93 10000 1.5 220 07:37 16.05.2020
3115 Rain 4 1000 93 10000 1.5 230 07:19 16.05.2020
3116 Rain 4 1000 93 8000 3.6 230 06:44 16.05.2020
3117 Rain 4 1000 93 5000 6.7 230 06:18 16.05.2020
3118 Clouds 5 1000 86 10000 4.1 160 05:40 16.05.2020
3119 Clouds 5 1001 80 10000 4.1 140 04:31 16.05.2020
3120 Clouds 4 1002 86 10000 3.1 130 03:25 16.05.2020
3121 Clouds 3 1003 80 10000 2.6 130 02:38 16.05.2020
3122 Clouds 2 1003 86 10000 1.5 80 01:56 16.05.2020
3123 Clouds 3 1003 80 10000 1.5 120 01:35 16.05.2020
3124 Clouds 4 1004 64 10000 2.1 170 00:55 16.05.2020
3125 Clouds 4 1004 64 10000 1.5 200 00:37 16.05.2020
3126 Clouds 4 1004 60 10000 1.5 240 00:18 16.05.2020
3127 Clouds 5 1004 56 10000 2.6 250 23:37 15.05.2020
3128 Clouds 5 1005 56 10000 3.1 230 23:18 15.05.2020
3129 Clouds 5 1005 56 10000 3.6 230 22:40 15.05.2020
3130 Clouds 5 1005 56 10000 3.6 230 22:20 15.05.2020
3131 Clouds 6 1005 60 10000 4.1 230 21:55 15.05.2020
3132 Clouds 6 1005 60 10000 4.1 230 21:55 15.05.2020
3133 Clouds 6 1005 60 10000 4.1 220 21:36 15.05.2020
3134 Clouds 6 1004 70 10000 4.1 220 21:18 15.05.2020
3135 Clouds 7 1004 42 10000 4.6 270 20:43 15.05.2020
3136 Clouds 7 1004 42 10000 4.6 270 20:43 15.05.2020
3137 Clouds 7 1004 42 10000 4.6 270 20:25 15.05.2020
3138 Clouds 8 1004 42 10000 5.7 270 19:59 15.05.2020
3139 Clouds 8 1004 36 10000 6.2 260 19:41 15.05.2020
3140 Clouds 9 1004 36 10000 5.7 260 19:22 15.05.2020
3141 Rain 9 1004 42 10000 5.7 270 18:47 15.05.2020
3142 Rain 9 1004 42 10000 5.7 270 18:27 15.05.2020
3143 Rain 9 1004 39 10000 5.1 260 17:57 15.05.2020
3144 Rain 9 1005 45 10000 4.6 250 17:36 15.05.2020
3145 Rain 9 1005 39 10000 6.2 260 17:18 15.05.2020
3146 Rain 9 1005 39 10000 6.2 260 16:54 15.05.2020
3147 Rain 9 1005 42 10000 7.2 240 16:36 15.05.2020
3148 Clouds 9 1005 45 10000 6.2 260 16:18 15.05.2020
3149 Clouds 9 1005 39 10000 6.7 260 15:40 15.05.2020
3150 Clouds 9 1005 39 10000 6.7 260 15:20 15.05.2020
3151 Clouds 9 1005 49 10000 6.2 260 14:56 15.05.2020
3152 Clouds 9 1005 49 10000 7.2 260 14:37 15.05.2020
3153 Clouds 9 1005 49 10000 7.2 260 14:37 15.05.2020
3154 Clouds 9 1005 48 0 6.61 255 14:18 15.05.2020
3155 Clouds 9 1005 49 10000 7.2 260 14:18 15.05.2020
3156 Rain 8 1005 75 10000 3.6 240 13:41 15.05.2020
3157 Rain 7 1005 75 10000 3.6 260 13:20 15.05.2020
3158 Rain 7 1005 75 10000 4.6 280 12:41 15.05.2020
3159 Clouds 6 1005 86 10000 5.1 250 12:21 15.05.2020
3160 Clouds 6 1005 86 10000 5.1 250 11:59 15.05.2020
3161 Clouds 6 1005 86 10000 3.6 230 11:40 15.05.2020
3162 Clouds 5 1005 86 10000 3.6 230 11:40 15.05.2020
3163 Rain 6 1005 86 10000 3.1 230 11:21 15.05.2020
3164 Rain 6 1005 86 10000 3.1 230 11:21 15.05.2020
3165 Rain 6 1005 86 10000 3.1 230 10:59 15.05.2020
3166 Rain 5 1005 86 10000 4.1 210 10:40 15.05.2020
3167 Rain 4 1005 86 10000 3.1 220 10:22 15.05.2020
3168 Clouds 4 1005 86 10000 3.1 220 09:59 15.05.2020
3169 Rain 5 1005 93 10000 3.6 230 09:38 15.05.2020
3170 Clouds 5 1005 86 10000 2.6 210 09:19 15.05.2020
3171 Rain 5 1005 86 10000 2.6 210 08:57 15.05.2020
3172 Rain 5 1005 86 10000 1 0 08:37 15.05.2020
3173 Rain 4 1005 93 10000 1 0 08:18 15.05.2020
3174 Rain 4 1005 93 10000 1 0 08:18 15.05.2020
3175 Rain 4 1005 100 10000 1.5 220 07:44 15.05.2020
3176 Rain 3 1005 100 10000 1.5 220 07:24 15.05.2020
3177 Clouds 1 1005 87 10000 1.5 200 06:41 15.05.2020
3178 Snow 1 1005 93 8000 1.5 170 05:49 15.05.2020
3179 Rain 2 1006 93 4000 1.5 0 04:27 15.05.2020
3180 Rain 3 1006 86 10000 2.1 170 03:45 15.05.2020
3181 Clouds 2 1007 79 10000 1 240 02:30 15.05.2020
3182 Clouds 3 1007 69 10000 2.1 240 01:19 15.05.2020
3183 Clouds 4 1007 69 10000 3.1 230 00:46 15.05.2020
3184 Clouds 4 1007 69 10000 3.1 230 00:28 15.05.2020
3185 Clouds 4 1007 64 10000 3.1 220 23:44 14.05.2020
3186 Clouds 4 1007 64 10000 3.1 220 23:21 14.05.2020
3187 Clouds 4 1007 64 10000 3.1 230 22:57 14.05.2020
3188 Clouds 5 1007 55 10000 2.6 240 22:39 14.05.2020
3189 Clear 5 1007 55 10000 3.6 230 22:19 14.05.2020
3190 Clear 5 1007 55 10000 3.6 230 21:56 14.05.2020
3191 Clear 6 1007 65 10000 2.6 220 21:37 14.05.2020
3192 Clear 6 1007 75 10000 3.1 160 21:19 14.05.2020
3193 Clouds 7 1007 70 10000 3.1 170 20:42 14.05.2020
3194 Rain 7 1007 56 10000 3.1 170 20:21 14.05.2020
3195 Rain 8 1007 56 10000 3.1 170 19:59 14.05.2020
3196 Rain 7 1007 48 10000 4.6 210 19:39 14.05.2020
3197 Rain 7 1007 48 10000 4.6 210 19:20 14.05.2020
3198 Rain 8 1008 42 10000 3.6 270 18:58 14.05.2020
3199 Rain 8 1008 42 10000 3.6 270 18:58 14.05.2020
3200 Rain 8 1008 56 10000 6.2 240 18:38 14.05.2020
3201 Rain 8 1008 56 10000 6.2 240 18:20 14.05.2020
3202 Rain 8 1008 42 10000 6.2 250 17:58 14.05.2020
3203 Rain 9 1008 52 10000 6.2 220 17:37 14.05.2020
3204 Rain 9 1008 52 10000 6.2 220 17:19 14.05.2020
3205 Rain 8 1008 52 10000 7.7 210 16:57 14.05.2020
3206 Rain 8 1008 52 10000 6.7 210 16:38 14.05.2020
3207 Rain 7 1008 60 10000 8.7 250 16:18 14.05.2020
3208 Rain 7 1008 60 10000 8.7 250 15:55 14.05.2020
3209 Rain 8 1008 36 10000 6.2 270 15:36 14.05.2020
3210 Rain 8 1008 36 10000 6.2 270 15:36 14.05.2020
3211 Rain 9 1008 36 10000 8.2 270 15:18 14.05.2020
3212 Rain 9 1008 45 10000 8.7 270 14:40 14.05.2020
3213 Rain 9 1008 45 10000 8.7 270 14:20 14.05.2020
3214 Rain 9 1007 36 10000 5.7 300 13:57 14.05.2020
3215 Rain 10 1007 31 10000 6.2 270 13:38 14.05.2020
3216 Rain 10 1007 31 10000 6.2 270 13:20 14.05.2020
3217 Rain 10 1007 29 10000 6.7 280 12:58 14.05.2020
3218 Rain 9 1007 34 10000 5.7 270 12:38 14.05.2020
3219 Rain 10 1007 34 10000 5.7 270 12:19 14.05.2020
3220 Clouds 10 1007 31 10000 5.1 270 11:57 14.05.2020
3221 Clouds 10 1007 34 10000 6.2 280 11:38 14.05.2020
3222 Clouds 10 1007 34 10000 6.2 280 11:38 14.05.2020
3223 Clouds 9 1007 39 10000 7.2 280 11:19 14.05.2020
3224 Clouds 9 1007 49 10000 6.2 300 10:45 14.05.2020
3225 Clouds 9 1007 49 10000 6.2 300 10:26 14.05.2020
3226 Clouds 9 1006 45 10000 6.2 300 09:57 14.05.2020
3227 Clouds 8 1006 56 10000 5.1 280 09:39 14.05.2020
3228 Clouds 7 1006 65 10000 4.1 280 09:19 14.05.2020
3229 Clouds 7 1006 70 10000 4.1 300 08:40 14.05.2020
3230 Clouds 6 1006 75 10000 4.1 280 08:20 14.05.2020
3231 Clouds 5 1006 80 10000 3.6 280 07:45 14.05.2020
3232 Clouds 5 1006 80 10000 3.6 280 07:45 14.05.2020
3233 Clouds 5 1006 80 10000 3.6 280 07:24 14.05.2020
3234 Clouds 4 1006 86 10000 3.6 290 06:54 14.05.2020
3235 Clouds 3 1006 93 10000 3.6 280 06:29 14.05.2020
3236 Clouds 2 1006 93 10000 3.1 280 05:46 14.05.2020
3237 Clouds 2 1005 100 10000 2.6 290 05:23 14.05.2020
3238 Clouds 2 1005 90 10000 3.6 290 04:25 14.05.2020
3239 Clouds 1 1005 88 10000 3.1 290 03:22 14.05.2020
3240 Clouds 1 1005 87 10000 2.6 290 02:40 14.05.2020
3241 Clouds 0 1004 100 10000 1.5 310 01:56 14.05.2020
3242 Clouds 1 1004 88 10000 1.5 340 01:19 14.05.2020
3243 Clouds 1 1004 88 10000 2.6 320 00:42 14.05.2020
3244 Clouds 1 1004 88 10000 2.1 300 00:21 14.05.2020
3245 Clouds 2 1004 88 10000 2.1 300 23:40 13.05.2020
3246 Clouds 2 1004 86 10000 2.1 300 23:21 13.05.2020
3247 Clouds 2 1003 86 10000 2.6 300 22:42 13.05.2020
3248 Clouds 2 1003 86 10000 2.6 300 22:42 13.05.2020
3249 Clouds 3 1003 83 10000 2.6 300 22:23 13.05.2020
3250 Clouds 3 1003 93 10000 3.1 340 22:23 13.05.2020
3251 Clouds 3 1003 93 10000 3.1 340 21:59 13.05.2020
3252 Clouds 3 1003 93 10000 3.1 340 21:59 13.05.2020
3253 Clouds 4 1003 81 10000 3.6 300 21:40 13.05.2020
3254 Clouds 4 1003 81 10000 1.5 260 21:20 13.05.2020
3255 Clouds 4 1003 81 10000 1.5 260 20:59 13.05.2020
3256 Clouds 4 1003 80 10000 2.6 160 20:39 13.05.2020
3257 Clouds 4 1003 80 10000 2.6 160 20:21 13.05.2020
3258 Clouds 5 1003 76 10000 3.1 170 19:43 13.05.2020
3259 Clouds 5 1003 70 10000 3.1 170 19:24 13.05.2020
3260 Clouds 6 1003 70 10000 3.1 160 18:55 13.05.2020
3261 Clouds 6 1003 67 10000 4.1 150 18:36 13.05.2020
3262 Clouds 6 1003 60 10000 4.1 160 18:18 13.05.2020
3263 Clouds 6 1003 67 10000 5.1 160 17:38 13.05.2020
3264 Clouds 7 1003 67 10000 5.1 160 17:19 13.05.2020
3265 Clouds 7 1003 67 10000 5.7 160 16:41 13.05.2020
3266 Clouds 7 1003 66 10000 5.7 160 16:20 13.05.2020
3267 Rain 7 1003 66 10000 5.1 150 15:59 13.05.2020
3268 Clouds 6 1003 66 10000 5.1 130 15:41 13.05.2020
3269 Rain 6 1003 75 10000 5.7 150 15:18 13.05.2020
3270 Rain 7 1003 75 10000 5.7 150 14:55 13.05.2020
3271 Rain 7 1003 70 10000 5.1 150 14:37 13.05.2020
3272 Rain 7 1003 70 10000 5.1 150 14:19 13.05.2020
3273 Rain 5 1003 75 10000 3.6 170 13:43 13.05.2020
3274 Rain 6 1003 75 10000 3.6 170 13:23 13.05.2020
3275 Rain 6 1003 86 10000 5.7 180 12:59 13.05.2020
3276 Rain 5 1003 86 10000 4.6 170 12:41 13.05.2020
3277 Rain 5 1003 86 10000 4.6 170 12:21 13.05.2020
3278 Rain 5 1003 93 10000 4.1 120 11:56 13.05.2020
3279 Rain 5 1003 93 8000 4.6 110 11:38 13.05.2020
3280 Rain 5 1003 90 0 3.34 193 11:20 13.05.2020
3281 Rain 4 1003 89 8000 4.6 110 10:58 13.05.2020
3282 Rain 4 1003 89 10000 9.8 130 10:38 13.05.2020
3283 Rain 5 1003 65 10000 7.2 150 10:19 13.05.2020
3284 Clouds 5 1003 75 10000 7.2 170 09:47 13.05.2020
3285 Clouds 5 1003 75 10000 7.2 170 09:24 13.05.2020
3286 Clouds 5 1003 68 10000 7.2 130 08:58 13.05.2020
3287 Clouds 6 1003 56 10000 6.7 130 08:39 13.05.2020
3288 Clouds 6 1003 56 10000 6.7 130 08:20 13.05.2020
3289 Clouds 6 1003 70 10000 3.6 110 07:52 13.05.2020
3290 Clouds 6 1003 70 10000 3.6 110 07:32 13.05.2020
3291 Clouds 6 1003 75 10000 2.6 100 06:52 13.05.2020
3292 Clouds 5 1003 80 10000 2.1 100 06:34 13.05.2020
3293 Clouds 1 1004 92 10000 2.1 70 05:43 13.05.2020
3294 Clouds -1 1004 92 10000 2.1 50 03:58 13.05.2020
3295 Clear -1 1004 92 10000 1.5 60 02:38 13.05.2020
3296 Clear 0 1005 92 10000 0.5 0 01:46 13.05.2020
3297 Clear 0 1005 92 10000 1 230 00:58 13.05.2020
3298 Clear 1 1005 82 10000 0.5 0 00:23 13.05.2020
3299 Clear 3 1005 74 10000 2.1 230 23:58 12.05.2020
3300 Clear 3 1005 64 10000 2.1 240 23:39 12.05.2020
3301 Clear 4 1004 64 10000 2.6 230 23:18 12.05.2020
3302 Clear 4 1004 56 10000 2.6 240 22:42 12.05.2020
3303 Rain 5 1004 60 10000 2.6 230 22:22 12.05.2020
3304 Rain 5 1004 60 10000 2.6 230 21:57 12.05.2020
3305 Rain 6 1004 56 10000 2.1 280 21:38 12.05.2020
3306 Rain 6 1004 52 10000 2.6 230 21:19 12.05.2020
3307 Rain 7 1004 52 10000 2.6 230 20:58 12.05.2020
3308 Rain 7 1004 52 10000 3.6 240 20:39 12.05.2020
3309 Rain 7 1004 52 10000 3.6 240 20:20 12.05.2020
3310 Rain 7 1003 65 10000 3.6 140 19:57 12.05.2020
3311 Rain 7 1003 56 10000 4.6 140 19:39 12.05.2020
3312 Rain 8 1003 56 10000 4.6 140 19:20 12.05.2020
3313 Rain 8 1003 56 10000 5.1 140 18:55 12.05.2020
3314 Rain 8 1003 52 10000 4.1 140 18:36 12.05.2020
3315 Rain 8 1003 45 10000 2.6 310 18:18 12.05.2020
3316 Rain 8 1003 48 10000 3.6 340 17:42 12.05.2020
3317 Rain 9 1003 48 10000 3.6 340 17:23 12.05.2020
3318 Rain 9 1003 55 10000 8.7 320 16:47 12.05.2020
3319 Rain 9 1003 54 10000 8.7 320 16:26 12.05.2020
3320 Rain 9 1003 42 10000 3.1 350 15:56 12.05.2020
3321 Rain 9 1003 39 10000 3.6 330 15:38 12.05.2020
3322 Rain 9 1002 39 10000 3.1 270 15:19 12.05.2020
3323 Rain 9 1002 39 10000 3.1 270 14:57 12.05.2020
3324 Rain 9 1002 39 10000 6.2 290 14:37 12.05.2020
3325 Clouds 9 1003 39 0 6.96 254 14:19 12.05.2020
3326 Rain 9 1002 48 10000 4.1 320 13:57 12.05.2020
3327 Rain 9 1001 36 10000 3.1 320 13:39 12.05.2020
3328 Rain 9 1001 39 10000 4.1 270 13:19 12.05.2020
3329 Rain 9 1001 39 10000 4.1 270 13:19 12.05.2020
3330 Rain 9 1001 39 10000 4.1 270 12:57 12.05.2020
3331 Rain 9 1001 39 10000 5.7 290 12:39 12.05.2020
3332 Rain 9 1001 42 10000 2.6 270 12:21 12.05.2020
3333 Rain 10 1001 42 10000 2.6 270 11:57 12.05.2020
3334 Rain 9 1001 48 10000 3.6 270 11:38 12.05.2020
3335 Clouds 9 1001 49 10000 3.6 280 11:20 12.05.2020
3336 Clouds 9 1001 49 10000 3.6 280 10:57 12.05.2020
3337 Clouds 8 1001 52 10000 5.1 280 10:39 12.05.2020
3338 Clouds 7 1001 56 10000 4.1 260 10:19 12.05.2020
3339 Clouds 6 1001 56 10000 4.1 260 09:58 12.05.2020
3340 Clouds 6 1001 60 10000 4.6 280 09:39 12.05.2020
3341 Clouds 5 1001 62 10000 4.1 270 09:20 12.05.2020
3342 Clouds 5 1001 86 10000 3.1 270 08:42 12.05.2020
3343 Clouds 4 1001 86 10000 3.1 270 08:21 12.05.2020
3344 Clouds 3 1000 67 10000 2.1 260 07:57 12.05.2020
3345 Clouds 3 1000 86 10000 2.6 260 07:39 12.05.2020
3346 Clouds 2 1000 86 10000 2.1 270 07:19 12.05.2020
3347 Clouds 2 1000 86 10000 2.1 270 06:38 12.05.2020
3348 Clouds 2 1000 86 10000 2.1 270 06:38 12.05.2020
3349 Clouds 1 1000 80 10000 2.6 270 06:19 12.05.2020
3350 Clouds 1 1000 80 10000 2.6 280 05:45 12.05.2020
3351 Clouds 1 1000 90 10000 2.6 280 03:57 12.05.2020
3352 Clouds 0 1000 86 10000 3.1 280 03:19 12.05.2020
3353 Clouds 1 1000 90 10000 3.1 280 02:27 12.05.2020
3354 Clouds 1 1000 90 10000 4.1 280 01:40 12.05.2020
3355 Clouds 1 1000 88 10000 4.1 280 00:59 12.05.2020
3356 Clouds 1 1000 87 10000 3.1 270 00:24 12.05.2020
3357 Clouds 1 1000 74 10000 3.1 270 23:57 11.05.2020
3358 Clouds 1 1000 74 10000 3.6 280 23:37 11.05.2020
3359 Clouds 1 1000 74 10000 3.6 280 23:19 11.05.2020
3360 Clouds 2 999 74 10000 3.6 280 22:56 11.05.2020
3361 Clouds 2 999 69 10000 3.6 290 22:56 11.05.2020
3362 Clouds 2 999 69 10000 3.6 290 22:38 11.05.2020
3363 Clouds 2 999 69 10000 3.6 290 22:19 11.05.2020
3364 Clouds 2 1000 64 10000 4.1 290 21:55 11.05.2020
3365 Rain 3 999 59 10000 4.6 270 21:36 11.05.2020
3366 Rain 3 999 59 10000 4.6 270 21:36 11.05.2020
3367 Clouds 3 999 64 10000 4.6 270 21:18 11.05.2020
3368 Clouds 3 999 64 10000 5.1 270 20:54 11.05.2020
3369 Clouds 3 999 64 10000 5.1 270 20:36 11.05.2020
3370 Clouds 4 999 74 10000 3.6 270 20:18 11.05.2020
3371 Clouds 4 999 75 10000 3.1 280 19:41 11.05.2020
3372 Clouds 4 999 71 10000 3.6 290 19:22 11.05.2020
3373 Clouds 3 999 71 10000 3.6 290 18:57 11.05.2020
3374 Clouds 3 999 71 10000 3.6 290 18:38 11.05.2020
3375 Clouds 3 999 69 10000 3.6 290 18:19 11.05.2020
3376 Clouds 3 999 69 10000 3.6 290 17:57 11.05.2020
3377 Snow 3 999 69 8000 7.2 300 17:39 11.05.2020
3378 Rain 4 999 70 10000 4.6 310 17:20 11.05.2020
3379 Rain 4 999 70 10000 4.6 310 16:56 11.05.2020
3380 Clouds 4 998 73 10000 4.1 320 16:37 11.05.2020
3381 Clouds 3 998 73 10000 5.7 330 16:18 11.05.2020
3382 Clouds 3 998 73 10000 6.7 330 15:42 11.05.2020
3383 Rain 2 998 86 10000 6.7 320 15:20 11.05.2020
3384 Rain 2 998 86 10000 6.7 320 14:58 11.05.2020
3385 Snow 2 998 86 1200 5.7 320 14:40 11.05.2020
3386 Rain 1 998 95 1100 6.7 320 14:21 11.05.2020
3387 Snow 1 998 95 1200 6.7 320 13:42 11.05.2020
3388 Rain 1 998 95 1200 6.7 320 13:22 11.05.2020
3389 Rain 1 998 95 800 5.1 320 12:59 11.05.2020
3390 Snow 1 998 95 600 6.2 320 12:41 11.05.2020
3391 Snow 1 998 95 1100 5.1 320 12:23 11.05.2020
3392 Snow 1 998 95 1100 5.1 320 11:57 11.05.2020
3393 Snow 2 998 95 1800 4.6 320 11:39 11.05.2020
3394 Snow 1 998 94 1800 4.6 320 11:21 11.05.2020
3395 Snow 2 998 94 2500 5.7 320 10:58 11.05.2020
3396 Rain 3 998 93 8000 7.7 320 10:39 11.05.2020
3397 Rain 4 997 93 10000 8.2 320 10:21 11.05.2020
3398 Rain 4 997 93 10000 8.2 320 10:21 11.05.2020
3399 Rain 5 997 93 10000 8.2 320 09:58 11.05.2020
3400 Rain 6 997 93 10000 5.7 310 09:39 11.05.2020
3401 Rain 7 997 93 10000 5.7 310 09:19 11.05.2020
3402 Rain 7 997 93 9000 6.2 310 09:19 11.05.2020
3403 Rain 8 997 93 9000 3.1 290 08:44 11.05.2020
3404 Rain 8 997 93 9000 3.1 290 08:25 11.05.2020
3405 Rain 9 997 93 8000 3.1 250 07:59 11.05.2020
3406 Rain 9 997 87 10000 3.6 250 07:41 11.05.2020
3407 Rain 9 997 87 10000 3.6 250 07:23 11.05.2020
3408 Clouds 10 998 81 10000 5.1 210 06:34 11.05.2020
3409 Clouds 10 998 76 10000 4.6 200 05:53 11.05.2020
3410 Clouds 10 998 76 10000 4.6 200 05:22 11.05.2020
3411 Rain 10 1000 81 10000 6.2 190 03:56 11.05.2020
3412 Clouds 10 1001 77 0 4.7 212 02:36 11.05.2020
3413 Rain 10 1001 71 10000 5.7 180 01:59 11.05.2020
3414 Clouds 11 1002 66 10000 4.6 200 01:21 11.05.2020
3415 Clouds 10 1002 66 10000 2.6 230 00:41 11.05.2020
3416 Clouds 11 1002 57 10000 2.6 180 00:18 11.05.2020
3417 Clouds 10 1003 61 10000 3.6 140 23:40 10.05.2020
3418 Rain 10 1003 61 10000 3.6 140 23:20 10.05.2020
3419 Rain 10 1003 61 10000 3.6 140 22:55 10.05.2020
3420 Clouds 10 1003 61 10000 4.1 140 22:36 10.05.2020
3421 Clouds 10 1004 57 10000 4.6 140 22:18 10.05.2020
3422 Clouds 10 1004 57 10000 5.1 140 21:42 10.05.2020
3423 Clouds 10 1005 57 10000 4.6 140 21:18 10.05.2020
3424 Clouds 11 1005 50 10000 4.6 140 20:43 10.05.2020
3425 Clouds 11 1005 46 10000 4.6 140 20:24 10.05.2020
3426 Clouds 12 1005 46 10000 4.6 140 19:58 10.05.2020
3427 Clouds 12 1005 43 10000 4.6 140 19:38 10.05.2020
3428 Clouds 13 1005 43 10000 4.6 140 19:20 10.05.2020
3429 Clouds 14 1006 61 10000 5.1 140 18:56 10.05.2020
3430 Clouds 14 1006 61 10000 5.7 130 18:36 10.05.2020
3431 Clouds 14 1006 59 10000 6.2 130 18:18 10.05.2020
3432 Clouds 14 1006 59 10000 6.2 130 17:58 10.05.2020
3433 Clouds 14 1007 35 10000 7.2 140 17:39 10.05.2020
3434 Clouds 14 1007 35 10000 7.2 140 17:20 10.05.2020
3435 Clouds 13 1008 37 10000 5.7 130 16:44 10.05.2020
3436 Clouds 13 1008 37 10000 6.7 130 16:21 10.05.2020
3437 Clouds 13 1008 37 10000 6.7 130 15:58 10.05.2020
3438 Clouds 13 1009 37 10000 7.2 120 15:40 10.05.2020
3439 Clouds 13 1009 37 10000 7.2 120 15:22 10.05.2020
3440 Clouds 14 1009 35 10000 7.2 140 14:56 10.05.2020
3441 Clouds 14 1009 55 10000 6.7 150 14:37 10.05.2020
3442 Clouds 14 1010 52 10000 5.7 130 14:19 10.05.2020
3443 Clouds 14 1010 52 10000 5.7 130 14:19 10.05.2020
3444 Clouds 14 1010 52 10000 5.7 130 13:57 10.05.2020
3445 Clouds 13 1010 37 10000 7.2 140 13:37 10.05.2020
3446 Clouds 13 1010 53 10000 6.2 150 13:18 10.05.2020
3447 Clouds 13 1011 35 10000 6.2 150 12:42 10.05.2020
3448 Clouds 12 1011 40 10000 6.7 160 12:23 10.05.2020
3449 Clouds 12 1011 40 10000 6.7 160 11:59 10.05.2020
3450 Clouds 12 1011 40 10000 6.7 140 11:40 10.05.2020
3451 Clear 12 1011 40 10000 6.7 140 11:21 10.05.2020
3452 Clear 12 1012 58 10000 6.2 150 10:58 10.05.2020
3453 Clear 11 1012 43 10000 5.7 160 10:40 10.05.2020
3454 Clear 11 1012 43 10000 5.7 160 10:22 10.05.2020
3455 Clear 11 1012 46 10000 7.7 150 09:42 10.05.2020
3456 Clear 10 1012 46 10000 7.7 150 09:23 10.05.2020
3457 Clear 10 1012 59 10000 6.7 130 08:59 10.05.2020
3458 Clear 9 1013 59 10000 5.7 130 08:40 10.05.2020
3459 Clouds 9 1013 62 10000 5.7 130 08:22 10.05.2020
3460 Clouds 8 1013 61 10000 5.1 130 07:42 10.05.2020
3461 Clouds 7 1013 67 10000 3.6 120 07:19 10.05.2020
3462 Clouds 6 1013 67 10000 3.6 120 06:50 10.05.2020
3463 Clouds 5 1013 69 10000 2.1 100 06:26 10.05.2020
3464 Clouds 2 1013 72 10000 1 80 05:46 10.05.2020
3465 Clouds 1 1013 79 10000 2.1 90 04:48 10.05.2020
3466 Clouds 1 1013 79 10000 2.1 90 04:29 10.05.2020
3467 Clouds 1 1013 74 10000 1 80 03:51 10.05.2020
3468 Clouds 0 1013 79 10000 2.6 50 02:59 10.05.2020
3469 Clouds 0 1013 79 10000 1 40 02:25 10.05.2020
3470 Clouds 1 1013 74 10000 0.5 0 01:59 10.05.2020
3471 Clouds 1 1013 80 10000 1.5 40 01:39 10.05.2020
3472 Clouds 2 1013 71 10000 0.5 0 01:18 10.05.2020
3473 Clouds 2 1013 71 10000 0.5 0 00:52 10.05.2020
3474 Clouds 3 1013 69 10000 1 340 00:22 10.05.2020
3475 Clouds 4 1013 59 10000 1.5 310 23:40 09.05.2020
3476 Clouds 4 1013 59 10000 1.5 310 23:22 09.05.2020
3477 Clouds 5 1013 47 10000 1.5 300 22:59 09.05.2020
3478 Clouds 5 1013 51 10000 2.1 300 22:40 09.05.2020
3479 Clouds 5 1013 51 10000 2.1 330 22:22 09.05.2020
3480 Clouds 7 1013 33 10000 3.1 320 21:57 09.05.2020
3481 Clouds 8 1013 33 10000 3.1 320 21:39 09.05.2020
3482 Clouds 9 1012 29 10000 3.1 320 21:20 09.05.2020
3483 Clouds 10 1012 29 10000 3.1 320 20:56 09.05.2020
3484 Clouds 10 1012 23 10000 4.1 310 20:38 09.05.2020
3485 Clouds 11 1012 23 10000 4.1 310 20:19 09.05.2020
3486 Clouds 12 1012 25 10000 6.2 320 19:40 09.05.2020
3487 Clear 12 1012 20 10000 6.2 280 19:21 09.05.2020
3488 Clear 12 1012 20 10000 6.2 280 18:59 09.05.2020
3489 Clear 12 1012 18 10000 6.2 310 18:40 09.05.2020
3490 Clear 12 1011 20 10000 5.7 280 18:21 09.05.2020
3491 Clear 13 1011 19 10000 6.7 290 17:44 09.05.2020
3492 Clear 13 1011 19 10000 6.7 290 17:23 09.05.2020
3493 Clear 13 1011 22 10000 6.7 280 16:56 09.05.2020
3494 Clear 14 1011 22 10000 6.7 280 16:37 09.05.2020
3495 Clear 14 1011 19 10000 7.7 300 16:18 09.05.2020
3496 Clear 14 1011 20 10000 7.2 300 15:42 09.05.2020
3497 Clear 14 1011 20 10000 8.2 290 15:22 09.05.2020
3498 Clear 14 1011 20 10000 8.2 290 14:55 09.05.2020
3499 Clear 14 1011 20 10000 7.7 270 14:36 09.05.2020
3500 Clear 14 1011 26 10000 7.7 270 14:18 09.05.2020
3501 Clear 14 1011 28 10000 7.2 270 13:41 09.05.2020
3502 Clear 14 1011 28 10000 7.2 270 13:22 09.05.2020
3503 Clear 13 1011 32 10000 5.7 270 12:58 09.05.2020
3504 Clear 14 1011 32 10000 6.7 270 12:39 09.05.2020
3505 Clear 13 1011 32 10000 6.7 280 12:21 09.05.2020
3506 Clear 13 1010 30 10000 6.2 290 11:44 09.05.2020
3507 Clouds 12 1010 37 10000 6.7 280 11:20 09.05.2020
3508 Clouds 11 1010 37 10000 6.7 280 10:54 09.05.2020
3509 Clouds 11 1010 43 10000 5.7 300 10:36 09.05.2020
3510 Clouds 11 1010 50 10000 6.7 290 10:18 09.05.2020
3511 Clouds 11 1010 53 10000 6.7 280 09:41 09.05.2020
3512 Clouds 10 1010 53 10000 6.7 280 09:20 09.05.2020
3513 Clouds 10 1009 61 10000 6.2 270 08:54 09.05.2020
3514 Clouds 11 1010 57 10000 6.2 280 08:54 09.05.2020
3515 Clouds 10 1009 61 10000 6.2 270 08:35 09.05.2020
3516 Clouds 9 1009 61 10000 4.6 280 07:56 09.05.2020
3517 Clouds 9 1009 65 10000 4.6 280 07:38 09.05.2020
3518 Clouds 8 1009 65 10000 4.6 280 07:20 09.05.2020
3519 Clear 6 1008 81 10000 3.1 270 06:27 09.05.2020
3520 Clear 5 1008 86 10000 3.1 240 05:50 09.05.2020
3521 Clear 5 1008 93 10000 3.1 240 05:19 09.05.2020
3522 Clouds 6 1007 87 10000 3.6 260 03:39 09.05.2020
3523 Clouds 6 1007 87 10000 2.6 230 02:53 09.05.2020
3524 Clouds 6 1007 87 10000 2.6 230 02:29 09.05.2020
3525 Clouds 6 1007 81 10000 3.6 230 01:48 09.05.2020
3526 Clouds 6 1007 81 10000 3.6 230 01:20 09.05.2020
3527 Clouds 7 1007 81 10000 4.6 230 00:42 09.05.2020
3528 Clouds 7 1007 81 10000 5.1 220 00:18 09.05.2020
3529 Clouds 7 1007 81 10000 5.1 220 23:43 08.05.2020
3530 Clouds 8 1007 81 10000 5.1 220 23:24 08.05.2020
3531 Clouds 8 1007 75 10000 7.2 200 22:55 08.05.2020
3532 Clouds 8 1007 65 10000 5.7 200 22:37 08.05.2020
3533 Clouds 8 1007 78 10000 3.1 120 22:18 08.05.2020
3534 Clouds 8 1007 78 10000 3.1 120 21:54 08.05.2020
3535 Clouds 9 1007 52 10000 4.6 120 21:36 08.05.2020
3536 Clouds 8 1007 52 10000 4.1 120 21:18 08.05.2020
3537 Clouds 9 1008 49 10000 5.1 130 20:41 08.05.2020
3538 Clouds 9 1008 49 10000 5.1 130 20:23 08.05.2020
3539 Clouds 9 1008 49 10000 6.2 140 19:58 08.05.2020
3540 Rain 9 1008 43 10000 4.6 180 19:40 08.05.2020
3541 Rain 10 1008 43 10000 4.6 180 19:20 08.05.2020
3542 Clouds 10 1008 40 10000 4.6 190 19:20 08.05.2020
3543 Clouds 11 1008 40 10000 5.1 180 18:45 08.05.2020
3544 Clouds 11 1008 40 10000 5.1 180 18:27 08.05.2020
3545 Clouds 11 1009 34 10000 5.1 180 17:43 08.05.2020
3546 Clouds 11 1009 34 10000 5.1 180 17:43 08.05.2020
3547 Clouds 12 1009 34 10000 7.2 200 17:20 08.05.2020
3548 Clouds 12 1009 34 10000 7.2 200 16:56 08.05.2020
3549 Clouds 12 1009 34 10000 5.7 210 16:37 08.05.2020
3550 Clouds 12 1009 34 10000 5.7 210 16:19 08.05.2020
3551 Clouds 12 1010 52 10000 6.7 180 15:42 08.05.2020
3552 Clouds 12 1010 53 10000 6.7 180 15:22 08.05.2020
3553 Clouds 12 1010 53 10000 6.2 190 14:57 08.05.2020
3554 Clouds 12 1010 53 10000 7.7 160 14:39 08.05.2020
3555 Clouds 11 1011 43 10000 6.7 180 14:19 08.05.2020
3556 Clouds 11 1011 43 10000 6.7 180 13:55 08.05.2020
3557 Clouds 11 1011 37 10000 7.2 180 13:36 08.05.2020
3558 Clouds 11 1011 40 10000 8.2 180 13:18 08.05.2020
3559 Clouds 11 1011 40 10000 7.2 170 12:42 08.05.2020
3560 Clouds 11 1011 37 10000 7.7 170 12:23 08.05.2020
3561 Clouds 11 1011 37 10000 5.7 180 11:44 08.05.2020
3562 Clouds 11 1011 37 10000 5.7 180 11:23 08.05.2020
3563 Clouds 11 1012 32 10000 2.6 0 10:59 08.05.2020
3564 Clouds 11 1012 32 10000 2.6 0 10:59 08.05.2020
3565 Clouds 11 1012 37 10000 3.6 220 10:41 08.05.2020
3566 Clouds 10 1012 39 10000 2.1 0 10:19 08.05.2020
3567 Clouds 10 1012 39 10000 2.1 0 09:58 08.05.2020
3568 Clouds 10 1012 45 10000 3.1 300 09:39 08.05.2020
3569 Clouds 9 1012 49 10000 3.1 280 09:18 08.05.2020
3570 Clouds 9 1012 49 10000 3.1 280 09:18 08.05.2020
3571 Clouds 8 1013 56 10000 2.6 270 08:45 08.05.2020
3572 Clear 8 1013 60 10000 2.6 280 08:22 08.05.2020
3573 Clear 6 1012 65 10000 3.1 270 07:44 08.05.2020
3574 Clear 6 1012 65 10000 3.1 270 07:25 08.05.2020
3575 Clouds 4 1012 74 10000 4.6 290 06:51 08.05.2020
3576 Clouds 4 1012 74 10000 4.6 290 06:24 08.05.2020
3577 Clouds 3 1012 80 10000 3.1 290 05:52 08.05.2020
3578 Clouds 3 1012 80 10000 3.1 300 04:41 08.05.2020
3579 Clouds 3 1012 64 10000 3.6 300 02:35 08.05.2020
3580 Clouds 4 1012 64 10000 4.1 300 01:56 08.05.2020
3581 Clouds 4 1012 60 10000 4.1 300 01:28 08.05.2020
3582 Clouds 5 1012 56 10000 4.6 290 00:53 08.05.2020
3583 Clouds 5 1012 56 10000 4.6 290 00:32 08.05.2020
3584 Clouds 6 1011 56 10000 4.6 290 23:59 07.05.2020
3585 Clouds 6 1011 48 10000 4.1 290 23:40 07.05.2020
3586 Clouds 7 1011 48 10000 4.1 290 23:22 07.05.2020
3587 Clouds 6 1011 52 10000 4.6 290 22:56 07.05.2020
3588 Clouds 7 1011 48 10000 4.6 290 22:38 07.05.2020
3589 Clouds 7 1011 48 10000 4.6 290 22:38 07.05.2020
3590 Clouds 7 1011 48 10000 4.6 290 22:19 07.05.2020
3591 Clouds 8 1011 45 10000 5.1 290 21:55 07.05.2020
3592 Clouds 9 1011 49 10000 4.6 290 21:36 07.05.2020
3593 Clouds 9 1010 45 10000 5.1 290 21:18 07.05.2020
3594 Clouds 11 1010 40 10000 5.1 310 20:42 07.05.2020
3595 Clouds 11 1010 40 10000 5.1 310 20:23 07.05.2020
3596 Clouds 11 1010 43 10000 2.6 320 19:56 07.05.2020
3597 Rain 12 1010 40 10000 4.1 330 19:38 07.05.2020
3598 Rain 12 1010 40 10000 4.1 330 19:38 07.05.2020
3599 Rain 12 1010 40 10000 4.1 330 19:19 07.05.2020
3600 Rain 12 1009 40 10000 2.1 310 18:44 07.05.2020
3601 Rain 12 1009 40 10000 2.1 310 18:26 07.05.2020
3602 Rain 12 1009 40 10000 4.6 350 17:57 07.05.2020
3603 Rain 12 1009 49 10000 8.2 320 17:36 07.05.2020
3604 Rain 13 1009 49 10000 8.2 320 17:18 07.05.2020
3605 Clouds 13 1009 34 10000 5.1 310 16:40 07.05.2020
3606 Clouds 13 1009 37 10000 4.6 310 16:18 07.05.2020
3607 Clouds 13 1008 34 10000 6.7 310 15:56 07.05.2020
3608 Clouds 13 1008 34 10000 6.7 310 15:37 07.05.2020
3609 Clouds 13 1008 32 10000 7.2 300 15:18 07.05.2020
3610 Clouds 13 1008 34 10000 6.2 300 14:44 07.05.2020
3611 Clear 13 1008 35 10000 5.7 290 14:21 07.05.2020
3612 Clear 13 1008 34 10000 6.2 290 13:45 07.05.2020
3613 Clear 12 1008 34 10000 6.2 290 13:26 07.05.2020
3614 Clear 12 1008 32 10000 6.7 290 12:54 07.05.2020
3615 Clear 12 1008 32 10000 6.7 300 12:36 07.05.2020
3616 Clear 12 1008 32 10000 6.7 300 12:18 07.05.2020
3617 -273 0 0 0 0 0 11:39 07.05.2020
3618 Clear 10 1008 37 10000 5.1 290 11:21 07.05.2020
3619 Clouds 10 1008 39 10000 5.7 320 10:43 07.05.2020
3620 Clouds 10 1008 39 10000 5.7 320 10:24 07.05.2020
3621 Clouds 9 1008 42 10000 5.7 320 09:54 07.05.2020
3622 Clouds 8 1008 49 10000 5.1 330 09:36 07.05.2020
3623 Clouds 8 1008 49 10000 4.6 320 09:18 07.05.2020
3624 Clear 7 1008 56 10000 4.6 300 08:41 07.05.2020
3625 Clear 7 1008 56 10000 4.6 300 08:22 07.05.2020
3626 Clear 6 1008 60 10000 5.1 310 07:57 07.05.2020
3627 Clear 6 1008 65 10000 4.1 320 07:39 07.05.2020
3628 Clear 5 1008 69 10000 4.6 310 07:18 07.05.2020
3629 Clear 4 1008 69 10000 4.6 290 06:36 07.05.2020
3630 Clear 3 1008 69 10000 3.6 280 05:40 07.05.2020
3631 Clear 3 1008 69 10000 4.1 290 04:26 07.05.2020
3632 Clear 3 1008 59 10000 4.1 290 03:29 07.05.2020
3633 Clear 4 1008 59 10000 4.6 290 02:55 07.05.2020
3634 Clouds 4 1008 59 10000 5.1 290 02:19 07.05.2020
3635 Clouds 5 1008 55 10000 5.1 300 01:24 07.05.2020
3636 Clouds 5 1007 52 10000 5.1 300 00:50 07.05.2020
3637 Clouds 6 1007 52 10000 5.1 300 00:29 07.05.2020
3638 Clouds 6 1007 48 10000 5.1 300 23:57 06.05.2020
3639 Clouds 6 1007 48 10000 4.6 300 23:38 06.05.2020
3640 Clouds 7 1007 45 10000 5.1 300 23:19 06.05.2020
3641 Clouds 7 1007 45 10000 5.1 300 22:54 06.05.2020
3642 Clouds 7 1007 45 10000 6.2 300 22:36 06.05.2020
3643 Clouds 8 1007 42 10000 6.7 300 22:18 06.05.2020
3644 Clouds 9 1006 42 10000 5.7 290 21:42 06.05.2020
3645 Clouds 9 1006 42 10000 5.7 290 21:21 06.05.2020
3646 Clouds 11 1006 40 10000 7.2 300 20:54 06.05.2020
3647 Clouds 11 1006 40 10000 7.2 300 20:36 06.05.2020
3648 Clouds 12 1006 40 10000 6.7 300 20:18 06.05.2020
3649 Clouds 12 1006 40 10000 6.7 300 19:55 06.05.2020
3650 Clouds 13 1006 32 10000 7.2 300 19:36 06.05.2020
3651 Clouds 13 1006 32 10000 7.2 300 19:18 06.05.2020
3652 Clouds 13 1006 32 10000 6.7 290 18:54 06.05.2020
3653 Clouds 14 1006 30 10000 5.7 320 18:36 06.05.2020
3654 Clouds 14 1006 30 10000 5.7 320 18:18 06.05.2020
3655 Clouds 15 1006 33 10000 6.7 290 17:40 06.05.2020
3656 Clouds 15 1006 30 10000 5.7 300 17:22 06.05.2020
3657 Clouds 15 1006 30 10000 5.7 300 16:59 06.05.2020
3658 Clouds 15 1006 30 10000 6.7 270 16:41 06.05.2020
3659 Clouds 15 1006 30 10000 5.7 280 16:22 06.05.2020
3660 Clouds 15 1006 30 10000 5.7 280 15:59 06.05.2020
3661 Clouds 15 1007 30 10000 5.7 310 15:41 06.05.2020
3662 Clouds 15 1007 30 10000 4.6 280 15:22 06.05.2020
3663 Clouds 15 1007 30 10000 4.6 280 15:22 06.05.2020
3664 Clouds 15 1007 30 10000 4.6 280 14:56 06.05.2020
3665 Clouds 15 1007 30 10000 4.6 270 14:37 06.05.2020
3666 Clouds 15 1008 30 10000 6.2 280 14:18 06.05.2020
3667 Clouds 15 1008 30 10000 6.2 280 13:56 06.05.2020
3668 Clouds 15 1008 30 10000 4.6 280 13:36 06.05.2020
3669 Clouds 15 1008 30 10000 5.1 300 13:18 06.05.2020
3670 Clouds 15 1009 28 10000 5.1 270 12:42 06.05.2020
3671 Clouds 15 1009 28 10000 5.1 270 12:24 06.05.2020
3672 Clouds 14 1009 26 10000 4.1 280 11:41 06.05.2020
3673 Clouds 14 1010 28 10000 4.1 310 11:21 06.05.2020
3674 Clouds 14 1010 28 10000 4.1 310 10:58 06.05.2020
3675 Clouds 13 1010 30 10000 3.6 320 10:38 06.05.2020
3676 Clouds 12 1010 37 10000 3.6 330 10:19 06.05.2020
3677 Clouds 11 1011 37 10000 4.1 320 09:45 06.05.2020
3678 Clouds 11 1011 43 10000 5.7 330 09:24 06.05.2020
3679 Clouds 11 1011 43 10000 5.7 330 08:55 06.05.2020
3680 Clouds 11 1011 43 10000 5.7 330 08:55 06.05.2020
3681 Clouds 10 1011 46 10000 4.6 320 08:36 06.05.2020
3682 Clear 10 1011 60 10000 3.6 310 08:18 06.05.2020
3683 Clear 10 1011 60 10000 4.1 310 07:40 06.05.2020
3684 Clear 9 1011 63 10000 3.1 320 07:21 06.05.2020
3685 Clear 8 1011 63 10000 3.1 320 06:56 06.05.2020
3686 Clear 7 1011 63 10000 3.6 330 06:38 06.05.2020
3687 Clear 7 1011 68 10000 2.1 320 06:18 06.05.2020
3688 Clear 6 1011 68 10000 1 0 05:37 06.05.2020
3689 Clear 5 1012 74 10000 3.1 330 04:41 06.05.2020
3690 Clear 6 1012 75 10000 3.1 340 03:47 06.05.2020
3691 Clear 6 1012 70 10000 3.6 330 03:22 06.05.2020
3692 Clear 6 1013 80 10000 2.1 310 02:30 06.05.2020
3693 Clear 6 1013 70 10000 2.1 300 01:56 06.05.2020
3694 Clear 5 1013 80 10000 2.1 290 01:34 06.05.2020
3695 Clear 5 1013 86 10000 0.5 0 00:55 06.05.2020
3696 Clear 6 1013 75 10000 2.85 344 00:31 06.05.2020
3697 Clear 6 1014 75 10000 1 0 23:57 05.05.2020
3698 Clear 7 1014 70 10000 0.5 0 23:39 05.05.2020
3699 Clear 7 1014 70 10000 0.5 0 23:19 05.05.2020
3700 Clear 8 1014 61 10000 2.1 250 22:42 05.05.2020
3701 Clear 9 1014 61 10000 1.5 230 22:20 05.05.2020
3702 Clear 10 1014 61 10000 1.5 230 21:58 05.05.2020
3703 Clear 10 1014 61 10000 1.5 230 21:58 05.05.2020
3704 Clear 10 1014 61 10000 1.5 230 21:58 05.05.2020
3705 Clear 11 1014 50 10000 1.5 240 21:39 05.05.2020
3706 Clouds 11 1014 50 10000 1.5 240 21:21 05.05.2020
3707 Clouds 12 1014 46 10000 3.1 230 20:58 05.05.2020
3708 Clouds 12 1014 43 10000 3.1 240 20:39 05.05.2020
3709 Clouds 13 1014 41 10000 3.6 220 20:18 05.05.2020
3710 Clouds 13 1014 41 10000 3.6 220 19:54 05.05.2020
3711 Clouds 14 1014 38 10000 3.1 220 19:36 05.05.2020
3712 Clouds 14 1014 70 10000 3.6 220 19:18 05.05.2020
3713 Clouds 15 1014 38 10000 3.1 220 18:42 05.05.2020
3714 Clouds 15 1014 38 10000 3.1 220 18:20 05.05.2020
3715 Clouds 15 1015 38 10000 2.1 220 17:59 05.05.2020
3716 Clouds 15 1015 41 10000 4.1 200 17:41 05.05.2020
3717 Clouds 15 1015 41 10000 4.1 200 17:23 05.05.2020
3718 Clouds 15 1015 36 10000 3.1 190 16:57 05.05.2020
3719 Clouds 15 1015 36 10000 3.1 190 16:57 05.05.2020
3720 Clouds 15 1015 38 10000 3.1 130 16:36 05.05.2020
3721 Clouds 15 1015 38 10000 3.1 140 16:18 05.05.2020
3722 Clouds 15 1015 41 10000 3.1 120 15:42 05.05.2020
3723 Clouds 15 1015 41 10000 3.6 130 15:23 05.05.2020
3724 Clouds 15 1015 41 10000 3.6 130 15:23 05.05.2020
3725 Clouds 15 1015 41 10000 3.6 130 14:58 05.05.2020
3726 Clouds 15 1016 41 10000 4.1 150 14:39 05.05.2020
3727 Clouds 15 1016 41 10000 4.1 150 14:39 05.05.2020
3728 Clear 16 1016 41 10000 4.1 150 14:21 05.05.2020
3729 Clouds 16 1016 41 10000 3.6 160 13:58 05.05.2020
3730 Clouds 15 1016 41 10000 3.6 140 13:40 05.05.2020
3731 Clouds 15 1016 44 10000 3.6 100 13:21 05.05.2020
3732 Clouds 15 1016 44 10000 3.6 100 12:58 05.05.2020
3733 Clouds 15 1016 47 10000 3.6 130 12:39 05.05.2020
3734 Clouds 14 1017 58 10000 2.1 110 12:20 05.05.2020
3735 Clouds 14 1017 58 10000 2.1 110 12:20 05.05.2020
3736 Clouds 14 1017 58 10000 2.1 110 11:55 05.05.2020
3737 Clouds 14 1016 54 10000 3.6 150 11:36 05.05.2020
3738 Clouds 14 1017 62 10000 2.6 140 11:18 05.05.2020
3739 Clouds 13 1017 62 10000 2.1 0 10:39 05.05.2020
3740 Clouds 12 1017 71 10000 1.5 0 10:19 05.05.2020
3741 Clouds 12 1017 71 10000 1.5 0 09:58 05.05.2020
3742 Clouds 11 1017 71 10000 2.1 110 09:40 05.05.2020
3743 Clouds 10 1017 71 10000 2.1 110 09:22 05.05.2020
3744 Clouds 10 1016 76 10000 2.1 80 08:41 05.05.2020
3745 Clouds 7 1017 87 10000 1.5 50 08:20 05.05.2020
3746 Clouds 8 1017 87 10000 1.5 50 07:57 05.05.2020
3747 Clouds 7 1016 93 8000 1.5 320 07:38 05.05.2020
3748 Fog 5 1016 100 800 1 0 07:18 05.05.2020
3749 Fog 4 1016 100 800 1.5 330 06:45 05.05.2020
3750 Fog 3 1016 100 800 1.5 330 06:21 05.05.2020
3751 Fog 1 1016 100 350 2.1 330 05:36 05.05.2020
3752 Fog 1 1016 88 10000 1.5 130 03:34 05.05.2020
3753 Fog 2 1015 89 10000 2.1 310 01:27 05.05.2020
3754 Clouds 3 1016 89 10000 0.5 0 00:50 05.05.2020
3755 Clouds 3 1016 89 10000 0.5 0 00:21 05.05.2020
3756 Clouds 4 1016 100 10000 0.5 310 23:45 04.05.2020
3757 Clouds 5 1016 100 10000 0.5 310 23:21 04.05.2020
3758 Clouds 5 1015 100 10000 1.5 290 22:56 04.05.2020
3759 Clouds 5 1015 100 10000 1.5 290 22:56 04.05.2020
3760 Clouds 5 1015 93 10000 1.5 250 22:38 04.05.2020
3761 Clouds 6 1015 93 10000 1.5 250 22:19 04.05.2020
3762 Clouds 6 1015 87 10000 2.6 230 21:53 04.05.2020
3763 Clouds 6 1015 87 10000 2.6 230 21:33 04.05.2020
3764 Clouds 6 1015 87 10000 2.6 230 21:33 04.05.2020
3765 Clouds 7 1015 87 10000 2.1 230 20:54 04.05.2020
3766 Clouds 8 1015 81 10000 3.1 240 20:36 04.05.2020
3767 Clouds 8 1014 81 10000 3.6 230 20:18 04.05.2020
3768 Clouds 8 1014 81 10000 2.6 220 19:41 04.05.2020
3769 Clouds 9 1014 76 10000 2.1 230 19:21 04.05.2020
3770 Clouds 9 1014 76 10000 2.1 230 18:56 04.05.2020
3771 Clouds 9 1014 76 10000 2.6 260 18:37 04.05.2020
3772 Clouds 9 1014 76 10000 3.6 250 18:18 04.05.2020
3773 Clouds 10 1014 76 10000 3.6 250 17:55 04.05.2020
3774 Clouds 10 1014 76 10000 3.6 250 17:37 04.05.2020
3775 Clouds 10 1014 76 10000 4.1 220 17:18 04.05.2020
3776 Clouds 10 1014 76 10000 3.6 210 16:42 04.05.2020
3777 Clouds 10 1014 76 10000 3.6 210 16:42 04.05.2020
3778 Clouds 9 1014 76 10000 3.6 210 16:21 04.05.2020
3779 Clouds 10 1014 76 10000 3.6 200 15:46 04.05.2020
3780 Clouds 10 1014 76 10000 3.6 220 15:25 04.05.2020
3781 Clouds 10 1014 76 10000 3.6 220 15:25 04.05.2020
3782 Clouds 10 1014 76 10000 3.6 220 14:57 04.05.2020
3783 Clouds 10 1014 76 10000 3.6 220 14:57 04.05.2020
3784 Clouds 9 1014 75 10000 3.6 220 14:38 04.05.2020
3785 Clouds 9 1014 75 10000 3.6 220 14:38 04.05.2020
3786 Clouds 9 1014 75 10000 3.6 220 14:38 04.05.2020
3787 Clouds 9 1014 75 10000 3.6 220 14:38 04.05.2020
3788 Clouds 9 1014 75 10000 3.6 220 14:38 04.05.2020
3789 Clouds 9 1014 76 10000 3.6 210 13:55 04.05.2020
3790 Clouds 9 1014 76 10000 3.6 210 13:55 04.05.2020
3791 Clouds 9 1014 76 10000 3.6 210 13:55 04.05.2020
3792 Clouds 10 1014 76 10000 3.1 230 13:46 04.05.2020
3793 Clouds 10 1014 76 10000 3.1 230 13:46 04.05.2020
3794 Clouds 9 1013 81 10000 4.1 210 12:48 04.05.2020
3795 Clouds 9 1013 81 10000 4.1 210 12:48 04.05.2020
3796 Clouds 9 1013 81 10000 4.1 210 12:48 04.05.2020
3797 Clouds 9 1013 81 10000 3.6 250 12:21 04.05.2020
3798 Clouds 9 1013 81 10000 3.6 250 12:21 04.05.2020
3799 Clouds 9 1013 81 10000 3.6 250 12:21 04.05.2020
3800 Clouds 7 1012 93 10000 4.1 240 09:33 04.05.2020
3801 Clouds 7 1012 93 10000 4.1 220 08:57 04.05.2020
3802 Clouds 7 1012 93 10000 4.1 220 08:57 04.05.2020
3803 Clouds 7 1012 93 10000 4.1 220 08:57 04.05.2020
3804 Clouds 7 1012 93 10000 4.1 220 08:56 04.05.2020
3805 Clouds 7 1012 93 10000 4.1 220 08:56 04.05.2020
3806 Clouds 6 1011 93 10000 3.1 230 07:47 04.05.2020
3807 Clouds 6 1011 93 10000 3.1 230 07:45 04.05.2020
3808 Clouds 6 1010 100 6000 1.5 240 07:18 04.05.2020
3809 Clouds 6 1010 100 6000 1.5 240 07:18 04.05.2020
3810 Mist 5 1010 100 4500 3.6 200 04:55 04.05.2020
3811 Mist 5 1010 100 5000 3.6 230 03:20 04.05.2020
3812 Mist 5 1010 100 5000 3.6 230 03:20 04.05.2020
3813 Mist 5 1010 100 4000 3.6 200 02:30 04.05.2020
3814 Clouds 6 1010 93 10000 3.1 220 00:38 04.05.2020
3815 Clouds 7 1009 87 10000 2.6 200 23:46 03.05.2020
3816 Clouds 7 1009 81 10000 3.1 200 23:24 03.05.2020
3817 Clouds 7 1009 81 10000 3.1 200 22:56 03.05.2020
3818 Clouds 7 1009 81 10000 3.1 200 22:56 03.05.2020
3819 Clouds 8 1009 81 10000 3.1 210 22:38 03.05.2020
3820 Clouds 7 1009 75 10000 3.1 220 22:19 03.05.2020
3821 Clouds 9 1009 66 10000 4.1 210 21:41 03.05.2020
3822 Clouds 9 1009 66 10000 4.1 210 21:41 03.05.2020
3823 Clouds 9 1009 61 10000 3.6 220 21:20 03.05.2020
3824 Clouds 10 1009 66 10000 4.6 210 20:47 03.05.2020
3825 Clouds 10 1009 66 10000 4.6 210 20:23 03.05.2020
3826 Clouds 10 1009 62 10000 4.1 220 19:55 03.05.2020
3827 Clouds 10 1009 62 10000 4.1 220 19:55 03.05.2020
3828 Clouds 11 1008 62 10000 6.2 220 19:36 03.05.2020
3829 Clouds 11 1008 58 10000 5.7 220 19:18 03.05.2020
3830 Clouds 12 1008 58 10000 5.7 230 18:39 03.05.2020
3831 Clouds 13 1008 50 10000 6.2 260 18:20 03.05.2020
3832 Clouds 13 1008 50 10000 4.6 260 17:42 03.05.2020
3833 Clouds 14 1007 50 10000 5.1 270 17:22 03.05.2020
3834 Clouds 14 1007 50 10000 5.1 270 17:22 03.05.2020
3835 Clouds 14 1007 50 10000 5.1 270 16:56 03.05.2020
3836 Clouds 14 1007 50 10000 5.1 270 16:56 03.05.2020
3837 Clouds 14 1007 50 10000 6.2 270 16:56 03.05.2020
3838 Clouds 14 1007 50 10000 5.1 270 16:56 03.05.2020
3839 Clouds 14 1007 50 10000 6.2 270 16:37 03.05.2020
3840 Clouds 14 1007 54 10000 6.2 260 16:18 03.05.2020
3841 Clouds 14 1007 54 10000 6.2 260 15:55 03.05.2020
3842 Clouds 14 1007 58 10000 5.1 250 15:36 03.05.2020
3843 Clouds 14 1007 58 10000 5.1 250 15:18 03.05.2020
3844 Clouds 14 1007 54 10000 4.6 270 15:18 03.05.2020
3845 Clouds 14 1006 54 10000 4.6 260 14:41 03.05.2020
3846 Clouds 12 1006 54 10000 4.6 260 14:22 03.05.2020
3847 Clouds 13 1006 54 10000 6.2 240 13:57 03.05.2020
3848 Clouds 13 1006 58 10000 4.6 270 13:33 03.05.2020
3849 Clouds 13 1006 58 10000 4.6 270 13:33 03.05.2020
3850 Clouds 13 1006 58 10000 4.6 270 13:33 03.05.2020
3851 Clouds 13 1006 58 10000 4.6 270 13:33 03.05.2020
3852 Clouds 13 1006 58 10000 4.6 270 13:33 03.05.2020
3853 Clouds 13 1006 58 10000 4.1 270 12:47 03.05.2020
3854 Clouds 13 1006 58 10000 4.1 270 12:20 03.05.2020
3855 Clouds 13 1006 66 10000 4.1 280 11:57 03.05.2020
3856 Clouds 11 1005 66 10000 4.1 260 11:39 03.05.2020
3857 Clouds 11 1005 71 10000 3.6 290 11:19 03.05.2020
3858 Clouds 11 1005 71 10000 3.6 290 10:52 03.05.2020
3859 Clouds 11 1005 71 10000 3.6 290 10:52 03.05.2020
3860 Clouds 11 1005 76 10000 4.1 270 10:50 03.05.2020
3861 Clouds 11 1005 76 10000 4.1 270 10:50 03.05.2020
3862 Clouds 11 1005 81 10000 4.1 240 10:21 03.05.2020
3863 Clouds 11 1005 81 10000 4.1 240 10:19 03.05.2020
3864 Clouds 11 1005 81 10000 4.1 240 10:19 03.05.2020
3865 Clouds 9 1004 87 10000 4.1 250 09:39 03.05.2020
3866 Clouds 8 1004 87 10000 5.7 250 08:57 03.05.2020
3867 Clouds 9 1004 87 10000 5.7 250 08:57 03.05.2020
3868 Clouds 8 1004 87 10000 4.6 260 08:28 03.05.2020
3869 Clouds 8 1004 87 10000 4.6 260 08:27 03.05.2020
3870 Clouds 8 1004 87 10000 4.6 260 08:27 03.05.2020
3871 Clouds 8 1003 87 10000 4.6 260 07:40 03.05.2020
3872 Clouds 8 1003 87 10000 4.6 260 07:40 03.05.2020
3873 Clouds 8 1003 93 10000 4.1 250 06:31 03.05.2020
3874 Clouds 8 1003 93 10000 4.1 250 06:31 03.05.2020
3875 Clouds 8 1003 93 10000 4.1 250 06:31 03.05.2020
3876 Clouds 8 1003 93 10000 3.1 250 05:49 03.05.2020
3877 Clouds 8 1003 93 10000 3.1 250 05:29 03.05.2020
3878 Clouds 8 1002 93 9000 2.6 240 04:27 03.05.2020
3879 Clouds 8 1002 93 9000 2.6 240 04:27 03.05.2020
3880 Fog 8 1002 100 700 2.1 230 03:29 03.05.2020
3881 Clouds 8 1002 93 6000 2.1 190 02:30 03.05.2020
3882 Clouds 8 1002 100 9000 4.1 140 01:46 03.05.2020
3883 Clouds 8 1002 100 9000 4.1 140 01:27 03.05.2020
3884 Clouds 8 1002 93 10000 3.6 130 00:57 03.05.2020
3885 Clouds 9 1002 93 10000 3.1 120 00:38 03.05.2020
3886 Clouds 8 1002 93 10000 3.1 120 00:19 03.05.2020
3887 Rain 8 1003 100 10000 3.1 110 23:44 02.05.2020
3888 Rain 8 1003 100 10000 3.1 110 23:25 02.05.2020
3889 Rain 8 1003 100 7000 3.1 100 22:44 02.05.2020
3890 Rain 8 1003 100 7000 3.1 100 22:24 02.05.2020
3891 Rain 8 1003 93 10000 4.1 90 21:58 02.05.2020
3892 Rain 8 1003 93 10000 3.6 80 21:40 02.05.2020
3893 Rain 8 1003 93 10000 3.6 80 21:19 02.05.2020
3894 Rain 8 1004 93 10000 3.6 80 20:57 02.05.2020
3895 Rain 8 1004 93 10000 3.6 80 20:37 02.05.2020
3896 Rain 8 1004 93 9000 3.1 90 20:19 02.05.2020
3897 Rain 8 1004 93 9000 3.1 90 19:57 02.05.2020
3898 Rain 8 1004 93 9000 3.1 90 19:57 02.05.2020
3899 Rain 8 1004 93 9000 3.1 90 19:38 02.05.2020
3900 Rain 8 1004 93 9000 3.1 90 19:38 02.05.2020
3901 Rain 8 1004 93 9000 3.1 90 19:38 02.05.2020
3902 Rain 8 1004 93 9000 3.1 90 19:19 02.05.2020
3903 Rain 9 1004 87 10000 3.6 80 18:55 02.05.2020
3904 Rain 9 1004 87 10000 3.6 80 18:55 02.05.2020
3905 Rain 9 1004 81 10000 3.6 90 18:36 02.05.2020
3906 Rain 9 1004 71 10000 4.1 90 18:18 02.05.2020
3907 Rain 10 1004 71 10000 5.1 90 17:39 02.05.2020
3908 Rain 10 1004 54 10000 5.7 110 17:20 02.05.2020
3909 Rain 11 1004 54 10000 5.7 110 16:59 02.05.2020
3910 Rain 11 1004 46 10000 5.7 110 16:39 02.05.2020
3911 Clouds 12 1004 43 10000 5.7 110 16:21 02.05.2020
3912 Rain 12 1004 43 10000 6.7 110 15:43 02.05.2020
3913 Rain 13 1005 43 10000 6.2 110 15:20 02.05.2020
3914 Rain 13 1005 43 10000 6.2 110 15:20 02.05.2020
3915 Rain 13 1005 43 10000 6.2 110 14:58 02.05.2020
3916 Clouds 13 1005 44 10000 8.2 110 14:39 02.05.2020
3917 Clouds 13 1005 44 10000 8.2 110 14:20 02.05.2020
3918 Clouds 13 1005 44 10000 8.7 120 13:40 02.05.2020
3919 Clouds 14 1005 44 10000 8.7 120 13:22 02.05.2020
3920 Clouds 14 1005 47 10000 8.2 130 12:44 02.05.2020
3921 Clouds 14 1005 47 10000 8.2 130 12:25 02.05.2020
3922 Clouds 13 1005 47 10000 6.2 120 11:59 02.05.2020
3923 Clouds 13 1005 47 10000 6.2 120 11:41 02.05.2020
3924 Clouds 13 1005 47 10000 6.2 120 11:22 02.05.2020
3925 Clouds 12 1005 50 10000 5.7 130 10:58 02.05.2020
3926 Clouds 12 1006 50 10000 5.7 130 10:38 02.05.2020
3927 Clouds 12 1006 50 10000 5.7 130 10:20 02.05.2020
3928 Clouds 12 1006 50 10000 5.7 130 10:20 02.05.2020
3929 Clouds 11 1006 53 10000 5.1 130 09:57 02.05.2020
3930 Clouds 11 1006 53 10000 6.2 130 09:38 02.05.2020
3931 Clouds 10 1006 53 10000 6.2 130 09:20 02.05.2020
3932 Clouds 10 1006 57 10000 5.7 120 08:46 02.05.2020
3933 Clouds 9 1006 57 10000 5.7 120 08:27 02.05.2020
3934 Clouds 8 1006 75 10000 5.1 110 07:48 02.05.2020
3935 Clouds 8 1006 76 10000 5.1 110 07:29 02.05.2020
3936 Clouds 7 1006 76 10000 5.1 110 06:51 02.05.2020
3937 Clouds 6 1006 77 10000 5.7 110 05:30 02.05.2020
3938 Clouds 5 1007 60 10000 6.7 110 04:59 02.05.2020
3939 Clouds 6 1007 60 10000 5.7 110 04:25 02.05.2020
3940 Clouds 6 1007 60 10000 6.2 110 03:18 02.05.2020
3941 Clouds 6 1008 56 10000 6.7 110 02:26 02.05.2020
3942 Clouds 7 1008 56 10000 7.7 110 01:50 02.05.2020
3943 Clouds 7 1008 52 10000 8.7 110 00:49 02.05.2020
3944 Clouds 7 1009 52 10000 6.7 110 00:29 02.05.2020
3945 Clouds 7 1009 52 10000 6.7 110 23:59 01.05.2020
3946 Clouds 7 1009 49 10000 5.1 90 23:39 01.05.2020
3947 Clouds 7 1009 52 10000 5.1 90 23:20 01.05.2020
3948 Clouds 7 1009 52 10000 5.1 90 22:55 01.05.2020
3949 Clouds 7 1009 52 10000 5.7 90 22:37 01.05.2020
3950 Clouds 7 1009 52 10000 5.7 90 22:18 01.05.2020
3951 Clouds 7 1009 52 10000 5.7 90 21:55 01.05.2020
3952 Clouds 7 1010 52 10000 6.2 90 21:36 01.05.2020
3953 Clouds 7 1010 52 10000 6.2 100 21:18 01.05.2020
3954 Clouds 7 1010 52 10000 6.2 100 20:54 01.05.2020
3955 Clouds 7 1010 49 10000 6.2 90 20:36 01.05.2020
3956 Clouds 7 1010 49 10000 6.7 90 20:18 01.05.2020
3957 Clouds 8 1010 49 10000 6.7 90 19:41 01.05.2020
3958 Clouds 8 1010 49 10000 6.7 90 19:22 01.05.2020
3959 Clouds 8 1010 49 10000 6.7 100 18:57 01.05.2020
3960 Clouds 8 1010 45 10000 6.7 90 18:38 01.05.2020
3961 Clouds 8 1010 45 10000 8.2 100 18:19 01.05.2020
3962 Clouds 8 1010 45 10000 8.2 100 17:56 01.05.2020
3963 Clouds 8 1010 45 10000 8.2 100 17:37 01.05.2020
3964 Clouds 8 1010 45 10000 8.2 100 17:37 01.05.2020
3965 Clouds 8 1010 45 10000 8.2 100 17:19 01.05.2020
3966 Clouds 8 1011 42 10000 8.2 90 16:55 01.05.2020
3967 Clouds 8 1011 42 10000 8.2 110 16:37 01.05.2020
3968 Clouds 8 1011 42 10000 8.2 110 16:18 01.05.2020
3969 Clouds 9 1011 39 10000 9.3 110 15:42 01.05.2020
3970 Clouds 10 1011 39 10000 9.3 110 15:23 01.05.2020
3971 Clouds 9 1012 42 10000 9.3 100 14:54 01.05.2020
3972 Clouds 9 1012 42 10000 9.3 100 14:36 01.05.2020
3973 Clouds 9 1012 45 10000 8.2 110 14:18 01.05.2020
3974 Clouds 9 1012 45 10000 8.7 110 13:40 01.05.2020
3975 Clouds 9 1012 45 10000 8.7 110 13:22 01.05.2020
3976 Clouds 9 1012 45 10000 8.7 110 12:56 01.05.2020
3977 Clouds 9 1012 46 10000 7.7 120 12:37 01.05.2020
3978 Clouds 9 1012 45 10000 8.2 110 12:19 01.05.2020
3979 Clouds 8 1013 42 10000 7.2 120 11:43 01.05.2020
3980 Clouds 9 1013 42 10000 7.2 120 11:25 01.05.2020
3981 Clouds 9 1013 42 10000 8.2 110 10:58 01.05.2020
3982 Clouds 8 1013 42 10000 6.2 110 10:40 01.05.2020
3983 Clouds 8 1013 42 10000 6.2 110 10:20 01.05.2020
3984 Clouds 8 1013 48 10000 6.2 110 09:44 01.05.2020
3985 Clouds 7 1013 48 10000 6.2 110 09:44 01.05.2020
3986 Clouds 8 1013 56 10000 5.1 100 09:20 01.05.2020
3987 Clouds 7 1013 56 10000 5.1 100 08:58 01.05.2020
3988 Clouds 7 1014 60 10000 4.6 90 08:40 01.05.2020
3989 Clouds 6 1014 60 10000 4.6 90 08:21 01.05.2020
3990 Clouds 5 1014 69 10000 4.1 90 07:44 01.05.2020
3991 Clouds 4 1014 80 10000 3.6 80 07:22 01.05.2020
3992 Clouds 3 1014 80 10000 3.6 70 06:42 01.05.2020
3993 Clouds 0 1014 80 10000 3.1 70 05:35 01.05.2020
3994 Clouds -1 1015 86 10000 2.6 70 04:39 01.05.2020
3995 Clouds -1 1015 86 10000 2.6 70 03:24 01.05.2020
3996 Clouds -1 1015 86 10000 2.6 70 02:43 01.05.2020
3997 Clear -1 1015 86 10000 3.1 70 02:18 01.05.2020
3998 Clear -1 1015 86 10000 2.6 60 01:28 01.05.2020
3999 Clear 0 1015 82 10000 2.6 60 00:58 01.05.2020
4000 Clear 0 1015 80 10000 2.6 70 00:37 01.05.2020
4001 Clear 0 1015 80 10000 2.1 80 00:18 01.05.2020
4002 Clear 0 1015 80 10000 2.1 80 23:54 30.04.2020
4003 Clear 0 1015 80 10000 2.1 80 23:36 30.04.2020
4004 Clear 0 1015 69 10000 2.6 80 23:18 30.04.2020
4005 Clear 0 1015 69 10000 2.6 80 23:18 30.04.2020
4006 Clear 1 1015 82 10000 2.6 70 22:40 30.04.2020
4007 Clear 1 1015 64 10000 2.6 80 22:19 30.04.2020
4008 Clear 2 1015 64 10000 2.6 80 21:55 30.04.2020
4009 Clear 2 1015 64 10000 2.1 120 21:37 30.04.2020
4010 Clear 3 1015 55 10000 3.1 110 21:18 30.04.2020
4011 Clear 3 1015 51 10000 4.1 120 20:42 30.04.2020
4012 Clouds 3 1015 51 10000 4.1 120 20:19 30.04.2020
4013 Clouds 4 1015 48 10000 4.1 120 19:58 30.04.2020
4014 Clouds 5 1014 44 10000 4.1 120 19:39 30.04.2020
4015 Clouds 5 1014 44 10000 4.1 120 19:20 30.04.2020
4016 Clouds 5 1014 41 10000 4.1 110 18:55 30.04.2020
4017 Clouds 5 1014 41 10000 4.1 140 18:36 30.04.2020
4018 Clouds 6 1014 38 10000 3.6 130 18:18 30.04.2020
4019 Clouds 6 1014 41 10000 4.6 130 17:41 30.04.2020
4020 Clouds 7 1014 41 10000 4.6 130 17:22 30.04.2020
4021 Clouds 7 1015 41 10000 4.1 130 16:59 30.04.2020
4022 Clouds 7 1015 41 10000 4.6 130 16:40 30.04.2020
4023 Clouds 7 1015 41 10000 3.1 140 16:20 30.04.2020
4024 Clouds 6 1015 41 10000 3.1 140 15:57 30.04.2020
4025 Clouds 6 1015 41 10000 2.6 0 15:39 30.04.2020
4026 Clouds 6 1015 45 10000 3.6 170 15:21 30.04.2020
4027 Clouds 6 1015 44 10000 3.6 160 14:40 30.04.2020
4028 Clouds 6 1015 48 10000 4.6 140 14:20 30.04.2020
4029 Clouds 6 1015 48 10000 4.6 140 13:57 30.04.2020
4030 Clouds 6 1015 48 10000 4.1 160 13:39 30.04.2020
4031 Clouds 6 1015 48 10000 4.1 160 13:20 30.04.2020
4032 Clouds 5 1015 41 10000 2.6 190 12:42 30.04.2020
4033 Clouds 5 1015 41 10000 2.6 190 12:42 30.04.2020
4034 Clouds 6 1015 41 10000 2.6 190 12:21 30.04.2020
4035 Clouds 6 1015 38 10000 1.5 330 11:59 30.04.2020
4036 Clouds 6 1015 41 10000 1.5 40 11:38 30.04.2020
4037 Clouds 5 1015 41 10000 2.6 60 11:18 30.04.2020
4038 Clouds 5 1015 41 10000 2.6 60 11:18 30.04.2020
4039 Clouds 5 1015 41 10000 2.6 60 10:55 30.04.2020
4040 Clouds 5 1015 41 10000 2.6 60 10:55 30.04.2020
4041 Clouds 5 1015 44 10000 1 0 10:37 30.04.2020
4042 Clouds 5 1015 44 10000 1 0 10:18 30.04.2020
4043 Clouds 5 1015 48 10000 3.1 80 09:43 30.04.2020
4044 Clouds 4 1015 48 10000 3.1 80 09:23 30.04.2020
4045 Clear 4 1015 55 10000 2.1 50 08:49 30.04.2020
4046 Clear 3 1015 55 10000 2.1 50 08:27 30.04.2020
4047 Clear 3 1015 59 10000 2.6 40 07:59 30.04.2020
4048 Clear 2 1015 75 10000 2.1 30 07:40 30.04.2020
4049 Clear 1 1015 80 10000 2.1 30 07:22 30.04.2020
4050 Clear 0 1014 74 10000 2.1 10 06:39 30.04.2020
4051 Clear -1 1014 79 10000 1.5 20 05:49 30.04.2020
4052 Clear -2 1014 79 10000 1.5 20 05:27 30.04.2020
4053 Clear -2 1014 79 10000 1.5 20 04:30 30.04.2020
4054 Clear -2 1013 86 10000 1.5 10 02:59 30.04.2020
4055 Clear -2 1013 86 10000 1.5 10 02:29 30.04.2020
4056 Clear -1 1013 86 10000 1.5 10 01:56 30.04.2020
4057 Clouds -1 1012 100 10000 1 330 01:20 30.04.2020
4058 Clouds -1 1012 100 10000 1.5 350 00:37 30.04.2020
4059 Clouds -2 1012 100 10000 1.5 350 00:18 30.04.2020
4060 Clear -1 1012 92 10000 1 0 23:42 29.04.2020
4061 Clear 0 1012 92 10000 1 0 23:24 29.04.2020
4062 Clear 0 1012 92 10000 1 310 22:59 29.04.2020
4063 Clear 1 1011 92 10000 1.5 330 22:39 29.04.2020
4064 Clouds 0 1011 92 10000 1.5 330 22:20 29.04.2020
4065 Clouds 2 1011 74 10000 0.5 50 21:39 29.04.2020
4066 Clouds 2 1011 69 10000 2.1 30 21:21 29.04.2020
4067 Clouds 3 1011 69 10000 2.1 30 20:59 29.04.2020
4068 Clouds 3 1011 69 10000 2.1 30 20:59 29.04.2020
4069 Clouds 3 1011 81 10000 2.1 30 20:40 29.04.2020
4070 Rain 3 1011 79 10000 2.1 30 20:19 29.04.2020
4071 Rain 3 1010 79 10000 0.5 0 19:57 29.04.2020
4072 Rain 4 1010 69 10000 2.1 140 19:39 29.04.2020
4073 Rain 4 1010 74 10000 3.6 70 19:18 29.04.2020
4074 Rain 4 1009 65 10000 1.5 230 18:42 29.04.2020
4075 Rain 4 1009 64 10000 1 0 18:21 29.04.2020
4076 Rain 5 1009 64 10000 1 0 17:56 29.04.2020
4077 Rain 4 1009 69 10000 5.1 340 17:37 29.04.2020
4078 Snow 4 1009 69 10000 5.1 340 17:19 29.04.2020
4079 Rain 5 1008 69 10000 1.5 210 16:38 29.04.2020
4080 Rain 5 1008 69 10000 1.5 210 16:38 29.04.2020
4081 Rain 4 1008 86 10000 1.5 0 16:19 29.04.2020
4082 Clouds 4 1008 69 8000 2.1 0 15:57 29.04.2020
4083 Clouds 4 1008 69 8000 2.1 0 15:39 29.04.2020
4084 Clouds 4 1008 67 8000 2.1 0 15:20 29.04.2020
4085 Clouds 3 1008 66 7000 6.2 20 14:46 29.04.2020
4086 Clouds 3 1008 65 7000 6.2 20 14:27 29.04.2020
4087 Rain 5 1007 60 10000 3.1 50 13:59 29.04.2020
4088 Rain 5 1007 69 10000 3.6 50 13:40 29.04.2020
4089 Rain 5 1007 69 10000 3.6 50 13:20 29.04.2020
4090 Rain 5 1007 69 10000 3.6 50 13:20 29.04.2020
4091 Rain 4 1007 86 10000 4.6 350 12:57 29.04.2020
4092 Snow 5 1006 67 10000 6.2 340 12:38 29.04.2020
4093 Snow 5 1006 69 10000 5.1 330 12:18 29.04.2020
4094 Rain 5 1006 67 10000 3.6 50 11:39 29.04.2020
4095 Rain 5 1006 70 10000 3.6 50 11:20 29.04.2020
4096 Rain 5 1006 70 10000 3.1 10 10:57 29.04.2020
4097 Snow 4 1006 74 10000 4.1 20 10:37 29.04.2020
4098 Snow 4 1006 74 10000 4.1 20 10:37 29.04.2020
4099 Clouds 5 1005 69 10000 4.6 360 10:19 29.04.2020
4100 Clouds 4 1005 73 10000 5.1 360 09:42 29.04.2020
4101 Clouds 3 1005 74 10000 4.6 360 09:22 29.04.2020
4102 Clouds 3 1005 74 10000 4.6 10 08:55 29.04.2020
4103 Clouds 3 1005 74 10000 4.6 10 08:36 29.04.2020
4104 Clouds 2 1004 77 10000 4.6 350 08:18 29.04.2020
4105 Clouds 2 1004 77 10000 4.1 350 07:39 29.04.2020
4106 Clouds 2 1004 82 10000 5.7 350 07:18 29.04.2020
4107 Clouds 1 1003 82 10000 3.6 330 06:48 29.04.2020
4108 Clouds 1 1003 87 10000 3.6 330 06:30 29.04.2020
4109 Clouds 1 1003 90 10000 3.1 340 05:21 29.04.2020
4110 Snow 1 1003 88 10000 3.6 330 04:21 29.04.2020
4111 Snow 1 1002 88 10000 3.6 340 03:59 29.04.2020
4112 Snow 1 1002 87 8000 4.1 360 02:39 29.04.2020
4113 Rain 1 1002 95 6000 3.6 350 01:44 29.04.2020
4114 Rain 1 1002 95 6000 3.6 350 01:20 29.04.2020
4115 Clouds 2 1001 95 10000 4.1 10 00:39 29.04.2020
4116 Clouds 2 1001 94 10000 4.6 10 00:19 29.04.2020
4117 Clouds 2 1001 94 10000 4.1 10 23:47 28.04.2020
4118 Snow 2 1002 93 10000 4.1 10 23:23 28.04.2020
4119 Rain 3 1002 89 10000 4.6 10 22:40 28.04.2020
4120 Rain 3 1002 89 10000 4.6 10 22:22 28.04.2020
4121 Clouds 3 1002 74 10000 4.6 10 21:59 28.04.2020
4122 Rain 3 1002 74 10000 5.1 10 21:41 28.04.2020
4123 Rain 3 1002 74 10000 5.1 10 21:23 28.04.2020
4124 Clouds 4 1002 60 10000 3.1 20 20:59 28.04.2020
4125 Clouds 4 1002 60 10000 3.1 20 20:59 28.04.2020
4126 Clouds 4 1002 60 10000 3.6 20 20:40 28.04.2020
4127 Clouds 4 1002 60 10000 4.6 10 20:21 28.04.2020
4128 Clouds 4 1002 60 10000 4.6 10 19:58 28.04.2020
4129 Clouds 4 1002 55 10000 4.1 60 19:39 28.04.2020
4130 Clouds 4 1002 55 10000 4.1 60 19:20 28.04.2020
4131 Clouds 4 1002 52 10000 4.1 50 18:57 28.04.2020
4132 Clouds 5 1002 56 10000 4.1 70 18:38 28.04.2020
4133 Clouds 4 1003 52 10000 4.1 90 18:18 28.04.2020
4134 Clouds 5 1003 55 10000 3.6 70 17:38 28.04.2020
4135 Clouds 4 1003 55 10000 3.6 70 17:19 28.04.2020
4136 Clouds 4 1003 55 10000 3.6 70 17:19 28.04.2020
4137 Clouds 4 1003 60 10000 3.6 80 16:58 28.04.2020
4138 Clouds 5 1003 60 10000 2.1 130 16:40 28.04.2020
4139 Clouds 5 1003 60 10000 2.1 130 16:22 28.04.2020
4140 Clouds 5 1004 60 10000 5.1 120 15:56 28.04.2020
4141 Clouds 5 1004 60 10000 5.1 120 15:38 28.04.2020
4142 Clouds 5 1004 55 10000 4.6 100 15:20 28.04.2020
4143 Clouds 6 1004 52 10000 4.1 130 14:55 28.04.2020
4144 Clouds 6 1004 52 10000 4.1 130 14:37 28.04.2020
4145 Clouds 6 1004 52 10000 5.1 130 14:18 28.04.2020
4146 Clouds 6 1004 52 10000 5.1 130 13:55 28.04.2020
4147 Clouds 6 1004 41 10000 4.6 110 13:37 28.04.2020
4148 Clouds 6 1005 41 10000 5.1 170 13:19 28.04.2020
4149 Clouds 6 1005 38 10000 3.1 0 12:43 28.04.2020
4150 Clouds 6 1005 38 10000 4.1 110 12:23 28.04.2020
4151 Clouds 6 1005 36 10000 3.6 140 11:43 28.04.2020
4152 Clouds 7 1006 36 10000 2.6 140 11:23 28.04.2020
4153 Clouds 7 1006 36 10000 2.6 140 10:58 28.04.2020
4154 Clouds 7 1006 36 10000 2.6 130 10:38 28.04.2020
4155 Clouds 7 1006 36 10000 2.6 130 10:19 28.04.2020
4156 Clouds 6 1006 41 10000 2.1 150 09:45 28.04.2020
4157 Clouds 6 1006 41 10000 2.1 150 09:26 28.04.2020
4158 Clouds 6 1007 35 10000 2.1 160 08:57 28.04.2020
4159 Clouds 5 1007 56 10000 2.1 140 08:38 28.04.2020
4160 Clouds 5 1007 65 10000 2.1 140 08:20 28.04.2020
4161 Clouds 5 1007 69 10000 1.5 140 07:44 28.04.2020
4162 Clouds 5 1007 72 10000 1.5 140 07:19 28.04.2020
4163 Clouds 4 1007 80 10000 1.5 120 06:43 28.04.2020
4164 Clouds 2 1008 74 10000 1.5 110 05:53 28.04.2020
4165 Clouds 2 1008 74 10000 1.5 60 05:35 28.04.2020
4166 Clouds 2 1008 86 10000 1 80 04:39 28.04.2020
4167 Clouds 2 1009 80 10000 0.5 90 02:39 28.04.2020
4168 Clouds 3 1009 80 10000 1 50 01:58 28.04.2020
4169 Clouds 3 1009 80 10000 1.5 10 01:22 28.04.2020
4170 Clouds 3 1010 74 10000 1.5 210 00:45 28.04.2020
4171 Clouds 3 1010 69 10000 0.5 0 00:18 28.04.2020
4172 Clouds 4 1010 69 10000 1.5 240 23:43 27.04.2020
4173 Clouds 4 1010 69 10000 1.5 240 23:21 27.04.2020
4174 Clouds 3 1010 60 10000 1.5 220 22:43 27.04.2020
4175 Clouds 3 1010 60 10000 1.5 220 22:43 27.04.2020
4176 Clouds 4 1010 60 10000 1.5 220 22:23 27.04.2020
4177 Clouds 4 1010 60 10000 2.1 230 21:58 27.04.2020
4178 Clouds 5 1010 56 10000 2.1 230 21:39 27.04.2020
4179 Clouds 5 1010 56 10000 2.1 230 21:20 27.04.2020
4180 Clouds 5 1010 52 10000 3.6 240 20:58 27.04.2020
4181 Clouds 5 1010 48 10000 3.1 240 20:39 27.04.2020
4182 Clouds 6 1010 48 10000 3.1 240 20:21 27.04.2020
4183 Clouds 6 1010 48 10000 4.1 240 19:57 27.04.2020
4184 Clouds 6 1010 45 10000 2.6 230 19:38 27.04.2020
4185 Clouds 7 1010 33 10000 2.6 360 19:19 27.04.2020
4186 Clouds 7 1010 33 10000 2.6 360 18:56 27.04.2020
4187 Clouds 7 1010 30 10000 2.1 320 18:37 27.04.2020
4188 Clouds 8 1010 31 10000 2.6 300 18:18 27.04.2020
4189 Clouds 8 1010 30 10000 2.1 340 17:41 27.04.2020
4190 Clouds 8 1010 33 10000 3.1 320 17:20 27.04.2020
4191 Clouds 8 1010 33 10000 3.1 320 16:54 27.04.2020
4192 Clouds 8 1010 33 10000 3.1 350 16:36 27.04.2020
4193 Clouds 8 1010 33 10000 2.1 0 16:18 27.04.2020
4194 Clouds 8 1010 33 10000 2.1 0 15:55 27.04.2020
4195 Clouds 8 1010 33 10000 2.6 0 15:36 27.04.2020
4196 Clouds 8 1010 36 10000 3.6 330 15:18 27.04.2020
4197 Clouds 8 1010 30 10000 3.1 10 14:40 27.04.2020
4198 Rain 8 1010 36 10000 4.1 340 14:19 27.04.2020
4199 Rain 8 1010 36 10000 4.1 340 13:57 27.04.2020
4200 Rain 7 1010 33 10000 4.1 330 13:38 27.04.2020
4201 Rain 8 1010 36 10000 3.1 330 13:18 27.04.2020
4202 Rain 7 1010 35 10000 3.6 310 12:43 27.04.2020
4203 Rain 7 1010 35 10000 3.6 310 12:22 27.04.2020
4204 Rain 6 1010 35 10000 5.7 320 11:56 27.04.2020
4205 Clouds 7 1010 38 10000 4.1 340 11:37 27.04.2020
4206 Clouds 6 1010 48 10000 4.1 350 11:18 27.04.2020
4207 Clouds 7 1009 45 10000 4.1 340 10:42 27.04.2020
4208 Clouds 7 1009 45 10000 4.1 340 10:24 27.04.2020
4209 Clouds 6 1009 48 10000 4.6 330 09:58 27.04.2020
4210 Clouds 5 1009 51 10000 4.6 310 09:39 27.04.2020
4211 Clouds 5 1009 51 10000 4.6 310 09:18 27.04.2020
4212 Clouds 4 1009 55 10000 4.1 320 08:52 27.04.2020
4213 Clear 3 1009 55 10000 3.1 320 08:32 27.04.2020
4214 Clear 2 1008 64 10000 4.1 340 07:45 27.04.2020
4215 Clear 2 1008 64 10000 4.1 340 07:25 27.04.2020
4216 Clear 2 1008 69 10000 4.1 320 06:58 27.04.2020
4217 Clear 1 1008 87 10000 3.1 320 06:30 27.04.2020
4218 Clear 0 1008 87 10000 3.1 330 05:56 27.04.2020
4219 Clear 0 1008 87 10000 2.6 330 05:19 27.04.2020
4220 Clear 0 1007 87 10000 3.1 340 04:39 27.04.2020
4221 Clear 1 1007 87 10000 3.1 320 03:45 27.04.2020
4222 Clear 0 1007 87 10000 3.1 320 03:45 27.04.2020
4223 Clouds 1 1007 69 10000 3.1 320 02:30 27.04.2020
4224 Clouds 2 1006 64 10000 3.6 320 01:20 27.04.2020
4225 Clouds 3 1006 64 10000 3.1 320 00:40 27.04.2020
4226 Clouds 3 1006 64 10000 3.1 320 00:40 27.04.2020
4227 Clouds 3 1006 64 10000 3.1 310 00:18 27.04.2020
4228 Clouds 4 1006 64 10000 3.1 310 23:55 26.04.2020
4229 Clouds 4 1005 64 10000 3.1 310 23:36 26.04.2020
4230 Clouds 4 1005 64 10000 3.1 310 23:36 26.04.2020
4231 Clouds 4 1005 60 10000 2.6 310 23:18 26.04.2020
4232 Clouds 4 1005 64 10000 2.6 310 22:40 26.04.2020
4233 Clouds 4 1005 64 10000 3.1 320 22:21 26.04.2020
4234 Clouds 5 1005 64 10000 3.1 320 21:59 26.04.2020
4235 Clouds 5 1005 64 10000 3.1 320 21:59 26.04.2020
4236 Clouds 5 1005 75 10000 2.1 290 21:40 26.04.2020
4237 Clouds 5 1005 75 10000 2.1 290 21:40 26.04.2020
4238 Clouds 5 1005 69 10000 2.1 290 21:19 26.04.2020
4239 Clouds 5 1005 69 10000 1.5 290 20:56 26.04.2020
4240 Clouds 5 1004 60 10000 1.5 310 20:37 26.04.2020
4241 Clouds 5 1004 60 10000 1.5 310 20:19 26.04.2020
4242 Clouds 5 1004 60 10000 2.1 320 20:19 26.04.2020
4243 Clouds 5 1004 60 10000 2.1 320 19:57 26.04.2020
4244 Rain 6 1004 56 10000 2.6 330 19:37 26.04.2020
4245 Rain 6 1004 56 10000 5.1 330 19:19 26.04.2020
4246 Rain 6 1003 56 10000 3.1 280 18:43 26.04.2020
4247 Rain 6 1003 56 10000 3.1 280 18:24 26.04.2020
4248 Rain 6 1003 56 10000 3.1 280 18:24 26.04.2020
4249 Rain 7 1003 48 10000 3.6 270 17:44 26.04.2020
4250 Rain 7 1003 48 10000 3.6 270 17:44 26.04.2020
4251 Rain 8 1003 52 10000 4.1 250 17:24 26.04.2020
4252 Rain 8 1003 52 10000 4.1 250 16:59 26.04.2020
4253 Rain 8 1003 48 10000 5.7 280 16:40 26.04.2020
4254 Rain 8 1003 45 10000 3.6 260 16:20 26.04.2020
4255 Rain 8 1003 45 10000 3.6 260 15:58 26.04.2020
4256 Rain 8 1003 56 10000 5.7 280 15:38 26.04.2020
4257 Rain 8 1003 45 10000 5.7 310 15:19 26.04.2020
4258 Rain 8 1003 42 10000 4.6 310 14:41 26.04.2020
4259 Rain 8 1002 39 10000 4.6 330 14:20 26.04.2020
4260 -273 0 0 0 0 0 13:59 26.04.2020
4261 Rain 8 1002 39 10000 4.6 330 13:59 26.04.2020
4262 Rain 9 1002 36 10000 3.1 300 13:41 26.04.2020
4263 Rain 8 1002 36 10000 3.1 300 13:22 26.04.2020
4264 Clouds 8 1002 33 10000 5.1 280 12:57 26.04.2020
4265 Clouds 8 1002 33 10000 5.1 280 12:39 26.04.2020
4266 Clouds 8 1002 33 10000 5.1 280 12:20 26.04.2020
4267 Clouds 8 1002 31 10000 6.2 280 11:55 26.04.2020
4268 Clouds 8 1002 31 10000 5.1 270 11:37 26.04.2020
4269 Clouds 8 1002 33 10000 4.6 280 11:19 26.04.2020
4270 Clouds 8 1002 33 10000 4.6 280 10:55 26.04.2020
4271 Clouds 8 1002 33 10000 4.1 290 10:36 26.04.2020
4272 Clouds 7 1002 38 10000 2.6 280 10:18 26.04.2020
4273 Clouds 6 1002 41 10000 2.1 270 09:39 26.04.2020
4274 Clouds 5 1002 41 10000 2.1 270 09:20 26.04.2020
4275 Clouds 5 1001 55 10000 2.6 280 08:42 26.04.2020
4276 Clouds 4 1001 55 10000 2.6 280 08:23 26.04.2020
4277 Clouds 2 1001 64 10000 2.1 280 07:50 26.04.2020
4278 Clouds 1 1001 64 10000 2.1 280 07:25 26.04.2020
4279 Clouds 1 1001 80 10000 3.1 280 06:55 26.04.2020
4280 Clouds 0 1001 80 10000 3.1 280 06:32 26.04.2020
4281 Clouds -1 1001 79 10000 3.6 290 05:54 26.04.2020
4282 Clouds -1 1001 79 10000 3.1 280 05:34 26.04.2020
4283 Clouds -2 1001 79 10000 3.1 280 04:42 26.04.2020
4284 Clouds -1 1001 86 10000 3.1 290 03:46 26.04.2020
4285 Clouds 0 1001 86 10000 3.1 310 02:40 26.04.2020
4286 Clouds 0 1001 86 10000 3.6 300 02:19 26.04.2020
4287 Clouds 0 1001 85 10000 3.6 290 01:37 26.04.2020
4288 Clouds 1 1000 74 10000 3.6 290 01:18 26.04.2020
4289 Clouds 2 1000 74 10000 3.1 290 00:37 26.04.2020
4290 Clouds 1 1000 74 10000 3.1 290 00:18 26.04.2020
4291 Clouds 3 1000 74 10000 3.1 270 23:38 25.04.2020
4292 Clouds 3 1000 74 10000 3.1 280 23:19 25.04.2020
4293 Clouds 3 1000 74 10000 3.6 290 22:43 25.04.2020
4294 Clouds 3 1000 69 10000 3.1 280 22:21 25.04.2020
4295 Clouds 3 1000 69 10000 3.1 280 21:59 25.04.2020
4296 Clouds 4 1000 69 10000 4.6 290 21:39 25.04.2020
4297 Clouds 4 1000 69 10000 4.6 290 21:19 25.04.2020
4298 Clouds 4 1000 64 10000 4.1 280 20:55 25.04.2020
4299 Clouds 5 999 60 10000 3.1 260 20:37 25.04.2020
4300 Clouds 5 999 60 10000 3.1 260 20:37 25.04.2020
4301 Clouds 5 999 60 10000 3.1 260 20:18 25.04.2020
4302 Clouds 5 999 60 10000 4.1 280 19:40 25.04.2020
4303 Clouds 5 999 60 10000 4.1 280 19:22 25.04.2020
4304 Clouds 6 999 60 10000 4.6 280 18:57 25.04.2020
4305 Clouds 6 1000 73 10000 6.2 300 18:38 25.04.2020
4306 Clouds 6 1000 65 10000 8.2 290 18:19 25.04.2020
4307 Clouds 6 1000 65 10000 8.2 290 17:55 25.04.2020
4308 Rain 7 1000 45 10000 6.7 280 17:37 25.04.2020
4309 Clouds 8 1000 39 10000 6.2 290 17:18 25.04.2020
4310 Clouds 8 1000 33 10000 4.6 310 16:48 25.04.2020
4311 Clouds 8 1000 33 10000 4.6 310 16:28 25.04.2020
4312 Clouds 8 1000 36 10000 6.2 300 15:58 25.04.2020
4313 Clouds 8 1000 31 10000 5.7 270 15:39 25.04.2020
4314 Clouds 9 1001 35 0 6.63 258 15:19 25.04.2020
4315 Clouds 8 1001 33 10000 4.6 280 14:57 25.04.2020
4316 Clouds 8 1001 33 10000 5.1 260 14:38 25.04.2020
4317 Clouds 9 1001 33 10000 5.7 280 14:19 25.04.2020
4318 Clouds 8 1001 33 10000 6.2 290 13:42 25.04.2020
4319 Clouds 8 1002 33 10000 5.7 250 13:19 25.04.2020
4320 Clouds 7 1002 33 10000 5.7 250 12:58 25.04.2020
4321 Clouds 7 1002 35 10000 5.7 300 12:39 25.04.2020
4322 Clear 7 1002 35 10000 5.7 300 12:20 25.04.2020
4323 Clear 6 1002 35 10000 4.1 310 11:55 25.04.2020
4324 Clear 6 1002 35 10000 4.6 340 11:37 25.04.2020
4325 Clear 6 1002 35 10000 4.6 340 11:19 25.04.2020
4326 Clouds 5 1003 40 10000 5.1 330 10:42 25.04.2020
4327 Clouds 5 1003 40 10000 5.1 330 10:22 25.04.2020
4328 Clouds 4 1003 43 10000 4.6 350 09:47 25.04.2020
4329 Clouds 3 1003 43 10000 4.6 350 09:27 25.04.2020
4330 Clouds 3 1003 47 10000 4.6 340 08:57 25.04.2020
4331 Clear 2 1003 50 10000 4.1 340 08:38 25.04.2020
4332 Clear 2 1003 50 10000 4.1 330 08:20 25.04.2020
4333 Clear 2 1003 50 10000 4.1 340 08:20 25.04.2020
4334 Clear 1 1003 78 10000 3.1 340 07:46 25.04.2020
4335 Clear 1 1003 63 10000 3.1 330 07:24 25.04.2020
4336 Clear 0 1003 68 10000 3.1 320 06:44 25.04.2020
4337 Clear -1 1003 68 10000 2.6 320 05:56 25.04.2020
4338 Clear -2 1003 68 10000 2.6 320 05:31 25.04.2020
4339 Clear -2 1003 63 10000 3.1 340 04:42 25.04.2020
4340 Clear -1 1003 58 10000 3.6 340 02:59 25.04.2020
4341 Clouds -1 1002 58 10000 3.1 340 02:20 25.04.2020
4342 Clouds 0 1002 43 10000 4.6 340 01:50 25.04.2020
4343 Clouds 1 1002 43 10000 4.6 340 01:27 25.04.2020
4344 Clouds 1 1002 37 10000 4.6 350 00:50 25.04.2020
4345 Clouds 1 1002 37 10000 4.6 350 00:29 25.04.2020
4346 Clouds 3 1001 34 10000 5.1 350 23:43 24.04.2020
4347 Clouds 3 1001 44 10000 4.6 330 23:22 24.04.2020
4348 Clouds 3 1001 44 10000 4.6 330 22:54 24.04.2020
4349 Clouds 3 1001 44 10000 4.6 330 22:54 24.04.2020
4350 Clouds 4 1001 47 10000 4.1 320 22:36 24.04.2020
4351 Clouds 3 1001 51 10000 3.6 310 22:18 24.04.2020
4352 Clouds 4 1001 51 10000 3.6 310 21:54 24.04.2020
4353 Clouds 5 1001 48 10000 4.1 330 21:36 24.04.2020
4354 Clouds 5 1001 44 10000 3.6 330 21:18 24.04.2020
4355 Clouds 6 1001 48 10000 5.1 320 20:42 24.04.2020
4356 Clouds 7 1001 56 10000 3.6 300 20:19 24.04.2020
4357 Clouds 7 1001 56 10000 3.6 300 19:58 24.04.2020
4358 Clouds 7 1001 52 10000 3.6 320 19:38 24.04.2020
4359 Clouds 7 1001 52 10000 4.6 330 19:20 24.04.2020
4360 Clouds 8 1001 48 10000 6.2 340 18:43 24.04.2020
4361 Clouds 8 1001 48 10000 6.2 340 18:25 24.04.2020
4362 Rain 8 1001 52 10000 5.7 330 17:54 24.04.2020
4363 Rain 8 1001 62 10000 5.1 340 17:36 24.04.2020
4364 Rain 8 1001 62 10000 4.6 340 17:18 24.04.2020
4365 Rain 8 1001 62 10000 4.6 340 16:55 24.04.2020
4366 Rain 8 1001 65 10000 9.3 340 16:37 24.04.2020
4367 Rain 8 1001 65 10000 9.3 340 16:19 24.04.2020
4368 Rain 8 1001 52 10000 4.1 320 16:19 24.04.2020
4369 Rain 9 1001 49 10000 4.6 320 15:40 24.04.2020
4370 Rain 9 1001 49 10000 4.6 320 15:20 24.04.2020
4371 Rain 9 1002 49 10000 6.2 340 14:41 24.04.2020
4372 Rain 9 1002 49 10000 6.2 340 14:22 24.04.2020
4373 Rain 9 1002 49 10000 6.7 340 13:59 24.04.2020
4374 Rain 9 1002 49 10000 7.7 330 13:40 24.04.2020
4375 Rain 9 1002 49 10000 7.7 330 13:20 24.04.2020
4376 Clouds 9 1002 49 10000 5.7 310 12:46 24.04.2020
4377 Clouds 9 1002 49 10000 5.7 310 12:26 24.04.2020
4378 Clouds 9 1002 71 10000 5.7 330 11:59 24.04.2020
4379 Clouds 9 1002 71 10000 6.2 300 11:40 24.04.2020
4380 Clouds 9 1002 71 10000 6.2 300 11:21 24.04.2020
4381 Clouds 9 1002 61 10000 5.1 290 10:57 24.04.2020
4382 Clouds 8 1002 61 10000 5.1 290 10:38 24.04.2020
4383 Clouds 8 1002 71 10000 6.7 310 10:19 24.04.2020
4384 Clouds 8 1002 71 10000 6.7 310 10:19 24.04.2020
4385 Clouds 8 1002 71 10000 6.7 310 10:19 24.04.2020
4386 Clouds 7 1003 70 10000 6.2 300 09:54 24.04.2020
4387 Clouds 7 1003 70 10000 6.2 300 09:36 24.04.2020
4388 Clouds 7 1003 75 10000 4.6 300 09:18 24.04.2020
4389 Clouds 6 1003 78 10000 5.1 310 08:41 24.04.2020
4390 Clouds 6 1003 78 10000 5.1 310 08:19 24.04.2020
4391 Clouds 5 1003 78 10000 4.1 300 07:47 24.04.2020
4392 Clouds 5 1003 78 10000 4.1 300 07:27 24.04.2020
4393 Clouds 5 1003 69 10000 4.1 300 06:59 24.04.2020
4394 Clouds 5 1004 69 10000 4.6 300 06:40 24.04.2020
4395 Clouds 4 1004 64 10000 5.1 310 05:49 24.04.2020
4396 Clouds 4 1005 64 10000 4.1 300 04:46 24.04.2020
4397 Clouds 4 1005 64 10000 4.1 280 03:28 24.04.2020
4398 Clouds 5 1006 69 10000 2.1 290 02:47 24.04.2020
4399 Clouds 5 1007 69 10000 1 320 02:20 24.04.2020
4400 Clouds 5 1007 56 10000 1 320 01:37 24.04.2020
4401 Clouds 5 1008 64 10000 2.1 310 00:43 24.04.2020
4402 Clouds 5 1008 64 10000 2.1 320 00:18 24.04.2020
4403 Clouds 5 1008 69 10000 2.1 330 23:45 23.04.2020
4404 Clouds 5 1008 69 10000 2.1 330 23:26 23.04.2020
4405 Clouds 5 1008 64 10000 2.1 350 22:55 23.04.2020
4406 Clouds 5 1009 64 10000 2.1 350 22:37 23.04.2020
4407 Clouds 5 1009 60 10000 2.1 340 22:19 23.04.2020
4408 Clouds 6 1009 60 10000 2.1 340 21:56 23.04.2020
4409 Clouds 6 1009 52 10000 1.5 340 21:38 23.04.2020
4410 Clouds 7 1009 52 10000 1.5 340 21:20 23.04.2020
4411 Clouds 8 1010 34 10000 3.1 340 20:54 23.04.2020
4412 Clouds 9 1010 34 10000 3.1 340 20:36 23.04.2020
4413 Clouds 9 1010 29 10000 3.1 350 20:18 23.04.2020
4414 Clouds 10 1010 27 10000 4.6 350 19:42 23.04.2020
4415 Clouds 11 1011 32 10000 5.1 340 19:22 23.04.2020
4416 Clouds 11 1011 32 10000 5.1 340 18:58 23.04.2020
4417 Clouds 12 1011 32 10000 5.7 330 18:39 23.04.2020
4418 Clouds 12 1011 30 10000 5.1 330 18:21 23.04.2020
4419 Clouds 12 1011 30 10000 5.1 330 17:56 23.04.2020
4420 Clouds 13 1011 30 10000 5.1 320 17:38 23.04.2020
4421 Clouds 13 1012 28 10000 4.6 310 17:19 23.04.2020
4422 Clouds 13 1012 28 10000 5.7 320 16:43 23.04.2020
4423 Clouds 14 1013 30 10000 4.1 330 16:21 23.04.2020
4424 Clouds 13 1013 28 10000 5.1 340 15:43 23.04.2020
4425 Clouds 13 1013 28 10000 4.1 310 15:24 23.04.2020
4426 Clouds 14 1013 28 10000 4.1 310 14:59 23.04.2020
4427 Clouds 14 1014 28 10000 3.6 330 14:40 23.04.2020
4428 Clouds 13 1014 30 10000 4.6 350 14:21 23.04.2020
4429 Clouds 13 1014 30 10000 4.6 350 13:58 23.04.2020
4430 Clouds 12 1015 34 10000 5.1 320 13:39 23.04.2020
4431 Clouds 12 1015 37 10000 4.1 320 13:20 23.04.2020
4432 Clouds 12 1015 34 10000 4.6 310 12:56 23.04.2020
4433 Clouds 12 1015 34 10000 4.6 310 12:38 23.04.2020
4434 Clouds 12 1015 40 10000 4.6 300 12:19 23.04.2020
4435 Clouds 12 1016 43 10000 3.6 310 11:46 23.04.2020
4436 Clouds 11 1016 43 10000 3.6 310 11:27 23.04.2020
4437 Clouds 11 1016 46 10000 3.6 310 10:56 23.04.2020
4438 Clouds 11 1016 46 10000 3.1 320 10:38 23.04.2020
4439 Clouds 11 1016 46 10000 3.1 320 10:19 23.04.2020
4440 Clouds 9 1017 49 10000 1 0 09:38 23.04.2020
4441 Clouds 9 1017 49 10000 1 0 09:18 23.04.2020
4442 Clouds 7 1018 60 10000 2.1 340 08:47 23.04.2020
4443 Clouds 7 1018 60 10000 2.1 340 08:29 23.04.2020
4444 Clouds 5 1018 69 10000 1.5 320 07:45 23.04.2020
4445 Clouds 5 1018 69 10000 1.5 320 07:24 23.04.2020
4446 Clouds 4 1018 74 10000 2.1 330 06:57 23.04.2020
4447 Clouds 3 1018 86 10000 2.6 320 06:39 23.04.2020
4448 Clouds 2 1018 79 10000 2.1 290 05:32 23.04.2020
4449 Clouds 2 1019 80 10000 2.1 310 04:54 23.04.2020
4450 Clear 2 1020 73 10000 2.6 320 02:41 23.04.2020
4451 Clear 2 1020 73 10000 2.6 320 02:22 23.04.2020
4452 Clear 3 1020 73 10000 1.5 300 01:35 23.04.2020
4453 Clear 4 1020 74 10000 2.1 350 00:49 23.04.2020
4454 Clear 4 1020 80 10000 2.1 330 00:24 23.04.2020
4455 Clear 5 1020 69 10000 3.1 290 23:53 22.04.2020
4456 Clear 5 1020 69 10000 3.1 290 23:26 22.04.2020
4457 Clear 5 1021 80 10000 1 0 22:58 22.04.2020
4458 Clear 5 1021 65 10000 2.1 240 22:39 22.04.2020
4459 Clear 5 1021 77 10000 2.1 240 22:19 22.04.2020
4460 Clear 5 1021 77 10000 2.1 240 21:56 22.04.2020
4461 Clear 5 1021 77 10000 2.1 220 21:38 22.04.2020
4462 Clouds 6 1022 56 10000 1 0 21:20 22.04.2020
4463 Clouds 7 1022 56 10000 1 0 20:54 22.04.2020
4464 Clouds 7 1022 52 10000 2.6 190 20:36 22.04.2020
4465 Clouds 8 1022 52 10000 2.6 190 20:18 22.04.2020
4466 Clouds 9 1022 49 10000 3.6 190 19:54 22.04.2020
4467 Clouds 9 1022 49 10000 3.6 190 19:54 22.04.2020
4468 Clouds 9 1022 49 10000 3.6 190 19:36 22.04.2020
4469 Clouds 9 1022 49 10000 3.6 190 19:36 22.04.2020
4470 Clouds 9 1022 46 10000 4.1 190 19:18 22.04.2020
4471 Clouds 9 1022 46 10000 4.1 190 19:18 22.04.2020
4472 Clouds 10 1022 46 10000 4.1 190 18:55 22.04.2020
4473 Clouds 10 1023 46 10000 5.1 190 18:36 22.04.2020
4474 Clouds 10 1023 40 10000 4.6 190 18:18 22.04.2020
4475 Clouds 11 1024 43 10000 4.6 190 17:42 22.04.2020
4476 Clouds 11 1024 43 10000 5.1 180 17:23 22.04.2020
4477 Clouds 12 1025 43 10000 4.6 180 16:46 22.04.2020
4478 Clouds 11 1025 43 10000 4.6 180 16:28 22.04.2020
4479 Clouds 11 1025 43 10000 5.1 180 15:54 22.04.2020
4480 Clouds 11 1025 43 10000 5.1 180 15:54 22.04.2020
4481 Clouds 11 1026 40 10000 4.1 180 15:36 22.04.2020
4482 Clear 12 1026 40 10000 4.1 190 15:18 22.04.2020
4483 Clear 12 1026 40 10000 4.1 190 14:55 22.04.2020
4484 Clear 12 1027 43 10000 4.6 180 14:36 22.04.2020
4485 Clear 11 1027 43 10000 4.6 180 14:18 22.04.2020
4486 Clear 12 1027 40 10000 4.6 180 13:43 22.04.2020
4487 Clear 12 1028 43 10000 4.1 150 13:20 22.04.2020
4488 Clear 11 1028 34 10000 2.6 0 12:42 22.04.2020
4489 Clear 12 1028 34 10000 2.6 0 12:23 22.04.2020
4490 Clear 11 1028 37 10000 3.1 290 11:58 22.04.2020
4491 Clear 11 1029 39 10000 2.1 0 11:38 22.04.2020
4492 Clear 11 1029 39 10000 2.1 0 11:18 22.04.2020
4493 Clear 11 1029 43 10000 2.1 0 10:42 22.04.2020
4494 Clear 11 1029 43 10000 2.1 0 10:24 22.04.2020
4495 Clear 10 1029 45 10000 2.6 60 09:43 22.04.2020
4496 Clear 9 1029 49 10000 3.6 70 09:24 22.04.2020
4497 Clear 9 1029 49 10000 3.6 70 08:59 22.04.2020
4498 Clear 9 1029 49 10000 3.6 70 08:59 22.04.2020
4499 Clear 9 1030 52 10000 4.1 60 08:41 22.04.2020
4500 Clear 9 1030 52 10000 4.1 60 08:41 22.04.2020
4501 Clear 8 1030 52 10000 4.1 60 08:23 22.04.2020
4502 Clear 7 1030 60 10000 4.6 40 07:54 22.04.2020
4503 Clear 7 1030 60 10000 4.6 40 07:33 22.04.2020
4504 Clear 6 1029 60 10000 3.1 40 06:59 22.04.2020
4505 Clear 5 1029 69 10000 2.6 40 06:39 22.04.2020
4506 Clear 4 1029 64 10000 3.1 40 05:39 22.04.2020
4507 Clear 5 1029 60 10000 5.1 50 04:34 22.04.2020
4508 Clear 5 1028 60 10000 4.1 10 02:59 22.04.2020
4509 Clear 4 1027 74 10000 0.5 0 01:56 22.04.2020
4510 Clear 4 1027 74 10000 0.5 0 01:38 22.04.2020
4511 Clear 4 1027 74 10000 1 0 01:19 22.04.2020
4512 Clear 5 1027 69 10000 1.5 300 00:41 22.04.2020
4513 Clear 5 1027 80 10000 3.09 346 00:20 22.04.2020
4514 Clear 6 1027 69 10000 1 0 23:44 21.04.2020
4515 Clear 5 1027 69 10000 1 0 23:21 21.04.2020
4516 Clear 5 1027 74 10000 1 300 22:55 21.04.2020
4517 Clear 6 1027 69 10000 1 0 22:37 21.04.2020
4518 Clear 6 1027 65 10000 1 0 22:19 21.04.2020
4519 Clear 7 1027 75 10000 1 0 21:42 21.04.2020
4520 Clear 8 1027 68 10000 1 0 21:23 21.04.2020
4521 Clear 9 1027 49 10000 1.5 320 20:58 21.04.2020
4522 Clear 10 1027 37 10000 2.6 330 20:40 21.04.2020
4523 Clear 11 1027 30 10000 2.6 330 20:21 21.04.2020
4524 Clear 13 1027 28 10000 4.6 310 19:41 21.04.2020
4525 Clear 14 1027 30 10000 5.1 330 19:20 21.04.2020
4526 Clear 14 1027 30 10000 5.1 330 18:59 21.04.2020
4527 Clear 14 1027 28 10000 6.2 330 18:39 21.04.2020
4528 Clear 14 1027 28 10000 6.2 330 18:39 21.04.2020
4529 Clear 15 1027 26 10000 6.7 320 18:19 21.04.2020
4530 Clear 15 1027 26 10000 6.7 320 17:59 21.04.2020
4531 Clear 15 1027 26 10000 6.7 340 17:39 21.04.2020
4532 Clear 15 1027 26 10000 6.2 320 17:19 21.04.2020
4533 Clear 15 1027 26 10000 6.7 340 17:19 21.04.2020
4534 Clear 15 1027 22 10000 4.6 330 16:54 21.04.2020
4535 Clear 15 1027 22 10000 4.6 330 16:36 21.04.2020
4536 Clear 15 1027 24 10000 5.7 320 16:18 21.04.2020
4537 Clear 15 1027 22 10000 4.1 340 15:42 21.04.2020
4538 Clouds 15 1028 22 10000 5.7 340 15:23 21.04.2020
4539 Clouds 15 1028 22 10000 5.7 340 14:58 21.04.2020
4540 Clouds 14 1028 22 10000 5.1 320 14:40 21.04.2020
4541 Clouds 14 1028 22 10000 5.1 320 14:22 21.04.2020
4542 Clouds 14 1028 24 10000 4.1 320 13:54 21.04.2020
4543 Clouds 13 1028 28 10000 5.7 310 13:36 21.04.2020
4544 Clouds 13 1029 32 10000 5.7 320 13:18 21.04.2020
4545 Clouds 13 1029 40 10000 5.1 340 12:38 21.04.2020
4546 Clouds 12 1029 32 10000 5.1 360 12:19 21.04.2020
4547 Clouds 12 1029 32 10000 5.1 360 11:57 21.04.2020
4548 Clouds 12 1029 37 10000 4.6 350 11:38 21.04.2020
4549 Clouds 11 1029 40 10000 5.1 10 11:18 21.04.2020
4550 Clouds 12 1029 65 10000 4.6 350 10:57 21.04.2020
4551 Clouds 11 1029 65 10000 4.6 350 10:39 21.04.2020
4552 Clouds 11 1029 65 10000 4.6 350 10:20 21.04.2020
4553 Clouds 9 1029 57 10000 4.1 350 09:38 21.04.2020
4554 Clouds 9 1029 57 10000 4.1 350 09:20 21.04.2020
4555 Clouds 8 1029 57 10000 4.1 10 08:58 21.04.2020
4556 Clouds 7 1029 65 10000 3.6 350 08:39 21.04.2020
4557 Clouds 8 1029 65 10000 4.1 340 08:19 21.04.2020
4558 Clouds 7 1029 65 10000 4.1 340 07:49 21.04.2020
4559 Clouds 6 1029 80 10000 4.1 340 07:24 21.04.2020
4560 Clouds 5 1029 80 10000 4.1 340 06:50 21.04.2020
4561 Clouds 4 1029 86 10000 3.6 340 06:22 21.04.2020
4562 Clouds 4 1028 80 10000 4.1 340 05:49 21.04.2020
4563 Clouds 5 1028 75 10000 3.6 350 04:24 21.04.2020
4564 Clouds 5 1028 65 10000 3.1 350 03:45 21.04.2020
4565 Clouds 6 1027 61 10000 4.1 360 01:46 21.04.2020
4566 Clouds 7 1027 61 10000 4.1 360 01:28 21.04.2020
4567 Clouds 8 1027 57 10000 5.1 10 00:37 21.04.2020
4568 Rain 9 1026 61 10000 5.1 360 23:47 20.04.2020
4569 Rain 9 1026 61 10000 5.1 360 23:25 20.04.2020
4570 Clouds 10 1026 57 10000 4.6 350 22:58 20.04.2020
4571 Clouds 10 1026 61 10000 4.1 350 22:39 20.04.2020
4572 Clouds 10 1026 61 10000 4.1 350 22:21 20.04.2020
4573 Rain 9 1025 66 10000 2.6 270 21:58 20.04.2020
4574 Clouds 10 1025 61 10000 3.1 230 21:39 20.04.2020
4575 Clouds 10 1025 61 10000 3.1 230 21:19 20.04.2020
4576 Clouds 10 1025 61 10000 2.1 230 20:58 20.04.2020
4577 Clouds 10 1025 70 10000 2.89 294 20:39 20.04.2020
4578 Clouds 10 1025 61 10000 2.89 294 20:19 20.04.2020
4579 Clouds 10 1025 61 10000 2.89 294 19:58 20.04.2020
4580 Clouds 10 1024 53 10000 2.89 294 19:39 20.04.2020
4581 Clouds 11 1024 50 10000 1 0 19:19 20.04.2020
4582 Clouds 12 1024 46 10000 1.5 10 18:43 20.04.2020
4583 Clouds 12 1024 46 10000 1.5 10 18:24 20.04.2020
4584 Clouds 12 1024 46 10000 2.1 340 17:58 20.04.2020
4585 Clouds 12 1024 50 10000 2.1 310 17:39 20.04.2020
4586 Clouds 12 1024 50 10000 2.1 310 17:21 20.04.2020
4587 Clouds 12 1024 50 10000 3.6 330 16:59 20.04.2020
4588 Clouds 12 1024 53 10000 3.1 320 16:39 20.04.2020
4589 Clouds 12 1025 53 10000 4.6 340 16:19 20.04.2020
4590 Clouds 12 1025 50 10000 4.6 350 15:45 20.04.2020
4591 Clouds 12 1025 57 10000 4.6 330 15:24 20.04.2020
4592 Clouds 11 1025 57 10000 4.6 330 14:58 20.04.2020
4593 Clouds 11 1025 53 10000 5.1 340 14:40 20.04.2020
4594 Clouds 11 1025 57 10000 5.1 340 14:19 20.04.2020
4595 Clouds 11 1025 57 10000 5.1 340 13:54 20.04.2020
4596 Clouds 11 1025 57 10000 5.1 340 13:54 20.04.2020
4597 Clouds 11 1025 57 10000 5.1 340 13:54 20.04.2020
4598 Clouds 11 1024 53 10000 5.7 360 13:36 20.04.2020
4599 Clouds 11 1024 53 10000 6.2 330 13:18 20.04.2020
4600 Clouds 11 1024 53 10000 6.2 340 12:42 20.04.2020
4601 Clouds 10 1024 53 10000 6.2 340 12:21 20.04.2020
4602 Clouds 10 1024 53 10000 6.2 350 11:42 20.04.2020
4603 Clouds 10 1024 53 10000 6.2 350 11:22 20.04.2020
4604 Clouds 10 1024 53 10000 6.7 330 10:57 20.04.2020
4605 Clouds 10 1023 53 10000 5.1 330 10:39 20.04.2020
4606 Clouds 10 1023 53 10000 5.1 330 10:20 20.04.2020
4607 Clouds 10 1024 53 10000 5.7 330 09:58 20.04.2020
4608 Clouds 9 1024 73 10000 4.6 340 09:39 20.04.2020
4609 Clouds 8 1024 80 10000 4.6 340 09:21 20.04.2020
4610 Clouds 7 1023 65 10000 5.7 340 08:41 20.04.2020
4611 Clouds 6 1023 80 10000 5.1 330 08:23 20.04.2020
4612 Clouds 6 1023 70 10000 3.6 320 07:53 20.04.2020
4613 Clouds 6 1023 70 10000 3.6 320 07:29 20.04.2020
4614 Clouds 6 1023 70 10000 3.6 320 07:29 20.04.2020
4615 Clouds 5 1023 80 10000 3.6 320 06:58 20.04.2020
4616 Clouds 5 1023 85 10000 3.6 320 06:36 20.04.2020
4617 Clouds 5 1022 85 10000 3.1 300 05:44 20.04.2020
4618 Clouds 5 1022 85 10000 3.1 310 04:28 20.04.2020
4619 Clouds 5 1022 80 10000 2.6 310 02:47 20.04.2020
4620 Clouds 5 1022 81 10000 3.1 310 01:56 20.04.2020
4621 Clouds 5 1022 81 10000 2.6 310 01:28 20.04.2020
4622 Clouds 6 1021 81 10000 3.1 310 00:39 20.04.2020
4623 Clouds 6 1021 60 10000 3.1 300 23:59 19.04.2020
4624 Clouds 6 1021 76 10000 3.1 310 23:39 19.04.2020
4625 Clouds 6 1021 76 10000 3.1 310 23:20 19.04.2020
4626 Clouds 6 1021 76 10000 2.1 270 22:44 19.04.2020
4627 Clouds 6 1021 76 10000 2.1 270 22:24 19.04.2020
4628 -273 0 0 0 0 0 21:59 19.04.2020
4629 Clouds 6 1021 65 10000 1.5 300 21:41 19.04.2020
4630 Clouds 6 1021 65 10000 1.5 300 21:41 19.04.2020
4631 Clouds 6 1020 70 10000 1 310 21:22 19.04.2020
4632 Clouds 7 1020 70 10000 1 310 20:56 19.04.2020
4633 Clouds 7 1020 60 10000 1 330 20:38 19.04.2020
4634 Clouds 7 1020 48 10000 1.5 360 20:20 19.04.2020
4635 Clouds 8 1020 48 10000 1.5 360 19:55 19.04.2020
4636 Clouds 8 1020 45 10000 3.6 10 19:37 19.04.2020
4637 Clouds 8 1020 45 10000 4.6 350 19:19 19.04.2020
4638 Clouds 9 1020 42 10000 3.1 340 18:54 19.04.2020
4639 Clouds 9 1020 42 10000 3.1 340 18:36 19.04.2020
4640 Clouds 9 1020 45 10000 4.6 340 18:18 19.04.2020
4641 Clouds 9 1019 42 10000 5.1 330 17:41 19.04.2020
4642 Clouds 9 1019 42 10000 5.1 330 17:23 19.04.2020
4643 Clouds 9 1020 39 10000 5.7 320 16:59 19.04.2020
4644 Clouds 10 1020 39 10000 4.1 330 16:39 19.04.2020
4645 Clouds 10 1020 39 10000 4.1 320 16:21 19.04.2020
4646 Clouds 10 1019 39 10000 4.6 330 15:54 19.04.2020
4647 Clouds 10 1019 39 10000 4.6 330 15:36 19.04.2020
4648 Clouds 9 1019 39 10000 4.6 330 15:18 19.04.2020
4649 Clouds 9 1019 39 10000 4.1 320 14:38 19.04.2020
4650 Clouds 9 1019 39 10000 4.1 320 14:20 19.04.2020
4651 Clouds 9 1019 42 10000 4.1 320 13:54 19.04.2020
4652 Clouds 8 1019 42 10000 4.6 320 13:36 19.04.2020
4653 Clouds 8 1019 45 10000 4.1 340 13:18 19.04.2020
4654 Clouds 8 1019 45 10000 6.2 330 12:42 19.04.2020
4655 Clouds 8 1019 45 10000 5.7 330 12:23 19.04.2020
4656 Clouds 7 1019 48 10000 6.2 340 11:39 19.04.2020
4657 Clouds 7 1019 52 10000 5.1 340 11:20 19.04.2020
4658 Clouds 6 1019 52 10000 5.1 340 10:59 19.04.2020
4659 Clouds 6 1019 56 10000 5.1 350 10:40 19.04.2020
4660 Clouds 5 1019 60 10000 5.7 320 10:20 19.04.2020
4661 Clouds 5 1018 64 10000 4.6 330 09:47 19.04.2020
4662 Clouds 4 1018 64 10000 4.6 330 09:28 19.04.2020
4663 Clear 4 1018 64 10000 5.1 330 08:59 19.04.2020
4664 Clear 3 1018 69 10000 4.6 330 08:38 19.04.2020
4665 Clear 3 1018 69 10000 4.6 340 08:18 19.04.2020
4666 Clear 3 1017 69 10000 5.1 340 07:44 19.04.2020
4667 Clear 3 1017 69 10000 5.1 340 07:25 19.04.2020
4668 Clear 3 1017 69 10000 5.1 340 07:25 19.04.2020
4669 Clear 2 1017 74 10000 4.6 330 06:37 19.04.2020
4670 Clear 1 1016 74 10000 4.1 330 06:18 19.04.2020
4671 Clear 2 1016 69 10000 4.6 340 04:56 19.04.2020
4672 Clouds 3 1015 64 10000 5.7 340 03:21 19.04.2020
4673 Clouds 3 1014 59 10000 5.1 330 02:22 19.04.2020
4674 Clouds 3 1014 59 10000 4.6 330 01:39 19.04.2020
4675 Clouds 3 1014 59 10000 4.6 330 01:18 19.04.2020
4676 Clouds 4 1013 55 10000 4.6 330 00:38 19.04.2020
4677 Clouds 4 1013 51 10000 5.7 330 00:19 19.04.2020
4678 Clouds 4 1013 51 10000 4.6 340 23:40 18.04.2020
4679 Clouds 4 1013 51 10000 4.6 340 23:19 18.04.2020
4680 Clouds 4 1013 51 10000 4.6 330 22:43 18.04.2020
4681 Clouds 4 1013 51 10000 4.6 330 22:23 18.04.2020
4682 Clouds 5 1012 48 10000 6.7 340 21:58 18.04.2020
4683 Clouds 5 1012 48 10000 5.1 340 21:38 18.04.2020
4684 Clouds 5 1012 48 10000 6.7 340 21:20 18.04.2020
4685 Clouds 5 1012 48 10000 6.7 340 20:54 18.04.2020
4686 Clouds 6 1011 41 10000 7.7 340 20:36 18.04.2020
4687 Clouds 6 1011 41 10000 7.2 340 20:18 18.04.2020
4688 Clouds 6 1011 42 10000 5.7 330 19:40 18.04.2020
4689 Clouds 7 1011 42 10000 5.7 330 19:22 18.04.2020
4690 Clouds 7 1010 36 10000 8.2 320 18:39 18.04.2020
4691 Clouds 8 1010 36 10000 8.7 320 18:20 18.04.2020
4692 Clouds 9 1010 36 10000 8.7 320 17:56 18.04.2020
4693 Clouds 9 1010 39 10000 8.2 330 17:38 18.04.2020
4694 Clouds 9 1010 39 10000 8.2 320 17:18 18.04.2020
4695 Clouds 9 1010 39 10000 8.2 330 16:42 18.04.2020
4696 Clouds 9 1010 39 10000 8.7 310 16:22 18.04.2020
4697 Clouds 9 1010 39 10000 8.7 320 15:55 18.04.2020
4698 Clouds 9 1010 39 10000 8.7 320 15:37 18.04.2020
4699 Clouds 9 1010 42 10000 8.7 310 15:19 18.04.2020
4700 Clouds 9 1010 36 10000 8.2 310 14:42 18.04.2020
4701 Clouds 9 1010 36 10000 8.2 310 14:19 18.04.2020
4702 Clouds 9 1010 39 10000 9.3 310 13:43 18.04.2020
4703 Clouds 9 1010 39 10000 9.3 310 13:43 18.04.2020
4704 Clouds 8 1010 39 10000 9.3 310 13:21 18.04.2020
4705 Clouds 8 1010 42 10000 9.3 320 12:43 18.04.2020
4706 Clouds 8 1010 42 10000 9.3 320 12:25 18.04.2020
4707 Clouds 8 1010 42 10000 9.8 320 11:59 18.04.2020
4708 Clouds 8 1010 45 10000 8.7 310 11:40 18.04.2020
4709 Clouds 7 1010 45 10000 8.7 310 11:21 18.04.2020
4710 Clouds 7 1010 48 10000 8.2 320 10:54 18.04.2020
4711 Clouds 7 1010 48 10000 7.7 300 10:36 18.04.2020
4712 Clouds 6 1010 48 10000 8.2 320 10:18 18.04.2020
4713 Clouds 5 1010 52 10000 7.2 320 09:40 18.04.2020
4714 Clouds 5 1010 52 10000 7.7 300 09:20 18.04.2020
4715 Clouds 4 1010 60 10000 6.2 310 08:43 18.04.2020
4716 Clouds 3 1010 64 10000 5.1 320 08:22 18.04.2020
4717 Clouds 2 1009 64 10000 6.2 310 07:49 18.04.2020
4718 Clouds 2 1009 64 10000 6.2 310 07:29 18.04.2020
4719 Clouds 2 1009 64 10000 7.2 310 06:49 18.04.2020
4720 Clear 2 1009 64 10000 7.2 310 05:49 18.04.2020
4721 Clear 1 1009 64 10000 6.7 300 04:56 18.04.2020
4722 Clear 1 1008 64 10000 6.7 290 04:31 18.04.2020
4723 Clear 1 1008 59 10000 5.7 290 03:43 18.04.2020
4724 Clouds 2 1008 59 10000 6.2 290 02:42 18.04.2020
4725 Clouds 2 1008 59 10000 6.2 290 02:21 18.04.2020
4726 Clouds 2 1008 59 10000 6.2 290 02:21 18.04.2020
4727 Clouds 2 1008 59 10000 5.1 290 01:45 18.04.2020
4728 Clouds 2 1007 59 10000 5.1 290 01:22 18.04.2020
4729 Clouds 2 1007 55 10000 5.7 290 00:37 18.04.2020
4730 Clouds 3 1007 55 10000 6.2 290 00:18 18.04.2020
4731 Clouds 3 1007 51 10000 5.7 290 23:41 17.04.2020
4732 Clouds 3 1007 51 10000 5.7 290 23:20 17.04.2020
4733 Clouds 4 1007 51 10000 5.7 290 22:58 17.04.2020
4734 Clouds 4 1007 51 10000 5.1 300 22:40 17.04.2020
4735 Clouds 4 1007 55 10000 5.1 310 22:20 17.04.2020
4736 Clouds 4 1007 55 10000 5.1 310 21:58 17.04.2020
4737 Clouds 5 1007 55 10000 5.7 310 21:39 17.04.2020
4738 Clouds 5 1007 48 10000 6.2 310 21:19 17.04.2020
4739 Clouds 5 1007 48 10000 6.2 310 20:55 17.04.2020
4740 Clouds 5 1006 48 10000 7.2 320 20:36 17.04.2020
4741 Clouds 5 1006 52 10000 7.2 320 20:18 17.04.2020
4742 Clouds 5 1006 52 10000 8.2 320 19:46 17.04.2020
4743 Clouds 5 1006 52 10000 8.2 320 19:24 17.04.2020
4744 Clouds 5 1005 56 10000 7.7 320 18:47 17.04.2020
4745 Clouds 6 1005 60 10000 9.3 310 18:25 17.04.2020
4746 Clouds 6 1005 60 10000 9.3 310 17:59 17.04.2020
4747 Clouds 6 1004 60 10000 9.8 320 17:37 17.04.2020
4748 Clouds 6 1004 52 10000 8.2 310 17:19 17.04.2020
4749 Clouds 6 1004 52 10000 8.2 310 17:19 17.04.2020
4750 Clouds 6 1003 48 10000 9.8 330 16:44 17.04.2020
4751 Clouds 6 1003 48 10000 9.8 330 16:23 17.04.2020
4752 Clouds 7 1003 42 10000 11.3 310 15:58 17.04.2020
4753 Clouds 7 1003 42 10000 8.7 310 15:38 17.04.2020
4754 Clouds 7 1002 45 10000 10.3 310 15:19 17.04.2020
4755 Clouds 7 1002 42 10000 9.3 310 14:41 17.04.2020
4756 Clouds 7 1002 42 10000 9.3 310 14:40 17.04.2020
4757 Clouds 7 1002 42 10000 9.3 310 14:22 17.04.2020
4758 Clouds 7 1002 45 10000 9.3 310 13:58 17.04.2020
4759 Clouds 6 1002 44 10000 9.3 310 13:37 17.04.2020
4760 Clouds 6 1002 48 10000 8.7 300 13:18 17.04.2020
4761 Clouds 6 1001 45 10000 9.3 310 12:46 17.04.2020
4762 Clouds 6 1001 45 10000 9.3 310 12:26 17.04.2020
4763 Clouds 6 1001 56 10000 9.3 300 11:42 17.04.2020
4764 Clouds 5 1001 56 10000 8.2 300 11:20 17.04.2020
4765 Clouds 5 1001 56 10000 8.2 300 10:59 17.04.2020
4766 Clouds 5 1001 65 10000 9.3 290 10:39 17.04.2020
4767 Clouds 5 1001 60 10000 8.2 290 10:19 17.04.2020
4768 Clouds 4 1001 60 10000 8.2 290 09:54 17.04.2020
4769 Clouds 4 1001 64 10000 7.2 300 09:36 17.04.2020
4770 Clouds 3 1001 69 10000 6.7 300 09:18 17.04.2020
4771 Clouds 3 1001 69 10000 6.7 300 08:44 17.04.2020
4772 Clouds 3 1001 69 10000 6.2 290 08:24 17.04.2020
4773 Clouds 2 1001 74 10000 6.2 290 07:44 17.04.2020
4774 Clouds 2 1001 74 10000 6.2 290 07:24 17.04.2020
4775 Clouds 1 1000 74 10000 5.7 290 06:52 17.04.2020
4776 Clouds 1 1000 80 10000 5.7 290 06:23 17.04.2020
4777 Clouds 0 1000 90 10000 5.7 280 05:38 17.04.2020
4778 Clear 0 1000 87 10000 5.7 290 03:21 17.04.2020
4779 Clear 0 1000 80 10000 5.1 280 02:34 17.04.2020
4780 Clear 1 1000 80 10000 5.7 280 01:30 17.04.2020
4781 Clouds 1 1000 86 10000 6.2 280 00:53 17.04.2020
4782 Clouds 1 1000 86 10000 6.2 280 00:19 17.04.2020
4783 Clouds 1 1000 80 10000 5.7 270 23:45 16.04.2020
4784 Clouds 1 1000 80 10000 5.1 270 23:23 16.04.2020
4785 Clouds 1 1000 80 10000 4.6 280 22:58 16.04.2020
4786 Clouds 2 1000 80 10000 4.6 280 22:38 16.04.2020
4787 Clouds 2 1000 80 10000 4.6 280 22:20 16.04.2020
4788 Clouds 2 1000 80 10000 5.7 280 21:43 16.04.2020
4789 Clouds 2 999 85 10000 5.7 280 21:21 16.04.2020
4790 Clouds 2 999 85 10000 4.6 270 20:59 16.04.2020
4791 Clouds 3 999 85 10000 4.6 270 20:40 16.04.2020
4792 Rain 3 999 86 10000 5.1 280 20:21 16.04.2020
4793 Rain 3 999 80 10000 7.2 300 19:55 16.04.2020
4794 Rain 3 999 80 10000 7.2 300 19:37 16.04.2020
4795 Rain 4 999 80 10000 6.2 290 19:18 16.04.2020
4796 Rain 4 999 86 10000 6.2 300 18:43 16.04.2020
4797 Rain 5 998 86 10000 5.1 300 18:25 16.04.2020
4798 Rain 5 997 75 10000 8.7 290 17:57 16.04.2020
4799 Rain 5 997 75 10000 8.7 290 17:39 16.04.2020
4800 Clouds 6 997 70 10000 8.2 290 17:20 16.04.2020
4801 Clouds 6 997 70 10000 8.2 290 16:43 16.04.2020
4802 Clouds 6 997 75 10000 7.7 290 16:25 16.04.2020
4803 Clouds 5 997 75 10000 7.7 300 15:46 16.04.2020
4804 Clouds 5 996 75 10000 5.7 310 15:20 16.04.2020
4805 Rain 5 996 80 10000 5.1 310 14:59 16.04.2020
4806 Rain 4 995 80 10000 6.2 310 14:41 16.04.2020
4807 Rain 4 995 80 10000 6.2 310 14:23 16.04.2020
4808 Rain 4 995 86 10000 5.7 320 13:58 16.04.2020
4809 Rain 4 995 86 10000 5.7 320 13:40 16.04.2020
4810 Rain 3 994 86 10000 5.7 320 13:21 16.04.2020
4811 Rain 3 993 93 10000 5.1 320 12:57 16.04.2020
4812 Rain 3 993 93 10000 5.1 320 12:38 16.04.2020
4813 Rain 2 993 93 10000 4.1 330 12:19 16.04.2020
4814 Rain 2 992 100 6000 4.1 350 11:56 16.04.2020
4815 Rain 1 991 96 2500 4.1 350 11:38 16.04.2020
4816 Snow 1 991 96 2500 4.1 350 11:19 16.04.2020
4817 Snow 1 990 96 1200 3.1 330 10:54 16.04.2020
4818 Snow 1 990 96 1200 3.1 330 10:54 16.04.2020
4819 Snow 1 990 96 1200 3.1 330 10:36 16.04.2020
4820 Snow 1 989 96 1200 3.1 340 10:18 16.04.2020
4821 Rain 1 988 96 5000 4.1 20 09:39 16.04.2020
4822 Rain 1 988 97 5000 4.1 20 09:20 16.04.2020
4823 Rain 1 988 96 5000 4.1 20 09:20 16.04.2020
4824 Snow 1 987 97 9000 4.6 40 08:45 16.04.2020
4825 Snow 1 987 97 3000 4.6 50 08:26 16.04.2020
4826 Snow 1 987 97 2500 3.6 30 07:59 16.04.2020
4827 Snow 1 987 97 2500 3.6 30 07:41 16.04.2020
4828 Snow 0 987 97 2200 3.1 30 07:20 16.04.2020
4829 Snow 0 986 97 2700 3.6 50 06:41 16.04.2020
4830 Snow 0 986 96 2700 3.6 50 06:22 16.04.2020
4831 Snow 0 987 96 2600 4.6 90 04:52 16.04.2020
4832 Snow 0 990 96 1500 3.1 110 03:25 16.04.2020
4833 Snow 0 991 94 2400 3.1 110 02:58 16.04.2020
4834 Rain 1 992 100 4000 2.6 110 02:34 16.04.2020
4835 Rain 2 994 94 6000 4.1 220 01:23 16.04.2020
4836 Rain 3 995 94 10000 3.1 200 00:49 16.04.2020
4837 Clouds 3 995 64 10000 5.1 230 00:21 16.04.2020
4838 Clouds 3 996 69 10000 3.6 220 23:44 15.04.2020
4839 Clouds 3 996 74 10000 4.1 220 23:24 15.04.2020
4840 Clouds 3 996 69 10000 3.1 230 22:59 15.04.2020
4841 Clouds 2 996 69 10000 2.6 240 22:38 15.04.2020
4842 Clouds 2 996 69 10000 2.6 240 22:20 15.04.2020
4843 Clouds 2 997 69 10000 3.1 270 21:54 15.04.2020
4844 Clouds 3 997 69 10000 3.1 270 21:36 15.04.2020
4845 Clouds 3 997 64 10000 3.1 260 21:18 15.04.2020
4846 Clouds 4 998 69 10000 3.6 260 20:41 15.04.2020
4847 Clouds 4 998 76 10000 2.6 250 20:22 15.04.2020
4848 Clouds 5 998 75 10000 2.1 20 19:59 15.04.2020
4849 Clouds 5 998 75 10000 2.1 20 19:40 15.04.2020
4850 Rain 6 998 75 10000 0.5 0 19:20 15.04.2020
4851 Rain 6 998 65 10000 2.6 320 18:41 15.04.2020
4852 Rain 7 998 65 10000 2.6 320 18:22 15.04.2020
4853 Rain 7 998 65 10000 4.1 320 17:58 15.04.2020
4854 Rain 7 998 65 10000 4.1 320 17:39 15.04.2020
4855 Clouds 7 998 65 10000 5.1 310 17:20 15.04.2020
4856 Clouds 7 997 65 10000 6.2 310 16:56 15.04.2020
4857 Clouds 7 997 65 10000 6.2 310 16:37 15.04.2020
4858 Rain 7 997 75 10000 4.6 330 16:19 15.04.2020
4859 Rain 6 997 75 10000 4.6 320 15:56 15.04.2020
4860 Rain 6 997 75 10000 4.6 320 15:38 15.04.2020
4861 Rain 6 996 81 10000 7.2 330 15:19 15.04.2020
4862 Rain 6 996 75 10000 7.2 320 14:55 15.04.2020
4863 Rain 6 996 80 10000 6.2 320 14:37 15.04.2020
4864 Rain 6 996 80 10000 6.2 320 14:19 15.04.2020
4865 Clouds 5 995 86 10000 5.7 330 13:56 15.04.2020
4866 Clouds 5 995 86 10000 5.7 330 13:36 15.04.2020
4867 Rain 5 995 86 10000 4.6 310 13:18 15.04.2020
4868 Rain 4 995 86 10000 3.1 300 12:42 15.04.2020
4869 Rain 3 995 93 10000 2.1 280 12:23 15.04.2020
4870 Rain 3 994 93 10000 1 0 11:58 15.04.2020
4871 Rain 3 994 93 10000 1.5 160 11:39 15.04.2020
4872 Rain 3 994 93 10000 1.5 160 11:21 15.04.2020
4873 Drizzle 2 994 100 10000 2.6 130 10:39 15.04.2020
4874 Rain 2 994 93 5000 3.1 140 10:21 15.04.2020
4875 Rain 1 994 93 2500 3.6 140 09:57 15.04.2020
4876 Snow 1 994 93 2500 3.6 140 09:39 15.04.2020
4877 Snow 1 994 96 2300 3.1 130 09:21 15.04.2020
4878 Snow 1 995 96 1200 2.6 120 08:55 15.04.2020
4879 Snow 1 995 96 1200 2.6 120 08:37 15.04.2020
4880 Snow 1 995 96 1000 2.6 130 08:19 15.04.2020
4881 Snow 0 995 96 1700 2.1 160 07:49 15.04.2020
4882 Snow 0 996 96 1400 1.5 200 07:30 15.04.2020
4883 Snow 0 996 94 4500 3.6 230 06:33 15.04.2020
4884 Clouds 0 996 94 10000 3.1 190 05:50 15.04.2020
4885 Clouds 0 997 92 10000 3.1 210 04:50 15.04.2020
4886 Clouds 0 998 92 10000 2.1 220 04:26 15.04.2020
4887 Clouds 0 998 92 10000 2.1 220 03:26 15.04.2020
4888 Clouds 0 999 92 10000 1.5 240 02:52 15.04.2020
4889 Clouds 0 999 92 10000 2.1 260 01:54 15.04.2020
4890 Clouds -1 999 92 10000 3.1 260 01:25 15.04.2020
4891 Clouds 0 999 92 10000 3.1 270 00:52 15.04.2020
4892 Clouds 0 1000 92 10000 4.1 270 00:31 15.04.2020
4893 Clouds 0 1000 92 10000 4.1 280 23:57 14.04.2020
4894 Clouds 0 1000 92 10000 4.1 280 23:39 14.04.2020
4895 Clouds 0 1000 89 10000 4.1 280 23:21 14.04.2020
4896 Clouds 0 1000 89 10000 4.1 270 22:58 14.04.2020
4897 Clouds 0 1000 89 10000 4.1 270 22:39 14.04.2020
4898 Clouds 0 1000 89 10000 4.1 280 22:21 14.04.2020
4899 Rain 1 1000 86 10000 4.6 270 21:58 14.04.2020
4900 Rain 1 1000 86 10000 4.6 270 21:40 14.04.2020
4901 Clouds 1 1000 80 10000 3.1 270 21:20 14.04.2020
4902 Clouds 1 1000 80 3000 2.6 340 20:59 14.04.2020
4903 Clouds 1 1000 80 3000 2.6 340 20:40 14.04.2020
4904 Rain 1 1000 86 10000 4.1 280 20:21 14.04.2020
4905 Rain 1 1000 86 10000 4.1 280 20:21 14.04.2020
4906 Rain 1 999 86 10000 3.6 290 19:41 14.04.2020
4907 Clouds 2 999 80 10000 4.6 290 19:23 14.04.2020
4908 Clouds 2 999 80 10000 4.6 290 19:23 14.04.2020
4909 Snow 2 999 80 2500 5.1 300 18:59 14.04.2020
4910 Rain 2 999 74 10000 4.1 300 18:41 14.04.2020
4911 Rain 3 999 74 10000 4.1 300 18:22 14.04.2020
4912 Rain 3 998 69 10000 4.1 290 17:58 14.04.2020
4913 Rain 3 998 74 10000 4.1 340 17:39 14.04.2020
4914 Rain 4 998 74 10000 4.1 340 17:20 14.04.2020
4915 Rain 4 998 69 10000 5.1 360 16:57 14.04.2020
4916 Rain 4 997 64 10000 5.1 350 16:38 14.04.2020
4917 Rain 4 997 64 10000 5.1 350 16:20 14.04.2020
4918 Snow 4 997 80 10000 5.7 330 15:56 14.04.2020
4919 Snow 4 997 80 10000 5.7 330 15:38 14.04.2020
4920 Snow 4 997 72 3500 10.3 350 15:18 14.04.2020
4921 Rain 5 997 60 10000 8.2 320 14:56 14.04.2020
4922 Rain 5 997 60 10000 8.2 320 14:38 14.04.2020
4923 Rain 5 996 56 10000 7.2 320 14:19 14.04.2020
4924 Rain 5 996 56 10000 7.2 320 14:19 14.04.2020
4925 Rain 4 996 64 10000 5.7 330 13:43 14.04.2020
4926 Rain 4 996 64 10000 5.7 330 13:43 14.04.2020
4927 Clouds 4 996 69 10000 6.7 330 13:24 14.04.2020
4928 Clouds 4 996 69 10000 6.7 330 12:56 14.04.2020
4929 Clouds 3 995 80 10000 8.2 320 12:38 14.04.2020
4930 Clouds 3 995 80 10000 8.2 320 12:18 14.04.2020
4931 Rain 3 995 80 10000 7.7 320 11:41 14.04.2020
4932 Snow 3 995 80 10000 6.7 320 11:22 14.04.2020
4933 Snow 2 995 83 0 6.06 343 10:55 14.04.2020
4934 Snow 2 994 86 3500 6.2 320 10:37 14.04.2020
4935 Snow 2 994 86 3500 6.2 320 10:18 14.04.2020
4936 Rain 1 993 86 10000 5.7 340 09:41 14.04.2020
4937 Rain 1 993 86 10000 5.7 340 09:22 14.04.2020
4938 Rain 1 993 90 5000 5.1 330 08:55 14.04.2020
4939 Rain 1 993 90 5000 5.1 330 08:36 14.04.2020
4940 Snow 1 994 90 0 6.33 314 08:18 14.04.2020
4941 Snow 1 994 90 0 6.33 314 07:49 14.04.2020
4942 Snow 1 994 90 0 6.33 314 07:25 14.04.2020
4943 Snow 0 992 90 3500 3.6 270 06:45 14.04.2020
4944 Snow 0 992 90 3500 3.6 270 06:45 14.04.2020
4945 Snow 0 992 96 4000 4.1 260 05:43 14.04.2020
4946 Snow 0 992 92 10000 5.1 280 03:28 14.04.2020
4947 Snow 0 992 93 10000 3.6 240 02:33 14.04.2020
4948 Clouds 0 992 93 10000 3.6 240 01:27 14.04.2020
4949 Clouds 0 992 93 10000 4.1 240 00:50 14.04.2020
4950 Snow 0 993 86 10000 3.6 230 00:24 14.04.2020
4951 Snow 0 993 86 10000 3.6 230 23:57 13.04.2020
4952 Snow 0 993 86 10000 3.6 230 23:37 13.04.2020
4953 Snow 1 993 86 8000 4.6 230 23:18 13.04.2020
4954 Snow 0 993 86 10000 4.6 230 22:42 13.04.2020
4955 Snow 0 993 86 10000 4.6 230 22:42 13.04.2020
4956 Rain 1 993 80 10000 4.6 230 22:23 13.04.2020
4957 Clouds 1 993 80 10000 4.1 230 21:59 13.04.2020
4958 Clouds 1 993 80 10000 4.1 230 21:40 13.04.2020
4959 Rain 1 993 80 10000 4.6 240 21:21 13.04.2020
4960 Rain 1 993 80 10000 6.7 250 20:58 13.04.2020
4961 Rain 1 993 80 10000 6.7 250 20:58 13.04.2020
4962 Rain 1 993 80 10000 6.7 250 20:39 13.04.2020
4963 Clouds 1 993 80 10000 4.6 230 20:19 13.04.2020
4964 Clouds 1 993 69 10000 5.7 250 19:58 13.04.2020
4965 Clouds 2 993 69 10000 5.7 250 19:37 13.04.2020
4966 Clouds 2 993 69 10000 5.7 250 19:18 13.04.2020
4967 Clouds 2 993 69 10000 7.2 260 18:56 13.04.2020
4968 Snow 2 993 74 10000 8.7 260 18:37 13.04.2020
4969 Snow 3 993 74 10000 8.7 260 18:18 13.04.2020
4970 Rain 3 993 69 10000 6.7 280 17:56 13.04.2020
4971 Clouds 3 993 74 7000 11.3 290 17:36 13.04.2020
4972 Clouds 4 993 74 7000 11.3 290 17:18 13.04.2020
4973 Clouds 5 992 52 10000 6.2 280 16:56 13.04.2020
4974 Rain 5 992 41 10000 6.2 260 16:37 13.04.2020
4975 Rain 6 992 41 10000 6.2 260 16:18 13.04.2020
4976 Rain 6 992 41 10000 6.2 260 16:18 13.04.2020
4977 Clouds 6 992 38 10000 8.7 270 15:46 13.04.2020
4978 Clouds 6 991 39 10000 6.7 260 15:28 13.04.2020
4979 Clouds 6 991 38 10000 8.2 250 14:58 13.04.2020
4980 Clouds 6 991 38 10000 8.2 250 14:40 13.04.2020
4981 Clouds 7 991 36 10000 7.7 250 14:21 13.04.2020
4982 Clouds 7 991 42 10000 6.2 280 13:56 13.04.2020
4983 Clouds 6 991 41 10000 6.7 270 13:38 13.04.2020
4984 Clouds 6 991 41 10000 6.7 270 13:19 13.04.2020
4985 Clouds 6 991 45 10000 7.2 260 12:58 13.04.2020
4986 Clouds 6 991 45 10000 7.2 260 12:39 13.04.2020
4987 Clouds 6 991 41 10000 7.7 280 12:19 13.04.2020
4988 Clouds 6 991 41 10000 7.7 280 12:19 13.04.2020
4989 Clouds 6 991 41 10000 7.7 280 12:19 13.04.2020
4990 Clouds 6 991 48 10000 7.2 260 11:57 13.04.2020
4991 Clouds 6 991 48 10000 7.2 260 11:38 13.04.2020
4992 Clouds 5 991 52 10000 6.7 270 11:18 13.04.2020
4993 Clouds 5 991 60 10000 5.7 290 10:54 13.04.2020
4994 Clouds 4 991 60 10000 5.7 290 10:36 13.04.2020
4995 Clouds 4 990 60 10000 5.7 280 10:18 13.04.2020
4996 Clouds 4 990 64 10000 5.1 300 09:43 13.04.2020
4997 Clouds 3 990 74 10000 5.7 290 09:24 13.04.2020
4998 Clouds 3 990 74 10000 6.2 290 08:45 13.04.2020
4999 Clouds 3 990 79 10000 5.1 290 08:26 13.04.2020
5000 Clouds 3 990 79 10000 6.2 290 07:45 13.04.2020
5001 Clouds 3 989 86 10000 6.2 280 07:26 13.04.2020
5002 Clouds 3 989 86 10000 7.2 280 06:56 13.04.2020
5003 Clouds 3 989 93 10000 5.1 280 06:37 13.04.2020
5004 Clouds 3 988 93 10000 5.7 300 05:40 13.04.2020
5005 Rain 4 988 93 10000 4.1 240 05:19 13.04.2020
5006 Clouds 4 988 100 10000 4.1 230 04:31 13.04.2020
5007 Clouds 4 988 93 10000 4.1 230 03:54 13.04.2020
5008 Clouds 4 988 93 10000 4.1 200 03:34 13.04.2020
5009 Clouds 4 989 100 10000 4.1 210 02:40 13.04.2020
5010 Rain 5 990 93 10000 5.1 210 01:46 13.04.2020
5011 Rain 5 991 91 0 8.67 226 01:27 13.04.2020
5012 Rain 5 991 91 0 8.67 226 01:27 13.04.2020
5013 Clouds 6 991 93 10000 7.2 200 00:46 13.04.2020
5014 Clouds 5 991 93 10000 8.2 190 00:24 13.04.2020
5015 Clouds 6 992 93 10000 9.3 200 23:56 12.04.2020
5016 Clouds 6 993 93 10000 8.2 200 23:37 12.04.2020
5017 Clouds 6 993 93 10000 8.2 200 23:18 12.04.2020
5018 Clouds 6 993 93 10000 8.2 210 22:41 12.04.2020
5019 Clouds 6 993 93 10000 8.2 210 22:19 12.04.2020
5020 Clouds 6 993 93 10000 8.2 210 22:19 12.04.2020
5021 Clouds 6 994 93 10000 8.7 210 21:59 12.04.2020
5022 Rain 6 994 93 10000 8.7 210 21:37 12.04.2020
5023 Rain 6 994 93 10000 8.7 210 21:18 12.04.2020
5024 Clouds 6 995 93 10000 9.3 210 20:42 12.04.2020
5025 Clouds 6 995 93 10000 10.3 210 20:23 12.04.2020
5026 Clouds 6 996 93 10000 7.7 210 19:58 12.04.2020
5027 Clouds 6 996 93 10000 7.7 210 19:39 12.04.2020
5028 Clouds 6 996 93 8000 8.2 210 19:19 12.04.2020
5029 Rain 6 996 93 5000 8.7 210 18:56 12.04.2020
5030 Rain 6 997 93 8000 9.3 210 18:37 12.04.2020
5031 Rain 6 997 93 7000 9.8 200 18:18 12.04.2020
5032 Rain 5 997 93 7000 9.8 200 17:41 12.04.2020
5033 Clouds 5 998 93 8000 8.7 210 17:23 12.04.2020
5034 Drizzle 5 998 93 5000 8.7 210 16:59 12.04.2020
5035 Drizzle 5 998 93 5000 8.7 210 16:39 12.04.2020
5036 Drizzle 5 999 93 5000 9.8 200 16:20 12.04.2020
5037 Drizzle 5 999 93 4000 9.3 210 15:49 12.04.2020
5038 Drizzle 5 1000 100 3000 8.7 190 15:31 12.04.2020
5039 Drizzle 5 1000 93 3000 8.7 190 14:56 12.04.2020
5040 Drizzle 5 1001 93 4000 9.3 190 14:37 12.04.2020
5041 Drizzle 5 1001 93 4000 9.3 190 14:18 12.04.2020
5042 Drizzle 4 1002 100 3000 8.2 180 13:43 12.04.2020
5043 Rain 4 1003 93 5000 8.7 180 13:25 12.04.2020
5044 Rain 4 1003 93 10000 8.7 180 12:55 12.04.2020
5045 Rain 4 1004 100 6000 8.7 180 12:37 12.04.2020
5046 Rain 4 1004 100 6000 8.7 180 12:18 12.04.2020
5047 Rain 4 1005 93 10000 8.7 170 11:56 12.04.2020
5048 Rain 3 1006 93 7000 8.7 170 11:36 12.04.2020
5049 Rain 3 1006 93 7000 8.7 170 11:18 12.04.2020
5050 Rain 3 1007 93 10000 7.7 170 10:54 12.04.2020
5051 Rain 3 1007 86 10000 7.7 160 10:36 12.04.2020
5052 Rain 3 1007 86 10000 7.7 160 10:18 12.04.2020
5053 Rain 3 1008 86 10000 8.2 170 09:40 12.04.2020
5054 Rain 3 1009 86 10000 8.7 170 09:21 12.04.2020
5055 Rain 3 1009 93 10000 7.2 170 08:56 12.04.2020
5056 Rain 3 1009 93 10000 7.2 170 08:38 12.04.2020
5057 Rain 3 1010 86 10000 6.7 160 08:19 12.04.2020
5058 Rain 3 1011 93 10000 6.2 150 07:42 12.04.2020
5059 Rain 3 1011 94 10000 6.7 160 07:18 12.04.2020
5060 Clouds 3 1013 94 10000 5.7 150 06:35 12.04.2020
5061 Clouds 2 1014 80 10000 4.6 140 05:51 12.04.2020
5062 Rain 2 1014 80 10000 4.1 140 05:29 12.04.2020
5063 Clouds 1 1016 69 10000 3.1 180 03:44 12.04.2020
5064 Clouds 1 1017 82 10000 3.1 170 03:22 12.04.2020
5065 Clouds 0 1018 69 10000 3.1 190 02:34 12.04.2020
5066 Clouds 0 1018 79 10000 1 200 01:48 12.04.2020
5067 Clouds 0 1019 86 10000 3.64 221 00:58 12.04.2020
5068 Clouds 0 1019 80 10000 0.5 270 00:39 12.04.2020
5069 Clouds 0 1019 80 10000 0.5 270 00:19 12.04.2020
5070 Clouds 1 1019 64 10000 1.5 250 23:46 11.04.2020
5071 Clouds 1 1020 82 10000 3.1 270 23:25 11.04.2020
5072 Clouds 1 1020 64 10000 3.1 260 22:42 11.04.2020
5073 Clouds 1 1020 74 10000 0.5 0 22:23 11.04.2020
5074 Clouds 1 1020 74 10000 0.5 0 22:23 11.04.2020
5075 Clouds 1 1020 74 10000 0.5 0 22:23 11.04.2020
5076 Clouds 1 1020 80 10000 0.5 210 21:57 11.04.2020
5077 Clouds 1 1020 80 10000 0.5 210 21:38 11.04.2020
5078 Clouds 1 1020 74 10000 3.4 285 21:19 11.04.2020
5079 Clouds 2 1020 74 10000 3.4 285 20:58 11.04.2020
5080 Clouds 2 1020 74 10000 3.4 285 20:40 11.04.2020
5081 Clouds 3 1020 55 10000 1.5 250 20:21 11.04.2020
5082 Clouds 3 1020 55 10000 1.5 250 20:21 11.04.2020
5083 Clouds 4 1020 41 10000 2.1 270 19:58 11.04.2020
5084 Clouds 4 1020 41 10000 2.1 270 19:40 11.04.2020
5085 Clouds 5 1020 38 10000 2.1 300 19:20 11.04.2020
5086 Clouds 6 1020 35 10000 3.6 290 18:58 11.04.2020
5087 Clouds 6 1020 35 10000 3.6 290 18:39 11.04.2020
5088 Clouds 7 1020 33 10000 4.6 320 18:21 11.04.2020
5089 Clouds 7 1020 33 10000 4.1 320 17:59 11.04.2020
5090 Clouds 7 1020 33 10000 4.1 320 17:41 11.04.2020
5091 Clouds 7 1020 28 10000 4.6 270 17:22 11.04.2020
5092 Clouds 7 1020 33 10000 5.1 300 16:59 11.04.2020
5093 Clouds 7 1020 33 10000 5.1 300 16:41 11.04.2020
5094 Clouds 8 1021 36 10000 5.1 290 16:20 11.04.2020
5095 Clouds 7 1021 36 10000 5.1 290 16:20 11.04.2020
5096 Clouds 7 1021 36 10000 5.1 310 15:39 11.04.2020
5097 Clouds 7 1021 36 10000 5.1 290 15:19 11.04.2020
5098 Clouds 7 1021 36 10000 5.1 290 15:19 11.04.2020
5099 Clouds 7 1021 36 10000 6.2 300 14:44 11.04.2020
5100 Clouds 7 1021 38 10000 6.2 290 14:25 11.04.2020
5101 Clouds 7 1021 36 10000 6.2 290 13:59 11.04.2020
5102 Clouds 7 1021 36 10000 6.2 290 13:40 11.04.2020
5103 Snow 6 1021 44 10000 5.7 310 13:22 11.04.2020
5104 Snow 6 1021 44 10000 5.7 310 13:22 11.04.2020
5105 Clouds 6 1021 41 10000 5.1 290 12:43 11.04.2020
5106 Clouds 6 1021 48 10000 6.2 290 12:22 11.04.2020
5107 Clouds 6 1021 45 10000 7.2 280 11:58 11.04.2020
5108 Clouds 6 1021 45 10000 7.2 280 11:40 11.04.2020
5109 Clouds 6 1021 45 10000 7.2 270 11:19 11.04.2020
5110 Clouds 6 1021 52 10000 7.2 280 10:55 11.04.2020
5111 Clouds 6 1021 52 10000 7.2 280 10:36 11.04.2020
5112 Clouds 5 1020 56 10000 6.7 290 10:18 11.04.2020
5113 Clouds 5 1020 60 10000 4.6 280 09:41 11.04.2020
5114 Clouds 4 1020 64 10000 5.1 280 09:22 11.04.2020
5115 Clouds 3 1020 69 10000 4.1 280 08:51 11.04.2020
5116 Clouds 2 1020 69 10000 5.1 280 08:29 11.04.2020
5117 Clear 2 1020 74 10000 5.7 270 07:56 11.04.2020
5118 Clear 1 1020 77 10000 5.1 270 07:38 11.04.2020
5119 Clear 0 1020 77 10000 5.1 270 07:19 11.04.2020
5120 Clear -1 1020 80 10000 5.1 280 06:35 11.04.2020
5121 Clear -1 1020 74 10000 4.6 270 05:56 11.04.2020
5122 Clear -2 1020 86 10000 2.6 240 03:48 11.04.2020
5123 Clouds -2 1019 79 10000 2.6 270 02:50 11.04.2020
5124 Clouds -1 1019 79 10000 3.6 290 01:26 11.04.2020
5125 Clouds -1 1019 80 10000 3.6 290 00:54 11.04.2020
5126 Clouds -1 1019 80 10000 3.6 290 00:36 11.04.2020
5127 Clouds -1 1019 80 10000 3.6 290 00:18 11.04.2020
5128 Clouds 0 1018 80 10000 3.6 310 23:41 10.04.2020
5129 Clouds 0 1018 80 10000 3.6 310 23:19 10.04.2020
5130 Clouds 0 1018 83 10000 3.6 320 22:55 10.04.2020
5131 Clouds 1 1018 69 10000 4.6 340 22:37 10.04.2020
5132 Clouds 1 1018 69 10000 4.6 340 22:18 10.04.2020
5133 Clouds 1 1018 69 10000 4.6 340 22:18 10.04.2020
5134 Clouds 1 1018 69 10000 7.2 330 21:41 10.04.2020
5135 Clouds 2 1017 74 10000 5.7 290 21:21 10.04.2020
5136 Clouds 2 1017 64 10000 6.2 290 20:57 10.04.2020
5137 Clouds 2 1017 64 10000 6.2 290 20:38 10.04.2020
5138 Clouds 2 1017 64 10000 6.2 290 20:38 10.04.2020
5139 Rain 3 1016 59 10000 5.7 280 20:19 10.04.2020
5140 Rain 3 1016 59 10000 9.3 280 19:54 10.04.2020
5141 Rain 3 1016 59 10000 9.3 280 19:36 10.04.2020
5142 Rain 4 1016 55 10000 3.6 260 19:18 10.04.2020
5143 Clouds 5 1016 48 10000 4.6 280 18:55 10.04.2020
5144 Clouds 5 1016 48 10000 5.1 280 18:36 10.04.2020
5145 Clouds 5 1016 48 10000 5.1 280 18:18 10.04.2020
5146 Clouds 5 1016 52 10000 6.2 310 17:56 10.04.2020
5147 Clouds 6 1016 52 10000 6.2 310 17:37 10.04.2020
5148 Snow 5 1016 55 10000 7.2 290 17:18 10.04.2020
5149 Rain 6 1016 35 10000 6.2 300 16:41 10.04.2020
5150 Rain 7 1016 35 10000 6.2 300 16:23 10.04.2020
5151 Snow 7 1016 31 10000 6.2 300 15:58 10.04.2020
5152 Snow 7 1016 31 10000 6.2 300 15:39 10.04.2020
5153 Clear 7 1016 30 10000 6.2 300 15:20 10.04.2020
5154 Clear 8 1017 28 10000 5.7 300 14:58 10.04.2020
5155 Clear 8 1017 28 10000 5.7 300 14:58 10.04.2020
5156 Clear 7 1017 28 10000 6.7 280 14:39 10.04.2020
5157 Clear 7 1017 28 10000 6.7 280 14:21 10.04.2020
5158 Clear 7 1016 28 10000 6.2 290 13:45 10.04.2020
5159 Clear 7 1017 30 10000 6.2 320 13:23 10.04.2020
5160 Clear 7 1017 30 10000 7.7 330 12:56 10.04.2020
5161 Clear 7 1017 30 10000 7.7 330 12:37 10.04.2020
5162 Clear 6 1017 33 10000 7.7 300 12:19 10.04.2020
5163 Clouds 5 1017 38 10000 7.7 320 11:43 10.04.2020
5164 Clouds 5 1017 38 10000 8.2 310 11:24 10.04.2020
5165 Clouds 5 1016 44 10000 7.7 300 10:57 10.04.2020
5166 Clouds 5 1016 44 10000 7.7 300 10:38 10.04.2020
5167 Clouds 4 1016 41 10000 8.2 320 10:19 10.04.2020
5168 Clouds 4 1016 48 10000 8.2 320 09:43 10.04.2020
5169 Clouds 4 1016 48 10000 8.2 320 09:43 10.04.2020
5170 Clouds 4 1016 64 10000 7.7 310 09:21 10.04.2020
5171 Clouds 3 1016 69 10000 6.2 320 08:48 10.04.2020
5172 Clouds 3 1015 74 10000 6.2 300 08:27 10.04.2020
5173 Clouds 3 1015 74 10000 6.2 300 08:27 10.04.2020
5174 Clouds 2 1015 80 10000 6.2 290 07:55 10.04.2020
5175 Clouds 1 1015 79 10000 5.1 290 07:37 10.04.2020
5176 Clouds 1 1015 79 10000 5.1 290 07:19 10.04.2020
5177 Clear -1 1015 86 10000 3.1 270 06:31 10.04.2020
5178 Clear 0 1015 86 10000 3.1 270 06:31 10.04.2020
5179 Clear -1 1014 86 10000 3.6 280 05:59 10.04.2020
5180 Clear -1 1014 86 10000 3.6 280 05:59 10.04.2020
5181 Clear -1 1014 80 10000 3.1 270 05:29 10.04.2020
5182 Clear 0 1014 85 10000 3.6 260 04:54 10.04.2020
5183 Clear 0 1014 84 10000 2.6 270 03:35 10.04.2020
5184 Clear 0 1014 86 10000 3.6 280 02:51 10.04.2020
5185 Clear 0 1014 84 10000 3.1 280 02:32 10.04.2020
5186 Clear 1 1014 84 10000 3.1 300 01:46 10.04.2020
5187 Clear 1 1014 74 10000 4.1 290 01:25 10.04.2020
5188 Clear 2 1014 74 10000 5.1 290 00:46 10.04.2020
5189 Clear 2 1014 74 10000 4.1 280 00:20 10.04.2020
5190 Clear 2 1014 74 10000 4.1 280 00:20 10.04.2020
5191 Clear 2 1013 74 10000 3.6 280 23:41 09.04.2020
5192 Clear 3 1013 69 10000 4.1 290 23:23 09.04.2020
5193 Clear 3 1013 64 10000 4.1 280 22:57 09.04.2020
5194 Clear 4 1012 60 10000 5.7 290 22:38 09.04.2020
5195 Clear 4 1012 60 10000 5.7 290 22:20 09.04.2020
5196 Clear 4 1012 64 10000 4.6 290 21:38 09.04.2020
5197 Clouds 4 1011 64 10000 4.6 290 21:20 09.04.2020
5198 Clouds 5 1011 64 10000 3.6 300 20:47 09.04.2020
5199 Clouds 5 1010 60 10000 4.1 300 20:23 09.04.2020
5200 Rain 6 1010 60 10000 3.6 290 19:59 09.04.2020
5201 Clouds 6 1010 60 10000 3.1 300 19:38 09.04.2020
5202 Clouds 6 1010 60 10000 3.1 300 19:20 09.04.2020
5203 Clouds 7 1009 60 10000 3.6 280 18:42 09.04.2020
5204 Rain 7 1009 60 10000 3.1 280 18:20 09.04.2020
5205 Rain 7 1009 60 10000 3.1 290 17:43 09.04.2020
5206 Rain 7 1009 67 0 6.31 315 17:24 09.04.2020
5207 -273 0 0 0 0 0 17:00 09.04.2020
5208 Rain 8 1007 39 10000 7.2 280 16:39 09.04.2020
5209 Rain 8 1007 39 10000 7.2 280 16:19 09.04.2020
5210 Rain 8 1007 39 10000 8.2 300 15:56 09.04.2020
5211 Rain 9 1007 39 10000 8.7 300 15:37 09.04.2020
5212 Rain 8 1007 39 10000 8.2 300 15:37 09.04.2020
5213 Rain 9 1007 39 10000 8.7 300 15:18 09.04.2020
5214 Rain 8 1007 39 10000 8.7 300 14:42 09.04.2020
5215 Clouds 8 1006 36 10000 7.7 290 14:21 09.04.2020
5216 Clouds 8 1006 36 10000 8.7 280 13:56 09.04.2020
5217 Clouds 9 1006 36 10000 8.7 280 13:38 09.04.2020
5218 Clouds 10 1006 34 10000 8.2 270 13:19 09.04.2020
5219 Clouds 9 1006 37 10000 8.7 280 12:43 09.04.2020
5220 Clouds 9 1006 36 10000 7.2 270 12:23 09.04.2020
5221 Clouds 9 1006 39 10000 6.7 280 11:59 09.04.2020
5222 Clouds 8 1006 39 10000 6.7 280 11:40 09.04.2020
5223 Clouds 8 1005 42 10000 6.2 290 11:20 09.04.2020
5224 Clouds 8 1005 45 10000 7.7 290 10:57 09.04.2020
5225 Clouds 8 1005 45 10000 7.7 290 10:38 09.04.2020
5226 Clouds 7 1005 60 10000 6.2 290 10:19 09.04.2020
5227 Clouds 6 1005 60 10000 6.2 300 09:55 09.04.2020
5228 Clouds 6 1005 60 10000 6.2 300 09:37 09.04.2020
5229 Clouds 6 1005 60 10000 6.2 300 09:19 09.04.2020
5230 Clouds 6 1005 77 10000 8.2 300 08:43 09.04.2020
5231 Clouds 5 1004 75 10000 6.7 290 08:23 09.04.2020
5232 Clouds 5 1004 75 10000 6.7 290 08:23 09.04.2020
5233 Rain 5 1004 80 10000 4.1 280 07:53 09.04.2020
5234 Rain 5 1004 80 10000 3.6 280 07:24 09.04.2020
5235 Rain 5 1004 75 10000 4.1 270 06:52 09.04.2020
5236 Clouds 5 1004 80 10000 4.1 220 05:59 09.04.2020
5237 Clouds 5 1004 80 10000 4.1 220 05:38 09.04.2020
5238 Clouds 5 1006 80 10000 6.2 200 03:20 09.04.2020
5239 Clouds 5 1008 80 10000 6.2 210 02:21 09.04.2020
5240 Clouds 5 1008 80 10000 7.2 200 01:40 09.04.2020
5241 Clouds 5 1009 80 10000 6.7 200 01:19 09.04.2020
5242 Clouds 4 1010 75 10000 6.7 200 00:39 09.04.2020
5243 Clouds 5 1010 75 10000 6.7 200 00:19 09.04.2020
5244 Clouds 4 1010 75 10000 6.7 200 00:19 09.04.2020
5245 Clouds 5 1011 75 10000 6.7 210 23:55 08.04.2020
5246 Clouds 5 1012 75 10000 7.2 210 23:37 08.04.2020
5247 Clouds 5 1012 75 10000 7.2 210 23:19 08.04.2020
5248 Clouds 5 1013 75 10000 6.2 200 22:42 08.04.2020
5249 Clouds 5 1013 75 10000 6.2 200 22:23 08.04.2020
5250 Clouds 5 1013 80 10000 5.1 200 21:56 08.04.2020
5251 Clouds 5 1014 75 10000 5.7 210 21:37 08.04.2020
5252 Clouds 5 1014 75 10000 5.7 210 21:19 08.04.2020
5253 Clouds 5 1014 75 10000 5.7 220 20:54 08.04.2020
5254 Clouds 5 1014 75 10000 5.7 220 20:54 08.04.2020
5255 Clouds 5 1014 75 10000 5.7 220 20:54 08.04.2020
5256 Clouds 5 1015 80 10000 5.1 220 20:36 08.04.2020
5257 Clouds 5 1015 80 10000 5.1 220 20:18 08.04.2020
5258 Clouds 6 1015 70 10000 6.7 220 19:41 08.04.2020
5259 Clouds 6 1016 74 10000 6.7 210 19:21 08.04.2020
5260 Clouds 7 1016 74 10000 6.7 210 19:21 08.04.2020
5261 Clouds 7 1016 74 10000 7.7 210 18:55 08.04.2020
5262 Clouds 8 1016 69 10000 7.7 210 18:37 08.04.2020
5263 Clouds 8 1016 69 10000 9.3 210 18:19 08.04.2020
5264 Clouds 8 1016 69 10000 9.3 210 18:19 08.04.2020
5265 Clouds 9 1016 69 10000 9.3 210 17:42 08.04.2020
5266 Clouds 9 1017 69 10000 10.8 210 17:20 08.04.2020
5267 Clouds 10 1018 69 10000 9.3 210 16:57 08.04.2020
5268 Clouds 10 1018 69 10000 9.3 210 16:39 08.04.2020
5269 Clouds 11 1018 69 10000 9.3 210 16:19 08.04.2020
5270 Clouds 11 1019 43 10000 9.8 210 15:39 08.04.2020
5271 Clouds 11 1020 43 10000 9.3 220 15:21 08.04.2020
5272 Clouds 11 1020 43 10000 9.3 220 14:57 08.04.2020
5273 Clouds 11 1020 43 10000 9.3 220 14:39 08.04.2020
5274 Clouds 11 1021 40 10000 10.3 210 14:21 08.04.2020
5275 Clouds 11 1022 34 10000 9.3 210 13:44 08.04.2020
5276 Clouds 11 1022 34 10000 9.3 210 13:21 08.04.2020
5277 Clouds 11 1022 40 10000 7.7 220 12:54 08.04.2020
5278 Clouds 11 1022 40 10000 7.7 220 12:36 08.04.2020
5279 Clear 11 1023 40 10000 8.2 210 12:18 08.04.2020
5280 Clear 11 1023 40 10000 8.2 210 12:18 08.04.2020
5281 Clear 11 1023 40 10000 8.2 210 12:18 08.04.2020
5282 Clear 11 1023 37 10000 6.7 220 11:41 08.04.2020
5283 Clear 11 1023 37 10000 6.7 220 11:41 08.04.2020
5284 Clear 10 1024 43 10000 5.7 220 11:22 08.04.2020
5285 Clear 10 1024 45 10000 5.1 220 10:58 08.04.2020
5286 Clear 9 1024 45 10000 3.6 240 10:39 08.04.2020
5287 Clear 9 1024 45 10000 3.6 240 10:20 08.04.2020
5288 Clear 8 1024 64 10000 2.1 270 09:57 08.04.2020
5289 Clear 8 1024 64 10000 2.1 270 09:39 08.04.2020
5290 Clear 6 1024 76 10000 3.1 280 09:18 08.04.2020
5291 Clear 6 1024 76 10000 3.1 280 09:18 08.04.2020
5292 Clear 6 1024 76 10000 2.6 270 08:56 08.04.2020
5293 Clear 5 1024 76 10000 2.6 270 08:38 08.04.2020
5294 Clear 4 1025 76 10000 3.1 280 08:20 08.04.2020
5295 Clear 3 1024 76 10000 4.1 280 07:42 08.04.2020
5296 Clear 2 1024 76 10000 3.1 290 07:20 08.04.2020
5297 Clear 2 1024 86 10000 3.6 290 06:22 08.04.2020
5298 Clear 2 1024 80 10000 4.6 290 04:44 08.04.2020
5299 Clouds 4 1022 80 10000 5.1 290 02:49 08.04.2020
5300 Clouds 4 1021 86 10000 4.6 290 02:21 08.04.2020
5301 Clouds 4 1021 86 10000 4.6 290 01:51 08.04.2020
5302 Clouds 4 1020 86 10000 5.7 300 01:27 08.04.2020
5303 Clouds 5 1020 86 10000 6.7 300 00:44 08.04.2020
5304 Clouds 5 1019 81 10000 6.2 310 00:23 08.04.2020
5305 Clouds 6 1018 87 10000 8.7 310 23:40 07.04.2020
5306 Clouds 6 1018 87 10000 9.8 310 23:22 07.04.2020
5307 Clouds 6 1017 87 10000 8.2 320 22:58 07.04.2020
5308 Clouds 6 1017 87 10000 8.2 320 22:40 07.04.2020
5309 Clouds 6 1016 87 10000 8.7 310 22:20 07.04.2020
5310 Clouds 7 1015 87 10000 9.3 310 21:57 07.04.2020
5311 Clouds 6 1015 87 10000 9.3 310 21:39 07.04.2020
5312 Rain 6 1015 87 10000 6.2 290 21:20 07.04.2020
5313 Rain 6 1014 87 10000 5.7 280 20:57 07.04.2020
5314 Drizzle 6 1014 93 6000 4.6 260 20:38 07.04.2020
5315 Drizzle 6 1014 93 6000 4.6 260 20:20 07.04.2020
5316 Clouds 6 1014 93 10000 5.1 240 19:57 07.04.2020
5317 Clouds 6 1014 93 10000 5.7 230 19:36 07.04.2020
5318 Clouds 6 1014 93 10000 5.7 230 19:18 07.04.2020
5319 Clouds 6 1014 93 10000 8.2 220 18:56 07.04.2020
5320 Rain 6 1014 93 10000 8.2 220 18:38 07.04.2020
5321 Rain 7 1014 70 10000 3.6 220 18:19 07.04.2020
5322 Rain 9 1014 57 10000 6.2 230 17:44 07.04.2020
5323 Rain 10 1014 50 10000 7.2 220 17:20 07.04.2020
5324 Rain 10 1014 50 10000 7.2 220 16:46 07.04.2020
5325 Rain 11 1015 44 10000 8.2 220 16:27 07.04.2020
5326 Rain 12 1015 44 10000 8.2 220 15:56 07.04.2020
5327 Rain 13 1015 44 10000 8.7 210 15:38 07.04.2020
5328 Clouds 13 1015 44 10000 8.7 210 15:19 07.04.2020
5329 Clouds 13 1015 44 10000 7.2 220 14:41 07.04.2020
5330 Clouds 13 1015 43 10000 8.2 210 14:22 07.04.2020
5331 Clouds 12 1016 43 10000 8.2 210 13:56 07.04.2020
5332 Clouds 13 1016 43 10000 8.2 210 13:37 07.04.2020
5333 Clouds 13 1016 47 10000 8.2 200 13:18 07.04.2020
5334 Clouds 13 1016 43 10000 7.7 210 12:54 07.04.2020
5335 Clouds 11 1017 46 10000 7.7 200 12:36 07.04.2020
5336 Clouds 12 1017 46 10000 7.7 200 12:18 07.04.2020
5337 Clouds 11 1017 73 10000 6.2 190 11:42 07.04.2020
5338 Clouds 11 1017 73 10000 6.2 190 11:22 07.04.2020
5339 Clouds 10 1018 73 10000 5.1 180 10:57 07.04.2020
5340 Clouds 10 1018 73 10000 5.7 180 10:37 07.04.2020
5341 Clouds 10 1018 73 10000 5.7 180 10:18 07.04.2020
5342 Clouds 9 1019 75 10000 5.7 170 09:44 07.04.2020
5343 Clouds 8 1019 77 10000 4.1 180 09:18 07.04.2020
5344 Clouds 8 1020 77 10000 4.6 180 08:43 07.04.2020
5345 Clouds 7 1020 77 10000 4.6 180 08:25 07.04.2020
5346 Clouds 7 1020 77 10000 5.1 180 07:59 07.04.2020
5347 Clouds 6 1020 77 10000 5.1 180 07:40 07.04.2020
5348 Clouds 6 1021 77 10000 5.1 180 07:40 07.04.2020
5349 Clouds 5 1021 77 10000 5.1 180 07:21 07.04.2020
5350 Clouds 4 1021 77 10000 6.2 190 06:49 07.04.2020
5351 Clouds 4 1022 77 10000 5.7 180 06:21 07.04.2020
5352 Clouds 4 1022 77 10000 4.6 180 05:38 07.04.2020
5353 Clouds 4 1023 77 10000 4.1 180 04:40 07.04.2020
5354 Clouds 4 1024 74 10000 3.6 160 03:25 07.04.2020
5355 Clouds 3 1025 74 10000 4.1 170 02:48 07.04.2020
5356 Clouds 4 1026 79 10000 3.6 180 01:48 07.04.2020
5357 Clouds 4 1026 79 10000 3.6 180 01:25 07.04.2020
5358 Clouds 4 1027 74 10000 4.6 190 00:29 07.04.2020
5359 Clouds 4 1027 74 10000 3.6 190 23:55 06.04.2020
5360 Clouds 4 1027 74 10000 3.6 190 23:36 06.04.2020
5361 Clouds 4 1027 74 10000 4.1 190 23:18 06.04.2020
5362 Clouds 5 1027 74 10000 3.6 190 22:39 06.04.2020
5363 Clouds 4 1027 65 10000 3.6 200 22:21 06.04.2020
5364 Clouds 5 1027 56 10000 3.6 210 21:57 06.04.2020
5365 Clouds 5 1027 56 10000 3.6 210 21:38 06.04.2020
5366 Clouds 6 1027 56 10000 4.1 210 21:18 06.04.2020
5367 Clouds 6 1027 52 10000 4.6 210 20:55 06.04.2020
5368 Clouds 7 1027 49 10000 4.6 210 20:37 06.04.2020
5369 Clouds 7 1027 49 10000 4.6 210 20:18 06.04.2020
5370 Clouds 8 1027 74 10000 5.7 210 19:41 06.04.2020
5371 Clouds 8 1027 74 10000 5.7 210 19:22 06.04.2020
5372 Clouds 9 1027 74 10000 6.7 210 18:57 06.04.2020
5373 Clouds 10 1027 50 10000 6.7 220 18:39 06.04.2020
5374 Clouds 10 1027 50 10000 6.7 220 18:20 06.04.2020
5375 Clouds 11 1027 70 10000 7.2 220 17:42 06.04.2020
5376 Clouds 12 1027 58 10000 6.2 200 17:20 06.04.2020
5377 Clouds 12 1027 44 10000 6.2 220 16:50 06.04.2020
5378 Clouds 13 1027 47 10000 6.2 220 16:31 06.04.2020
5379 Clouds 13 1027 54 10000 6.2 190 15:41 06.04.2020
5380 Clouds 12 1028 66 10000 4.1 160 14:00 06.04.2020
5381 Clouds 12 1028 58 10000 4.6 170 14:00 06.04.2020
5382 Clouds 12 1028 66 10000 4.1 160 13:40 06.04.2020
5383 Clouds 12 1028 66 10000 4.1 160 13:40 06.04.2020
5384 Clouds 12 1028 66 10000 2.6 160 13:19 06.04.2020
5385 Clouds 11 1028 66 10000 2.6 160 13:19 06.04.2020
5386 Clouds 12 1028 66 10000 2.6 160 13:19 06.04.2020
5387 Clouds 11 1028 66 10000 2.6 160 13:19 06.04.2020
5388 Clouds 9 1028 76 10000 2.1 180 12:22 06.04.2020
5389 Clouds 9 1028 81 10000 2.1 190 11:55 06.04.2020
5390 Clouds 8 1028 81 10000 2.1 190 11:33 06.04.2020
5391 Clouds 8 1028 81 10000 2.1 190 11:33 06.04.2020
5392 Clouds 8 1028 81 10000 2.1 190 11:33 06.04.2020
5393 Clouds 8 1028 81 10000 2.1 190 11:33 06.04.2020
5394 Clouds 8 1028 81 10000 2.1 190 11:33 06.04.2020
5395 Clouds 7 1028 87 10000 1.5 180 10:52 06.04.2020
5396 Clouds 7 1028 87 10000 1.5 180 10:52 06.04.2020
5397 Clouds 7 1028 87 10000 1.5 180 10:52 06.04.2020
5398 Clouds 7 1028 87 10000 1.5 180 10:52 06.04.2020
5399 Clouds 7 1028 87 10000 1.5 180 10:52 06.04.2020
5400 Clouds 6 1028 93 10000 2.1 200 10:22 06.04.2020
5401 Clouds 5 1028 93 10000 2.1 210 09:47 06.04.2020
5402 Clouds 5 1028 93 10000 2.1 210 09:47 06.04.2020
5403 Clouds 5 1028 93 10000 2.1 210 09:47 06.04.2020
5404 Clouds 5 1028 100 6000 2.6 220 09:21 06.04.2020
5405 Mist 4 1028 93 5000 3.1 210 08:55 06.04.2020
5406 Mist 4 1028 93 5000 3.1 210 08:30 06.04.2020
5407 Mist 3 1028 100 5000 2.6 190 07:39 06.04.2020
5408 Clouds 3 1028 93 10000 3.6 190 06:47 06.04.2020
5409 Rain 3 1028 93 10000 3.1 170 06:24 06.04.2020
5410 Rain 2 1028 94 10000 3.1 170 04:20 06.04.2020
5411 Rain 1 1029 80 10000 2.6 210 02:59 06.04.2020
5412 Rain 1 1029 69 10000 1.5 190 02:36 06.04.2020
5413 Clouds 1 1029 82 10000 2.1 190 01:28 06.04.2020
5414 Clouds 1 1029 80 10000 3.1 210 00:44 06.04.2020
5415 Clouds 0 1029 74 10000 2.6 220 00:23 06.04.2020
5416 Clouds 0 1029 86 10000 1 0 23:44 05.04.2020
5417 Clouds 0 1029 68 10000 1.5 210 23:25 05.04.2020
5418 Clouds 0 1029 68 10000 1.5 210 23:25 05.04.2020
5419 Clouds 0 1029 68 10000 2.37 275 22:55 05.04.2020
5420 Clouds 0 1029 68 10000 2.37 275 22:37 05.04.2020
5421 Clouds 0 1029 68 10000 2.37 275 22:18 05.04.2020
5422 Clouds 1 1029 81 10000 1 240 21:46 05.04.2020
5423 Clear 0 1029 58 10000 1 0 21:25 05.04.2020
5424 Clear 1 1029 79 10000 1.5 260 20:47 05.04.2020
5425 Clear 2 1028 37 10000 2.6 280 20:18 05.04.2020
5426 Clear 2 1028 37 10000 2.6 280 20:18 05.04.2020
5427 Clear 2 1028 37 10000 2.6 280 20:18 05.04.2020
5428 Clear 2 1028 37 10000 2.6 280 20:18 05.04.2020
5429 Clear 3 1028 40 10000 2.6 300 19:37 05.04.2020
5430 Clear 4 1028 35 10000 2.6 280 19:19 05.04.2020
5431 Clear 5 1028 32 10000 4.1 270 18:44 05.04.2020
5432 Clear 5 1028 32 10000 4.1 270 18:44 05.04.2020
5433 Clear 5 1028 32 10000 4.1 270 18:44 05.04.2020
5434 Clear 5 1028 32 10000 4.1 270 18:44 05.04.2020
5435 Clear 5 1028 32 10000 4.1 270 18:44 05.04.2020
5436 Clear 6 1028 26 10000 6.2 270 17:52 05.04.2020
5437 Clear 6 1028 26 10000 6.2 270 17:52 05.04.2020
5438 Clear 6 1028 26 10000 6.2 270 17:52 05.04.2020
5439 Clear 6 1028 26 10000 6.2 270 17:52 05.04.2020
5440 Clear 6 1028 26 10000 6.2 270 17:52 05.04.2020
5441 Clear 7 1028 26 10000 5.1 270 17:24 05.04.2020
5442 Clear 7 1028 26 10000 5.1 270 17:24 05.04.2020
5443 Clear 7 1028 26 10000 4.6 260 16:53 05.04.2020
5444 Clear 7 1028 26 10000 4.6 260 16:53 05.04.2020
5445 Clear 7 1028 26 10000 4.6 260 16:52 05.04.2020
5446 Clear 7 1028 26 10000 4.6 260 16:52 05.04.2020
5447 -273 0 0 0 0 0 16:52 05.04.2020
5448 Clear 7 1028 30 10000 6.2 290 16:20 05.04.2020
5449 Clear 7 1028 28 10000 7.2 290 15:51 05.04.2020
5450 Clear 7 1028 28 10000 7.2 290 15:32 05.04.2020
5451 Clear 7 1028 28 10000 7.2 290 15:32 05.04.2020
5452 Clear 6 1029 28 10000 7.2 270 14:50 05.04.2020
5453 Clear 6 1029 28 10000 7.2 270 14:50 05.04.2020
5454 Clear 6 1029 26 10000 6.2 280 14:25 05.04.2020
5455 Clear 6 1029 26 10000 6.2 280 14:25 05.04.2020
5456 Clear 6 1029 30 10000 6.2 270 13:43 05.04.2020
5457 Clear 6 1029 30 10000 6.2 270 13:43 05.04.2020
5458 Clear 5 1028 32 10000 7.2 270 12:49 05.04.2020
5459 Clear 5 1028 32 10000 7.2 270 12:49 05.04.2020
5460 Clouds 4 1028 38 10000 5.7 310 11:41 05.04.2020
5461 Clouds 4 1028 40 10000 7.7 310 11:21 05.04.2020
5462 Clouds 4 1027 40 10000 7.2 300 10:49 05.04.2020
5463 Clouds 3 1027 44 10000 6.7 310 10:24 05.04.2020
5464 Clouds 3 1027 44 10000 6.7 310 10:24 05.04.2020
5465 Clouds 3 1027 44 10000 6.7 310 09:58 05.04.2020
5466 Clouds 3 1027 47 10000 6.7 300 09:58 05.04.2020
5467 Clouds 3 1027 47 10000 6.7 300 09:38 05.04.2020
5468 Clouds 3 1027 47 10000 6.7 300 09:38 05.04.2020
5469 Clouds 2 1026 59 10000 5.1 290 09:19 05.04.2020
5470 Clouds 2 1026 59 10000 5.1 290 09:19 05.04.2020
5471 Clouds 2 1026 59 10000 5.1 290 09:19 05.04.2020
5472 Clouds 2 1026 59 10000 5.1 290 09:18 05.04.2020
5473 Clouds 2 1026 59 10000 5.1 290 09:18 05.04.2020
5474 Clear -1 1025 68 10000 4.1 270 07:31 05.04.2020
5475 Clouds -2 1023 79 10000 2.6 270 04:36 05.04.2020
5476 Clouds -2 1022 74 10000 4.1 270 03:31 05.04.2020
5477 Clear -2 1021 68 10000 4.6 260 02:51 05.04.2020
5478 Clear -2 1020 63 10000 3.6 260 01:47 05.04.2020
5479 Clear -1 1020 63 10000 3.6 260 01:28 05.04.2020
5480 Clear -1 1020 63 10000 4.1 260 00:44 05.04.2020
5481 Clear -1 1019 63 10000 4.1 260 00:21 05.04.2020
5482 Clear -1 1019 63 10000 3.6 270 23:43 04.04.2020
5483 Clear -1 1018 81 10000 2.6 270 23:23 04.04.2020
5484 Clear 0 1018 81 10000 4.1 270 22:59 04.04.2020
5485 Clear 0 1018 81 10000 4.1 270 22:40 04.04.2020
5486 Clear 0 1017 50 10000 4.6 280 22:21 04.04.2020
5487 Clear 0 1017 50 10000 4.6 280 21:58 04.04.2020
5488 Clear 1 1017 50 10000 4.1 280 21:39 04.04.2020
5489 Clouds 1 1016 47 10000 4.6 270 21:19 04.04.2020
5490 Clouds 1 1016 47 10000 4.6 270 20:58 04.04.2020
5491 Clouds 2 1016 43 10000 5.1 270 20:39 04.04.2020
5492 Clouds 2 1015 37 10000 4.6 270 20:20 04.04.2020
5493 Clouds 2 1015 37 10000 4.6 270 19:57 04.04.2020
5494 Clouds 3 1015 34 10000 6.2 280 19:37 04.04.2020
5495 Clouds 3 1014 29 10000 7.2 260 19:18 04.04.2020
5496 Rain 4 1014 35 10000 6.7 260 18:55 04.04.2020
5497 Rain 4 1014 35 10000 6.7 260 18:37 04.04.2020
5498 Rain 4 1013 30 10000 6.7 250 18:18 04.04.2020
5499 Rain 5 1013 32 10000 7.7 260 17:40 04.04.2020
5500 Rain 5 1013 32 10000 7.7 260 17:20 04.04.2020
5501 Rain 5 1013 35 10000 7.7 250 16:55 04.04.2020
5502 Rain 5 1013 35 10000 7.7 250 16:37 04.04.2020
5503 Rain 5 1013 35 10000 7.7 250 16:37 04.04.2020
5504 Rain 5 1012 33 10000 9.3 230 16:18 04.04.2020
5505 Rain 5 1012 35 10000 5.1 270 15:40 04.04.2020
5506 Rain 5 1012 30 10000 7.2 250 15:22 04.04.2020
5507 Rain 5 1012 30 10000 7.2 250 14:57 04.04.2020
5508 Rain 5 1012 30 10000 7.2 250 14:57 04.04.2020
5509 Rain 6 1012 33 10000 8.7 240 14:39 04.04.2020
5510 Rain 6 1011 35 10000 6.2 250 14:20 04.04.2020
5511 Snow 6 1011 35 10000 6.7 240 13:55 04.04.2020
5512 Snow 6 1011 35 10000 6.7 240 13:37 04.04.2020
5513 Snow 5 1011 35 10000 8.2 250 13:18 04.04.2020
5514 Snow 5 1011 38 10000 6.2 270 12:43 04.04.2020
5515 Clouds 5 1010 41 10000 7.2 280 12:23 04.04.2020
5516 Clouds 5 1010 44 10000 6.7 270 11:55 04.04.2020
5517 Clouds 4 1010 44 10000 6.7 270 11:36 04.04.2020
5518 Clouds 4 1010 47 10000 7.2 280 11:18 04.04.2020
5519 Clouds 4 1009 51 10000 6.2 270 10:55 04.04.2020
5520 Clouds 4 1009 51 10000 6.2 270 10:37 04.04.2020
5521 Clouds 3 1009 51 10000 6.7 260 10:18 04.04.2020
5522 Clouds 3 1008 59 10000 6.2 270 09:44 04.04.2020
5523 Clouds 2 1008 59 10000 6.7 280 09:25 04.04.2020
5524 Clouds 2 1008 59 10000 6.7 280 08:58 04.04.2020
5525 Clouds 1 1008 69 10000 5.7 270 08:38 04.04.2020
5526 Clouds 1 1007 69 10000 5.1 260 08:19 04.04.2020
5527 Clear 0 1006 83 10000 4.1 250 07:40 04.04.2020
5528 Clear -1 1006 80 10000 2.6 250 07:22 04.04.2020
5529 Clear -2 1005 86 10000 3.1 250 06:46 04.04.2020
5530 Clouds -2 1004 86 10000 3.1 260 05:57 04.04.2020
5531 Clouds -2 1004 86 10000 3.1 260 05:39 04.04.2020
5532 Clouds -2 1004 80 10000 4.1 260 05:21 04.04.2020
5533 Clouds -1 1003 80 10000 3.6 260 04:24 04.04.2020
5534 Clouds -1 1002 80 10000 4.1 270 03:45 04.04.2020
5535 Clouds -1 1001 80 10000 3.1 250 02:49 04.04.2020
5536 Clouds -1 1001 80 10000 3.1 250 02:30 04.04.2020
5537 Clouds -1 1000 80 10000 3.6 260 01:50 04.04.2020
5538 Clouds -1 1000 80 10000 3.6 250 01:22 04.04.2020
5539 Clouds -1 999 80 10000 4.1 240 00:47 04.04.2020
5540 Clouds -1 999 80 10000 3.6 250 00:26 04.04.2020
5541 Clouds -1 998 89 10000 4.6 270 23:39 03.04.2020
5542 Clouds 0 998 89 10000 4.6 270 23:21 03.04.2020
5543 Clouds 0 997 89 10000 5.7 270 22:56 03.04.2020
5544 Clouds 0 997 89 10000 5.7 270 22:37 03.04.2020
5545 Clouds 0 996 89 10000 6.2 260 22:18 03.04.2020
5546 Clouds 1 996 89 10000 5.7 260 21:43 03.04.2020
5547 Clouds 1 995 64 10000 6.7 280 21:22 03.04.2020
5548 Clouds 1 995 64 10000 7.2 280 20:56 03.04.2020
5549 Clouds 1 995 64 10000 7.2 280 20:36 03.04.2020
5550 Clouds 1 995 64 10000 7.2 280 20:36 03.04.2020
5551 Clouds 1 994 64 10000 8.2 280 20:18 03.04.2020
5552 Clouds 1 993 64 10000 9.8 280 19:56 03.04.2020
5553 Clouds 1 993 64 10000 9.8 280 19:37 03.04.2020
5554 Clouds 1 992 64 10000 7.7 270 19:19 03.04.2020
5555 Clouds 1 991 64 10000 6.2 280 18:58 03.04.2020
5556 Clouds 2 991 64 10000 6.2 280 18:40 03.04.2020
5557 Clouds 2 990 64 10000 8.7 280 18:21 03.04.2020
5558 Rain 3 989 64 10000 8.2 280 17:43 03.04.2020
5559 Snow 3 988 64 10000 8.2 280 17:21 03.04.2020
5560 Snow 3 988 64 10000 8.2 280 17:21 03.04.2020
5561 Rain 3 986 69 10000 7.7 290 16:57 03.04.2020
5562 Rain 4 986 69 10000 7.7 290 16:38 03.04.2020
5563 Rain 4 985 69 10000 8.2 290 16:20 03.04.2020
5564 Rain 4 984 69 10000 9.8 280 15:56 03.04.2020
5565 Rain 4 984 69 10000 9.8 280 15:37 03.04.2020
5566 Rain 4 983 65 10000 8.7 270 15:19 03.04.2020
5567 Snow 4 979 74 10000 7.7 280 14:41 03.04.2020
5568 Snow 4 979 74 10000 7.7 280 14:22 03.04.2020
5569 Snow 4 979 74 10000 7.7 280 13:57 03.04.2020
5570 Snow 3 979 74 10000 7.7 280 13:37 03.04.2020
5571 Clouds 3 978 80 10000 5.1 280 13:18 03.04.2020
5572 Rain 2 977 73 10000 3.6 280 12:43 03.04.2020
5573 Rain 2 976 94 3500 3.1 250 12:20 03.04.2020
5574 Rain 1 975 94 1400 4.1 220 11:56 03.04.2020
5575 Rain 1 975 94 1400 4.1 220 11:37 03.04.2020
5576 Rain 1 975 86 5000 4.6 200 11:18 03.04.2020
5577 Rain 1 975 86 5000 4.6 200 10:57 03.04.2020
5578 Rain 2 975 74 9000 4.6 190 10:38 03.04.2020
5579 Rain 2 975 74 10000 6.7 190 10:20 03.04.2020
5580 Rain 2 975 74 9000 6.2 210 09:57 03.04.2020
5581 Rain 2 975 74 9000 6.2 210 09:39 03.04.2020
5582 Rain 2 975 74 9000 6.2 210 09:39 03.04.2020
5583 Rain 2 975 81 10000 5.1 210 09:21 03.04.2020
5584 Rain 2 975 81 10000 5.1 210 08:55 03.04.2020
5585 Rain 2 975 81 10000 5.1 210 08:36 03.04.2020
5586 Rain 2 975 81 10000 6.7 210 08:18 03.04.2020
5587 Clouds 1 975 81 1500 6.2 210 07:41 03.04.2020
5588 Clouds 1 975 81 10000 7.2 220 07:23 03.04.2020
5589 Snow 0 974 81 10000 6.2 200 06:34 03.04.2020
5590 Snow 0 974 88 1200 3.6 180 05:43 03.04.2020
5591 Snow 0 975 88 1400 2.6 240 05:21 03.04.2020
5592 Clouds 2 975 69 10000 6.2 220 03:37 03.04.2020
5593 Clouds 2 976 74 10000 7.7 210 02:47 03.04.2020
5594 Clouds 2 976 74 10000 9.3 220 01:30 03.04.2020
5595 Clouds 2 975 78 10000 11.8 210 00:56 03.04.2020
5596 Clouds 3 975 78 10000 9.8 200 00:33 03.04.2020
5597 Clouds 3 975 88 10000 9.8 200 23:57 02.04.2020
5598 Rain 3 975 86 10000 10.3 200 23:38 02.04.2020
5599 Rain 3 976 93 5000 12.3 200 23:18 02.04.2020
5600 Rain 4 976 86 7000 11.8 190 22:42 02.04.2020
5601 Rain 4 976 86 7000 11.8 190 22:42 02.04.2020
5602 Rain 4 978 86 10000 10.8 190 22:23 02.04.2020
5603 Rain 4 978 86 10000 10.8 190 21:59 02.04.2020
5604 Rain 4 979 75 10000 11.8 190 21:37 02.04.2020
5605 Rain 5 979 75 10000 11.8 200 21:19 02.04.2020
5606 Rain 5 980 75 10000 11.3 200 20:45 02.04.2020
5607 Rain 5 980 80 10000 12.3 210 20:25 02.04.2020
5608 Rain 5 981 80 10000 10.8 210 19:59 02.04.2020
5609 Rain 5 981 80 10000 10.8 210 19:59 02.04.2020
5610 Rain 5 981 80 10000 10.8 210 19:40 02.04.2020
5611 Clouds 5 982 80 10000 10.8 210 19:20 02.04.2020
5612 Clouds 5 982 80 10000 11.3 210 18:56 02.04.2020
5613 Clouds 5 982 80 10000 11.3 210 18:38 02.04.2020
5614 Clouds 5 983 78 10000 10.8 210 18:18 02.04.2020
5615 Clouds 5 983 75 10000 10.8 210 17:43 02.04.2020
5616 Clouds 5 984 78 10000 10.3 210 17:24 02.04.2020
5617 Clouds 6 984 70 10000 10.3 210 16:58 02.04.2020
5618 Clouds 6 984 70 10000 10.3 210 16:40 02.04.2020
5619 Clouds 6 984 70 10000 10.8 210 16:22 02.04.2020
5620 Clouds 6 984 65 10000 8.7 200 15:57 02.04.2020
5621 Clouds 6 984 65 10000 8.7 200 15:39 02.04.2020
5622 Clouds 6 985 65 10000 10.3 200 15:19 02.04.2020
5623 Clouds 6 985 65 10000 7.7 210 14:57 02.04.2020
5624 Clouds 6 985 65 10000 7.7 210 14:38 02.04.2020
5625 Clouds 7 985 70 10000 8.7 210 14:18 02.04.2020
5626 Clouds 7 986 70 10000 8.2 210 13:55 02.04.2020
5627 Clouds 7 986 70 10000 8.2 210 13:37 02.04.2020
5628 Clouds 7 986 70 10000 8.2 200 13:18 02.04.2020
5629 Clouds 7 986 70 10000 8.2 200 12:45 02.04.2020
5630 Clouds 6 986 75 10000 7.2 210 12:19 02.04.2020
5631 Clouds 6 987 75 10000 6.7 210 11:57 02.04.2020
5632 Clouds 6 987 75 10000 6.7 210 11:57 02.04.2020
5633 Clouds 6 987 75 10000 6.7 210 11:39 02.04.2020
5634 Clouds 6 987 75 10000 4.6 210 11:20 02.04.2020
5635 Clouds 5 987 75 10000 4.6 210 11:20 02.04.2020
5636 Clouds 5 987 75 10000 4.6 210 10:56 02.04.2020
5637 Clouds 5 987 80 10000 5.7 220 10:38 02.04.2020
5638 Clouds 5 987 80 10000 5.7 220 10:38 02.04.2020
5639 Clouds 5 987 86 10000 6.7 210 10:20 02.04.2020
5640 Clouds 5 988 86 10000 6.2 210 09:58 02.04.2020
5641 Clouds 5 987 86 10000 6.7 210 09:58 02.04.2020
5642 Clouds 5 988 86 10000 6.2 210 09:39 02.04.2020
5643 Clouds 5 988 86 10000 5.1 210 09:20 02.04.2020
5644 Clouds 4 988 93 10000 5.7 200 08:47 02.04.2020
5645 Clouds 4 988 93 10000 5.7 210 08:27 02.04.2020
5646 Rain 4 988 93 10000 5.7 210 07:47 02.04.2020
5647 Rain 3 989 93 10000 6.2 210 07:22 02.04.2020
5648 Rain 3 989 93 10000 6.2 210 06:59 02.04.2020
5649 Rain 3 989 93 10000 5.7 210 06:23 02.04.2020
5650 Rain 3 990 93 10000 5.7 200 05:45 02.04.2020
5651 Rain 3 991 86 10000 4.1 180 04:50 02.04.2020
5652 Clouds 0 994 92 10000 2.1 120 02:19 02.04.2020
5653 Snow 0 995 92 10000 1.5 230 00:58 02.04.2020
5654 Snow 0 995 92 10000 1.5 230 00:36 02.04.2020
5655 Clouds 0 996 86 10000 1.5 240 00:18 02.04.2020
5656 Clouds 0 996 86 10000 2.6 240 23:38 01.04.2020
5657 Clouds 0 996 86 10000 3.1 240 23:18 01.04.2020
5658 Clouds 0 996 86 10000 3.1 230 22:41 01.04.2020
5659 Clouds 0 997 86 10000 2.6 250 22:22 01.04.2020
5660 Clouds 0 997 86 10000 2.6 250 21:58 01.04.2020
5661 Clouds 0 997 55 10000 3.6 260 21:39 01.04.2020
5662 Clouds 1 997 47 10000 3.1 230 21:19 01.04.2020
5663 Clouds 1 997 47 10000 3.1 230 21:19 01.04.2020
5664 Clouds 1 997 43 10000 2.6 280 20:56 01.04.2020
5665 Clouds 2 997 43 10000 2.6 280 20:38 01.04.2020
5666 Clouds 2 997 43 10000 3.6 280 20:18 01.04.2020
5667 Clouds 2 997 43 10000 3.6 280 19:55 01.04.2020
5668 Clouds 3 997 40 10000 5.7 290 19:37 01.04.2020
5669 Clouds 3 997 38 10000 5.7 270 19:19 01.04.2020
5670 Clouds 4 996 35 10000 6.2 290 18:41 01.04.2020
5671 Clouds 5 996 32 10000 7.2 280 18:21 01.04.2020
5672 Clouds 5 996 30 10000 8.2 280 17:56 01.04.2020
5673 Clouds 5 996 30 10000 8.2 280 17:37 01.04.2020
5674 Clouds 6 996 30 10000 8.2 280 17:18 01.04.2020
5675 Clouds 6 996 30 10000 8.2 280 16:55 01.04.2020
5676 Clouds 6 996 33 10000 8.2 270 16:36 01.04.2020
5677 Clouds 6 996 33 10000 8.7 290 16:18 01.04.2020
5678 Clouds 7 996 30 10000 8.7 290 15:42 01.04.2020
5679 Clouds 7 996 36 10000 9.3 280 15:22 01.04.2020
5680 Clouds 7 996 36 10000 9.3 280 14:58 01.04.2020
5681 Clouds 7 996 33 10000 8.2 290 14:39 01.04.2020
5682 Clouds 7 996 36 10000 9.3 270 14:20 01.04.2020
5683 Clouds 7 996 39 10000 8.7 280 13:58 01.04.2020
5684 Clouds 6 996 39 10000 8.7 280 13:38 01.04.2020
5685 Clouds 6 996 45 10000 8.2 270 13:19 01.04.2020
5686 Clouds 6 996 52 10000 9.3 270 12:56 01.04.2020
5687 Clouds 6 996 52 10000 9.3 270 12:37 01.04.2020
5688 Clouds 6 996 56 10000 8.2 270 12:18 01.04.2020
5689 Clouds 5 996 56 10000 7.2 260 11:54 01.04.2020
5690 Clouds 5 996 56 10000 7.2 260 11:36 01.04.2020
5691 Clouds 5 996 60 10000 6.7 260 11:18 01.04.2020
5692 Clouds 5 996 60 10000 7.7 270 10:38 01.04.2020
5693 Clouds 4 996 64 10000 6.7 270 10:20 01.04.2020
5694 Clouds 4 996 64 10000 6.7 270 09:58 01.04.2020
5695 Clouds 4 996 64 10000 6.7 270 09:39 01.04.2020
5696 Clouds 3 996 64 10000 6.2 270 09:19 01.04.2020
5697 Clouds 2 997 69 10000 6.2 260 08:43 01.04.2020
5698 Clouds 2 997 69 10000 6.2 260 08:18 01.04.2020
5699 Clouds 1 997 74 10000 5.1 250 07:48 01.04.2020
5700 Clouds 1 997 84 10000 4.6 250 07:22 01.04.2020
5701 Clouds 0 997 84 10000 4.1 250 06:58 01.04.2020
5702 Clouds 0 997 86 10000 4.6 240 06:27 01.04.2020
5703 Clouds 0 997 86 10000 4.6 240 05:59 01.04.2020
5704 Clouds 0 998 87 10000 3.6 250 04:36 01.04.2020
5705 Clouds 1 998 86 10000 3.6 260 03:33 01.04.2020
5706 Clouds 1 998 85 10000 3.1 250 02:57 01.04.2020
5707 Clouds 2 999 86 10000 4.1 230 01:59 01.04.2020
5708 Clouds 2 999 86 10000 4.1 230 01:40 01.04.2020
5709 Clouds 2 999 86 10000 4.1 230 01:40 01.04.2020
5710 Rain 2 1000 86 10000 4.6 230 01:20 01.04.2020
5711 Rain 2 1000 86 10000 6.2 220 00:46 01.04.2020
5712 Snow 2 1001 95 10000 5.7 220 00:21 01.04.2020
5713 Snow 1 1001 95 10000 4.6 230 23:48 31.03.2020
5714 Clouds 1 1002 95 10000 6.7 220 23:28 31.03.2020
5715 Snow 1 1003 95 7000 6.7 220 22:59 31.03.2020
5716 Snow 1 1004 95 4000 6.7 220 22:37 31.03.2020
5717 Snow 1 1004 95 4000 6.7 220 22:19 31.03.2020
5718 Snow 1 1004 95 5000 6.7 220 21:57 31.03.2020
5719 Snow 1 1005 95 4000 7.7 230 21:39 31.03.2020
5720 Snow 1 1005 84 4000 7.7 230 21:20 31.03.2020
5721 Snow 1 1005 84 4000 7.7 230 20:55 31.03.2020
5722 Clouds 1 1006 69 10000 8.7 220 20:37 31.03.2020
5723 Clouds 1 1006 69 10000 8.7 220 20:18 31.03.2020
5724 Clouds 1 1007 84 10000 9.3 220 19:42 31.03.2020
5725 Clouds 0 1008 84 10000 8.7 220 19:24 31.03.2020
5726 Clouds 0 1008 84 10000 8.7 220 18:59 31.03.2020
5727 Clouds 0 1008 84 10000 8.7 220 18:59 31.03.2020
5728 Clouds 0 1008 84 10000 10.8 220 18:40 31.03.2020
5729 Clouds 0 1009 94 10000 10.3 220 18:19 31.03.2020
5730 Snow 0 1010 94 10000 9.3 220 17:55 31.03.2020
5731 Snow 0 1010 94 10000 9.3 220 17:37 31.03.2020
5732 Snow 0 1011 74 9000 9.8 230 17:19 31.03.2020
5733 Snow 0 1012 74 9000 9.8 230 16:41 31.03.2020
5734 Snow 0 1012 94 10000 10.8 230 16:20 31.03.2020
5735 Snow 0 1012 94 10000 10.8 230 15:58 31.03.2020
5736 Clouds 1 1013 47 10000 10.3 240 15:40 31.03.2020
5737 Clouds 1 1013 47 10000 10.3 240 15:22 31.03.2020
5738 Clouds 1 1014 37 10000 9.8 230 14:57 31.03.2020
5739 Clouds 1 1014 37 10000 9.8 230 14:39 31.03.2020
5740 Clouds 1 1015 40 10000 10.3 220 14:20 31.03.2020
5741 Clouds 2 1016 43 10000 8.2 240 13:43 31.03.2020
5742 Clouds 2 1017 43 10000 8.2 240 13:20 31.03.2020
5743 Clouds 1 1017 47 10000 8.7 230 12:57 31.03.2020
5744 Clouds 1 1017 47 10000 8.7 230 12:39 31.03.2020
5745 Clouds 2 1018 43 10000 8.2 240 12:19 31.03.2020
5746 Clouds 1 1019 37 10000 9.3 240 11:40 31.03.2020
5747 Clouds 1 1020 34 10000 8.2 240 11:20 31.03.2020
5748 Clouds 1 1020 34 10000 8.2 240 10:58 31.03.2020
5749 Clouds 1 1020 34 10000 8.2 240 10:58 31.03.2020
5750 Clouds 1 1021 37 10000 8.2 250 10:40 31.03.2020
5751 Clouds 1 1021 40 10000 5.7 240 10:21 31.03.2020
5752 Clouds 0 1021 81 10000 5.1 230 09:57 31.03.2020
5753 Clouds 0 1021 81 10000 5.1 230 09:39 31.03.2020
5754 Clear 0 1022 58 10000 5.1 230 09:21 31.03.2020
5755 Clear -1 1022 63 10000 3.1 230 08:57 31.03.2020
5756 Clear -2 1022 63 10000 3.1 230 08:38 31.03.2020
5757 Clear -2 1023 73 10000 2.1 220 08:19 31.03.2020
5758 Clear -5 1023 85 10000 1.5 220 07:56 31.03.2020
5759 Clear -5 1023 85 10000 1.5 220 07:37 31.03.2020
5760 Clear -5 1024 78 0 0.45 295 07:18 31.03.2020
5761 Clear -7 1023 92 10000 1 250 06:43 31.03.2020
5762 Clear -7 1024 92 10000 2.24 301 05:59 31.03.2020
5763 Clear -7 1024 92 10000 2.24 301 05:39 31.03.2020
5764 Clear -7 1025 85 10000 1 310 03:34 31.03.2020
5765 Clear -6 1025 85 10000 1.5 300 01:54 31.03.2020
5766 Clear -5 1025 79 10000 1.5 330 01:34 31.03.2020
5767 Clear -5 1025 79 10000 1 340 00:46 31.03.2020
5768 Clouds -5 1025 73 10000 1 300 00:25 31.03.2020
5769 Clouds -5 1025 79 10000 0.5 360 23:41 30.03.2020
5770 Clouds -5 1025 85 10000 1 340 23:20 30.03.2020
5771 Clouds -4 1025 85 10000 1 340 22:58 30.03.2020
5772 Clouds -4 1025 68 10000 1.5 350 22:39 30.03.2020
5773 Clouds -4 1024 68 10000 2.1 360 22:20 30.03.2020
5774 Clouds -3 1024 68 10000 2.1 360 21:58 30.03.2020
5775 Clouds -3 1024 63 10000 1.5 40 21:39 30.03.2020
5776 Clouds -3 1024 63 10000 1.5 40 21:39 30.03.2020
5777 Clouds -3 1024 73 10000 2.6 330 21:20 30.03.2020
5778 Clouds -3 1024 73 10000 1 10 20:59 30.03.2020
5779 Clouds -3 1024 73 10000 1 10 20:39 30.03.2020
5780 Clouds -2 1023 68 10000 1.74 69 20:20 30.03.2020
5781 Clouds -3 1023 68 10000 1.74 69 20:20 30.03.2020
5782 Clouds -2 1023 58 10000 1 0 19:56 30.03.2020
5783 Clouds -1 1023 58 10000 1 0 19:38 30.03.2020
5784 Clouds -1 1023 58 10000 1 0 19:38 30.03.2020
5785 Clouds -1 1023 58 10000 2.6 320 19:20 30.03.2020
5786 Rain 0 1022 58 10000 2.1 310 18:43 30.03.2020
5787 Rain 0 1022 73 10000 1.5 0 18:25 30.03.2020
5788 Rain 0 1022 43 10000 2.1 360 17:58 30.03.2020
5789 Rain 1 1022 43 10000 2.1 360 17:39 30.03.2020
5790 Rain 1 1022 40 10000 2.1 0 17:20 30.03.2020
5791 Rain 1 1022 40 10000 2.1 0 16:58 30.03.2020
5792 Rain 1 1022 37 10000 1 0 16:39 30.03.2020
5793 Rain 1 1022 73 10000 3.1 80 16:20 30.03.2020
5794 -273 0 0 0 0 0 16:20 30.03.2020
5795 -273 0 0 0 0 0 16:20 30.03.2020
5796 Rain 1 1022 43 10000 2.6 0 15:55 30.03.2020
5797 Rain 1 1022 43 10000 2.6 0 15:37 30.03.2020
5798 Rain 1 1021 43 10000 2.6 170 15:19 30.03.2020
5799 Rain 1 1021 43 10000 2.6 170 15:19 30.03.2020
5800 Snow 1 1021 72 10000 1.5 0 14:55 30.03.2020
5801 Snow 1 1021 72 10000 1.5 0 14:37 30.03.2020
5802 Clouds 1 1022 46 0 3.88 84 14:18 30.03.2020
5803 Rain 1 1021 73 10000 3.6 50 13:55 30.03.2020
5804 Rain 1 1021 73 10000 3.6 50 13:55 30.03.2020
5805 Rain 1 1021 73 10000 3.6 50 13:37 30.03.2020
5806 Rain 1 1021 34 10000 2.6 110 13:18 30.03.2020
5807 Rain 1 1020 34 10000 4.1 80 12:43 30.03.2020
5808 Clouds 1 1020 77 10000 2.6 80 12:20 30.03.2020
5809 Clouds 1 1020 77 10000 2.6 80 11:57 30.03.2020
5810 Clouds 1 1020 77 10000 3.1 40 11:39 30.03.2020
5811 Clouds 0 1020 77 10000 2.1 30 11:21 30.03.2020
5812 Clouds 0 1020 50 10000 3.1 20 10:41 30.03.2020
5813 Clouds 0 1020 50 10000 3.1 20 10:22 30.03.2020
5814 Clouds -1 1020 50 10000 2.1 350 09:58 30.03.2020
5815 Clouds -1 1019 50 10000 2.6 10 09:39 30.03.2020
5816 Clouds -1 1019 50 10000 3.1 350 09:19 30.03.2020
5817 Clouds -2 1019 58 10000 3.6 360 08:43 30.03.2020
5818 Clouds -2 1019 58 10000 3.1 350 08:23 30.03.2020
5819 Clouds -2 1019 63 10000 2.6 350 07:53 30.03.2020
5820 Clouds -3 1019 63 10000 2.6 350 07:34 30.03.2020
5821 Clouds -3 1019 68 10000 2.6 350 06:57 30.03.2020
5822 Clouds -3 1019 68 10000 2.6 350 06:33 30.03.2020
5823 Clouds -4 1018 68 10000 1.5 300 05:55 30.03.2020
5824 Clouds -4 1018 68 10000 1.5 300 05:33 30.03.2020
5825 Clouds -4 1018 68 10000 2.6 280 04:24 30.03.2020
5826 Clouds -4 1018 79 10000 2.1 280 03:44 30.03.2020
5827 Clouds -4 1018 79 10000 0.5 0 02:42 30.03.2020
5828 Clouds -4 1019 67 10000 1.5 310 01:48 30.03.2020
5829 Clouds -4 1019 73 10000 2.1 280 00:55 30.03.2020
5830 Clouds -4 1019 73 10000 1.5 300 00:24 30.03.2020
5831 Clouds -4 1019 67 10000 2.6 290 23:43 29.03.2020
5832 Clouds -4 1019 67 10000 3.6 290 23:24 29.03.2020
5833 Clouds -3 1019 67 10000 3.6 290 22:59 29.03.2020
5834 Clouds -3 1019 68 10000 3.1 280 22:39 29.03.2020
5835 Clouds -3 1019 68 10000 2.6 280 22:19 29.03.2020
5836 Clouds -3 1019 68 10000 2.6 280 21:57 29.03.2020
5837 Clouds -3 1019 68 10000 2.6 280 21:36 29.03.2020
5838 Clouds -2 1019 68 10000 2.1 270 21:18 29.03.2020
5839 Clouds -2 1019 68 10000 2.6 280 20:55 29.03.2020
5840 Clouds -3 1019 68 10000 2.6 280 20:36 29.03.2020
5841 Clouds -2 1019 58 10000 2.6 280 20:18 29.03.2020
5842 Clouds -2 1019 58 10000 2.6 310 19:42 29.03.2020
5843 Rain -1 1019 50 10000 3.6 350 19:24 29.03.2020
5844 Rain 0 1019 58 10000 7.7 320 18:58 29.03.2020
5845 Rain 0 1019 58 10000 7.7 320 18:40 29.03.2020
5846 Rain 0 1019 40 10000 5.1 290 18:21 29.03.2020
5847 Rain 1 1019 37 10000 4.6 300 17:59 29.03.2020
5848 Rain 1 1019 37 10000 4.6 300 17:41 29.03.2020
5849 Rain 1 1019 31 10000 4.6 320 17:22 29.03.2020
5850 Rain 1 1019 31 10000 4.6 320 17:22 29.03.2020
5851 Rain 1 1019 29 10000 5.1 280 16:58 29.03.2020
5852 Rain 1 1019 29 10000 5.1 280 16:39 29.03.2020
5853 Rain 2 1019 26 10000 6.2 300 16:20 29.03.2020
5854 Rain 1 1019 26 10000 6.2 300 15:56 29.03.2020
5855 Rain 2 1019 22 10000 5.1 310 15:37 29.03.2020
5856 Rain 2 1020 24 10000 4.1 300 15:19 29.03.2020
5857 Rain 2 1020 24 10000 5.7 320 14:55 29.03.2020
5858 Rain 2 1020 24 10000 5.7 320 14:36 29.03.2020
5859 Clouds 2 1020 24 10000 7.7 300 14:18 29.03.2020
5860 Clouds 2 1020 24 10000 4.6 350 13:41 29.03.2020
5861 Clouds 2 1021 26 10000 5.1 340 13:22 29.03.2020
5862 Clouds 2 1021 27 10000 5.7 340 12:58 29.03.2020
5863 Clouds 2 1021 27 10000 5.7 340 12:39 29.03.2020
5864 Clear 2 1021 29 10000 5.7 330 12:19 29.03.2020
5865 Clear 1 1021 29 10000 5.7 330 11:58 29.03.2020
5866 Clear 1 1021 34 10000 5.1 340 11:37 29.03.2020
5867 Clear 1 1021 34 10000 5.7 320 11:19 29.03.2020
5868 Clear 1 1021 74 10000 6.7 320 10:39 29.03.2020
5869 Clear 0 1021 74 10000 6.2 340 10:20 29.03.2020
5870 Clear 0 1022 46 10000 5.1 340 09:56 29.03.2020
5871 Clear 0 1022 46 10000 5.1 340 09:56 29.03.2020
5872 Clear 0 1022 46 10000 5.1 340 09:37 29.03.2020
5873 Clouds 0 1022 50 10000 5.7 330 09:18 29.03.2020
5874 Clouds -1 1022 50 10000 5.1 340 08:43 29.03.2020
5875 Clouds -1 1022 54 10000 5.1 320 08:24 29.03.2020
5876 Clouds -2 1022 54 10000 3.6 320 07:47 29.03.2020
5877 Clouds -2 1022 58 10000 2.6 320 07:23 29.03.2020
5878 Clouds -3 1021 53 10000 3.1 330 05:59 29.03.2020
5879 Clouds -2 1021 50 10000 3.6 330 04:56 29.03.2020
5880 Clouds -1 1021 42 10000 4.1 350 03:41 29.03.2020
5881 Clouds 0 1020 84 10000 4.1 340 01:57 29.03.2020
5882 Clouds 0 1020 84 10000 4.1 340 01:39 29.03.2020
5883 Clouds 0 1020 85 10000 4.1 340 01:20 29.03.2020
5884 Clouds 0 1020 85 10000 3.1 330 00:40 29.03.2020
5885 Clouds 1 1020 85 10000 2.6 340 00:18 29.03.2020
5886 Clouds 1 1019 40 10000 3.6 330 23:40 28.03.2020
5887 Clouds 1 1019 40 10000 4.1 330 23:22 28.03.2020
5888 Clouds 1 1019 40 10000 3.6 340 22:43 28.03.2020
5889 Clouds 2 1018 37 10000 4.6 340 22:22 28.03.2020
5890 Clouds 2 1018 40 10000 5.7 340 21:57 28.03.2020
5891 Clouds 2 1018 40 10000 5.7 340 21:39 28.03.2020
5892 Clouds 3 1018 47 10000 4.6 340 21:19 28.03.2020
5893 Clouds 3 1018 47 10000 4.6 330 20:56 28.03.2020
5894 Clouds 3 1018 47 10000 4.6 330 20:37 28.03.2020
5895 Clouds 3 1018 47 10000 3.6 330 20:19 28.03.2020
5896 Clouds 3 1017 44 10000 4.1 330 19:55 28.03.2020
5897 Clouds 4 1017 44 10000 4.1 330 19:36 28.03.2020
5898 Clouds 4 1017 41 10000 5.1 340 19:18 28.03.2020
5899 Clouds 5 1016 38 10000 6.2 330 18:39 28.03.2020
5900 Clouds 5 1016 38 10000 6.2 340 18:20 28.03.2020
5901 Clouds 6 1016 38 10000 5.1 330 17:41 28.03.2020
5902 Clouds 7 1015 39 10000 6.7 330 17:22 28.03.2020
5903 Clouds 7 1015 42 10000 6.2 330 16:59 28.03.2020
5904 Clouds 8 1015 42 10000 6.2 330 16:38 28.03.2020
5905 Clouds 8 1015 39 10000 4.6 300 16:18 28.03.2020
5906 Rain 9 1015 49 10000 1.5 230 15:40 28.03.2020
5907 Rain 9 1015 68 10000 1.5 330 15:19 28.03.2020
5908 Rain 9 1015 68 10000 1.5 330 14:57 28.03.2020
5909 Rain 9 1015 68 10000 4.1 310 14:39 28.03.2020
5910 Rain 9 1015 45 10000 5.1 310 14:20 28.03.2020
5911 Clouds 10 1015 43 10000 3.1 250 13:42 28.03.2020
5912 Clouds 10 1016 46 10000 4.6 280 13:23 28.03.2020
5913 Clouds 9 1016 43 10000 4.1 280 12:41 28.03.2020
5914 Clouds 10 1016 49 10000 4.6 280 12:22 28.03.2020
5915 Clouds 9 1016 77 10000 4.1 270 11:43 28.03.2020
5916 Clouds 9 1016 57 10000 4.1 280 11:24 28.03.2020
5917 Clouds 9 1016 82 10000 4.1 260 10:58 28.03.2020
5918 Clouds 8 1016 82 10000 4.1 260 10:38 28.03.2020
5919 Clouds 7 1016 56 10000 3.6 230 10:18 28.03.2020
5920 Clouds 7 1016 56 10000 4.1 210 09:43 28.03.2020
5921 Clouds 6 1016 56 10000 3.1 210 09:23 28.03.2020
5922 Clouds 6 1016 60 10000 3.1 210 08:55 28.03.2020
5923 Clouds 5 1016 60 10000 3.1 210 08:37 28.03.2020
5924 Clouds 5 1017 64 10000 2.6 240 08:18 28.03.2020
5925 Clouds 4 1017 64 10000 3.1 230 07:42 28.03.2020
5926 Clouds 3 1017 74 10000 2.6 240 06:58 28.03.2020
5927 Clouds 2 1017 74 10000 2.6 240 06:35 28.03.2020
5928 Clouds 1 1018 64 10000 1.5 220 05:42 28.03.2020
5929 Clouds 1 1018 64 10000 2.1 240 05:21 28.03.2020
5930 Clouds 2 1018 59 10000 2.6 240 04:40 28.03.2020
5931 Clouds 2 1019 69 10000 3.1 210 03:34 28.03.2020
5932 Clouds 2 1021 69 10000 2.6 230 01:53 28.03.2020
5933 Clouds 2 1021 69 10000 2.6 230 01:25 28.03.2020
5934 Clouds 3 1021 64 10000 2.6 210 00:56 28.03.2020
5935 Clouds 3 1021 64 10000 2.6 210 00:35 28.03.2020
5936 Clouds 3 1022 64 10000 2.6 220 23:54 27.03.2020
5937 Clouds 3 1022 64 10000 2.6 220 23:36 27.03.2020
5938 Clouds 3 1023 64 10000 3.6 200 23:18 27.03.2020
5939 Clouds 3 1023 60 10000 3.6 200 22:54 27.03.2020
5940 Clouds 3 1023 60 10000 3.6 200 22:36 27.03.2020
5941 Clouds 3 1024 55 10000 2.6 200 22:18 27.03.2020
5942 Clouds 3 1024 59 10000 2.1 200 21:42 27.03.2020
5943 Clouds 3 1024 55 10000 2.6 200 21:23 27.03.2020
5944 Clouds 3 1024 55 10000 2.6 200 20:58 27.03.2020
5945 Clouds 3 1024 48 10000 3.1 190 20:58 27.03.2020
5946 Clouds 3 1024 48 10000 3.1 190 20:39 27.03.2020
5947 Clouds 3 1025 48 10000 2.1 200 20:20 27.03.2020
5948 Clouds 4 1025 48 10000 2.1 200 19:56 27.03.2020
5949 Clouds 4 1025 48 10000 3.1 210 19:38 27.03.2020
5950 Clouds 4 1025 48 10000 3.1 220 19:19 27.03.2020
5951 Clouds 5 1026 41 10000 3.6 210 18:43 27.03.2020
5952 Clouds 5 1026 38 10000 4.1 210 18:23 27.03.2020
5953 Clouds 6 1026 41 10000 4.6 210 17:55 27.03.2020
5954 Clouds 6 1026 41 10000 4.6 210 17:37 27.03.2020
5955 Clouds 6 1026 42 10000 4.1 210 17:19 27.03.2020
5956 Clouds 6 1027 45 10000 4.1 200 16:44 27.03.2020
5957 Clouds 7 1027 42 10000 4.6 200 16:25 27.03.2020
5958 Clouds 7 1027 42 10000 4.6 200 16:25 27.03.2020
5959 Clouds 7 1028 42 10000 4.6 210 15:45 27.03.2020
5960 Clouds 8 1028 42 10000 5.1 220 15:26 27.03.2020
5961 Clouds 8 1028 45 10000 5.7 210 14:56 27.03.2020
5962 Clouds 8 1028 45 10000 5.7 210 14:37 27.03.2020
5963 Clouds 8 1029 51 0 5.93 235 14:18 27.03.2020
5964 Clouds 8 1029 45 10000 6.2 220 13:43 27.03.2020
5965 Clouds 8 1029 39 10000 6.2 210 13:22 27.03.2020
5966 Clouds 8 1030 42 10000 6.2 220 12:59 27.03.2020
5967 Clouds 7 1030 42 10000 6.2 220 12:39 27.03.2020
5968 Clouds 7 1030 39 10000 6.7 220 12:19 27.03.2020
5969 Clouds 7 1030 42 10000 6.7 220 11:42 27.03.2020
5970 Clouds 7 1030 48 10000 6.2 200 11:24 27.03.2020
5971 Clouds 7 1030 49 10000 6.2 200 10:56 27.03.2020
5972 Clouds 7 1030 49 10000 6.2 200 10:38 27.03.2020
5973 Clouds 6 1030 56 10000 5.1 190 10:20 27.03.2020
5974 Clouds 6 1030 60 10000 4.1 210 09:58 27.03.2020
5975 Clouds 6 1030 60 10000 4.1 210 09:38 27.03.2020
5976 Clouds 5 1030 60 10000 5.1 210 09:20 27.03.2020
5977 Clouds 5 1031 71 10000 5.7 210 08:57 27.03.2020
5978 Clouds 5 1031 71 10000 5.7 210 08:38 27.03.2020
5979 Clouds 4 1031 80 10000 5.1 220 08:20 27.03.2020
5980 Clouds 3 1031 86 10000 3.6 210 07:52 27.03.2020
5981 Clouds 3 1031 93 8000 3.1 210 07:26 27.03.2020
5982 Clouds 1 1031 80 7000 2.1 220 06:55 27.03.2020
5983 Clouds 1 1031 80 7000 2.1 220 06:37 27.03.2020
5984 Clouds -1 1030 92 10000 3.1 200 05:28 27.03.2020
5985 Clear -1 1031 92 10000 2.6 220 02:46 27.03.2020
5986 Clouds 0 1031 92 10000 3.1 210 01:23 27.03.2020
5987 Clouds 0 1031 86 10000 4.1 210 00:51 27.03.2020
5988 Clouds 0 1031 86 10000 3.1 220 00:31 27.03.2020
5989 Clouds 1 1031 86 10000 3.1 230 23:44 26.03.2020
5990 Clouds 1 1031 83 10000 2.6 230 23:23 26.03.2020
5991 Clouds 1 1031 80 10000 2.6 240 22:59 26.03.2020
5992 Clouds 1 1031 80 10000 2.6 240 22:38 26.03.2020
5993 Clouds 1 1031 86 10000 2.6 240 22:20 26.03.2020
5994 Clouds 1 1031 86 10000 2.6 240 22:20 26.03.2020
5995 Clouds 1 1031 86 10000 2.6 240 21:57 26.03.2020
5996 Clouds 2 1031 74 10000 4.1 230 21:38 26.03.2020
5997 Clouds 2 1031 80 10000 4.6 220 21:20 26.03.2020
5998 Clouds 2 1030 80 10000 4.6 220 20:57 26.03.2020
5999 Clouds 3 1030 80 10000 4.6 220 20:38 26.03.2020
6000 Clouds 3 1030 74 10000 4.6 220 20:20 26.03.2020
6001 Clouds 3 1030 79 10000 5.1 220 19:54 26.03.2020
6002 Clouds 3 1030 79 10000 5.1 220 19:36 26.03.2020
6003 Clouds 3 1030 79 10000 5.1 220 19:18 26.03.2020
6004 Clouds 4 1029 69 10000 5.7 210 18:41 26.03.2020
6005 Clouds 4 1029 65 10000 5.1 210 18:23 26.03.2020
6006 Clouds 4 1029 65 10000 5.1 210 18:23 26.03.2020
6007 Clouds 5 1029 60 10000 6.2 220 17:56 26.03.2020
6008 Clouds 5 1029 60 10000 6.2 220 17:37 26.03.2020
6009 Clear 6 1029 56 10000 6.2 220 17:18 26.03.2020
6010 Clear 7 1029 49 10000 8.2 220 16:44 26.03.2020
6011 Clear 7 1029 45 10000 7.7 220 16:26 26.03.2020
6012 Clear 8 1029 45 10000 8.7 220 15:58 26.03.2020
6013 Clear 8 1029 45 10000 8.7 220 15:39 26.03.2020
6014 Clear 8 1029 49 10000 8.2 220 15:20 26.03.2020
6015 Clouds 8 1029 57 10000 9.3 200 14:57 26.03.2020
6016 Clouds 8 1029 57 10000 9.3 200 14:37 26.03.2020
6017 Clouds 9 1029 57 10000 7.7 210 14:18 26.03.2020
6018 Clouds 9 1028 57 10000 7.7 220 13:41 26.03.2020
6019 Clouds 9 1028 53 10000 6.7 210 13:22 26.03.2020
6020 Clouds 9 1028 50 10000 6.2 210 12:55 26.03.2020
6021 Clouds 9 1028 50 10000 6.2 210 12:37 26.03.2020
6022 Clouds 9 1028 76 10000 6.2 220 12:18 26.03.2020
6023 Clouds 9 1028 76 10000 7.2 210 11:44 26.03.2020
6024 Clouds 8 1028 46 10000 6.2 210 11:20 26.03.2020
6025 Clouds 8 1028 49 10000 6.2 220 10:55 26.03.2020
6026 Clouds 7 1028 49 10000 6.2 220 10:36 26.03.2020
6027 Clouds 8 1028 49 10000 5.1 220 10:18 26.03.2020
6028 Clouds 7 1028 52 10000 5.1 210 09:42 26.03.2020
6029 Clouds 6 1028 52 10000 4.6 210 09:19 26.03.2020
6030 Clouds 6 1028 60 10000 5.1 230 08:44 26.03.2020
6031 Clouds 6 1028 60 10000 5.1 230 08:26 26.03.2020
6032 Clouds 5 1028 65 10000 4.6 230 07:57 26.03.2020
6033 Clouds 4 1028 69 10000 3.6 240 07:57 26.03.2020
6034 Clouds 4 1028 69 10000 3.6 240 07:38 26.03.2020
6035 Clouds 4 1028 74 10000 3.6 250 07:19 26.03.2020
6036 Clouds 3 1027 74 10000 3.6 240 06:35 26.03.2020
6037 Clouds 3 1027 74 10000 4.1 230 05:51 26.03.2020
6038 Clouds 2 1026 74 10000 3.6 230 03:47 26.03.2020
6039 Clouds 3 1026 74 10000 4.1 230 03:18 26.03.2020
6040 Clouds 3 1026 69 10000 4.1 230 02:50 26.03.2020
6041 Clouds 3 1025 74 10000 4.1 210 01:19 26.03.2020
6042 Clouds 3 1025 69 10000 3.6 220 00:33 26.03.2020
6043 Clouds 4 1025 64 10000 3.6 230 23:44 25.03.2020
6044 Clouds 4 1025 64 10000 4.1 230 23:26 25.03.2020
6045 Clouds 4 1025 64 10000 4.6 230 22:55 25.03.2020
6046 Clouds 4 1025 64 10000 4.6 230 22:37 25.03.2020
6047 Clouds 4 1024 64 10000 4.6 230 22:18 25.03.2020
6048 Clouds 4 1024 64 10000 5.7 230 21:43 25.03.2020
6049 Clouds 4 1024 60 10000 5.7 230 21:24 25.03.2020
6050 Clouds 4 1024 60 10000 5.7 230 20:59 25.03.2020
6051 Clouds 4 1024 60 10000 5.1 230 20:39 25.03.2020
6052 Clouds 4 1024 60 10000 5.1 230 20:19 25.03.2020
6053 Clouds 4 1024 60 10000 5.1 230 19:55 25.03.2020
6054 Clouds 4 1024 60 10000 5.1 230 19:37 25.03.2020
6055 Clouds 4 1024 56 10000 5.7 230 19:18 25.03.2020
6056 Clouds 5 1024 56 10000 6.2 230 18:43 25.03.2020
6057 Clouds 5 1023 56 10000 7.7 230 18:25 25.03.2020
6058 Clouds 5 1023 56 10000 8.7 230 17:58 25.03.2020
6059 Clouds 6 1023 56 10000 8.7 230 17:40 25.03.2020
6060 Clouds 5 1023 56 10000 9.3 220 17:21 25.03.2020
6061 Clouds 6 1024 64 0 12.64 247 16:56 25.03.2020
6062 Clouds 6 1022 52 10000 9.3 220 16:38 25.03.2020
6063 Clouds 6 1023 52 10000 10.3 220 16:20 25.03.2020
6064 Clouds 7 1022 52 10000 8.2 210 15:42 25.03.2020
6065 Clouds 7 1023 52 10000 8.7 220 15:20 25.03.2020
6066 Clouds 8 1023 49 10000 9.3 220 14:57 25.03.2020
6067 Clouds 8 1023 49 10000 9.3 220 14:39 25.03.2020
6068 Clouds 8 1023 49 10000 9.3 220 14:39 25.03.2020
6069 Clouds 7 1023 69 10000 8.7 220 14:19 25.03.2020
6070 Clouds 8 1023 49 10000 9.3 220 13:44 25.03.2020
6071 Clouds 8 1023 69 10000 9.3 210 13:24 25.03.2020
6072 Clouds 7 1023 69 10000 9.8 210 12:39 25.03.2020
6073 Clouds 7 1023 69 10000 9.8 210 12:39 25.03.2020
6074 Clouds 7 1023 69 10000 10.3 220 12:21 25.03.2020
6075 Clouds 8 1023 49 10000 9.8 220 11:57 25.03.2020
6076 Clouds 7 1023 49 10000 9.8 220 11:39 25.03.2020
6077 Clouds 7 1023 45 10000 10.8 220 11:20 25.03.2020
6078 Clouds 7 1023 45 10000 10.8 220 11:20 25.03.2020
6079 Clouds 7 1022 45 10000 11.3 220 10:58 25.03.2020
6080 Clouds 8 1022 45 10000 11.3 220 10:39 25.03.2020
6081 Clouds 8 1022 45 10000 11.3 220 10:39 25.03.2020
6082 Clouds 7 1023 42 10000 10.8 220 10:18 25.03.2020
6083 Clouds 7 1023 42 10000 9.8 220 09:43 25.03.2020
6084 Clouds 7 1023 45 10000 9.8 220 09:25 25.03.2020
6085 Clouds 7 1023 45 10000 9.8 220 08:58 25.03.2020
6086 Clouds 7 1023 45 10000 9.8 230 08:40 25.03.2020
6087 Clouds 6 1023 52 10000 8.2 230 08:20 25.03.2020
6088 Clouds 6 1023 52 10000 8.2 230 07:55 25.03.2020
6089 Clouds 5 1023 56 10000 9.3 230 07:36 25.03.2020
6090 Clouds 5 1023 65 10000 8.7 220 07:18 25.03.2020
6091 Clouds 4 1023 69 10000 8.7 220 06:41 25.03.2020
6092 Clouds 4 1023 69 10000 7.7 220 06:22 25.03.2020
6093 Clouds 3 1023 74 10000 6.7 210 05:47 25.03.2020
6094 Clouds 3 1023 74 10000 7.2 210 04:42 25.03.2020
6095 Clouds 3 1023 78 10000 7.2 210 03:57 25.03.2020
6096 Clouds 3 1023 78 10000 7.2 210 03:30 25.03.2020
6097 Clouds 3 1024 78 10000 6.7 210 01:40 25.03.2020
6098 Clouds 3 1024 77 10000 7.2 210 00:50 25.03.2020
6099 Clouds 3 1025 74 10000 6.7 210 00:27 25.03.2020
6100 Clouds 3 1025 74 10000 6.7 210 23:54 24.03.2020
6101 Clouds 3 1025 74 10000 6.2 220 23:28 24.03.2020
6102 Clouds 3 1025 69 10000 7.2 220 22:58 24.03.2020
6103 Clouds 3 1025 69 10000 7.2 220 22:38 24.03.2020
6104 Clouds 3 1025 69 10000 8.2 220 22:20 24.03.2020
6105 Clouds 3 1025 69 10000 8.2 220 21:57 24.03.2020
6106 Clouds 3 1026 69 10000 7.7 220 21:39 24.03.2020
6107 Clouds 3 1026 69 10000 6.7 220 21:18 24.03.2020
6108 Clouds 3 1026 69 10000 7.2 230 20:57 24.03.2020
6109 Clouds 3 1026 69 10000 7.2 230 20:39 24.03.2020
6110 Clouds 3 1026 69 10000 7.2 220 20:21 24.03.2020
6111 Clouds 3 1026 69 10000 7.2 220 19:45 24.03.2020
6112 Clouds 3 1026 74 10000 7.7 220 19:20 24.03.2020
6113 Clouds 3 1026 74 10000 7.7 220 18:56 24.03.2020
6114 Clouds 3 1027 74 10000 7.7 220 18:37 24.03.2020
6115 Clouds 3 1027 74 10000 8.7 220 18:19 24.03.2020
6116 Clouds 3 1027 74 10000 9.3 220 17:56 24.03.2020
6117 Clouds 3 1027 74 10000 9.3 220 17:37 24.03.2020
6118 Clouds 4 1027 69 10000 9.3 210 17:19 24.03.2020
6119 Clouds 4 1027 69 10000 9.3 210 16:42 24.03.2020
6120 Clouds 4 1027 69 10000 9.3 210 16:24 24.03.2020
6121 Clouds 4 1027 69 10000 8.7 220 15:59 24.03.2020
6122 Clouds 5 1027 65 10000 8.7 220 15:40 24.03.2020
6123 Clouds 5 1028 60 10000 8.7 220 15:22 24.03.2020
6124 Clouds 5 1027 60 10000 8.7 210 14:43 24.03.2020
6125 Clouds 6 1028 60 10000 8.2 210 14:22 24.03.2020
6126 Clouds 5 1027 56 10000 8.7 210 13:56 24.03.2020
6127 Clouds 6 1027 56 10000 8.7 210 13:38 24.03.2020
6128 Clouds 6 1028 76 10000 8.2 210 13:20 24.03.2020
6129 Clouds 6 1028 42 10000 9.8 230 12:42 24.03.2020
6130 Clouds 7 1028 42 10000 9.8 230 12:23 24.03.2020
6131 Clouds 6 1028 49 10000 8.7 230 11:41 24.03.2020
6132 Clouds 6 1028 52 10000 9.3 230 11:20 24.03.2020
6133 Clouds 5 1028 52 10000 8.2 230 10:57 24.03.2020
6134 Clouds 5 1028 52 10000 8.2 230 10:57 24.03.2020
6135 Clouds 5 1028 52 10000 8.2 230 10:38 24.03.2020
6136 Clouds 5 1028 56 10000 7.2 230 10:18 24.03.2020
6137 Clouds 5 1029 60 10000 8.7 230 09:43 24.03.2020
6138 Clouds 4 1029 69 10000 9.3 230 09:25 24.03.2020
6139 Clouds 4 1029 74 10000 6.7 230 08:40 24.03.2020
6140 Clouds 3 1029 74 10000 7.7 230 08:21 24.03.2020
6141 Clouds 3 1029 74 10000 7.7 230 07:59 24.03.2020
6142 Clouds 3 1029 74 10000 9.3 220 07:41 24.03.2020
6143 Clouds 3 1029 74 10000 7.7 230 07:21 24.03.2020
6144 Clouds 2 1030 74 10000 7.7 220 06:35 24.03.2020
6145 Clouds 2 1030 80 10000 7.7 210 05:42 24.03.2020
6146 Clouds 2 1030 80 10000 7.7 210 04:51 24.03.2020
6147 Clouds 2 1031 80 10000 6.7 210 03:21 24.03.2020
6148 Clouds 2 1032 74 10000 7.2 210 02:37 24.03.2020
6149 Clouds 2 1032 80 10000 6.2 210 00:54 24.03.2020
6150 Clouds 2 1033 80 10000 6.2 200 00:27 24.03.2020
6151 Clouds 2 1033 80 10000 6.7 200 23:55 23.03.2020
6152 Clouds 2 1033 80 10000 6.7 200 23:37 23.03.2020
6153 Clouds 2 1033 80 10000 6.7 210 23:19 23.03.2020
6154 Clouds 2 1033 74 10000 5.7 200 22:43 23.03.2020
6155 Clouds 2 1033 74 10000 6.7 200 22:22 23.03.2020
6156 Clouds 2 1034 74 10000 6.7 200 21:55 23.03.2020
6157 Clouds 2 1034 74 10000 6.7 200 21:37 23.03.2020
6158 Clouds 2 1034 80 10000 6.2 200 21:18 23.03.2020
6159 Clouds 2 1034 74 10000 7.2 210 20:42 23.03.2020
6160 Clouds 2 1034 74 10000 6.2 210 20:24 23.03.2020
6161 Clouds 2 1034 74 10000 6.2 210 19:55 23.03.2020
6162 Clouds 2 1034 74 10000 6.2 210 19:37 23.03.2020
6163 Clouds 2 1035 80 10000 5.7 210 19:19 23.03.2020
6164 Clouds 2 1035 74 10000 6.7 210 18:43 23.03.2020
6165 Clouds 2 1035 74 10000 8.2 210 18:24 23.03.2020
6166 Clouds 2 1035 74 10000 7.2 210 17:59 23.03.2020
6167 Clouds 2 1035 74 10000 7.2 210 17:40 23.03.2020
6168 Clouds 2 1035 69 10000 7.2 220 17:19 23.03.2020
6169 Clouds 3 1035 64 10000 8.7 210 16:43 23.03.2020
6170 Clouds 3 1035 64 10000 8.7 210 16:25 23.03.2020
6171 Clouds 3 1036 64 10000 9.8 210 15:54 23.03.2020
6172 Clouds 3 1036 64 10000 9.8 210 15:36 23.03.2020
6173 Clouds 3 1036 64 10000 9.8 210 15:18 23.03.2020
6174 Clouds 3 1036 64 10000 9.8 210 15:18 23.03.2020
6175 Clouds 4 1036 60 10000 9.3 210 14:37 23.03.2020
6176 Clouds 4 1036 60 10000 8.7 210 14:19 23.03.2020
6177 Clouds 4 1036 60 10000 8.7 210 14:19 23.03.2020
6178 Clouds 4 1037 64 10000 9.3 210 13:55 23.03.2020
6179 Clouds 3 1037 64 10000 9.3 210 13:37 23.03.2020
6180 Clouds 4 1037 60 10000 8.2 210 13:19 23.03.2020
6181 Clouds 4 1037 60 10000 8.2 220 12:42 23.03.2020
6182 Clouds 3 1037 64 10000 8.2 210 12:22 23.03.2020
6183 Clouds 3 1037 64 10000 8.2 210 12:22 23.03.2020
6184 Clouds 3 1038 64 10000 8.2 210 11:56 23.03.2020
6185 Clouds 3 1038 64 10000 8.2 210 11:37 23.03.2020
6186 Clouds 3 1038 64 10000 6.7 200 11:18 23.03.2020
6187 Clouds 3 1038 59 10000 5.7 220 10:42 23.03.2020
6188 Clouds 3 1038 64 10000 7.2 200 10:23 23.03.2020
6189 Clouds 3 1038 64 10000 7.2 200 09:59 23.03.2020
6190 Clouds 3 1038 64 10000 6.2 210 09:41 23.03.2020
6191 Clouds 2 1038 64 10000 6.2 190 09:19 23.03.2020
6192 Clouds 2 1039 64 10000 5.7 190 08:38 23.03.2020
6193 Clouds 1 1039 69 10000 6.7 200 08:20 23.03.2020
6194 Clouds 1 1039 64 10000 5.7 200 07:51 23.03.2020
6195 Clouds 1 1039 64 10000 5.7 200 07:33 23.03.2020
6196 Clouds 0 1039 66 10000 5.7 190 06:55 23.03.2020
6197 Clouds 0 1039 66 10000 5.7 190 06:33 23.03.2020
6198 Clouds -2 1039 74 10000 4.6 190 05:44 23.03.2020
6199 Clear -3 1039 73 10000 4.1 200 03:54 23.03.2020
6200 Clear -3 1039 73 10000 3.1 200 02:45 23.03.2020
6201 Clear -2 1039 68 10000 3.1 200 01:50 23.03.2020
6202 Clear -2 1039 68 10000 3.6 200 00:47 23.03.2020
6203 Clear -3 1039 68 10000 3.1 200 00:27 23.03.2020
6204 Clear -2 1039 68 10000 3.6 200 23:42 22.03.2020
6205 Clear -3 1039 68 10000 3.6 200 23:24 22.03.2020
6206 Clear -3 1039 68 10000 3.1 190 22:42 22.03.2020
6207 Clear -2 1039 63 10000 3.1 200 22:21 22.03.2020
6208 Clear -2 1039 63 10000 3.6 190 21:41 22.03.2020
6209 Clear -2 1039 63 10000 3.1 190 21:23 22.03.2020
6210 Clear -2 1039 63 10000 3.6 180 20:59 22.03.2020
6211 Clear -2 1039 63 10000 3.6 180 20:40 22.03.2020
6212 Clear -2 1039 58 10000 3.1 180 20:22 22.03.2020
6213 Clear -2 1039 58 10000 3.1 180 19:56 22.03.2020
6214 Clear -1 1039 58 10000 3.1 180 19:38 22.03.2020
6215 Clear -1 1039 58 10000 3.6 180 19:19 22.03.2020
6216 Clear -1 1039 58 10000 3.6 180 18:57 22.03.2020
6217 Clear -1 1039 58 10000 3.6 180 18:39 22.03.2020
6218 Clear -1 1039 54 10000 4.1 180 18:20 22.03.2020
6219 Clear -1 1039 54 10000 4.1 180 17:57 22.03.2020
6220 Clear 0 1039 47 10000 4.6 180 17:38 22.03.2020
6221 Clear 0 1039 45 10000 4.6 180 17:20 22.03.2020
6222 Clear 0 1039 45 10000 4.6 180 16:57 22.03.2020
6223 Clear 0 1039 45 10000 4.6 180 16:39 22.03.2020
6224 Clear 1 1039 40 10000 4.6 180 16:20 22.03.2020
6225 Clear 1 1040 40 10000 5.1 190 15:40 22.03.2020
6226 Clear 1 1040 34 10000 5.1 200 15:19 22.03.2020
6227 Clear 2 1040 37 10000 4.6 180 14:46 22.03.2020
6228 Clear 2 1040 37 10000 4.1 180 14:18 22.03.2020
6229 Clear 2 1040 37 10000 5.7 160 13:43 22.03.2020
6230 Clear 2 1040 24 10000 1 0 13:20 22.03.2020
6231 Clear 2 1040 27 10000 1 0 12:57 22.03.2020
6232 Clear 2 1040 27 10000 1 0 12:38 22.03.2020
6233 Clear 2 1040 27 10000 1.5 260 12:18 22.03.2020
6234 Clear 1 1040 29 10000 1.5 260 11:43 22.03.2020
6235 Clear 1 1040 27 10000 1 0 11:25 22.03.2020
6236 Clear 1 1041 29 10000 1 0 10:58 22.03.2020
6237 Clear 1 1041 29 10000 1 0 10:39 22.03.2020
6238 Clear 1 1041 29 10000 1 0 10:21 22.03.2020
6239 Clear 1 1041 51 10000 1 0 09:43 22.03.2020
6240 Clear 1 1041 51 10000 1 0 09:43 22.03.2020
6241 Clear 0 1041 51 10000 1.5 160 09:24 22.03.2020
6242 Rain 0 1041 46 10000 0.5 0 08:48 22.03.2020
6243 Rain 0 1041 46 10000 0.5 0 08:48 22.03.2020
6244 Clear -2 1040 53 10000 1 0 08:29 22.03.2020
6245 Clear -3 1040 58 10000 3.29 49 07:53 22.03.2020
6246 Clear -4 1040 67 10000 1 310 07:32 22.03.2020
6247 Clear -6 1040 85 10000 1 330 06:40 22.03.2020
6248 Clear -10 1039 92 10000 2.1 350 05:37 22.03.2020
6249 Clear -6 1038 67 10000 2.1 10 03:47 22.03.2020
6250 Clear -5 1037 67 10000 2.1 360 01:35 22.03.2020
6251 Clear -5 1037 73 10000 2.6 340 00:49 22.03.2020
6252 Clear -5 1037 73 10000 2.6 340 00:29 22.03.2020
6253 Clear -5 1036 73 10000 3.1 340 23:44 21.03.2020
6254 Clear -4 1036 67 10000 2.1 340 23:21 21.03.2020
6255 Clear -4 1036 73 10000 2.6 340 22:58 21.03.2020
6256 Clear -4 1036 73 10000 2.6 340 22:37 21.03.2020
6257 Clear -4 1035 67 10000 3.1 340 22:18 21.03.2020
6258 Clear -4 1035 67 10000 3.1 340 21:56 21.03.2020
6259 Clear -3 1035 50 10000 3.1 350 21:37 21.03.2020
6260 Clear -3 1035 50 10000 3.1 340 21:18 21.03.2020
6261 Clear -3 1034 58 10000 3.1 340 20:41 21.03.2020
6262 Clouds -3 1034 50 10000 2.6 350 20:20 21.03.2020
6263 Clouds -2 1034 58 10000 2.6 340 19:45 21.03.2020
6264 Clouds -2 1033 54 10000 2.6 340 19:25 21.03.2020
6265 Clouds -2 1033 62 10000 2.6 10 18:59 21.03.2020
6266 Clouds -1 1033 62 10000 2.6 10 18:40 21.03.2020
6267 Clouds -1 1032 62 10000 3.1 20 18:20 21.03.2020
6268 Clouds 0 1032 34 10000 3.1 20 17:57 21.03.2020
6269 Clouds 0 1032 34 10000 3.1 20 17:39 21.03.2020
6270 Clouds 1 1031 34 10000 4.1 20 17:21 21.03.2020
6271 Clouds 1 1031 40 10000 5.1 40 16:41 21.03.2020
6272 Clouds 1 1031 47 10000 6.2 360 16:22 21.03.2020
6273 Clouds 1 1025 49 0 0.5 329 15:57 21.03.2020
6274 Clouds 1 1030 40 10000 6.2 350 15:39 21.03.2020
6275 Clouds 1 1030 40 10000 6.2 350 15:39 21.03.2020
6276 Rain 1 1030 47 10000 3.6 30 15:20 21.03.2020
6277 Rain 1 1030 47 10000 3.6 30 14:55 21.03.2020
6278 Rain 1 1030 59 10000 4.1 30 14:37 21.03.2020
6279 Rain 1 1029 47 10000 5.7 20 14:18 21.03.2020
6280 Clouds 1 1029 50 10000 3.1 20 13:57 21.03.2020
6281 Clouds 1 1029 50 10000 3.1 20 13:38 21.03.2020
6282 Rain 0 1029 59 10000 1 0 13:19 21.03.2020
6283 Snow 0 1029 74 2000 4.6 30 12:41 21.03.2020
6284 Rain 0 1028 62 10000 4.1 340 12:20 21.03.2020
6285 Clouds 0 1028 80 1500 6.2 340 11:59 21.03.2020
6286 Clouds 0 1028 80 1500 6.2 340 11:39 21.03.2020
6287 Clouds 0 1028 80 1500 6.2 340 11:39 21.03.2020
6288 Clouds 1 1027 73 10000 4.6 330 11:20 21.03.2020
6289 Clouds 0 1027 69 10000 2.6 310 10:58 21.03.2020
6290 Clouds 0 1027 69 10000 2.6 310 10:39 21.03.2020
6291 Clouds 0 1027 80 10000 2.6 300 10:21 21.03.2020
6292 Clouds -1 1027 80 10000 2.1 270 09:58 21.03.2020
6293 Snow -1 1027 80 10000 2.1 270 09:38 21.03.2020
6294 Snow -1 1027 79 7000 2.1 320 09:20 21.03.2020
6295 Snow -2 1027 79 7000 2.1 320 08:55 21.03.2020
6296 Snow -2 1026 79 7000 2.1 260 08:37 21.03.2020
6297 Snow -3 1026 86 8000 2.1 270 08:18 21.03.2020
6298 Clouds -4 1026 73 5000 1 0 07:32 21.03.2020
6299 Clouds -5 1026 79 10000 1.5 230 06:49 21.03.2020
6300 Clouds -5 1026 79 10000 1.5 230 06:29 21.03.2020
6301 Clouds -5 1026 73 10000 1 0 05:50 21.03.2020
6302 Clouds -6 1026 73 10000 1.5 270 05:23 21.03.2020
6303 Clear -6 1026 73 10000 0.5 0 03:32 21.03.2020
6304 Clear -6 1026 73 10000 1.5 280 02:35 21.03.2020
6305 Clear -6 1026 67 10000 1.5 290 01:40 21.03.2020
6306 Clear -5 1026 73 10000 2.1 290 01:20 21.03.2020
6307 Clear -5 1026 67 10000 2.1 300 00:38 21.03.2020
6308 Clear -4 1026 67 10000 2.1 330 23:59 20.03.2020
6309 Clear -5 1026 67 10000 2.1 330 23:40 20.03.2020
6310 Clear -4 1026 62 10000 2.6 330 23:18 20.03.2020
6311 Clear -4 1025 67 10000 3.1 320 22:42 20.03.2020
6312 Clear -4 1025 62 10000 2.1 330 22:24 20.03.2020
6313 Clear -4 1025 62 10000 2.1 330 21:57 20.03.2020
6314 Clear -3 1025 49 10000 2.6 350 21:39 20.03.2020
6315 Clear -3 1025 45 10000 3.1 350 21:19 20.03.2020
6316 Clear -3 1024 49 10000 3.1 350 20:57 20.03.2020
6317 Clouds -3 1024 49 10000 3.1 350 20:39 20.03.2020
6318 Clouds -3 1024 53 10000 2.6 350 20:18 20.03.2020
6319 Clouds -2 1024 50 10000 2.1 350 19:46 20.03.2020
6320 Clouds -2 1024 50 10000 3.1 10 19:19 20.03.2020
6321 Clouds -2 1023 50 10000 2.6 10 18:56 20.03.2020
6322 Clouds -1 1023 50 10000 2.6 10 18:37 20.03.2020
6323 Clouds -1 1023 46 10000 4.1 340 18:19 20.03.2020
6324 Clouds 0 1022 57 10000 4.1 330 17:40 20.03.2020
6325 Clouds 0 1022 37 10000 4.1 340 17:22 20.03.2020
6326 Clouds 1 1022 37 10000 4.6 340 16:59 20.03.2020
6327 Clouds 1 1022 37 10000 4.6 340 16:41 20.03.2020
6328 Clouds 1 1022 37 10000 5.1 350 16:20 20.03.2020
6329 Clouds 2 1022 34 10000 5.7 340 15:43 20.03.2020
6330 Clouds 2 1021 40 10000 3.6 350 15:22 20.03.2020
6331 Clouds 2 1021 40 10000 3.6 350 14:57 20.03.2020
6332 Clouds 2 1021 40 10000 3.6 350 14:38 20.03.2020
6333 Clouds 2 1021 43 10000 5.1 360 14:19 20.03.2020
6334 Clouds 2 1021 37 10000 4.1 20 13:46 20.03.2020
6335 Clouds 2 1021 40 10000 4.6 10 13:20 20.03.2020
6336 Clouds 2 1021 40 10000 4.6 340 12:54 20.03.2020
6337 Clouds 2 1021 40 10000 4.6 340 12:36 20.03.2020
6338 Clouds 2 1021 47 10000 4.1 360 12:18 20.03.2020
6339 Clouds 2 1020 50 10000 5.1 350 11:39 20.03.2020
6340 Clouds 2 1020 50 10000 4.6 360 11:20 20.03.2020
6341 Clouds 2 1020 47 10000 4.1 340 10:54 20.03.2020
6342 Clouds 2 1020 47 10000 4.1 340 10:36 20.03.2020
6343 Clouds 2 1020 51 10000 5.1 360 10:18 20.03.2020
6344 Clouds 1 1020 55 10000 5.1 360 09:43 20.03.2020
6345 Clouds 1 1019 55 10000 5.7 10 09:20 20.03.2020
6346 Clouds 1 1019 59 10000 6.2 10 08:43 20.03.2020
6347 Clouds 1 1019 81 10000 5.1 360 08:22 20.03.2020
6348 Clouds 1 1019 81 10000 5.1 360 07:57 20.03.2020
6349 Clouds 0 1018 81 10000 5.1 360 07:38 20.03.2020
6350 Clouds 0 1018 80 10000 3.6 350 07:19 20.03.2020
6351 Clouds 0 1018 81 10000 4.1 350 06:42 20.03.2020
6352 Snow 0 1016 100 10000 3.1 310 04:57 20.03.2020
6353 Snow 0 1016 100 10000 3.1 310 04:27 20.03.2020
6354 Clouds -1 1015 86 10000 2.6 260 02:27 20.03.2020
6355 Clouds -1 1015 86 10000 3.1 260 01:47 20.03.2020
6356 Clouds 0 1015 78 10000 2.6 270 00:33 20.03.2020
6357 Clear 0 1014 80 10000 4.6 260 23:55 19.03.2020
6358 Clear 0 1014 80 10000 3.6 260 23:36 19.03.2020
6359 Clear 1 1014 80 10000 3.6 260 23:18 19.03.2020
6360 Clear 1 1014 80 10000 3.6 260 22:38 19.03.2020
6361 Clear 1 1013 80 10000 3.6 260 22:20 19.03.2020
6362 Clear 2 1013 80 10000 3.6 260 21:56 19.03.2020
6363 Clouds 2 1013 74 10000 3.1 260 21:38 19.03.2020
6364 Clouds 2 1013 74 10000 3.6 270 21:18 19.03.2020
6365 Clouds 3 1012 69 10000 4.6 280 20:42 19.03.2020
6366 Clouds 3 1012 69 10000 4.6 290 20:23 19.03.2020
6367 Clouds 4 1012 69 10000 5.7 290 19:57 19.03.2020
6368 Clouds 4 1012 69 10000 6.7 280 19:38 19.03.2020
6369 Clouds 4 1012 69 10000 6.7 280 19:20 19.03.2020
6370 Clouds 4 1011 69 10000 6.2 290 18:56 19.03.2020
6371 Clouds 4 1011 69 10000 6.2 290 18:56 19.03.2020
6372 Clouds 4 1011 69 10000 6.2 290 18:38 19.03.2020
6373 Clouds 4 1011 69 10000 6.2 290 18:38 19.03.2020
6374 Clouds 5 1011 65 10000 7.7 280 18:19 19.03.2020
6375 Clouds 5 1010 65 10000 6.2 290 17:42 19.03.2020
6376 Clouds 5 1010 60 10000 7.7 280 17:19 19.03.2020
6377 Clouds 5 1010 60 10000 7.7 280 17:19 19.03.2020
6378 Rain 6 1010 60 10000 7.7 280 16:45 19.03.2020
6379 Rain 6 1010 60 10000 7.7 280 16:45 19.03.2020
6380 Rain 6 1009 60 10000 5.7 280 16:25 19.03.2020
6381 Rain 6 1009 56 10000 6.7 270 15:55 19.03.2020
6382 Rain 6 1009 56 10000 6.7 270 15:36 19.03.2020
6383 Clear 6 1009 48 10000 6.2 260 15:18 19.03.2020
6384 Clear 7 1009 45 10000 7.2 250 14:43 19.03.2020
6385 Clouds 7 1008 45 10000 7.2 260 14:21 19.03.2020
6386 Clouds 7 1008 45 10000 7.7 250 13:41 19.03.2020
6387 Clouds 7 1008 52 10000 6.2 270 13:20 19.03.2020
6388 Clouds 7 1008 52 10000 7.2 270 12:58 19.03.2020
6389 Clouds 7 1008 52 10000 5.7 270 12:40 19.03.2020
6390 Clouds 7 1008 52 10000 5.7 270 12:21 19.03.2020
6391 Clouds 7 1008 56 10000 5.7 250 11:43 19.03.2020
6392 Clouds 7 1008 81 10000 4.6 240 11:24 19.03.2020
6393 Clear 6 1008 60 10000 4.6 270 10:57 19.03.2020
6394 Clear 6 1008 60 10000 4.6 270 10:38 19.03.2020
6395 Clear 5 1007 81 10000 5.1 270 10:19 19.03.2020
6396 Clear 4 1007 81 10000 4.1 270 09:45 19.03.2020
6397 Clouds 4 1007 81 10000 5.1 270 09:27 19.03.2020
6398 Clear 4 1007 81 10000 4.1 250 08:59 19.03.2020
6399 Clear 3 1007 81 10000 4.1 250 08:41 19.03.2020
6400 Clear 3 1007 82 10000 4.1 250 08:19 19.03.2020
6401 Clouds 2 1006 83 10000 4.1 250 07:44 19.03.2020
6402 Clouds 2 1006 83 10000 3.6 230 07:23 19.03.2020
6403 Clouds 1 1006 83 10000 2.6 240 06:34 19.03.2020
6404 Clouds 1 1006 83 10000 3.1 240 05:47 19.03.2020
6405 Clouds 1 1006 90 10000 3.6 260 04:53 19.03.2020
6406 Clouds 1 1006 90 10000 3.6 240 04:34 19.03.2020
6407 Clouds 2 1006 90 10000 4.6 270 02:34 19.03.2020
6408 Clouds 2 1004 86 10000 7.2 290 00:57 19.03.2020
6409 Rain 2 1003 93 10000 7.7 280 00:21 19.03.2020
6410 Rain 3 1002 93 9000 5.1 260 23:46 18.03.2020
6411 Rain 3 1002 100 10000 3.1 250 23:27 18.03.2020
6412 Rain 3 1002 93 10000 3.6 260 22:44 18.03.2020
6413 Clouds 3 1002 93 10000 2.6 250 22:24 18.03.2020
6414 Clouds 3 1002 93 10000 2.6 250 21:59 18.03.2020
6415 Clouds 3 1002 93 10000 3.6 250 21:41 18.03.2020
6416 Clouds 3 1002 100 10000 3.1 260 21:21 18.03.2020
6417 Rain 3 1002 100 10000 3.1 260 20:57 18.03.2020
6418 Rain 4 1002 93 10000 3.6 250 20:38 18.03.2020
6419 Clouds 4 1002 93 10000 3.1 260 20:19 18.03.2020
6420 Clouds 4 1002 93 10000 3.1 260 19:55 18.03.2020
6421 Clouds 4 1001 93 10000 2.6 260 19:36 18.03.2020
6422 Rain 4 1001 93 10000 2.6 250 19:18 18.03.2020
6423 Rain 4 1001 93 10000 2.1 260 18:41 18.03.2020
6424 Rain 4 1001 93 10000 2.1 230 18:20 18.03.2020
6425 Rain 4 1001 93 10000 2.6 230 17:57 18.03.2020
6426 Rain 4 1001 93 10000 2.6 230 17:39 18.03.2020
6427 Rain 4 1001 93 10000 2.6 230 17:20 18.03.2020
6428 Rain 4 1002 93 10000 4.1 210 16:54 18.03.2020
6429 Rain 4 1002 93 10000 4.1 210 16:36 18.03.2020
6430 Rain 4 1002 93 10000 4.6 210 16:18 18.03.2020
6431 Rain 5 1002 86 10000 5.1 210 15:44 18.03.2020
6432 Rain 5 1003 93 10000 5.7 210 15:20 18.03.2020
6433 Rain 5 1003 86 10000 6.2 220 14:44 18.03.2020
6434 Rain 6 1004 81 10000 5.7 220 14:21 18.03.2020
6435 Rain 6 1004 81 10000 7.2 220 13:42 18.03.2020
6436 Clouds 6 1005 87 10000 6.7 210 13:20 18.03.2020
6437 Clouds 6 1005 87 10000 6.2 200 12:58 18.03.2020
6438 Clouds 6 1005 87 10000 6.2 200 12:39 18.03.2020
6439 Rain 6 1006 87 10000 6.2 200 12:19 18.03.2020
6440 Rain 6 1006 81 10000 6.7 220 11:39 18.03.2020
6441 Clouds 6 1006 75 10000 5.7 220 11:20 18.03.2020
6442 Clouds 6 1007 81 10000 6.2 220 10:58 18.03.2020
6443 Clouds 6 1007 81 10000 6.2 220 10:38 18.03.2020
6444 Clouds 6 1007 81 10000 5.1 230 10:19 18.03.2020
6445 Clouds 6 1007 75 10000 5.7 220 09:43 18.03.2020
6446 Clouds 6 1007 81 10000 5.1 230 09:25 18.03.2020
6447 Clouds 6 1008 81 10000 5.1 230 08:56 18.03.2020
6448 Clouds 6 1008 81 10000 5.1 230 08:38 18.03.2020
6449 Clouds 5 1008 86 10000 4.6 230 08:20 18.03.2020
6450 Clouds 5 1008 86 10000 4.6 240 07:44 18.03.2020
6451 Clouds 5 1008 86 10000 4.6 230 07:26 18.03.2020
6452 Clouds 5 1008 86 10000 4.6 220 06:44 18.03.2020
6453 Clouds 5 1008 86 10000 4.1 230 06:20 18.03.2020
6454 Clouds 5 1009 86 10000 4.6 230 05:34 18.03.2020
6455 Clouds 4 1009 93 10000 5.1 220 04:24 18.03.2020
6456 Clouds 4 1010 93 10000 4.6 200 02:43 18.03.2020
6457 Clouds 4 1010 93 10000 5.1 200 01:48 18.03.2020
6458 Clouds 4 1010 93 10000 5.1 210 01:26 18.03.2020
6459 Clouds 4 1011 86 10000 4.6 220 00:24 18.03.2020
6460 Clouds 4 1011 86 10000 4.6 210 23:47 17.03.2020
6461 Clouds 4 1011 86 10000 4.6 210 23:47 17.03.2020
6462 Clouds 4 1011 93 10000 5.7 210 23:26 17.03.2020
6463 Clouds 4 1011 86 10000 6.2 210 22:48 17.03.2020
6464 Clouds 4 1011 86 10000 5.7 210 22:29 17.03.2020
6465 Clouds 4 1011 86 10000 5.7 210 21:59 17.03.2020
6466 Clouds 4 1011 86 10000 6.7 210 21:39 17.03.2020
6467 Clouds 4 1011 86 10000 7.2 210 21:21 17.03.2020
6468 Clouds 4 1011 86 10000 7.2 210 21:20 17.03.2020
6469 Clouds 4 1011 86 10000 6.7 210 20:39 17.03.2020
6470 Clouds 4 1011 86 10000 6.7 210 20:39 17.03.2020
6471 Rain 4 1011 86 10000 6.7 220 20:21 17.03.2020
6472 Rain 4 1011 86 10000 6.7 220 19:56 17.03.2020
6473 Rain 4 1011 86 10000 6.7 220 19:38 17.03.2020
6474 Rain 4 1011 86 10000 6.7 220 19:18 17.03.2020
6475 Rain 4 1011 86 10000 6.2 220 18:55 17.03.2020
6476 Rain 4 1011 86 10000 6.2 220 18:37 17.03.2020
6477 Clouds 4 1011 86 10000 6.7 220 18:19 17.03.2020
6478 Clouds 4 1011 86 10000 6.7 220 17:40 17.03.2020
6479 Clouds 4 1011 86 10000 7.7 220 17:21 17.03.2020
6480 Clouds 4 1011 86 10000 10.3 210 16:45 17.03.2020
6481 Rain 4 1012 86 10000 8.7 210 16:20 17.03.2020
6482 Rain 4 1012 86 10000 8.7 210 15:58 17.03.2020
6483 Clouds 4 1013 86 10000 8.7 210 15:39 17.03.2020
6484 Drizzle 3 1013 93 7000 8.7 200 15:18 17.03.2020
6485 Drizzle 3 1013 86 10000 9.3 210 14:41 17.03.2020
6486 Clouds 3 1014 90 10000 10.3 210 14:21 17.03.2020
6487 Clouds 3 1014 75 10000 10.3 210 14:21 17.03.2020
6488 Clouds 3 1014 75 10000 9.3 210 13:43 17.03.2020
6489 Clouds 3 1015 74 10000 7.2 190 13:25 17.03.2020
6490 Snow 3 1015 69 10000 8.7 190 12:54 17.03.2020
6491 Snow 3 1015 69 10000 8.7 190 12:36 17.03.2020
6492 Snow 3 1016 69 10000 8.2 190 12:18 17.03.2020
6493 Clouds 3 1016 69 10000 8.2 190 11:42 17.03.2020
6494 Clouds 3 1016 64 10000 8.7 190 11:24 17.03.2020
6495 Clouds 3 1017 64 10000 8.7 190 10:57 17.03.2020
6496 Clouds 3 1017 64 10000 8.7 190 10:57 17.03.2020
6497 Clouds 3 1017 64 10000 8.7 190 10:37 17.03.2020
6498 Clouds 3 1017 64 10000 8.7 190 10:18 17.03.2020
6499 Clouds 3 1018 64 10000 7.2 190 09:46 17.03.2020
6500 Clouds 2 1019 69 10000 6.2 190 09:20 17.03.2020
6501 Clouds 2 1019 74 10000 4.1 170 08:59 17.03.2020
6502 Clouds 1 1019 74 10000 4.1 170 08:41 17.03.2020
6503 Clouds 0 1019 73 10000 3.6 150 08:20 17.03.2020
6504 Clouds -1 1019 86 10000 3.6 150 07:49 17.03.2020
6505 Clouds -2 1019 86 10000 3.6 140 07:21 17.03.2020
6506 Clouds -2 1019 92 10000 3.6 140 06:52 17.03.2020
6507 Clouds -4 1019 92 10000 1.5 100 06:25 17.03.2020
6508 Clouds -5 1020 92 10000 0.5 280 05:34 17.03.2020
6509 Clear -4 1019 92 10000 1.5 120 03:34 17.03.2020
6510 Clear -4 1019 85 10000 1 230 02:31 17.03.2020
6511 Clear -3 1019 79 10000 1 300 01:38 17.03.2020
6512 Clear -3 1019 85 10000 1.5 340 00:53 17.03.2020
6513 Clear -3 1018 79 10000 0.5 340 00:18 17.03.2020
6514 Clear -3 1018 85 10000 2.1 320 23:35 16.03.2020
6515 Clear -2 1017 74 10000 3.1 340 22:58 16.03.2020
6516 Clear -2 1017 74 10000 3.1 340 22:38 16.03.2020
6517 Clear -2 1017 74 10000 3.1 330 22:19 16.03.2020
6518 Clear -1 1017 68 10000 3.6 340 21:44 16.03.2020
6519 Clear -1 1017 68 10000 3.6 340 21:25 16.03.2020
6520 Clear -1 1016 79 10000 2.6 330 20:59 16.03.2020
6521 Clear -1 1015 86 10000 2.6 330 20:39 16.03.2020
6522 Clouds -1 1015 74 10000 2.6 340 20:20 16.03.2020
6523 Clouds 0 1014 72 10000 3.1 330 19:46 16.03.2020
6524 Clouds 0 1014 72 10000 2.1 330 19:23 16.03.2020
6525 Clouds 0 1013 64 10000 2.6 340 18:57 16.03.2020
6526 Clouds 1 1013 64 10000 2.6 340 18:39 16.03.2020
6527 Clouds 1 1012 55 10000 3.1 340 18:19 16.03.2020
6528 Clouds 2 1011 47 10000 4.1 340 17:46 16.03.2020
6529 Clouds 3 1011 48 10000 5.7 340 17:25 16.03.2020
6530 Clouds 4 1010 52 10000 4.6 340 16:54 16.03.2020
6531 Clouds 4 1010 52 10000 4.6 340 16:36 16.03.2020
6532 Clouds 4 1010 52 10000 4.6 340 16:18 16.03.2020
6533 Clouds 5 1009 52 10000 5.1 340 15:42 16.03.2020
6534 Clouds 5 1009 56 10000 5.7 330 15:22 16.03.2020
6535 Clouds 5 1008 60 10000 5.1 330 14:45 16.03.2020
6536 Clouds 5 1007 75 10000 4.1 310 14:20 16.03.2020
6537 Clouds 5 1007 91 10000 3.1 290 13:47 16.03.2020
6538 Clouds 5 1007 91 10000 3.1 290 13:27 16.03.2020
6539 Clouds 5 1006 80 10000 4.1 290 12:57 16.03.2020
6540 Clouds 5 1006 80 10000 4.1 290 12:38 16.03.2020
6541 Clouds 5 1006 86 10000 4.6 290 12:19 16.03.2020
6542 Clouds 4 1006 93 10000 3.1 260 11:42 16.03.2020
6543 Clouds 4 1005 93 10000 3.6 230 11:23 16.03.2020
6544 Drizzle 4 1005 100 10000 4.6 230 10:43 16.03.2020
6545 Clouds 4 1005 93 10000 5.1 220 10:24 16.03.2020
6546 Rain 4 1004 100 10000 5.1 220 09:49 16.03.2020
6547 Rain 4 1004 100 10000 5.1 220 09:30 16.03.2020
6548 Rain 4 1004 100 10000 6.2 220 08:59 16.03.2020
6549 Rain 4 1004 100 10000 6.2 220 08:36 16.03.2020
6550 Rain 4 1003 93 10000 6.2 220 08:18 16.03.2020
6551 Rain 4 1003 93 10000 7.2 220 07:40 16.03.2020
6552 Rain 4 1003 93 10000 7.7 220 07:18 16.03.2020
6553 Rain 4 1003 93 10000 8.7 220 06:28 16.03.2020
6554 Rain 4 1003 86 10000 9.3 210 05:54 16.03.2020
6555 Rain 3 1003 93 10000 10.8 210 03:36 16.03.2020
6556 Clouds 3 1004 86 10000 10.8 200 01:29 16.03.2020
6557 Rain 3 1005 86 10000 10.3 200 00:43 16.03.2020
6558 Snow 2 1006 89 10000 10.8 200 23:49 15.03.2020
6559 Clouds 2 1006 89 10000 11.8 200 23:23 15.03.2020
6560 Clouds 2 1006 78 10000 11.8 200 22:58 15.03.2020
6561 Clouds 2 1006 78 10000 11.8 200 22:38 15.03.2020
6562 Clouds 2 1007 78 10000 11.8 200 22:19 15.03.2020
6563 Snow 2 1007 78 10000 12.3 200 21:39 15.03.2020
6564 Snow 2 1008 80 10000 11.8 200 21:19 15.03.2020
6565 Snow 2 1008 64 10000 12.3 200 20:44 15.03.2020
6566 Clouds 3 1009 59 10000 12.3 200 20:22 15.03.2020
6567 Clouds 3 1009 59 10000 12.3 200 19:59 15.03.2020
6568 Clouds 3 1009 59 10000 11.8 190 19:40 15.03.2020
6569 Clouds 3 1009 59 10000 10.8 190 19:22 15.03.2020
6570 Clouds 3 1010 64 10000 11.3 200 18:58 15.03.2020
6571 Clouds 3 1010 64 10000 11.3 200 18:39 15.03.2020
6572 Clouds 3 1010 64 10000 10.8 190 18:21 15.03.2020
6573 Clouds 3 1011 55 10000 9.3 200 17:54 15.03.2020
6574 Clouds 3 1011 55 10000 9.3 200 17:36 15.03.2020
6575 Clouds 3 1011 59 10000 9.8 200 17:18 15.03.2020
6576 Clouds 3 1012 64 10000 12.3 210 16:42 15.03.2020
6577 Clouds 3 1012 55 10000 10.8 210 16:23 15.03.2020
6578 Clouds 4 1012 55 10000 10.8 210 15:57 15.03.2020
6579 Clouds 4 1013 60 10000 9.8 210 15:38 15.03.2020
6580 Clouds 4 1013 60 10000 10.8 210 15:19 15.03.2020
6581 Clouds 4 1013 60 10000 12.3 220 14:43 15.03.2020
6582 Clouds 4 1013 60 10000 14.4 220 14:24 15.03.2020
6583 Clouds 4 1014 60 10000 13.4 210 13:57 15.03.2020
6584 Clouds 4 1014 60 10000 13.4 210 13:38 15.03.2020
6585 Clouds 4 1014 60 10000 10.3 210 13:19 15.03.2020
6586 Clouds 4 1014 56 10000 10.8 210 12:41 15.03.2020
6587 Clouds 4 1015 60 10000 10.8 220 12:23 15.03.2020
6588 Clouds 4 1015 56 10000 9.8 220 11:45 15.03.2020
6589 Clouds 4 1014 55 10000 10.8 210 11:26 15.03.2020
6590 Clouds 4 1014 55 10000 10.8 210 10:59 15.03.2020
6591 Clouds 4 1015 55 10000 9.8 220 10:41 15.03.2020
6592 Clouds 4 1015 59 10000 10.3 220 10:22 15.03.2020
6593 Clouds 4 1015 59 10000 10.3 220 10:22 15.03.2020
6594 Clouds 3 1015 59 10000 10.3 220 09:59 15.03.2020
6595 Clouds 3 1015 59 10000 9.8 210 09:39 15.03.2020
6596 Clouds 3 1016 59 10000 8.7 210 09:20 15.03.2020
6597 Clouds 2 1016 59 10000 6.7 200 08:41 15.03.2020
6598 Clear 1 1016 64 10000 5.7 200 08:20 15.03.2020
6599 Clear 0 1016 68 10000 5.1 200 07:50 15.03.2020
6600 Clear -1 1017 74 10000 5.1 200 07:23 15.03.2020
6601 Clear -2 1017 74 10000 4.6 200 06:44 15.03.2020
6602 Clear -3 1017 79 10000 4.1 180 05:49 15.03.2020
6603 Clear -5 1018 79 10000 3.1 190 04:57 15.03.2020
6604 Clear -5 1018 79 10000 3.1 190 04:39 15.03.2020
6605 Clear -5 1018 85 10000 2.6 190 04:20 15.03.2020
6606 Clear -5 1019 85 10000 1.5 210 03:19 15.03.2020
6607 Clouds -5 1019 79 10000 2.1 240 02:23 15.03.2020
6608 Clouds -6 1019 85 10000 2.6 250 00:59 15.03.2020
6609 Clouds -5 1019 85 10000 2.6 250 00:40 15.03.2020
6610 Clouds -5 1019 79 10000 3.1 260 00:19 15.03.2020
6611 Clouds -5 1019 79 10000 3.1 270 23:39 14.03.2020
6612 Clouds -5 1018 79 10000 3.6 270 23:20 14.03.2020
6613 Clouds -4 1018 68 10000 3.6 260 22:56 14.03.2020
6614 Clouds -4 1018 68 10000 3.6 260 22:37 14.03.2020
6615 Clouds -4 1018 68 10000 3.6 260 22:37 14.03.2020
6616 Clouds -4 1018 68 10000 3.6 280 22:19 14.03.2020
6617 Clouds -4 1017 68 10000 4.1 280 21:55 14.03.2020
6618 Clouds -4 1017 68 10000 4.1 280 21:36 14.03.2020
6619 Clouds -4 1017 58 10000 4.1 290 21:18 14.03.2020
6620 Clouds -3 1017 58 10000 4.1 290 20:56 14.03.2020
6621 Clouds -3 1017 53 10000 3.6 290 20:56 14.03.2020
6622 Clouds -3 1017 53 10000 3.6 290 20:38 14.03.2020
6623 Clouds -3 1016 49 10000 4.1 300 20:18 14.03.2020
6624 Clouds -3 1016 49 10000 4.6 300 19:41 14.03.2020
6625 Clouds -2 1015 46 10000 4.1 310 19:20 14.03.2020
6626 Clouds -2 1015 46 10000 4.6 310 18:40 14.03.2020
6627 Clouds -2 1014 42 10000 6.2 320 18:20 14.03.2020
6628 Clouds -1 1014 39 10000 7.2 320 17:43 14.03.2020
6629 Rain -1 1013 39 10000 7.2 330 17:24 14.03.2020
6630 Rain -1 1013 44 10000 7.7 320 16:59 14.03.2020
6631 Rain 0 1013 44 10000 7.7 320 16:38 14.03.2020
6632 Rain 0 1013 44 10000 7.7 330 16:19 14.03.2020
6633 Rain 0 1012 44 10000 8.7 330 15:46 14.03.2020
6634 Rain 0 1012 44 10000 7.7 340 15:22 14.03.2020
6635 Rain 0 1012 44 10000 8.7 310 14:43 14.03.2020
6636 Rain 0 1011 40 10000 8.7 320 14:21 14.03.2020
6637 Rain 0 1011 42 10000 7.7 310 13:57 14.03.2020
6638 Rain 0 1011 42 10000 7.7 310 13:38 14.03.2020
6639 Clouds 0 1011 42 10000 8.7 320 13:20 14.03.2020
6640 Clouds -1 1011 42 10000 8.2 320 12:44 14.03.2020
6641 Clouds -1 1010 39 10000 7.7 310 12:26 14.03.2020
6642 Clouds -1 1010 42 10000 7.7 310 11:46 14.03.2020
6643 Clouds -1 1010 46 10000 7.2 320 11:26 14.03.2020
6644 Clouds -1 1009 46 10000 8.2 310 10:57 14.03.2020
6645 Clouds -2 1009 46 10000 8.2 310 10:38 14.03.2020
6646 Clouds -2 1009 50 10000 7.2 310 10:20 14.03.2020
6647 Clouds -2 1009 53 10000 9.3 310 09:41 14.03.2020
6648 Clouds -3 1008 53 10000 7.7 300 09:22 14.03.2020
6649 Clouds -3 1008 53 10000 7.7 300 09:22 14.03.2020
6650 Clouds -3 1008 62 10000 6.7 310 08:47 14.03.2020
6651 Clouds -3 1008 62 10000 6.7 310 08:27 14.03.2020
6652 Clouds -4 1007 73 10000 6.2 320 07:48 14.03.2020
6653 Clouds -5 1007 79 10000 4.6 320 07:23 14.03.2020
6654 Clouds -5 1007 79 10000 4.6 320 06:59 14.03.2020
6655 Clouds -5 1006 79 10000 4.6 310 06:39 14.03.2020
6656 Clouds -5 1004 85 10000 3.1 300 04:57 14.03.2020
6657 Clouds -5 1003 79 10000 3.1 320 03:40 14.03.2020
6658 Clouds -5 1003 79 10000 3.1 300 02:53 14.03.2020
6659 Clouds -5 1002 73 10000 3.1 320 01:50 14.03.2020
6660 Clouds -4 1001 73 10000 3.1 310 00:36 14.03.2020
6661 Clouds -3 1001 63 10000 4.1 340 23:44 13.03.2020
6662 Clouds -3 1000 63 10000 4.1 340 23:24 13.03.2020
6663 Clouds -3 1000 68 10000 5.1 330 22:46 13.03.2020
6664 Clouds -3 999 63 10000 6.2 330 22:24 13.03.2020
6665 Clouds -2 999 68 10000 6.2 330 21:42 13.03.2020
6666 Clouds -2 998 68 10000 7.7 330 21:21 13.03.2020
6667 Clouds -2 997 58 10000 6.7 310 20:56 13.03.2020
6668 Clouds -2 997 58 10000 6.7 310 20:37 13.03.2020
6669 Clouds -1 997 58 10000 6.2 290 20:18 13.03.2020
6670 Clouds -1 996 58 10000 5.7 290 19:42 13.03.2020
6671 Clouds -1 996 58 10000 5.7 290 19:23 13.03.2020
6672 Clouds -1 995 63 10000 6.2 280 18:44 13.03.2020
6673 Clouds 0 995 59 10000 6.7 280 18:25 13.03.2020
6674 Clouds 0 994 59 10000 7.2 280 17:43 13.03.2020
6675 Clouds 0 994 50 10000 7.7 290 17:22 13.03.2020
6676 Clouds 1 994 50 10000 7.7 290 16:59 13.03.2020
6677 Clouds 1 994 50 10000 7.7 290 16:39 13.03.2020
6678 Clouds 1 993 50 10000 9.3 290 16:21 13.03.2020
6679 Clouds 2 993 50 10000 8.2 290 15:46 13.03.2020
6680 Clouds 2 992 55 10000 8.2 290 15:24 13.03.2020
6681 Clouds 2 992 55 10000 8.2 290 14:59 13.03.2020
6682 Clouds 2 992 55 10000 8.2 290 14:40 13.03.2020
6683 Clouds 2 991 59 10000 7.7 290 14:22 13.03.2020
6684 Clouds 2 991 59 10000 8.2 290 13:55 13.03.2020
6685 Clouds 2 991 59 10000 8.2 290 13:36 13.03.2020
6686 Rain 2 990 64 10000 8.7 300 13:18 13.03.2020
6687 Rain 2 989 69 10000 7.7 300 12:39 13.03.2020
6688 Rain 2 989 69 10000 7.7 300 12:39 13.03.2020
6689 Rain 3 989 69 10000 8.7 280 12:20 13.03.2020
6690 Rain 3 988 74 10000 8.7 290 11:57 13.03.2020
6691 Rain 2 988 74 10000 8.7 290 11:37 13.03.2020
6692 Clouds 2 987 83 10000 7.2 290 11:19 13.03.2020
6693 Rain 3 987 83 10000 7.2 290 10:47 13.03.2020
6694 Clouds 3